<?xml version="1.0" encoding="UTF-8" standalone="no" ?>
<gpx xmlns="http://www.topografix.com/GPX/1/1" xmlns:xsi="http://www.w3.org/2001/XMLSchema-instance" xsi:schemaLocation="http://www.topografix.com/GPX/1/1 http://www.topografix.com/GPX/1/1/gpx.xsd" version="1.1" creator="VisuGPX - https://www.visugpx.com">
  <metadata>
    <name>2018-05-06 Bike ride-Val d-Azergues 31km</name>
    <desc><![CDATA[2018-05-06 Bike ride-Val d-Azergues 31km]]></desc>
  </metadata>
  <wpt lat="45.92453" lon="4.73719">
    <ele>174</ele>
    <name><![CDATA[2018-05-06 10:50 (Start)]]></name>
  </wpt>
  <wpt lat="45.92459" lon="4.73709">
    <ele>174</ele>
    <name><![CDATA[2018-05-06 10:50 (End)]]></name>
  </wpt>
  <trk>
    <name><![CDATA[2018-05-06 10:50]]></name>
    <trkseg>
      <trkpt lat="45.92453" lon="4.73719">
        <ele>174</ele>
        <time>2018-05-06T08:50:03.147Z</time>
      </trkpt>
      <trkpt lat="45.92457" lon="4.73708">
        <ele>174</ele>
        <time>2018-05-06T08:50:26Z</time>
      </trkpt>
      <trkpt lat="45.92457" lon="4.73707">
        <ele>174</ele>
        <time>2018-05-06T08:50:27Z</time>
      </trkpt>
      <trkpt lat="45.92461" lon="4.73699">
        <ele>174</ele>
        <time>2018-05-06T08:50:43Z</time>
      </trkpt>
      <trkpt lat="45.92462" lon="4.73696">
        <ele>174</ele>
        <time>2018-05-06T08:50:44Z</time>
      </trkpt>
      <trkpt lat="45.92464" lon="4.73686">
        <ele>174</ele>
        <time>2018-05-06T08:50:47Z</time>
      </trkpt>
      <trkpt lat="45.92465" lon="4.73682">
        <ele>174</ele>
        <time>2018-05-06T08:50:48Z</time>
      </trkpt>
      <trkpt lat="45.92468" lon="4.73672">
        <ele>174</ele>
        <time>2018-05-06T08:50:51Z</time>
      </trkpt>
      <trkpt lat="45.9247" lon="4.73668">
        <ele>174</ele>
        <time>2018-05-06T08:50:52Z</time>
      </trkpt>
      <trkpt lat="45.92472" lon="4.7366">
        <ele>174</ele>
        <time>2018-05-06T08:50:54Z</time>
      </trkpt>
      <trkpt lat="45.92473" lon="4.73656">
        <ele>174</ele>
        <time>2018-05-06T08:50:55Z</time>
      </trkpt>
      <trkpt lat="45.92475" lon="4.73648">
        <ele>174</ele>
        <time>2018-05-06T08:50:57Z</time>
      </trkpt>
      <trkpt lat="45.92477" lon="4.73644">
        <ele>174</ele>
        <time>2018-05-06T08:50:58Z</time>
      </trkpt>
      <trkpt lat="45.92485" lon="4.73636">
        <ele>174</ele>
        <time>2018-05-06T08:50:59Z</time>
      </trkpt>
      <trkpt lat="45.92493" lon="4.73637">
        <ele>174</ele>
        <time>2018-05-06T08:51:01Z</time>
      </trkpt>
      <trkpt lat="45.92497" lon="4.73637">
        <ele>174</ele>
        <time>2018-05-06T08:51:02Z</time>
      </trkpt>
      <trkpt lat="45.92505" lon="4.73636">
        <ele>174</ele>
        <time>2018-05-06T08:51:04Z</time>
      </trkpt>
      <trkpt lat="45.92511" lon="4.73633">
        <ele>173</ele>
        <time>2018-05-06T08:51:05Z</time>
      </trkpt>
      <trkpt lat="45.92515" lon="4.73633">
        <ele>173</ele>
        <time>2018-05-06T08:51:06Z</time>
      </trkpt>
      <trkpt lat="45.92521" lon="4.73635">
        <ele>173</ele>
        <time>2018-05-06T08:51:07Z</time>
      </trkpt>
      <trkpt lat="45.92526" lon="4.73636">
        <ele>173</ele>
        <time>2018-05-06T08:51:08Z</time>
      </trkpt>
      <trkpt lat="45.92533" lon="4.73635">
        <ele>173</ele>
        <time>2018-05-06T08:51:09Z</time>
      </trkpt>
      <trkpt lat="45.92538" lon="4.73634">
        <ele>173</ele>
        <time>2018-05-06T08:51:10Z</time>
      </trkpt>
      <trkpt lat="45.92544" lon="4.73634">
        <ele>173</ele>
        <time>2018-05-06T08:51:11Z</time>
      </trkpt>
      <trkpt lat="45.92549" lon="4.73634">
        <ele>173</ele>
        <time>2018-05-06T08:51:12Z</time>
      </trkpt>
      <trkpt lat="45.92556" lon="4.73633">
        <ele>173</ele>
        <time>2018-05-06T08:51:13Z</time>
      </trkpt>
      <trkpt lat="45.9256" lon="4.73632">
        <ele>173</ele>
        <time>2018-05-06T08:51:14Z</time>
      </trkpt>
      <trkpt lat="45.92565" lon="4.7363">
        <ele>173</ele>
        <time>2018-05-06T08:51:15Z</time>
      </trkpt>
      <trkpt lat="45.92568" lon="4.73629">
        <ele>173</ele>
        <time>2018-05-06T08:51:17Z</time>
      </trkpt>
      <trkpt lat="45.92577" lon="4.73627">
        <ele>173</ele>
        <time>2018-05-06T08:51:18Z</time>
      </trkpt>
      <trkpt lat="45.92582" lon="4.73624">
        <ele>173</ele>
        <time>2018-05-06T08:51:19Z</time>
      </trkpt>
      <trkpt lat="45.92589" lon="4.73621">
        <ele>173</ele>
        <time>2018-05-06T08:51:20Z</time>
      </trkpt>
      <trkpt lat="45.92597" lon="4.7362">
        <ele>173</ele>
        <time>2018-05-06T08:51:21Z</time>
      </trkpt>
      <trkpt lat="45.92602" lon="4.7362">
        <ele>173</ele>
        <time>2018-05-06T08:51:22Z</time>
      </trkpt>
      <trkpt lat="45.92607" lon="4.73623">
        <ele>173</ele>
        <time>2018-05-06T08:51:23Z</time>
      </trkpt>
      <trkpt lat="45.92615" lon="4.73625">
        <ele>173</ele>
        <time>2018-05-06T08:51:24Z</time>
      </trkpt>
      <trkpt lat="45.92621" lon="4.73628">
        <ele>173</ele>
        <time>2018-05-06T08:51:25Z</time>
      </trkpt>
      <trkpt lat="45.92625" lon="4.73632">
        <ele>173</ele>
        <time>2018-05-06T08:51:26Z</time>
      </trkpt>
      <trkpt lat="45.92629" lon="4.73637">
        <ele>173</ele>
        <time>2018-05-06T08:51:27Z</time>
      </trkpt>
      <trkpt lat="45.92633" lon="4.73644">
        <ele>173</ele>
        <time>2018-05-06T08:51:28Z</time>
      </trkpt>
      <trkpt lat="45.92634" lon="4.7365">
        <ele>173</ele>
        <time>2018-05-06T08:51:29Z</time>
      </trkpt>
      <trkpt lat="45.92636" lon="4.73658">
        <ele>173</ele>
        <time>2018-05-06T08:51:30Z</time>
      </trkpt>
      <trkpt lat="45.92639" lon="4.73663">
        <ele>173</ele>
        <time>2018-05-06T08:51:31Z</time>
      </trkpt>
      <trkpt lat="45.92642" lon="4.7367">
        <ele>173</ele>
        <time>2018-05-06T08:51:32Z</time>
      </trkpt>
      <trkpt lat="45.92645" lon="4.73676">
        <ele>173</ele>
        <time>2018-05-06T08:51:33Z</time>
      </trkpt>
      <trkpt lat="45.92649" lon="4.73682">
        <ele>173</ele>
        <time>2018-05-06T08:51:34Z</time>
      </trkpt>
      <trkpt lat="45.92653" lon="4.73688">
        <ele>173</ele>
        <time>2018-05-06T08:51:35Z</time>
      </trkpt>
      <trkpt lat="45.9266" lon="4.73691">
        <ele>173</ele>
        <time>2018-05-06T08:51:36Z</time>
      </trkpt>
      <trkpt lat="45.92666" lon="4.73695">
        <ele>173</ele>
        <time>2018-05-06T08:51:37Z</time>
      </trkpt>
      <trkpt lat="45.9267" lon="4.73698">
        <ele>174</ele>
        <time>2018-05-06T08:51:38Z</time>
      </trkpt>
      <trkpt lat="45.92676" lon="4.73702">
        <ele>174</ele>
        <time>2018-05-06T08:51:39Z</time>
      </trkpt>
      <trkpt lat="45.92682" lon="4.73705">
        <ele>173</ele>
        <time>2018-05-06T08:51:40Z</time>
      </trkpt>
      <trkpt lat="45.92686" lon="4.73708">
        <ele>173</ele>
        <time>2018-05-06T08:51:41Z</time>
      </trkpt>
      <trkpt lat="45.92692" lon="4.73709">
        <ele>173</ele>
        <time>2018-05-06T08:51:42Z</time>
      </trkpt>
      <trkpt lat="45.92699" lon="4.7371">
        <ele>173</ele>
        <time>2018-05-06T08:51:43Z</time>
      </trkpt>
      <trkpt lat="45.92704" lon="4.73712">
        <ele>173</ele>
        <time>2018-05-06T08:51:44Z</time>
      </trkpt>
      <trkpt lat="45.92709" lon="4.73714">
        <ele>173</ele>
        <time>2018-05-06T08:51:45Z</time>
      </trkpt>
      <trkpt lat="45.92715" lon="4.73716">
        <ele>173</ele>
        <time>2018-05-06T08:51:46Z</time>
      </trkpt>
      <trkpt lat="45.9272" lon="4.73717">
        <ele>173</ele>
        <time>2018-05-06T08:51:47Z</time>
      </trkpt>
      <trkpt lat="45.92726" lon="4.73717">
        <ele>173</ele>
        <time>2018-05-06T08:51:48Z</time>
      </trkpt>
      <trkpt lat="45.92734" lon="4.73718">
        <ele>173</ele>
        <time>2018-05-06T08:51:49Z</time>
      </trkpt>
      <trkpt lat="45.9274" lon="4.73719">
        <ele>173</ele>
        <time>2018-05-06T08:51:50Z</time>
      </trkpt>
      <trkpt lat="45.92746" lon="4.7372">
        <ele>173</ele>
        <time>2018-05-06T08:51:51Z</time>
      </trkpt>
      <trkpt lat="45.9275" lon="4.73723">
        <ele>173</ele>
        <time>2018-05-06T08:51:52Z</time>
      </trkpt>
      <trkpt lat="45.92754" lon="4.73725">
        <ele>172</ele>
        <time>2018-05-06T08:51:53Z</time>
      </trkpt>
      <trkpt lat="45.92758" lon="4.73727">
        <ele>172</ele>
        <time>2018-05-06T08:51:54Z</time>
      </trkpt>
      <trkpt lat="45.92765" lon="4.73729">
        <ele>172</ele>
        <time>2018-05-06T08:51:56Z</time>
      </trkpt>
      <trkpt lat="45.92769" lon="4.73731">
        <ele>172</ele>
        <time>2018-05-06T08:51:57Z</time>
      </trkpt>
      <trkpt lat="45.92775" lon="4.73735">
        <ele>172</ele>
        <time>2018-05-06T08:52:00Z</time>
      </trkpt>
      <trkpt lat="45.92777" lon="4.73739">
        <ele>172</ele>
        <time>2018-05-06T08:52:01Z</time>
      </trkpt>
      <trkpt lat="45.92781" lon="4.73745">
        <ele>172</ele>
        <time>2018-05-06T08:52:03Z</time>
      </trkpt>
      <trkpt lat="45.92789" lon="4.73753">
        <ele>173</ele>
        <time>2018-05-06T08:52:04Z</time>
      </trkpt>
      <trkpt lat="45.92796" lon="4.73758">
        <ele>173</ele>
        <time>2018-05-06T08:52:06Z</time>
      </trkpt>
      <trkpt lat="45.928" lon="4.73761">
        <ele>173</ele>
        <time>2018-05-06T08:52:07Z</time>
      </trkpt>
      <trkpt lat="45.92805" lon="4.73764">
        <ele>173</ele>
        <time>2018-05-06T08:52:08Z</time>
      </trkpt>
      <trkpt lat="45.9281" lon="4.73766">
        <ele>173</ele>
        <time>2018-05-06T08:52:09Z</time>
      </trkpt>
      <trkpt lat="45.92815" lon="4.73767">
        <ele>173</ele>
        <time>2018-05-06T08:52:10Z</time>
      </trkpt>
      <trkpt lat="45.92819" lon="4.7377">
        <ele>173</ele>
        <time>2018-05-06T08:52:11Z</time>
      </trkpt>
      <trkpt lat="45.92825" lon="4.73774">
        <ele>173</ele>
        <time>2018-05-06T08:52:12Z</time>
      </trkpt>
      <trkpt lat="45.92829" lon="4.73778">
        <ele>173</ele>
        <time>2018-05-06T08:52:13Z</time>
      </trkpt>
      <trkpt lat="45.92835" lon="4.73781">
        <ele>173</ele>
        <time>2018-05-06T08:52:14Z</time>
      </trkpt>
      <trkpt lat="45.9284" lon="4.73784">
        <ele>173</ele>
        <time>2018-05-06T08:52:15Z</time>
      </trkpt>
      <trkpt lat="45.92845" lon="4.73788">
        <ele>173</ele>
        <time>2018-05-06T08:52:16Z</time>
      </trkpt>
      <trkpt lat="45.9285" lon="4.73792">
        <ele>173</ele>
        <time>2018-05-06T08:52:17Z</time>
      </trkpt>
      <trkpt lat="45.92856" lon="4.73796">
        <ele>173</ele>
        <time>2018-05-06T08:52:18Z</time>
      </trkpt>
      <trkpt lat="45.92857" lon="4.73803">
        <ele>173</ele>
        <time>2018-05-06T08:52:19Z</time>
      </trkpt>
      <trkpt lat="45.9286" lon="4.73811">
        <ele>173</ele>
        <time>2018-05-06T08:52:20Z</time>
      </trkpt>
      <trkpt lat="45.92862" lon="4.7382">
        <ele>173</ele>
        <time>2018-05-06T08:52:21Z</time>
      </trkpt>
      <trkpt lat="45.92864" lon="4.73828">
        <ele>173</ele>
        <time>2018-05-06T08:52:22Z</time>
      </trkpt>
      <trkpt lat="45.92867" lon="4.73836">
        <ele>173</ele>
        <time>2018-05-06T08:52:23Z</time>
      </trkpt>
      <trkpt lat="45.92869" lon="4.73844">
        <ele>173</ele>
        <time>2018-05-06T08:52:24Z</time>
      </trkpt>
      <trkpt lat="45.92871" lon="4.73852">
        <ele>173</ele>
        <time>2018-05-06T08:52:25Z</time>
      </trkpt>
      <trkpt lat="45.92873" lon="4.7386">
        <ele>173</ele>
        <time>2018-05-06T08:52:26Z</time>
      </trkpt>
      <trkpt lat="45.92876" lon="4.73872">
        <ele>173</ele>
        <time>2018-05-06T08:52:28Z</time>
      </trkpt>
      <trkpt lat="45.92877" lon="4.73883">
        <ele>173</ele>
        <time>2018-05-06T08:52:29Z</time>
      </trkpt>
      <trkpt lat="45.92877" lon="4.73892">
        <ele>173</ele>
        <time>2018-05-06T08:52:30Z</time>
      </trkpt>
      <trkpt lat="45.92878" lon="4.73899">
        <ele>173</ele>
        <time>2018-05-06T08:52:31Z</time>
      </trkpt>
      <trkpt lat="45.92879" lon="4.73907">
        <ele>173</ele>
        <time>2018-05-06T08:52:32Z</time>
      </trkpt>
      <trkpt lat="45.92881" lon="4.73916">
        <ele>173</ele>
        <time>2018-05-06T08:52:33Z</time>
      </trkpt>
      <trkpt lat="45.92881" lon="4.73923">
        <ele>172</ele>
        <time>2018-05-06T08:52:34Z</time>
      </trkpt>
      <trkpt lat="45.92883" lon="4.73931">
        <ele>172</ele>
        <time>2018-05-06T08:52:35Z</time>
      </trkpt>
      <trkpt lat="45.92882" lon="4.73939">
        <ele>172</ele>
        <time>2018-05-06T08:52:36Z</time>
      </trkpt>
      <trkpt lat="45.92883" lon="4.73946">
        <ele>172</ele>
        <time>2018-05-06T08:52:37Z</time>
      </trkpt>
      <trkpt lat="45.92882" lon="4.73953">
        <ele>172</ele>
        <time>2018-05-06T08:52:38Z</time>
      </trkpt>
      <trkpt lat="45.92882" lon="4.7396">
        <ele>172</ele>
        <time>2018-05-06T08:52:39Z</time>
      </trkpt>
      <trkpt lat="45.9288" lon="4.73967">
        <ele>172</ele>
        <time>2018-05-06T08:52:40Z</time>
      </trkpt>
      <trkpt lat="45.9288" lon="4.73974">
        <ele>172</ele>
        <time>2018-05-06T08:52:41Z</time>
      </trkpt>
      <trkpt lat="45.92879" lon="4.73981">
        <ele>172</ele>
        <time>2018-05-06T08:52:42Z</time>
      </trkpt>
      <trkpt lat="45.92878" lon="4.73987">
        <ele>172</ele>
        <time>2018-05-06T08:52:43Z</time>
      </trkpt>
      <trkpt lat="45.92876" lon="4.73993">
        <ele>172</ele>
        <time>2018-05-06T08:52:44Z</time>
      </trkpt>
      <trkpt lat="45.92874" lon="4.74">
        <ele>173</ele>
        <time>2018-05-06T08:52:45Z</time>
      </trkpt>
      <trkpt lat="45.92873" lon="4.74005">
        <ele>172</ele>
        <time>2018-05-06T08:52:46Z</time>
      </trkpt>
      <trkpt lat="45.92871" lon="4.74012">
        <ele>172</ele>
        <time>2018-05-06T08:52:47Z</time>
      </trkpt>
      <trkpt lat="45.92869" lon="4.74019">
        <ele>172</ele>
        <time>2018-05-06T08:52:48Z</time>
      </trkpt>
      <trkpt lat="45.92869" lon="4.74026">
        <ele>172</ele>
        <time>2018-05-06T08:52:49Z</time>
      </trkpt>
      <trkpt lat="45.92869" lon="4.74032">
        <ele>172</ele>
        <time>2018-05-06T08:52:50Z</time>
      </trkpt>
      <trkpt lat="45.92865" lon="4.7404">
        <ele>172</ele>
        <time>2018-05-06T08:52:51Z</time>
      </trkpt>
      <trkpt lat="45.92863" lon="4.74046">
        <ele>172</ele>
        <time>2018-05-06T08:52:52Z</time>
      </trkpt>
      <trkpt lat="45.92858" lon="4.7405">
        <ele>172</ele>
        <time>2018-05-06T08:52:53Z</time>
      </trkpt>
      <trkpt lat="45.92854" lon="4.74055">
        <ele>172</ele>
        <time>2018-05-06T08:52:54Z</time>
      </trkpt>
      <trkpt lat="45.9285" lon="4.74061">
        <ele>172</ele>
        <time>2018-05-06T08:52:55Z</time>
      </trkpt>
      <trkpt lat="45.92847" lon="4.74065">
        <ele>172</ele>
        <time>2018-05-06T08:52:56Z</time>
      </trkpt>
      <trkpt lat="45.92842" lon="4.74069">
        <ele>172</ele>
        <time>2018-05-06T08:52:57Z</time>
      </trkpt>
      <trkpt lat="45.92838" lon="4.74074">
        <ele>171</ele>
        <time>2018-05-06T08:52:58Z</time>
      </trkpt>
      <trkpt lat="45.92835" lon="4.74079">
        <ele>171</ele>
        <time>2018-05-06T08:52:59Z</time>
      </trkpt>
      <trkpt lat="45.92831" lon="4.74087">
        <ele>171</ele>
        <time>2018-05-06T08:53:00Z</time>
      </trkpt>
      <trkpt lat="45.92826" lon="4.74092">
        <ele>171</ele>
        <time>2018-05-06T08:53:01Z</time>
      </trkpt>
      <trkpt lat="45.92821" lon="4.74096">
        <ele>171</ele>
        <time>2018-05-06T08:53:02Z</time>
      </trkpt>
      <trkpt lat="45.92816" lon="4.74101">
        <ele>171</ele>
        <time>2018-05-06T08:53:03Z</time>
      </trkpt>
      <trkpt lat="45.92812" lon="4.74107">
        <ele>172</ele>
        <time>2018-05-06T08:53:04Z</time>
      </trkpt>
      <trkpt lat="45.92807" lon="4.74112">
        <ele>172</ele>
        <time>2018-05-06T08:53:05Z</time>
      </trkpt>
      <trkpt lat="45.92802" lon="4.74118">
        <ele>172</ele>
        <time>2018-05-06T08:53:06Z</time>
      </trkpt>
      <trkpt lat="45.92797" lon="4.74123">
        <ele>172</ele>
        <time>2018-05-06T08:53:07Z</time>
      </trkpt>
      <trkpt lat="45.92793" lon="4.74127">
        <ele>172</ele>
        <time>2018-05-06T08:53:08Z</time>
      </trkpt>
      <trkpt lat="45.92788" lon="4.74132">
        <ele>172</ele>
        <time>2018-05-06T08:53:09Z</time>
      </trkpt>
      <trkpt lat="45.92783" lon="4.74138">
        <ele>172</ele>
        <time>2018-05-06T08:53:10Z</time>
      </trkpt>
      <trkpt lat="45.92778" lon="4.74143">
        <ele>172</ele>
        <time>2018-05-06T08:53:11Z</time>
      </trkpt>
      <trkpt lat="45.92774" lon="4.74147">
        <ele>172</ele>
        <time>2018-05-06T08:53:12Z</time>
      </trkpt>
      <trkpt lat="45.92769" lon="4.74152">
        <ele>172</ele>
        <time>2018-05-06T08:53:13Z</time>
      </trkpt>
      <trkpt lat="45.92764" lon="4.74156">
        <ele>172</ele>
        <time>2018-05-06T08:53:14Z</time>
      </trkpt>
      <trkpt lat="45.9276" lon="4.74161">
        <ele>172</ele>
        <time>2018-05-06T08:53:15Z</time>
      </trkpt>
      <trkpt lat="45.92756" lon="4.74166">
        <ele>172</ele>
        <time>2018-05-06T08:53:16Z</time>
      </trkpt>
      <trkpt lat="45.92752" lon="4.7417">
        <ele>172</ele>
        <time>2018-05-06T08:53:17Z</time>
      </trkpt>
      <trkpt lat="45.92747" lon="4.74176">
        <ele>172</ele>
        <time>2018-05-06T08:53:18Z</time>
      </trkpt>
      <trkpt lat="45.92743" lon="4.7418">
        <ele>172</ele>
        <time>2018-05-06T08:53:19Z</time>
      </trkpt>
      <trkpt lat="45.92739" lon="4.74185">
        <ele>172</ele>
        <time>2018-05-06T08:53:20Z</time>
      </trkpt>
      <trkpt lat="45.92736" lon="4.74189">
        <ele>171</ele>
        <time>2018-05-06T08:53:21Z</time>
      </trkpt>
      <trkpt lat="45.92732" lon="4.74195">
        <ele>171</ele>
        <time>2018-05-06T08:53:22Z</time>
      </trkpt>
      <trkpt lat="45.92729" lon="4.74199">
        <ele>171</ele>
        <time>2018-05-06T08:53:23Z</time>
      </trkpt>
      <trkpt lat="45.92725" lon="4.74204">
        <ele>171</ele>
        <time>2018-05-06T08:53:24Z</time>
      </trkpt>
      <trkpt lat="45.92722" lon="4.7421">
        <ele>171</ele>
        <time>2018-05-06T08:53:25Z</time>
      </trkpt>
      <trkpt lat="45.9272" lon="4.74217">
        <ele>171</ele>
        <time>2018-05-06T08:53:26Z</time>
      </trkpt>
      <trkpt lat="45.92716" lon="4.74223">
        <ele>171</ele>
        <time>2018-05-06T08:53:27Z</time>
      </trkpt>
      <trkpt lat="45.92712" lon="4.74228">
        <ele>171</ele>
        <time>2018-05-06T08:53:28Z</time>
      </trkpt>
      <trkpt lat="45.92708" lon="4.74234">
        <ele>171</ele>
        <time>2018-05-06T08:53:29Z</time>
      </trkpt>
      <trkpt lat="45.92705" lon="4.7424">
        <ele>171</ele>
        <time>2018-05-06T08:53:30Z</time>
      </trkpt>
      <trkpt lat="45.92701" lon="4.74245">
        <ele>171</ele>
        <time>2018-05-06T08:53:31Z</time>
      </trkpt>
      <trkpt lat="45.92697" lon="4.74251">
        <ele>171</ele>
        <time>2018-05-06T08:53:32Z</time>
      </trkpt>
      <trkpt lat="45.92693" lon="4.74258">
        <ele>171</ele>
        <time>2018-05-06T08:53:33Z</time>
      </trkpt>
      <trkpt lat="45.92689" lon="4.74265">
        <ele>171</ele>
        <time>2018-05-06T08:53:34Z</time>
      </trkpt>
      <trkpt lat="45.92686" lon="4.74271">
        <ele>171</ele>
        <time>2018-05-06T08:53:35Z</time>
      </trkpt>
      <trkpt lat="45.92682" lon="4.74277">
        <ele>171</ele>
        <time>2018-05-06T08:53:36Z</time>
      </trkpt>
      <trkpt lat="45.92678" lon="4.74285">
        <ele>171</ele>
        <time>2018-05-06T08:53:37Z</time>
      </trkpt>
      <trkpt lat="45.92674" lon="4.74292">
        <ele>171</ele>
        <time>2018-05-06T08:53:38Z</time>
      </trkpt>
      <trkpt lat="45.92671" lon="4.74298">
        <ele>171</ele>
        <time>2018-05-06T08:53:39Z</time>
      </trkpt>
      <trkpt lat="45.92668" lon="4.74305">
        <ele>171</ele>
        <time>2018-05-06T08:53:40Z</time>
      </trkpt>
      <trkpt lat="45.92663" lon="4.74311">
        <ele>171</ele>
        <time>2018-05-06T08:53:41Z</time>
      </trkpt>
      <trkpt lat="45.9266" lon="4.74317">
        <ele>171</ele>
        <time>2018-05-06T08:53:42Z</time>
      </trkpt>
      <trkpt lat="45.92656" lon="4.74323">
        <ele>171</ele>
        <time>2018-05-06T08:53:43Z</time>
      </trkpt>
      <trkpt lat="45.92653" lon="4.74329">
        <ele>171</ele>
        <time>2018-05-06T08:53:44Z</time>
      </trkpt>
      <trkpt lat="45.92649" lon="4.74336">
        <ele>171</ele>
        <time>2018-05-06T08:53:45Z</time>
      </trkpt>
      <trkpt lat="45.92646" lon="4.74343">
        <ele>171</ele>
        <time>2018-05-06T08:53:46Z</time>
      </trkpt>
      <trkpt lat="45.92644" lon="4.7435">
        <ele>171</ele>
        <time>2018-05-06T08:53:47Z</time>
      </trkpt>
      <trkpt lat="45.92641" lon="4.74356">
        <ele>171</ele>
        <time>2018-05-06T08:53:48Z</time>
      </trkpt>
      <trkpt lat="45.92636" lon="4.74362">
        <ele>171</ele>
        <time>2018-05-06T08:53:49Z</time>
      </trkpt>
      <trkpt lat="45.92635" lon="4.74369">
        <ele>171</ele>
        <time>2018-05-06T08:53:50Z</time>
      </trkpt>
      <trkpt lat="45.92631" lon="4.74378">
        <ele>170</ele>
        <time>2018-05-06T08:53:51Z</time>
      </trkpt>
      <trkpt lat="45.92627" lon="4.74384">
        <ele>170</ele>
        <time>2018-05-06T08:53:52Z</time>
      </trkpt>
      <trkpt lat="45.92624" lon="4.74391">
        <ele>170</ele>
        <time>2018-05-06T08:53:53Z</time>
      </trkpt>
      <trkpt lat="45.9262" lon="4.74397">
        <ele>170</ele>
        <time>2018-05-06T08:53:54Z</time>
      </trkpt>
      <trkpt lat="45.92616" lon="4.74404">
        <ele>170</ele>
        <time>2018-05-06T08:53:55Z</time>
      </trkpt>
      <trkpt lat="45.92612" lon="4.74411">
        <ele>170</ele>
        <time>2018-05-06T08:53:56Z</time>
      </trkpt>
      <trkpt lat="45.92609" lon="4.74418">
        <ele>170</ele>
        <time>2018-05-06T08:53:57Z</time>
      </trkpt>
      <trkpt lat="45.92607" lon="4.74426">
        <ele>170</ele>
        <time>2018-05-06T08:53:58Z</time>
      </trkpt>
      <trkpt lat="45.92603" lon="4.74432">
        <ele>170</ele>
        <time>2018-05-06T08:53:59Z</time>
      </trkpt>
      <trkpt lat="45.92598" lon="4.74438">
        <ele>170</ele>
        <time>2018-05-06T08:54:00Z</time>
      </trkpt>
      <trkpt lat="45.92594" lon="4.74446">
        <ele>170</ele>
        <time>2018-05-06T08:54:01Z</time>
      </trkpt>
      <trkpt lat="45.92589" lon="4.74453">
        <ele>170</ele>
        <time>2018-05-06T08:54:02Z</time>
      </trkpt>
      <trkpt lat="45.92585" lon="4.74461">
        <ele>170</ele>
        <time>2018-05-06T08:54:03Z</time>
      </trkpt>
      <trkpt lat="45.92582" lon="4.74467">
        <ele>170</ele>
        <time>2018-05-06T08:54:04Z</time>
      </trkpt>
      <trkpt lat="45.92577" lon="4.74474">
        <ele>170</ele>
        <time>2018-05-06T08:54:05Z</time>
      </trkpt>
      <trkpt lat="45.92573" lon="4.7448">
        <ele>170</ele>
        <time>2018-05-06T08:54:06Z</time>
      </trkpt>
      <trkpt lat="45.92568" lon="4.74486">
        <ele>170</ele>
        <time>2018-05-06T08:54:07Z</time>
      </trkpt>
      <trkpt lat="45.92564" lon="4.74494">
        <ele>170</ele>
        <time>2018-05-06T08:54:08Z</time>
      </trkpt>
      <trkpt lat="45.92561" lon="4.74503">
        <ele>170</ele>
        <time>2018-05-06T08:54:09Z</time>
      </trkpt>
      <trkpt lat="45.92557" lon="4.74511">
        <ele>170</ele>
        <time>2018-05-06T08:54:10Z</time>
      </trkpt>
      <trkpt lat="45.92554" lon="4.74517">
        <ele>170</ele>
        <time>2018-05-06T08:54:11Z</time>
      </trkpt>
      <trkpt lat="45.9255" lon="4.74525">
        <ele>170</ele>
        <time>2018-05-06T08:54:12Z</time>
      </trkpt>
      <trkpt lat="45.92546" lon="4.74532">
        <ele>170</ele>
        <time>2018-05-06T08:54:13Z</time>
      </trkpt>
      <trkpt lat="45.92543" lon="4.74539">
        <ele>170</ele>
        <time>2018-05-06T08:54:14Z</time>
      </trkpt>
      <trkpt lat="45.92537" lon="4.74546">
        <ele>171</ele>
        <time>2018-05-06T08:54:15Z</time>
      </trkpt>
      <trkpt lat="45.92533" lon="4.74552">
        <ele>171</ele>
        <time>2018-05-06T08:54:16Z</time>
      </trkpt>
      <trkpt lat="45.92528" lon="4.74559">
        <ele>171</ele>
        <time>2018-05-06T08:54:17Z</time>
      </trkpt>
      <trkpt lat="45.92523" lon="4.74565">
        <ele>171</ele>
        <time>2018-05-06T08:54:18Z</time>
      </trkpt>
      <trkpt lat="45.92519" lon="4.74571">
        <ele>171</ele>
        <time>2018-05-06T08:54:19Z</time>
      </trkpt>
      <trkpt lat="45.92514" lon="4.74577">
        <ele>171</ele>
        <time>2018-05-06T08:54:20Z</time>
      </trkpt>
      <trkpt lat="45.9251" lon="4.74582">
        <ele>171</ele>
        <time>2018-05-06T08:54:21Z</time>
      </trkpt>
      <trkpt lat="45.92506" lon="4.74589">
        <ele>171</ele>
        <time>2018-05-06T08:54:22Z</time>
      </trkpt>
      <trkpt lat="45.92501" lon="4.74593">
        <ele>171</ele>
        <time>2018-05-06T08:54:23Z</time>
      </trkpt>
      <trkpt lat="45.92496" lon="4.74599">
        <ele>171</ele>
        <time>2018-05-06T08:54:24Z</time>
      </trkpt>
      <trkpt lat="45.92493" lon="4.74605">
        <ele>171</ele>
        <time>2018-05-06T08:54:25Z</time>
      </trkpt>
      <trkpt lat="45.92489" lon="4.74609">
        <ele>171</ele>
        <time>2018-05-06T08:54:26Z</time>
      </trkpt>
      <trkpt lat="45.92484" lon="4.74615">
        <ele>171</ele>
        <time>2018-05-06T08:54:27Z</time>
      </trkpt>
      <trkpt lat="45.92479" lon="4.74621">
        <ele>171</ele>
        <time>2018-05-06T08:54:28Z</time>
      </trkpt>
      <trkpt lat="45.92475" lon="4.74627">
        <ele>171</ele>
        <time>2018-05-06T08:54:29Z</time>
      </trkpt>
      <trkpt lat="45.92471" lon="4.74634">
        <ele>171</ele>
        <time>2018-05-06T08:54:30Z</time>
      </trkpt>
      <trkpt lat="45.92467" lon="4.7464">
        <ele>171</ele>
        <time>2018-05-06T08:54:31Z</time>
      </trkpt>
      <trkpt lat="45.92464" lon="4.74647">
        <ele>171</ele>
        <time>2018-05-06T08:54:32Z</time>
      </trkpt>
      <trkpt lat="45.9246" lon="4.74653">
        <ele>171</ele>
        <time>2018-05-06T08:54:33Z</time>
      </trkpt>
      <trkpt lat="45.92456" lon="4.74659">
        <ele>171</ele>
        <time>2018-05-06T08:54:34Z</time>
      </trkpt>
      <trkpt lat="45.92443" lon="4.74691">
        <ele>171</ele>
        <time>2018-05-06T08:54:38Z</time>
      </trkpt>
      <trkpt lat="45.92439" lon="4.74697">
        <ele>171</ele>
        <time>2018-05-06T08:54:39Z</time>
      </trkpt>
      <trkpt lat="45.92436" lon="4.74704">
        <ele>171</ele>
        <time>2018-05-06T08:54:40Z</time>
      </trkpt>
      <trkpt lat="45.92434" lon="4.74712">
        <ele>171</ele>
        <time>2018-05-06T08:54:41Z</time>
      </trkpt>
      <trkpt lat="45.92431" lon="4.74718">
        <ele>171</ele>
        <time>2018-05-06T08:54:42Z</time>
      </trkpt>
      <trkpt lat="45.92428" lon="4.74726">
        <ele>171</ele>
        <time>2018-05-06T08:54:43Z</time>
      </trkpt>
      <trkpt lat="45.92425" lon="4.74733">
        <ele>171</ele>
        <time>2018-05-06T08:54:44Z</time>
      </trkpt>
      <trkpt lat="45.92422" lon="4.74741">
        <ele>172</ele>
        <time>2018-05-06T08:54:45Z</time>
      </trkpt>
      <trkpt lat="45.92419" lon="4.74749">
        <ele>172</ele>
        <time>2018-05-06T08:54:46Z</time>
      </trkpt>
      <trkpt lat="45.92416" lon="4.74756">
        <ele>172</ele>
        <time>2018-05-06T08:54:47Z</time>
      </trkpt>
      <trkpt lat="45.92412" lon="4.74763">
        <ele>172</ele>
        <time>2018-05-06T08:54:48Z</time>
      </trkpt>
      <trkpt lat="45.9241" lon="4.74771">
        <ele>172</ele>
        <time>2018-05-06T08:54:49Z</time>
      </trkpt>
      <trkpt lat="45.92409" lon="4.74779">
        <ele>171</ele>
        <time>2018-05-06T08:54:50Z</time>
      </trkpt>
      <trkpt lat="45.92408" lon="4.74786">
        <ele>171</ele>
        <time>2018-05-06T08:54:51Z</time>
      </trkpt>
      <trkpt lat="45.92405" lon="4.74795">
        <ele>171</ele>
        <time>2018-05-06T08:54:52Z</time>
      </trkpt>
      <trkpt lat="45.92403" lon="4.74804">
        <ele>171</ele>
        <time>2018-05-06T08:54:53Z</time>
      </trkpt>
      <trkpt lat="45.92401" lon="4.74811">
        <ele>171</ele>
        <time>2018-05-06T08:54:54Z</time>
      </trkpt>
      <trkpt lat="45.924" lon="4.7482">
        <ele>171</ele>
        <time>2018-05-06T08:54:55Z</time>
      </trkpt>
      <trkpt lat="45.92398" lon="4.74829">
        <ele>171</ele>
        <time>2018-05-06T08:54:56Z</time>
      </trkpt>
      <trkpt lat="45.92396" lon="4.74839">
        <ele>171</ele>
        <time>2018-05-06T08:54:57Z</time>
      </trkpt>
      <trkpt lat="45.92394" lon="4.74849">
        <ele>171</ele>
        <time>2018-05-06T08:54:58Z</time>
      </trkpt>
      <trkpt lat="45.92391" lon="4.74857">
        <ele>171</ele>
        <time>2018-05-06T08:54:59Z</time>
      </trkpt>
      <trkpt lat="45.92387" lon="4.74867">
        <ele>171</ele>
        <time>2018-05-06T08:55:00Z</time>
      </trkpt>
      <trkpt lat="45.92384" lon="4.74875">
        <ele>171</ele>
        <time>2018-05-06T08:55:01Z</time>
      </trkpt>
      <trkpt lat="45.92381" lon="4.74884">
        <ele>171</ele>
        <time>2018-05-06T08:55:02Z</time>
      </trkpt>
      <trkpt lat="45.92377" lon="4.74892">
        <ele>171</ele>
        <time>2018-05-06T08:55:03Z</time>
      </trkpt>
      <trkpt lat="45.92376" lon="4.749">
        <ele>171</ele>
        <time>2018-05-06T08:55:04Z</time>
      </trkpt>
      <trkpt lat="45.92372" lon="4.74908">
        <ele>171</ele>
        <time>2018-05-06T08:55:05Z</time>
      </trkpt>
      <trkpt lat="45.92369" lon="4.74915">
        <ele>171</ele>
        <time>2018-05-06T08:55:06Z</time>
      </trkpt>
      <trkpt lat="45.92365" lon="4.74923">
        <ele>170</ele>
        <time>2018-05-06T08:55:07Z</time>
      </trkpt>
      <trkpt lat="45.92363" lon="4.74932">
        <ele>170</ele>
        <time>2018-05-06T08:55:08Z</time>
      </trkpt>
      <trkpt lat="45.9236" lon="4.7494">
        <ele>170</ele>
        <time>2018-05-06T08:55:09Z</time>
      </trkpt>
      <trkpt lat="45.92356" lon="4.74949">
        <ele>170</ele>
        <time>2018-05-06T08:55:10Z</time>
      </trkpt>
      <trkpt lat="45.92353" lon="4.74956">
        <ele>170</ele>
        <time>2018-05-06T08:55:11Z</time>
      </trkpt>
      <trkpt lat="45.92351" lon="4.74963">
        <ele>170</ele>
        <time>2018-05-06T08:55:12Z</time>
      </trkpt>
      <trkpt lat="45.92348" lon="4.74971">
        <ele>170</ele>
        <time>2018-05-06T08:55:13Z</time>
      </trkpt>
      <trkpt lat="45.92345" lon="4.74979">
        <ele>170</ele>
        <time>2018-05-06T08:55:14Z</time>
      </trkpt>
      <trkpt lat="45.92342" lon="4.74988">
        <ele>170</ele>
        <time>2018-05-06T08:55:15Z</time>
      </trkpt>
      <trkpt lat="45.92338" lon="4.74995">
        <ele>170</ele>
        <time>2018-05-06T08:55:16Z</time>
      </trkpt>
      <trkpt lat="45.92335" lon="4.75003">
        <ele>170</ele>
        <time>2018-05-06T08:55:17Z</time>
      </trkpt>
      <trkpt lat="45.92332" lon="4.7501">
        <ele>171</ele>
        <time>2018-05-06T08:55:18Z</time>
      </trkpt>
      <trkpt lat="45.92329" lon="4.75017">
        <ele>171</ele>
        <time>2018-05-06T08:55:19Z</time>
      </trkpt>
      <trkpt lat="45.92326" lon="4.75024">
        <ele>171</ele>
        <time>2018-05-06T08:55:20Z</time>
      </trkpt>
      <trkpt lat="45.92322" lon="4.75028">
        <ele>171</ele>
        <time>2018-05-06T08:55:21Z</time>
      </trkpt>
      <trkpt lat="45.92318" lon="4.75035">
        <ele>171</ele>
        <time>2018-05-06T08:55:22Z</time>
      </trkpt>
      <trkpt lat="45.92315" lon="4.75044">
        <ele>172</ele>
        <time>2018-05-06T08:55:23Z</time>
      </trkpt>
      <trkpt lat="45.92311" lon="4.7505">
        <ele>172</ele>
        <time>2018-05-06T08:55:24Z</time>
      </trkpt>
      <trkpt lat="45.92307" lon="4.75057">
        <ele>172</ele>
        <time>2018-05-06T08:55:25Z</time>
      </trkpt>
      <trkpt lat="45.92303" lon="4.75062">
        <ele>172</ele>
        <time>2018-05-06T08:55:26Z</time>
      </trkpt>
      <trkpt lat="45.92298" lon="4.75069">
        <ele>172</ele>
        <time>2018-05-06T08:55:27Z</time>
      </trkpt>
      <trkpt lat="45.92294" lon="4.75074">
        <ele>172</ele>
        <time>2018-05-06T08:55:28Z</time>
      </trkpt>
      <trkpt lat="45.92289" lon="4.7508">
        <ele>172</ele>
        <time>2018-05-06T08:55:29Z</time>
      </trkpt>
      <trkpt lat="45.92285" lon="4.75086">
        <ele>173</ele>
        <time>2018-05-06T08:55:30Z</time>
      </trkpt>
      <trkpt lat="45.9228" lon="4.75091">
        <ele>173</ele>
        <time>2018-05-06T08:55:31Z</time>
      </trkpt>
      <trkpt lat="45.92276" lon="4.75096">
        <ele>173</ele>
        <time>2018-05-06T08:55:32Z</time>
      </trkpt>
      <trkpt lat="45.9227" lon="4.75102">
        <ele>173</ele>
        <time>2018-05-06T08:55:33Z</time>
      </trkpt>
      <trkpt lat="45.92266" lon="4.75107">
        <ele>174</ele>
        <time>2018-05-06T08:55:34Z</time>
      </trkpt>
      <trkpt lat="45.92261" lon="4.75112">
        <ele>174</ele>
        <time>2018-05-06T08:55:35Z</time>
      </trkpt>
      <trkpt lat="45.92257" lon="4.75116">
        <ele>174</ele>
        <time>2018-05-06T08:55:36Z</time>
      </trkpt>
      <trkpt lat="45.92252" lon="4.75122">
        <ele>174</ele>
        <time>2018-05-06T08:55:37Z</time>
      </trkpt>
      <trkpt lat="45.92248" lon="4.75127">
        <ele>174</ele>
        <time>2018-05-06T08:55:38Z</time>
      </trkpt>
      <trkpt lat="45.92244" lon="4.75134">
        <ele>174</ele>
        <time>2018-05-06T08:55:39Z</time>
      </trkpt>
      <trkpt lat="45.9224" lon="4.75136">
        <ele>174</ele>
        <time>2018-05-06T08:55:40Z</time>
      </trkpt>
      <trkpt lat="45.92237" lon="4.75141">
        <ele>174</ele>
        <time>2018-05-06T08:55:41Z</time>
      </trkpt>
      <trkpt lat="45.92233" lon="4.75146">
        <ele>174</ele>
        <time>2018-05-06T08:55:42Z</time>
      </trkpt>
      <trkpt lat="45.92229" lon="4.75152">
        <ele>174</ele>
        <time>2018-05-06T08:55:43Z</time>
      </trkpt>
      <trkpt lat="45.92226" lon="4.75158">
        <ele>174</ele>
        <time>2018-05-06T08:55:44Z</time>
      </trkpt>
      <trkpt lat="45.92223" lon="4.75165">
        <ele>174</ele>
        <time>2018-05-06T08:55:45Z</time>
      </trkpt>
      <trkpt lat="45.92221" lon="4.75175">
        <ele>175</ele>
        <time>2018-05-06T08:55:46Z</time>
      </trkpt>
      <trkpt lat="45.92219" lon="4.75184">
        <ele>175</ele>
        <time>2018-05-06T08:55:47Z</time>
      </trkpt>
      <trkpt lat="45.92217" lon="4.7519">
        <ele>175</ele>
        <time>2018-05-06T08:55:48Z</time>
      </trkpt>
      <trkpt lat="45.92216" lon="4.75196">
        <ele>175</ele>
        <time>2018-05-06T08:55:49Z</time>
      </trkpt>
      <trkpt lat="45.92214" lon="4.75203">
        <ele>175</ele>
        <time>2018-05-06T08:55:50Z</time>
      </trkpt>
      <trkpt lat="45.92213" lon="4.75209">
        <ele>175</ele>
        <time>2018-05-06T08:55:51Z</time>
      </trkpt>
      <trkpt lat="45.92213" lon="4.75217">
        <ele>175</ele>
        <time>2018-05-06T08:55:52Z</time>
      </trkpt>
      <trkpt lat="45.92212" lon="4.75229">
        <ele>175</ele>
        <time>2018-05-06T08:55:54Z</time>
      </trkpt>
      <trkpt lat="45.92212" lon="4.75236">
        <ele>175</ele>
        <time>2018-05-06T08:55:55Z</time>
      </trkpt>
      <trkpt lat="45.92211" lon="4.75245">
        <ele>175</ele>
        <time>2018-05-06T08:55:56Z</time>
      </trkpt>
      <trkpt lat="45.92212" lon="4.75252">
        <ele>175</ele>
        <time>2018-05-06T08:55:57Z</time>
      </trkpt>
      <trkpt lat="45.92212" lon="4.75257">
        <ele>175</ele>
        <time>2018-05-06T08:55:58Z</time>
      </trkpt>
      <trkpt lat="45.92213" lon="4.75265">
        <ele>176</ele>
        <time>2018-05-06T08:55:59Z</time>
      </trkpt>
      <trkpt lat="45.92212" lon="4.75272">
        <ele>176</ele>
        <time>2018-05-06T08:56:00Z</time>
      </trkpt>
      <trkpt lat="45.92212" lon="4.75279">
        <ele>176</ele>
        <time>2018-05-06T08:56:01Z</time>
      </trkpt>
      <trkpt lat="45.92212" lon="4.75286">
        <ele>176</ele>
        <time>2018-05-06T08:56:02Z</time>
      </trkpt>
      <trkpt lat="45.9221" lon="4.75293">
        <ele>176</ele>
        <time>2018-05-06T08:56:03Z</time>
      </trkpt>
      <trkpt lat="45.9221" lon="4.753">
        <ele>176</ele>
        <time>2018-05-06T08:56:04Z</time>
      </trkpt>
      <trkpt lat="45.92209" lon="4.75307">
        <ele>176</ele>
        <time>2018-05-06T08:56:05Z</time>
      </trkpt>
      <trkpt lat="45.92207" lon="4.75313">
        <ele>176</ele>
        <time>2018-05-06T08:56:06Z</time>
      </trkpt>
      <trkpt lat="45.92205" lon="4.7532">
        <ele>176</ele>
        <time>2018-05-06T08:56:07Z</time>
      </trkpt>
      <trkpt lat="45.92206" lon="4.75332">
        <ele>176</ele>
        <time>2018-05-06T08:56:09Z</time>
      </trkpt>
      <trkpt lat="45.92205" lon="4.75339">
        <ele>177</ele>
        <time>2018-05-06T08:56:10Z</time>
      </trkpt>
      <trkpt lat="45.92203" lon="4.75345">
        <ele>177</ele>
        <time>2018-05-06T08:56:11Z</time>
      </trkpt>
      <trkpt lat="45.922" lon="4.75352">
        <ele>177</ele>
        <time>2018-05-06T08:56:12Z</time>
      </trkpt>
      <trkpt lat="45.92198" lon="4.75358">
        <ele>177</ele>
        <time>2018-05-06T08:56:13Z</time>
      </trkpt>
      <trkpt lat="45.92197" lon="4.75366">
        <ele>177</ele>
        <time>2018-05-06T08:56:14Z</time>
      </trkpt>
      <trkpt lat="45.92193" lon="4.75377">
        <ele>177</ele>
        <time>2018-05-06T08:56:16Z</time>
      </trkpt>
      <trkpt lat="45.9219" lon="4.75384">
        <ele>177</ele>
        <time>2018-05-06T08:56:17Z</time>
      </trkpt>
      <trkpt lat="45.92187" lon="4.7539">
        <ele>177</ele>
        <time>2018-05-06T08:56:18Z</time>
      </trkpt>
      <trkpt lat="45.92184" lon="4.75394">
        <ele>177</ele>
        <time>2018-05-06T08:56:19Z</time>
      </trkpt>
      <trkpt lat="45.92181" lon="4.75399">
        <ele>177</ele>
        <time>2018-05-06T08:56:20Z</time>
      </trkpt>
      <trkpt lat="45.92179" lon="4.75407">
        <ele>177</ele>
        <time>2018-05-06T08:56:21Z</time>
      </trkpt>
      <trkpt lat="45.92175" lon="4.75414">
        <ele>178</ele>
        <time>2018-05-06T08:56:22Z</time>
      </trkpt>
      <trkpt lat="45.92172" lon="4.75421">
        <ele>177</ele>
        <time>2018-05-06T08:56:23Z</time>
      </trkpt>
      <trkpt lat="45.92169" lon="4.75428">
        <ele>177</ele>
        <time>2018-05-06T08:56:24Z</time>
      </trkpt>
      <trkpt lat="45.92167" lon="4.75438">
        <ele>177</ele>
        <time>2018-05-06T08:56:25Z</time>
      </trkpt>
      <trkpt lat="45.92164" lon="4.75445">
        <ele>177</ele>
        <time>2018-05-06T08:56:26Z</time>
      </trkpt>
      <trkpt lat="45.92161" lon="4.75452">
        <ele>176</ele>
        <time>2018-05-06T08:56:27Z</time>
      </trkpt>
      <trkpt lat="45.92157" lon="4.75461">
        <ele>176</ele>
        <time>2018-05-06T08:56:28Z</time>
      </trkpt>
      <trkpt lat="45.92154" lon="4.75468">
        <ele>176</ele>
        <time>2018-05-06T08:56:29Z</time>
      </trkpt>
      <trkpt lat="45.92151" lon="4.75477">
        <ele>176</ele>
        <time>2018-05-06T08:56:30Z</time>
      </trkpt>
      <trkpt lat="45.92148" lon="4.75485">
        <ele>176</ele>
        <time>2018-05-06T08:56:31Z</time>
      </trkpt>
      <trkpt lat="45.92143" lon="4.75493">
        <ele>176</ele>
        <time>2018-05-06T08:56:32Z</time>
      </trkpt>
      <trkpt lat="45.92139" lon="4.75501">
        <ele>174</ele>
        <time>2018-05-06T08:56:33Z</time>
      </trkpt>
      <trkpt lat="45.92136" lon="4.75508">
        <ele>174</ele>
        <time>2018-05-06T08:56:34Z</time>
      </trkpt>
      <trkpt lat="45.92132" lon="4.75516">
        <ele>174</ele>
        <time>2018-05-06T08:56:35Z</time>
      </trkpt>
      <trkpt lat="45.92128" lon="4.75523">
        <ele>174</ele>
        <time>2018-05-06T08:56:36Z</time>
      </trkpt>
      <trkpt lat="45.92123" lon="4.75531">
        <ele>174</ele>
        <time>2018-05-06T08:56:37Z</time>
      </trkpt>
      <trkpt lat="45.9212" lon="4.75539">
        <ele>174</ele>
        <time>2018-05-06T08:56:38Z</time>
      </trkpt>
      <trkpt lat="45.92115" lon="4.75545">
        <ele>174</ele>
        <time>2018-05-06T08:56:39Z</time>
      </trkpt>
      <trkpt lat="45.92111" lon="4.75552">
        <ele>174</ele>
        <time>2018-05-06T08:56:40Z</time>
      </trkpt>
      <trkpt lat="45.92106" lon="4.7556">
        <ele>174</ele>
        <time>2018-05-06T08:56:41Z</time>
      </trkpt>
      <trkpt lat="45.92102" lon="4.75568">
        <ele>174</ele>
        <time>2018-05-06T08:56:42Z</time>
      </trkpt>
      <trkpt lat="45.92099" lon="4.75575">
        <ele>174</ele>
        <time>2018-05-06T08:56:43Z</time>
      </trkpt>
      <trkpt lat="45.92095" lon="4.75582">
        <ele>174</ele>
        <time>2018-05-06T08:56:44Z</time>
      </trkpt>
      <trkpt lat="45.92091" lon="4.75588">
        <ele>174</ele>
        <time>2018-05-06T08:56:45Z</time>
      </trkpt>
      <trkpt lat="45.92088" lon="4.75595">
        <ele>174</ele>
        <time>2018-05-06T08:56:46Z</time>
      </trkpt>
      <trkpt lat="45.92086" lon="4.75603">
        <ele>174</ele>
        <time>2018-05-06T08:56:47Z</time>
      </trkpt>
      <trkpt lat="45.92082" lon="4.75609">
        <ele>175</ele>
        <time>2018-05-06T08:56:48Z</time>
      </trkpt>
      <trkpt lat="45.92079" lon="4.75615">
        <ele>175</ele>
        <time>2018-05-06T08:56:49Z</time>
      </trkpt>
      <trkpt lat="45.92076" lon="4.75621">
        <ele>175</ele>
        <time>2018-05-06T08:56:50Z</time>
      </trkpt>
      <trkpt lat="45.92072" lon="4.75627">
        <ele>175</ele>
        <time>2018-05-06T08:56:51Z</time>
      </trkpt>
      <trkpt lat="45.92069" lon="4.75635">
        <ele>175</ele>
        <time>2018-05-06T08:56:52Z</time>
      </trkpt>
      <trkpt lat="45.92066" lon="4.75641">
        <ele>175</ele>
        <time>2018-05-06T08:56:53Z</time>
      </trkpt>
      <trkpt lat="45.9206" lon="4.75645">
        <ele>175</ele>
        <time>2018-05-06T08:56:54Z</time>
      </trkpt>
      <trkpt lat="45.92057" lon="4.75651">
        <ele>175</ele>
        <time>2018-05-06T08:56:55Z</time>
      </trkpt>
      <trkpt lat="45.92054" lon="4.75658">
        <ele>175</ele>
        <time>2018-05-06T08:56:56Z</time>
      </trkpt>
      <trkpt lat="45.92051" lon="4.75664">
        <ele>175</ele>
        <time>2018-05-06T08:56:57Z</time>
      </trkpt>
      <trkpt lat="45.92045" lon="4.75668">
        <ele>175</ele>
        <time>2018-05-06T08:56:58Z</time>
      </trkpt>
      <trkpt lat="45.92043" lon="4.75675">
        <ele>175</ele>
        <time>2018-05-06T08:56:59Z</time>
      </trkpt>
      <trkpt lat="45.9204" lon="4.75682">
        <ele>175</ele>
        <time>2018-05-06T08:57:00Z</time>
      </trkpt>
      <trkpt lat="45.92036" lon="4.75689">
        <ele>175</ele>
        <time>2018-05-06T08:57:01Z</time>
      </trkpt>
      <trkpt lat="45.92033" lon="4.75696">
        <ele>175</ele>
        <time>2018-05-06T08:57:02Z</time>
      </trkpt>
      <trkpt lat="45.92028" lon="4.75704">
        <ele>175</ele>
        <time>2018-05-06T08:57:03Z</time>
      </trkpt>
      <trkpt lat="45.92025" lon="4.7571">
        <ele>175</ele>
        <time>2018-05-06T08:57:04Z</time>
      </trkpt>
      <trkpt lat="45.92021" lon="4.75717">
        <ele>175</ele>
        <time>2018-05-06T08:57:05Z</time>
      </trkpt>
      <trkpt lat="45.92017" lon="4.75724">
        <ele>175</ele>
        <time>2018-05-06T08:57:06Z</time>
      </trkpt>
      <trkpt lat="45.92014" lon="4.75731">
        <ele>175</ele>
        <time>2018-05-06T08:57:07Z</time>
      </trkpt>
      <trkpt lat="45.9201" lon="4.75738">
        <ele>174</ele>
        <time>2018-05-06T08:57:08Z</time>
      </trkpt>
      <trkpt lat="45.92006" lon="4.75745">
        <ele>174</ele>
        <time>2018-05-06T08:57:09Z</time>
      </trkpt>
      <trkpt lat="45.92002" lon="4.75752">
        <ele>174</ele>
        <time>2018-05-06T08:57:10Z</time>
      </trkpt>
      <trkpt lat="45.91999" lon="4.75759">
        <ele>174</ele>
        <time>2018-05-06T08:57:11Z</time>
      </trkpt>
      <trkpt lat="45.91996" lon="4.75766">
        <ele>174</ele>
        <time>2018-05-06T08:57:12Z</time>
      </trkpt>
      <trkpt lat="45.91994" lon="4.75771">
        <ele>174</ele>
        <time>2018-05-06T08:57:13Z</time>
      </trkpt>
      <trkpt lat="45.9199" lon="4.75777">
        <ele>174</ele>
        <time>2018-05-06T08:57:14Z</time>
      </trkpt>
      <trkpt lat="45.91986" lon="4.75784">
        <ele>173</ele>
        <time>2018-05-06T08:57:15Z</time>
      </trkpt>
      <trkpt lat="45.91983" lon="4.75791">
        <ele>173</ele>
        <time>2018-05-06T08:57:16Z</time>
      </trkpt>
      <trkpt lat="45.91979" lon="4.75797">
        <ele>173</ele>
        <time>2018-05-06T08:57:17Z</time>
      </trkpt>
      <trkpt lat="45.91975" lon="4.75804">
        <ele>173</ele>
        <time>2018-05-06T08:57:18Z</time>
      </trkpt>
      <trkpt lat="45.91971" lon="4.75811">
        <ele>173</ele>
        <time>2018-05-06T08:57:19Z</time>
      </trkpt>
      <trkpt lat="45.91968" lon="4.75817">
        <ele>173</ele>
        <time>2018-05-06T08:57:20Z</time>
      </trkpt>
      <trkpt lat="45.91964" lon="4.75823">
        <ele>173</ele>
        <time>2018-05-06T08:57:21Z</time>
      </trkpt>
      <trkpt lat="45.9196" lon="4.7583">
        <ele>173</ele>
        <time>2018-05-06T08:57:22Z</time>
      </trkpt>
      <trkpt lat="45.91957" lon="4.75836">
        <ele>172</ele>
        <time>2018-05-06T08:57:23Z</time>
      </trkpt>
      <trkpt lat="45.91954" lon="4.75842">
        <ele>172</ele>
        <time>2018-05-06T08:57:24Z</time>
      </trkpt>
      <trkpt lat="45.91949" lon="4.75847">
        <ele>172</ele>
        <time>2018-05-06T08:57:25Z</time>
      </trkpt>
      <trkpt lat="45.91945" lon="4.75853">
        <ele>172</ele>
        <time>2018-05-06T08:57:26Z</time>
      </trkpt>
      <trkpt lat="45.91942" lon="4.7586">
        <ele>172</ele>
        <time>2018-05-06T08:57:27Z</time>
      </trkpt>
      <trkpt lat="45.91938" lon="4.75866">
        <ele>172</ele>
        <time>2018-05-06T08:57:28Z</time>
      </trkpt>
      <trkpt lat="45.91935" lon="4.75874">
        <ele>172</ele>
        <time>2018-05-06T08:57:29Z</time>
      </trkpt>
      <trkpt lat="45.91932" lon="4.75881">
        <ele>172</ele>
        <time>2018-05-06T08:57:30Z</time>
      </trkpt>
      <trkpt lat="45.91929" lon="4.75888">
        <ele>172</ele>
        <time>2018-05-06T08:57:31Z</time>
      </trkpt>
      <trkpt lat="45.91926" lon="4.75895">
        <ele>172</ele>
        <time>2018-05-06T08:57:32Z</time>
      </trkpt>
      <trkpt lat="45.91924" lon="4.75903">
        <ele>172</ele>
        <time>2018-05-06T08:57:33Z</time>
      </trkpt>
      <trkpt lat="45.91922" lon="4.7591">
        <ele>172</ele>
        <time>2018-05-06T08:57:34Z</time>
      </trkpt>
      <trkpt lat="45.91921" lon="4.75916">
        <ele>172</ele>
        <time>2018-05-06T08:57:35Z</time>
      </trkpt>
      <trkpt lat="45.91919" lon="4.75923">
        <ele>172</ele>
        <time>2018-05-06T08:57:36Z</time>
      </trkpt>
      <trkpt lat="45.91916" lon="4.7593">
        <ele>173</ele>
        <time>2018-05-06T08:57:37Z</time>
      </trkpt>
      <trkpt lat="45.91914" lon="4.7594">
        <ele>173</ele>
        <time>2018-05-06T08:57:38Z</time>
      </trkpt>
      <trkpt lat="45.91912" lon="4.75947">
        <ele>173</ele>
        <time>2018-05-06T08:57:39Z</time>
      </trkpt>
      <trkpt lat="45.9191" lon="4.75953">
        <ele>173</ele>
        <time>2018-05-06T08:57:40Z</time>
      </trkpt>
      <trkpt lat="45.91908" lon="4.75959">
        <ele>173</ele>
        <time>2018-05-06T08:57:41Z</time>
      </trkpt>
      <trkpt lat="45.91906" lon="4.75967">
        <ele>173</ele>
        <time>2018-05-06T08:57:42Z</time>
      </trkpt>
      <trkpt lat="45.91905" lon="4.75974">
        <ele>173</ele>
        <time>2018-05-06T08:57:43Z</time>
      </trkpt>
      <trkpt lat="45.91903" lon="4.7598">
        <ele>173</ele>
        <time>2018-05-06T08:57:44Z</time>
      </trkpt>
      <trkpt lat="45.91901" lon="4.75988">
        <ele>173</ele>
        <time>2018-05-06T08:57:45Z</time>
      </trkpt>
      <trkpt lat="45.91899" lon="4.75996">
        <ele>173</ele>
        <time>2018-05-06T08:57:46Z</time>
      </trkpt>
      <trkpt lat="45.91897" lon="4.76002">
        <ele>173</ele>
        <time>2018-05-06T08:57:47Z</time>
      </trkpt>
      <trkpt lat="45.91896" lon="4.76008">
        <ele>173</ele>
        <time>2018-05-06T08:57:48Z</time>
      </trkpt>
      <trkpt lat="45.91894" lon="4.76015">
        <ele>173</ele>
        <time>2018-05-06T08:57:49Z</time>
      </trkpt>
      <trkpt lat="45.91893" lon="4.76022">
        <ele>173</ele>
        <time>2018-05-06T08:57:50Z</time>
      </trkpt>
      <trkpt lat="45.91891" lon="4.7603">
        <ele>173</ele>
        <time>2018-05-06T08:57:51Z</time>
      </trkpt>
      <trkpt lat="45.91889" lon="4.76037">
        <ele>173</ele>
        <time>2018-05-06T08:57:52Z</time>
      </trkpt>
      <trkpt lat="45.91887" lon="4.76045">
        <ele>173</ele>
        <time>2018-05-06T08:57:53Z</time>
      </trkpt>
      <trkpt lat="45.91885" lon="4.76052">
        <ele>173</ele>
        <time>2018-05-06T08:57:54Z</time>
      </trkpt>
      <trkpt lat="45.91884" lon="4.7606">
        <ele>173</ele>
        <time>2018-05-06T08:57:55Z</time>
      </trkpt>
      <trkpt lat="45.91881" lon="4.76065">
        <ele>173</ele>
        <time>2018-05-06T08:57:56Z</time>
      </trkpt>
      <trkpt lat="45.91879" lon="4.76072">
        <ele>173</ele>
        <time>2018-05-06T08:57:57Z</time>
      </trkpt>
      <trkpt lat="45.91876" lon="4.7608">
        <ele>173</ele>
        <time>2018-05-06T08:57:58Z</time>
      </trkpt>
      <trkpt lat="45.91874" lon="4.76087">
        <ele>173</ele>
        <time>2018-05-06T08:57:59Z</time>
      </trkpt>
      <trkpt lat="45.91872" lon="4.76094">
        <ele>173</ele>
        <time>2018-05-06T08:58:00Z</time>
      </trkpt>
      <trkpt lat="45.91871" lon="4.76102">
        <ele>173</ele>
        <time>2018-05-06T08:58:01Z</time>
      </trkpt>
      <trkpt lat="45.91869" lon="4.7611">
        <ele>173</ele>
        <time>2018-05-06T08:58:02Z</time>
      </trkpt>
      <trkpt lat="45.91868" lon="4.76118">
        <ele>173</ele>
        <time>2018-05-06T08:58:03Z</time>
      </trkpt>
      <trkpt lat="45.91865" lon="4.76126">
        <ele>173</ele>
        <time>2018-05-06T08:58:04Z</time>
      </trkpt>
      <trkpt lat="45.91863" lon="4.76134">
        <ele>173</ele>
        <time>2018-05-06T08:58:05Z</time>
      </trkpt>
      <trkpt lat="45.91861" lon="4.76142">
        <ele>173</ele>
        <time>2018-05-06T08:58:06Z</time>
      </trkpt>
      <trkpt lat="45.91859" lon="4.76149">
        <ele>173</ele>
        <time>2018-05-06T08:58:07Z</time>
      </trkpt>
      <trkpt lat="45.91857" lon="4.76156">
        <ele>173</ele>
        <time>2018-05-06T08:58:08Z</time>
      </trkpt>
      <trkpt lat="45.91854" lon="4.76164">
        <ele>173</ele>
        <time>2018-05-06T08:58:09Z</time>
      </trkpt>
      <trkpt lat="45.91852" lon="4.76171">
        <ele>172</ele>
        <time>2018-05-06T08:58:10Z</time>
      </trkpt>
      <trkpt lat="45.91849" lon="4.76181">
        <ele>172</ele>
        <time>2018-05-06T08:58:11Z</time>
      </trkpt>
      <trkpt lat="45.91847" lon="4.76189">
        <ele>172</ele>
        <time>2018-05-06T08:58:12Z</time>
      </trkpt>
      <trkpt lat="45.91846" lon="4.76196">
        <ele>172</ele>
        <time>2018-05-06T08:58:13Z</time>
      </trkpt>
      <trkpt lat="45.91844" lon="4.76203">
        <ele>172</ele>
        <time>2018-05-06T08:58:14Z</time>
      </trkpt>
      <trkpt lat="45.91842" lon="4.7621">
        <ele>172</ele>
        <time>2018-05-06T08:58:15Z</time>
      </trkpt>
      <trkpt lat="45.91841" lon="4.76217">
        <ele>172</ele>
        <time>2018-05-06T08:58:16Z</time>
      </trkpt>
      <trkpt lat="45.91839" lon="4.76224">
        <ele>172</ele>
        <time>2018-05-06T08:58:17Z</time>
      </trkpt>
      <trkpt lat="45.91837" lon="4.76232">
        <ele>173</ele>
        <time>2018-05-06T08:58:18Z</time>
      </trkpt>
      <trkpt lat="45.91836" lon="4.76239">
        <ele>173</ele>
        <time>2018-05-06T08:58:19Z</time>
      </trkpt>
      <trkpt lat="45.91833" lon="4.76247">
        <ele>173</ele>
        <time>2018-05-06T08:58:20Z</time>
      </trkpt>
      <trkpt lat="45.91831" lon="4.76254">
        <ele>173</ele>
        <time>2018-05-06T08:58:21Z</time>
      </trkpt>
      <trkpt lat="45.91829" lon="4.76262">
        <ele>174</ele>
        <time>2018-05-06T08:58:22Z</time>
      </trkpt>
      <trkpt lat="45.91828" lon="4.76269">
        <ele>174</ele>
        <time>2018-05-06T08:58:23Z</time>
      </trkpt>
      <trkpt lat="45.91825" lon="4.76278">
        <ele>174</ele>
        <time>2018-05-06T08:58:24Z</time>
      </trkpt>
      <trkpt lat="45.91823" lon="4.76286">
        <ele>174</ele>
        <time>2018-05-06T08:58:25Z</time>
      </trkpt>
      <trkpt lat="45.91821" lon="4.76293">
        <ele>174</ele>
        <time>2018-05-06T08:58:26Z</time>
      </trkpt>
      <trkpt lat="45.9182" lon="4.76301">
        <ele>174</ele>
        <time>2018-05-06T08:58:27Z</time>
      </trkpt>
      <trkpt lat="45.91819" lon="4.76308">
        <ele>174</ele>
        <time>2018-05-06T08:58:28Z</time>
      </trkpt>
      <trkpt lat="45.91817" lon="4.76315">
        <ele>174</ele>
        <time>2018-05-06T08:58:29Z</time>
      </trkpt>
      <trkpt lat="45.91815" lon="4.7632">
        <ele>174</ele>
        <time>2018-05-06T08:58:30Z</time>
      </trkpt>
      <trkpt lat="45.91813" lon="4.76328">
        <ele>174</ele>
        <time>2018-05-06T08:58:31Z</time>
      </trkpt>
      <trkpt lat="45.91812" lon="4.7634">
        <ele>174</ele>
        <time>2018-05-06T08:58:33Z</time>
      </trkpt>
      <trkpt lat="45.91811" lon="4.76348">
        <ele>174</ele>
        <time>2018-05-06T08:58:34Z</time>
      </trkpt>
      <trkpt lat="45.91809" lon="4.76354">
        <ele>174</ele>
        <time>2018-05-06T08:58:35Z</time>
      </trkpt>
      <trkpt lat="45.91808" lon="4.76362">
        <ele>174</ele>
        <time>2018-05-06T08:58:36Z</time>
      </trkpt>
      <trkpt lat="45.91807" lon="4.76367">
        <ele>174</ele>
        <time>2018-05-06T08:58:37Z</time>
      </trkpt>
      <trkpt lat="45.91806" lon="4.76376">
        <ele>174</ele>
        <time>2018-05-06T08:58:38Z</time>
      </trkpt>
      <trkpt lat="45.91807" lon="4.76384">
        <ele>174</ele>
        <time>2018-05-06T08:58:39Z</time>
      </trkpt>
      <trkpt lat="45.91806" lon="4.76393">
        <ele>174</ele>
        <time>2018-05-06T08:58:40Z</time>
      </trkpt>
      <trkpt lat="45.91806" lon="4.76401">
        <ele>174</ele>
        <time>2018-05-06T08:58:41Z</time>
      </trkpt>
      <trkpt lat="45.91806" lon="4.76409">
        <ele>173</ele>
        <time>2018-05-06T08:58:42Z</time>
      </trkpt>
      <trkpt lat="45.91805" lon="4.76417">
        <ele>173</ele>
        <time>2018-05-06T08:58:43Z</time>
      </trkpt>
      <trkpt lat="45.91805" lon="4.76424">
        <ele>173</ele>
        <time>2018-05-06T08:58:44Z</time>
      </trkpt>
      <trkpt lat="45.91804" lon="4.76432">
        <ele>173</ele>
        <time>2018-05-06T08:58:45Z</time>
      </trkpt>
      <trkpt lat="45.91804" lon="4.76441">
        <ele>173</ele>
        <time>2018-05-06T08:58:46Z</time>
      </trkpt>
      <trkpt lat="45.91805" lon="4.76448">
        <ele>173</ele>
        <time>2018-05-06T08:58:47Z</time>
      </trkpt>
      <trkpt lat="45.91804" lon="4.76455">
        <ele>173</ele>
        <time>2018-05-06T08:58:48Z</time>
      </trkpt>
      <trkpt lat="45.91804" lon="4.76463">
        <ele>173</ele>
        <time>2018-05-06T08:58:49Z</time>
      </trkpt>
      <trkpt lat="45.91802" lon="4.76471">
        <ele>173</ele>
        <time>2018-05-06T08:58:50Z</time>
      </trkpt>
      <trkpt lat="45.91801" lon="4.76479">
        <ele>173</ele>
        <time>2018-05-06T08:58:51Z</time>
      </trkpt>
      <trkpt lat="45.91801" lon="4.76486">
        <ele>173</ele>
        <time>2018-05-06T08:58:52Z</time>
      </trkpt>
      <trkpt lat="45.91799" lon="4.76494">
        <ele>173</ele>
        <time>2018-05-06T08:58:53Z</time>
      </trkpt>
      <trkpt lat="45.91799" lon="4.765">
        <ele>173</ele>
        <time>2018-05-06T08:58:54Z</time>
      </trkpt>
      <trkpt lat="45.91798" lon="4.76509">
        <ele>173</ele>
        <time>2018-05-06T08:58:55Z</time>
      </trkpt>
      <trkpt lat="45.91797" lon="4.76516">
        <ele>173</ele>
        <time>2018-05-06T08:58:56Z</time>
      </trkpt>
      <trkpt lat="45.91797" lon="4.76524">
        <ele>173</ele>
        <time>2018-05-06T08:58:57Z</time>
      </trkpt>
      <trkpt lat="45.91796" lon="4.76531">
        <ele>173</ele>
        <time>2018-05-06T08:58:58Z</time>
      </trkpt>
      <trkpt lat="45.91796" lon="4.76538">
        <ele>173</ele>
        <time>2018-05-06T08:58:59Z</time>
      </trkpt>
      <trkpt lat="45.91795" lon="4.76546">
        <ele>173</ele>
        <time>2018-05-06T08:59:00Z</time>
      </trkpt>
      <trkpt lat="45.91795" lon="4.76554">
        <ele>173</ele>
        <time>2018-05-06T08:59:01Z</time>
      </trkpt>
      <trkpt lat="45.91794" lon="4.76562">
        <ele>173</ele>
        <time>2018-05-06T08:59:02Z</time>
      </trkpt>
      <trkpt lat="45.91793" lon="4.7657">
        <ele>173</ele>
        <time>2018-05-06T08:59:03Z</time>
      </trkpt>
      <trkpt lat="45.91793" lon="4.76578">
        <ele>173</ele>
        <time>2018-05-06T08:59:04Z</time>
      </trkpt>
      <trkpt lat="45.91791" lon="4.76584">
        <ele>173</ele>
        <time>2018-05-06T08:59:05Z</time>
      </trkpt>
      <trkpt lat="45.9179" lon="4.76593">
        <ele>173</ele>
        <time>2018-05-06T08:59:06Z</time>
      </trkpt>
      <trkpt lat="45.91791" lon="4.76603">
        <ele>173</ele>
        <time>2018-05-06T08:59:07Z</time>
      </trkpt>
      <trkpt lat="45.91789" lon="4.76611">
        <ele>173</ele>
        <time>2018-05-06T08:59:08Z</time>
      </trkpt>
      <trkpt lat="45.91788" lon="4.7662">
        <ele>173</ele>
        <time>2018-05-06T08:59:09Z</time>
      </trkpt>
      <trkpt lat="45.91786" lon="4.7663">
        <ele>173</ele>
        <time>2018-05-06T08:59:10Z</time>
      </trkpt>
      <trkpt lat="45.91786" lon="4.76639">
        <ele>173</ele>
        <time>2018-05-06T08:59:11Z</time>
      </trkpt>
      <trkpt lat="45.91785" lon="4.76648">
        <ele>173</ele>
        <time>2018-05-06T08:59:12Z</time>
      </trkpt>
      <trkpt lat="45.91784" lon="4.76657">
        <ele>173</ele>
        <time>2018-05-06T08:59:13Z</time>
      </trkpt>
      <trkpt lat="45.91783" lon="4.76667">
        <ele>173</ele>
        <time>2018-05-06T08:59:14Z</time>
      </trkpt>
      <trkpt lat="45.91782" lon="4.76676">
        <ele>172</ele>
        <time>2018-05-06T08:59:15Z</time>
      </trkpt>
      <trkpt lat="45.9178" lon="4.76684">
        <ele>172</ele>
        <time>2018-05-06T08:59:16Z</time>
      </trkpt>
      <trkpt lat="45.91779" lon="4.76693">
        <ele>172</ele>
        <time>2018-05-06T08:59:17Z</time>
      </trkpt>
      <trkpt lat="45.91779" lon="4.76704">
        <ele>172</ele>
        <time>2018-05-06T08:59:18Z</time>
      </trkpt>
      <trkpt lat="45.91778" lon="4.76713">
        <ele>172</ele>
        <time>2018-05-06T08:59:19Z</time>
      </trkpt>
      <trkpt lat="45.91776" lon="4.76721">
        <ele>172</ele>
        <time>2018-05-06T08:59:20Z</time>
      </trkpt>
      <trkpt lat="45.91775" lon="4.7673">
        <ele>172</ele>
        <time>2018-05-06T08:59:21Z</time>
      </trkpt>
      <trkpt lat="45.91774" lon="4.76739">
        <ele>172</ele>
        <time>2018-05-06T08:59:22Z</time>
      </trkpt>
      <trkpt lat="45.91774" lon="4.76748">
        <ele>172</ele>
        <time>2018-05-06T08:59:23Z</time>
      </trkpt>
      <trkpt lat="45.91773" lon="4.76758">
        <ele>171</ele>
        <time>2018-05-06T08:59:24Z</time>
      </trkpt>
      <trkpt lat="45.91773" lon="4.76768">
        <ele>171</ele>
        <time>2018-05-06T08:59:25Z</time>
      </trkpt>
      <trkpt lat="45.91772" lon="4.76777">
        <ele>171</ele>
        <time>2018-05-06T08:59:26Z</time>
      </trkpt>
      <trkpt lat="45.91772" lon="4.76786">
        <ele>171</ele>
        <time>2018-05-06T08:59:27Z</time>
      </trkpt>
      <trkpt lat="45.91771" lon="4.76796">
        <ele>171</ele>
        <time>2018-05-06T08:59:28Z</time>
      </trkpt>
      <trkpt lat="45.91771" lon="4.76806">
        <ele>171</ele>
        <time>2018-05-06T08:59:29Z</time>
      </trkpt>
      <trkpt lat="45.91771" lon="4.76815">
        <ele>171</ele>
        <time>2018-05-06T08:59:30Z</time>
      </trkpt>
      <trkpt lat="45.9177" lon="4.76824">
        <ele>171</ele>
        <time>2018-05-06T08:59:31Z</time>
      </trkpt>
      <trkpt lat="45.91771" lon="4.76835">
        <ele>171</ele>
        <time>2018-05-06T08:59:32Z</time>
      </trkpt>
      <trkpt lat="45.91769" lon="4.76845">
        <ele>171</ele>
        <time>2018-05-06T08:59:33Z</time>
      </trkpt>
      <trkpt lat="45.9177" lon="4.76854">
        <ele>171</ele>
        <time>2018-05-06T08:59:34Z</time>
      </trkpt>
      <trkpt lat="45.91771" lon="4.76864">
        <ele>170</ele>
        <time>2018-05-06T08:59:35Z</time>
      </trkpt>
      <trkpt lat="45.9177" lon="4.76874">
        <ele>170</ele>
        <time>2018-05-06T08:59:36Z</time>
      </trkpt>
      <trkpt lat="45.9177" lon="4.76883">
        <ele>170</ele>
        <time>2018-05-06T08:59:37Z</time>
      </trkpt>
      <trkpt lat="45.91768" lon="4.76893">
        <ele>170</ele>
        <time>2018-05-06T08:59:38Z</time>
      </trkpt>
      <trkpt lat="45.91768" lon="4.76903">
        <ele>171</ele>
        <time>2018-05-06T08:59:39Z</time>
      </trkpt>
      <trkpt lat="45.91767" lon="4.76912">
        <ele>171</ele>
        <time>2018-05-06T08:59:40Z</time>
      </trkpt>
      <trkpt lat="45.91766" lon="4.76923">
        <ele>170</ele>
        <time>2018-05-06T08:59:41Z</time>
      </trkpt>
      <trkpt lat="45.91765" lon="4.76933">
        <ele>170</ele>
        <time>2018-05-06T08:59:42Z</time>
      </trkpt>
      <trkpt lat="45.91764" lon="4.76943">
        <ele>170</ele>
        <time>2018-05-06T08:59:43Z</time>
      </trkpt>
      <trkpt lat="45.91764" lon="4.76953">
        <ele>169</ele>
        <time>2018-05-06T08:59:44Z</time>
      </trkpt>
      <trkpt lat="45.91763" lon="4.76963">
        <ele>169</ele>
        <time>2018-05-06T08:59:45Z</time>
      </trkpt>
      <trkpt lat="45.91761" lon="4.76974">
        <ele>169</ele>
        <time>2018-05-06T08:59:46Z</time>
      </trkpt>
      <trkpt lat="45.91761" lon="4.76984">
        <ele>169</ele>
        <time>2018-05-06T08:59:47Z</time>
      </trkpt>
      <trkpt lat="45.91758" lon="4.76994">
        <ele>169</ele>
        <time>2018-05-06T08:59:48Z</time>
      </trkpt>
      <trkpt lat="45.91757" lon="4.77003">
        <ele>169</ele>
        <time>2018-05-06T08:59:49Z</time>
      </trkpt>
      <trkpt lat="45.91756" lon="4.77012">
        <ele>169</ele>
        <time>2018-05-06T08:59:50Z</time>
      </trkpt>
      <trkpt lat="45.91756" lon="4.77021">
        <ele>169</ele>
        <time>2018-05-06T08:59:51Z</time>
      </trkpt>
      <trkpt lat="45.91754" lon="4.7703">
        <ele>169</ele>
        <time>2018-05-06T08:59:52Z</time>
      </trkpt>
      <trkpt lat="45.91752" lon="4.7704">
        <ele>169</ele>
        <time>2018-05-06T08:59:53Z</time>
      </trkpt>
      <trkpt lat="45.91751" lon="4.77049">
        <ele>169</ele>
        <time>2018-05-06T08:59:54Z</time>
      </trkpt>
      <trkpt lat="45.9175" lon="4.77059">
        <ele>170</ele>
        <time>2018-05-06T08:59:55Z</time>
      </trkpt>
      <trkpt lat="45.91748" lon="4.77066">
        <ele>170</ele>
        <time>2018-05-06T08:59:56Z</time>
      </trkpt>
      <trkpt lat="45.91747" lon="4.77075">
        <ele>170</ele>
        <time>2018-05-06T08:59:57Z</time>
      </trkpt>
      <trkpt lat="45.91746" lon="4.77084">
        <ele>169</ele>
        <time>2018-05-06T08:59:58Z</time>
      </trkpt>
      <trkpt lat="45.91744" lon="4.77093">
        <ele>169</ele>
        <time>2018-05-06T08:59:59Z</time>
      </trkpt>
      <trkpt lat="45.91743" lon="4.77102">
        <ele>170</ele>
        <time>2018-05-06T09:00:00Z</time>
      </trkpt>
      <trkpt lat="45.91743" lon="4.7711">
        <ele>170</ele>
        <time>2018-05-06T09:00:01Z</time>
      </trkpt>
      <trkpt lat="45.91742" lon="4.77118">
        <ele>170</ele>
        <time>2018-05-06T09:00:02Z</time>
      </trkpt>
      <trkpt lat="45.91741" lon="4.77126">
        <ele>170</ele>
        <time>2018-05-06T09:00:03Z</time>
      </trkpt>
      <trkpt lat="45.91739" lon="4.77133">
        <ele>170</ele>
        <time>2018-05-06T09:00:04Z</time>
      </trkpt>
      <trkpt lat="45.91738" lon="4.7714">
        <ele>170</ele>
        <time>2018-05-06T09:00:05Z</time>
      </trkpt>
      <trkpt lat="45.91737" lon="4.77148">
        <ele>170</ele>
        <time>2018-05-06T09:00:06Z</time>
      </trkpt>
      <trkpt lat="45.91734" lon="4.77156">
        <ele>170</ele>
        <time>2018-05-06T09:00:08Z</time>
      </trkpt>
      <trkpt lat="45.91731" lon="4.77161">
        <ele>170</ele>
        <time>2018-05-06T09:00:09Z</time>
      </trkpt>
      <trkpt lat="45.91725" lon="4.77168">
        <ele>170</ele>
        <time>2018-05-06T09:00:11Z</time>
      </trkpt>
      <trkpt lat="45.91723" lon="4.77172">
        <ele>170</ele>
        <time>2018-05-06T09:00:12Z</time>
      </trkpt>
      <trkpt lat="45.91719" lon="4.77183">
        <ele>170</ele>
        <time>2018-05-06T09:00:14Z</time>
      </trkpt>
      <trkpt lat="45.91719" lon="4.7719">
        <ele>170</ele>
        <time>2018-05-06T09:00:15Z</time>
      </trkpt>
      <trkpt lat="45.91715" lon="4.77202">
        <ele>170</ele>
        <time>2018-05-06T09:00:17Z</time>
      </trkpt>
      <trkpt lat="45.91713" lon="4.77208">
        <ele>170</ele>
        <time>2018-05-06T09:00:18Z</time>
      </trkpt>
      <trkpt lat="45.91711" lon="4.77216">
        <ele>170</ele>
        <time>2018-05-06T09:00:19Z</time>
      </trkpt>
      <trkpt lat="45.91708" lon="4.77221">
        <ele>170</ele>
        <time>2018-05-06T09:00:20Z</time>
      </trkpt>
      <trkpt lat="45.91705" lon="4.77227">
        <ele>170</ele>
        <time>2018-05-06T09:00:21Z</time>
      </trkpt>
      <trkpt lat="45.91702" lon="4.77233">
        <ele>170</ele>
        <time>2018-05-06T09:00:22Z</time>
      </trkpt>
      <trkpt lat="45.917" lon="4.7724">
        <ele>170</ele>
        <time>2018-05-06T09:00:23Z</time>
      </trkpt>
      <trkpt lat="45.91697" lon="4.77245">
        <ele>170</ele>
        <time>2018-05-06T09:00:24Z</time>
      </trkpt>
      <trkpt lat="45.91694" lon="4.7725">
        <ele>170</ele>
        <time>2018-05-06T09:00:25Z</time>
      </trkpt>
      <trkpt lat="45.91692" lon="4.77259">
        <ele>170</ele>
        <time>2018-05-06T09:00:26Z</time>
      </trkpt>
      <trkpt lat="45.9169" lon="4.77265">
        <ele>170</ele>
        <time>2018-05-06T09:00:27Z</time>
      </trkpt>
      <trkpt lat="45.91688" lon="4.77271">
        <ele>170</ele>
        <time>2018-05-06T09:00:28Z</time>
      </trkpt>
      <trkpt lat="45.91686" lon="4.77283">
        <ele>170</ele>
        <time>2018-05-06T09:00:30Z</time>
      </trkpt>
      <trkpt lat="45.91684" lon="4.77287">
        <ele>170</ele>
        <time>2018-05-06T09:00:31Z</time>
      </trkpt>
      <trkpt lat="45.91681" lon="4.77295">
        <ele>170</ele>
        <time>2018-05-06T09:00:32Z</time>
      </trkpt>
      <trkpt lat="45.91678" lon="4.77302">
        <ele>170</ele>
        <time>2018-05-06T09:00:33Z</time>
      </trkpt>
      <trkpt lat="45.91677" lon="4.77311">
        <ele>171</ele>
        <time>2018-05-06T09:00:34Z</time>
      </trkpt>
      <trkpt lat="45.91675" lon="4.77319">
        <ele>171</ele>
        <time>2018-05-06T09:00:35Z</time>
      </trkpt>
      <trkpt lat="45.91673" lon="4.77326">
        <ele>171</ele>
        <time>2018-05-06T09:00:36Z</time>
      </trkpt>
      <trkpt lat="45.91671" lon="4.77332">
        <ele>172</ele>
        <time>2018-05-06T09:00:37Z</time>
      </trkpt>
      <trkpt lat="45.91669" lon="4.77339">
        <ele>172</ele>
        <time>2018-05-06T09:00:38Z</time>
      </trkpt>
      <trkpt lat="45.91667" lon="4.77345">
        <ele>172</ele>
        <time>2018-05-06T09:00:39Z</time>
      </trkpt>
      <trkpt lat="45.91664" lon="4.7735">
        <ele>172</ele>
        <time>2018-05-06T09:00:40Z</time>
      </trkpt>
      <trkpt lat="45.91662" lon="4.77357">
        <ele>172</ele>
        <time>2018-05-06T09:00:41Z</time>
      </trkpt>
      <trkpt lat="45.9166" lon="4.77366">
        <ele>172</ele>
        <time>2018-05-06T09:00:42Z</time>
      </trkpt>
      <trkpt lat="45.91657" lon="4.77375">
        <ele>172</ele>
        <time>2018-05-06T09:00:43Z</time>
      </trkpt>
      <trkpt lat="45.91655" lon="4.77382">
        <ele>172</ele>
        <time>2018-05-06T09:00:44Z</time>
      </trkpt>
      <trkpt lat="45.91653" lon="4.7739">
        <ele>172</ele>
        <time>2018-05-06T09:00:45Z</time>
      </trkpt>
      <trkpt lat="45.9165" lon="4.77398">
        <ele>172</ele>
        <time>2018-05-06T09:00:46Z</time>
      </trkpt>
      <trkpt lat="45.91648" lon="4.77406">
        <ele>172</ele>
        <time>2018-05-06T09:00:47Z</time>
      </trkpt>
      <trkpt lat="45.91648" lon="4.77415">
        <ele>172</ele>
        <time>2018-05-06T09:00:48Z</time>
      </trkpt>
      <trkpt lat="45.91646" lon="4.77423">
        <ele>172</ele>
        <time>2018-05-06T09:00:49Z</time>
      </trkpt>
      <trkpt lat="45.91642" lon="4.77435">
        <ele>172</ele>
        <time>2018-05-06T09:00:51Z</time>
      </trkpt>
      <trkpt lat="45.9164" lon="4.77442">
        <ele>172</ele>
        <time>2018-05-06T09:00:52Z</time>
      </trkpt>
      <trkpt lat="45.91635" lon="4.77452">
        <ele>171</ele>
        <time>2018-05-06T09:00:54Z</time>
      </trkpt>
      <trkpt lat="45.91634" lon="4.77459">
        <ele>171</ele>
        <time>2018-05-06T09:00:55Z</time>
      </trkpt>
      <trkpt lat="45.91633" lon="4.77467">
        <ele>171</ele>
        <time>2018-05-06T09:00:56Z</time>
      </trkpt>
      <trkpt lat="45.91631" lon="4.77475">
        <ele>171</ele>
        <time>2018-05-06T09:00:57Z</time>
      </trkpt>
      <trkpt lat="45.9163" lon="4.77482">
        <ele>171</ele>
        <time>2018-05-06T09:00:58Z</time>
      </trkpt>
      <trkpt lat="45.91628" lon="4.7749">
        <ele>171</ele>
        <time>2018-05-06T09:00:59Z</time>
      </trkpt>
      <trkpt lat="45.91627" lon="4.77496">
        <ele>171</ele>
        <time>2018-05-06T09:01:00Z</time>
      </trkpt>
      <trkpt lat="45.91625" lon="4.77502">
        <ele>171</ele>
        <time>2018-05-06T09:01:01Z</time>
      </trkpt>
      <trkpt lat="45.91622" lon="4.77514">
        <ele>171</ele>
        <time>2018-05-06T09:01:03Z</time>
      </trkpt>
      <trkpt lat="45.91619" lon="4.77519">
        <ele>171</ele>
        <time>2018-05-06T09:01:04Z</time>
      </trkpt>
      <trkpt lat="45.91615" lon="4.77523">
        <ele>171</ele>
        <time>2018-05-06T09:01:05Z</time>
      </trkpt>
      <trkpt lat="45.91611" lon="4.77527">
        <ele>171</ele>
        <time>2018-05-06T09:01:06Z</time>
      </trkpt>
      <trkpt lat="45.91608" lon="4.77532">
        <ele>171</ele>
        <time>2018-05-06T09:01:07Z</time>
      </trkpt>
      <trkpt lat="45.91605" lon="4.77537">
        <ele>171</ele>
        <time>2018-05-06T09:01:08Z</time>
      </trkpt>
      <trkpt lat="45.91602" lon="4.77544">
        <ele>171</ele>
        <time>2018-05-06T09:01:09Z</time>
      </trkpt>
      <trkpt lat="45.91599" lon="4.77549">
        <ele>171</ele>
        <time>2018-05-06T09:01:10Z</time>
      </trkpt>
      <trkpt lat="45.91594" lon="4.77554">
        <ele>172</ele>
        <time>2018-05-06T09:01:11Z</time>
      </trkpt>
      <trkpt lat="45.91591" lon="4.7756">
        <ele>172</ele>
        <time>2018-05-06T09:01:12Z</time>
      </trkpt>
      <trkpt lat="45.91588" lon="4.77565">
        <ele>172</ele>
        <time>2018-05-06T09:01:13Z</time>
      </trkpt>
      <trkpt lat="45.91584" lon="4.77571">
        <ele>172</ele>
        <time>2018-05-06T09:01:14Z</time>
      </trkpt>
      <trkpt lat="45.91581" lon="4.77576">
        <ele>173</ele>
        <time>2018-05-06T09:01:15Z</time>
      </trkpt>
      <trkpt lat="45.91579" lon="4.77581">
        <ele>173</ele>
        <time>2018-05-06T09:01:16Z</time>
      </trkpt>
      <trkpt lat="45.91575" lon="4.77592">
        <ele>173</ele>
        <time>2018-05-06T09:01:18Z</time>
      </trkpt>
      <trkpt lat="45.91573" lon="4.77597">
        <ele>173</ele>
        <time>2018-05-06T09:01:19Z</time>
      </trkpt>
      <trkpt lat="45.91567" lon="4.77605">
        <ele>174</ele>
        <time>2018-05-06T09:01:21Z</time>
      </trkpt>
      <trkpt lat="45.91564" lon="4.77609">
        <ele>174</ele>
        <time>2018-05-06T09:01:22Z</time>
      </trkpt>
      <trkpt lat="45.91558" lon="4.77617">
        <ele>174</ele>
        <time>2018-05-06T09:01:24Z</time>
      </trkpt>
      <trkpt lat="45.91554" lon="4.77621">
        <ele>174</ele>
        <time>2018-05-06T09:01:25Z</time>
      </trkpt>
      <trkpt lat="45.91551" lon="4.77625">
        <ele>174</ele>
        <time>2018-05-06T09:01:26Z</time>
      </trkpt>
      <trkpt lat="45.91549" lon="4.77631">
        <ele>174</ele>
        <time>2018-05-06T09:01:27Z</time>
      </trkpt>
      <trkpt lat="45.91544" lon="4.7764">
        <ele>174</ele>
        <time>2018-05-06T09:01:29Z</time>
      </trkpt>
      <trkpt lat="45.91541" lon="4.77644">
        <ele>174</ele>
        <time>2018-05-06T09:01:30Z</time>
      </trkpt>
      <trkpt lat="45.91536" lon="4.77653">
        <ele>174</ele>
        <time>2018-05-06T09:01:32Z</time>
      </trkpt>
      <trkpt lat="45.91534" lon="4.77657">
        <ele>174</ele>
        <time>2018-05-06T09:01:33Z</time>
      </trkpt>
      <trkpt lat="45.91529" lon="4.77666">
        <ele>174</ele>
        <time>2018-05-06T09:01:35Z</time>
      </trkpt>
      <trkpt lat="45.91526" lon="4.7767">
        <ele>175</ele>
        <time>2018-05-06T09:01:36Z</time>
      </trkpt>
      <trkpt lat="45.91521" lon="4.77678">
        <ele>175</ele>
        <time>2018-05-06T09:01:38Z</time>
      </trkpt>
      <trkpt lat="45.91519" lon="4.77682">
        <ele>176</ele>
        <time>2018-05-06T09:01:39Z</time>
      </trkpt>
      <trkpt lat="45.91515" lon="4.7769">
        <ele>176</ele>
        <time>2018-05-06T09:01:41Z</time>
      </trkpt>
      <trkpt lat="45.91513" lon="4.77694">
        <ele>176</ele>
        <time>2018-05-06T09:01:42Z</time>
      </trkpt>
      <trkpt lat="45.91509" lon="4.77696">
        <ele>176</ele>
        <time>2018-05-06T09:01:44Z</time>
      </trkpt>
      <trkpt lat="45.91503" lon="4.77695">
        <ele>176</ele>
        <time>2018-05-06T09:01:45Z</time>
      </trkpt>
      <trkpt lat="45.91497" lon="4.7769">
        <ele>177</ele>
        <time>2018-05-06T09:01:47Z</time>
      </trkpt>
      <trkpt lat="45.91493" lon="4.7769">
        <ele>177</ele>
        <time>2018-05-06T09:01:48Z</time>
      </trkpt>
      <trkpt lat="45.91486" lon="4.77692">
        <ele>177</ele>
        <time>2018-05-06T09:01:50Z</time>
      </trkpt>
      <trkpt lat="45.91482" lon="4.77693">
        <ele>177</ele>
        <time>2018-05-06T09:01:51Z</time>
      </trkpt>
      <trkpt lat="45.91474" lon="4.77694">
        <ele>177</ele>
        <time>2018-05-06T09:01:53Z</time>
      </trkpt>
      <trkpt lat="45.9147" lon="4.77694">
        <ele>177</ele>
        <time>2018-05-06T09:01:54Z</time>
      </trkpt>
      <trkpt lat="45.91466" lon="4.77695">
        <ele>177</ele>
        <time>2018-05-06T09:01:55Z</time>
      </trkpt>
      <trkpt lat="45.9146" lon="4.77696">
        <ele>177</ele>
        <time>2018-05-06T09:01:56Z</time>
      </trkpt>
      <trkpt lat="45.91455" lon="4.77697">
        <ele>177</ele>
        <time>2018-05-06T09:01:57Z</time>
      </trkpt>
      <trkpt lat="45.9145" lon="4.77698">
        <ele>177</ele>
        <time>2018-05-06T09:01:58Z</time>
      </trkpt>
      <trkpt lat="45.91445" lon="4.77699">
        <ele>177</ele>
        <time>2018-05-06T09:01:59Z</time>
      </trkpt>
      <trkpt lat="45.9144" lon="4.77703">
        <ele>177</ele>
        <time>2018-05-06T09:02:00Z</time>
      </trkpt>
      <trkpt lat="45.91433" lon="4.77705">
        <ele>177</ele>
        <time>2018-05-06T09:02:01Z</time>
      </trkpt>
      <trkpt lat="45.91427" lon="4.77705">
        <ele>177</ele>
        <time>2018-05-06T09:02:02Z</time>
      </trkpt>
      <trkpt lat="45.91421" lon="4.77706">
        <ele>177</ele>
        <time>2018-05-06T09:02:03Z</time>
      </trkpt>
      <trkpt lat="45.91415" lon="4.77709">
        <ele>177</ele>
        <time>2018-05-06T09:02:04Z</time>
      </trkpt>
      <trkpt lat="45.9141" lon="4.77709">
        <ele>177</ele>
        <time>2018-05-06T09:02:05Z</time>
      </trkpt>
      <trkpt lat="45.91405" lon="4.7771">
        <ele>177</ele>
        <time>2018-05-06T09:02:06Z</time>
      </trkpt>
      <trkpt lat="45.914" lon="4.77711">
        <ele>176</ele>
        <time>2018-05-06T09:02:07Z</time>
      </trkpt>
      <trkpt lat="45.91395" lon="4.77712">
        <ele>176</ele>
        <time>2018-05-06T09:02:08Z</time>
      </trkpt>
      <trkpt lat="45.9139" lon="4.77714">
        <ele>176</ele>
        <time>2018-05-06T09:02:09Z</time>
      </trkpt>
      <trkpt lat="45.91386" lon="4.77714">
        <ele>176</ele>
        <time>2018-05-06T09:02:10Z</time>
      </trkpt>
      <trkpt lat="45.91379" lon="4.77714">
        <ele>176</ele>
        <time>2018-05-06T09:02:12Z</time>
      </trkpt>
      <trkpt lat="45.91375" lon="4.77717">
        <ele>176</ele>
        <time>2018-05-06T09:02:13Z</time>
      </trkpt>
      <trkpt lat="45.91367" lon="4.77713">
        <ele>176</ele>
        <time>2018-05-06T09:02:15Z</time>
      </trkpt>
      <trkpt lat="45.91363" lon="4.77715">
        <ele>176</ele>
        <time>2018-05-06T09:02:16Z</time>
      </trkpt>
      <trkpt lat="45.91359" lon="4.77715">
        <ele>176</ele>
        <time>2018-05-06T09:02:17Z</time>
      </trkpt>
      <trkpt lat="45.91353" lon="4.77715">
        <ele>176</ele>
        <time>2018-05-06T09:02:18Z</time>
      </trkpt>
      <trkpt lat="45.91348" lon="4.77715">
        <ele>176</ele>
        <time>2018-05-06T09:02:19Z</time>
      </trkpt>
      <trkpt lat="45.91343" lon="4.77716">
        <ele>176</ele>
        <time>2018-05-06T09:02:20Z</time>
      </trkpt>
      <trkpt lat="45.91338" lon="4.77714">
        <ele>176</ele>
        <time>2018-05-06T09:02:21Z</time>
      </trkpt>
      <trkpt lat="45.91332" lon="4.77712">
        <ele>176</ele>
        <time>2018-05-06T09:02:22Z</time>
      </trkpt>
      <trkpt lat="45.91326" lon="4.77711">
        <ele>176</ele>
        <time>2018-05-06T09:02:23Z</time>
      </trkpt>
      <trkpt lat="45.9132" lon="4.7771">
        <ele>176</ele>
        <time>2018-05-06T09:02:24Z</time>
      </trkpt>
      <trkpt lat="45.91315" lon="4.77709">
        <ele>176</ele>
        <time>2018-05-06T09:02:25Z</time>
      </trkpt>
      <trkpt lat="45.91308" lon="4.77707">
        <ele>176</ele>
        <time>2018-05-06T09:02:26Z</time>
      </trkpt>
      <trkpt lat="45.91303" lon="4.77704">
        <ele>176</ele>
        <time>2018-05-06T09:02:27Z</time>
      </trkpt>
      <trkpt lat="45.91298" lon="4.77701">
        <ele>176</ele>
        <time>2018-05-06T09:02:28Z</time>
      </trkpt>
      <trkpt lat="45.91293" lon="4.77698">
        <ele>176</ele>
        <time>2018-05-06T09:02:29Z</time>
      </trkpt>
      <trkpt lat="45.91289" lon="4.77695">
        <ele>176</ele>
        <time>2018-05-06T09:02:30Z</time>
      </trkpt>
      <trkpt lat="45.91283" lon="4.77692">
        <ele>176</ele>
        <time>2018-05-06T09:02:31Z</time>
      </trkpt>
      <trkpt lat="45.91278" lon="4.77689">
        <ele>176</ele>
        <time>2018-05-06T09:02:32Z</time>
      </trkpt>
      <trkpt lat="45.91272" lon="4.77686">
        <ele>176</ele>
        <time>2018-05-06T09:02:33Z</time>
      </trkpt>
      <trkpt lat="45.91266" lon="4.77683">
        <ele>176</ele>
        <time>2018-05-06T09:02:34Z</time>
      </trkpt>
      <trkpt lat="45.9126" lon="4.77681">
        <ele>176</ele>
        <time>2018-05-06T09:02:35Z</time>
      </trkpt>
      <trkpt lat="45.91255" lon="4.7768">
        <ele>175</ele>
        <time>2018-05-06T09:02:36Z</time>
      </trkpt>
      <trkpt lat="45.9125" lon="4.77679">
        <ele>176</ele>
        <time>2018-05-06T09:02:37Z</time>
      </trkpt>
      <trkpt lat="45.91244" lon="4.77679">
        <ele>176</ele>
        <time>2018-05-06T09:02:38Z</time>
      </trkpt>
      <trkpt lat="45.91238" lon="4.7768">
        <ele>176</ele>
        <time>2018-05-06T09:02:39Z</time>
      </trkpt>
      <trkpt lat="45.91233" lon="4.7768">
        <ele>176</ele>
        <time>2018-05-06T09:02:40Z</time>
      </trkpt>
      <trkpt lat="45.91226" lon="4.77684">
        <ele>176</ele>
        <time>2018-05-06T09:02:42Z</time>
      </trkpt>
      <trkpt lat="45.91222" lon="4.77687">
        <ele>176</ele>
        <time>2018-05-06T09:02:43Z</time>
      </trkpt>
      <trkpt lat="45.91217" lon="4.7769">
        <ele>176</ele>
        <time>2018-05-06T09:02:44Z</time>
      </trkpt>
      <trkpt lat="45.91213" lon="4.7769">
        <ele>176</ele>
        <time>2018-05-06T09:02:45Z</time>
      </trkpt>
      <trkpt lat="45.91208" lon="4.7769">
        <ele>176</ele>
        <time>2018-05-06T09:02:46Z</time>
      </trkpt>
      <trkpt lat="45.91202" lon="4.77691">
        <ele>176</ele>
        <time>2018-05-06T09:02:47Z</time>
      </trkpt>
      <trkpt lat="45.91197" lon="4.77692">
        <ele>176</ele>
        <time>2018-05-06T09:02:48Z</time>
      </trkpt>
      <trkpt lat="45.91191" lon="4.77694">
        <ele>176</ele>
        <time>2018-05-06T09:02:49Z</time>
      </trkpt>
      <trkpt lat="45.91186" lon="4.77696">
        <ele>176</ele>
        <time>2018-05-06T09:02:50Z</time>
      </trkpt>
      <trkpt lat="45.91181" lon="4.77697">
        <ele>176</ele>
        <time>2018-05-06T09:02:51Z</time>
      </trkpt>
      <trkpt lat="45.91176" lon="4.77701">
        <ele>176</ele>
        <time>2018-05-06T09:02:52Z</time>
      </trkpt>
      <trkpt lat="45.91173" lon="4.77706">
        <ele>176</ele>
        <time>2018-05-06T09:02:53Z</time>
      </trkpt>
      <trkpt lat="45.91167" lon="4.77707">
        <ele>176</ele>
        <time>2018-05-06T09:02:54Z</time>
      </trkpt>
      <trkpt lat="45.91162" lon="4.77709">
        <ele>177</ele>
        <time>2018-05-06T09:02:55Z</time>
      </trkpt>
      <trkpt lat="45.91157" lon="4.77711">
        <ele>177</ele>
        <time>2018-05-06T09:02:56Z</time>
      </trkpt>
      <trkpt lat="45.91151" lon="4.77713">
        <ele>177</ele>
        <time>2018-05-06T09:02:57Z</time>
      </trkpt>
      <trkpt lat="45.91146" lon="4.77715">
        <ele>177</ele>
        <time>2018-05-06T09:02:58Z</time>
      </trkpt>
      <trkpt lat="45.91141" lon="4.77718">
        <ele>177</ele>
        <time>2018-05-06T09:02:59Z</time>
      </trkpt>
      <trkpt lat="45.91136" lon="4.77719">
        <ele>177</ele>
        <time>2018-05-06T09:03:00Z</time>
      </trkpt>
      <trkpt lat="45.91131" lon="4.77722">
        <ele>177</ele>
        <time>2018-05-06T09:03:01Z</time>
      </trkpt>
      <trkpt lat="45.91126" lon="4.77724">
        <ele>177</ele>
        <time>2018-05-06T09:03:02Z</time>
      </trkpt>
      <trkpt lat="45.91122" lon="4.77727">
        <ele>178</ele>
        <time>2018-05-06T09:03:03Z</time>
      </trkpt>
      <trkpt lat="45.91118" lon="4.77729">
        <ele>178</ele>
        <time>2018-05-06T09:03:04Z</time>
      </trkpt>
      <trkpt lat="45.91113" lon="4.77732">
        <ele>178</ele>
        <time>2018-05-06T09:03:05Z</time>
      </trkpt>
      <trkpt lat="45.91108" lon="4.77734">
        <ele>178</ele>
        <time>2018-05-06T09:03:06Z</time>
      </trkpt>
      <trkpt lat="45.91103" lon="4.77737">
        <ele>178</ele>
        <time>2018-05-06T09:03:07Z</time>
      </trkpt>
      <trkpt lat="45.91098" lon="4.77741">
        <ele>178</ele>
        <time>2018-05-06T09:03:08Z</time>
      </trkpt>
      <trkpt lat="45.91093" lon="4.77741">
        <ele>178</ele>
        <time>2018-05-06T09:03:09Z</time>
      </trkpt>
      <trkpt lat="45.91088" lon="4.77744">
        <ele>179</ele>
        <time>2018-05-06T09:03:10Z</time>
      </trkpt>
      <trkpt lat="45.91084" lon="4.77746">
        <ele>179</ele>
        <time>2018-05-06T09:03:11Z</time>
      </trkpt>
      <trkpt lat="45.91079" lon="4.77748">
        <ele>179</ele>
        <time>2018-05-06T09:03:12Z</time>
      </trkpt>
      <trkpt lat="45.91074" lon="4.77751">
        <ele>179</ele>
        <time>2018-05-06T09:03:13Z</time>
      </trkpt>
      <trkpt lat="45.91069" lon="4.77755">
        <ele>179</ele>
        <time>2018-05-06T09:03:14Z</time>
      </trkpt>
      <trkpt lat="45.91064" lon="4.77757">
        <ele>178</ele>
        <time>2018-05-06T09:03:15Z</time>
      </trkpt>
      <trkpt lat="45.91059" lon="4.7776">
        <ele>178</ele>
        <time>2018-05-06T09:03:16Z</time>
      </trkpt>
      <trkpt lat="45.91054" lon="4.77762">
        <ele>178</ele>
        <time>2018-05-06T09:03:17Z</time>
      </trkpt>
      <trkpt lat="45.9105" lon="4.77764">
        <ele>178</ele>
        <time>2018-05-06T09:03:18Z</time>
      </trkpt>
      <trkpt lat="45.91045" lon="4.77765">
        <ele>178</ele>
        <time>2018-05-06T09:03:19Z</time>
      </trkpt>
      <trkpt lat="45.91039" lon="4.77768">
        <ele>178</ele>
        <time>2018-05-06T09:03:20Z</time>
      </trkpt>
      <trkpt lat="45.91034" lon="4.7777">
        <ele>178</ele>
        <time>2018-05-06T09:03:21Z</time>
      </trkpt>
      <trkpt lat="45.91028" lon="4.77772">
        <ele>178</ele>
        <time>2018-05-06T09:03:22Z</time>
      </trkpt>
      <trkpt lat="45.91024" lon="4.77773">
        <ele>178</ele>
        <time>2018-05-06T09:03:23Z</time>
      </trkpt>
      <trkpt lat="45.91018" lon="4.77775">
        <ele>178</ele>
        <time>2018-05-06T09:03:24Z</time>
      </trkpt>
      <trkpt lat="45.91013" lon="4.77776">
        <ele>178</ele>
        <time>2018-05-06T09:03:25Z</time>
      </trkpt>
      <trkpt lat="45.91007" lon="4.77777">
        <ele>178</ele>
        <time>2018-05-06T09:03:26Z</time>
      </trkpt>
      <trkpt lat="45.91002" lon="4.77778">
        <ele>178</ele>
        <time>2018-05-06T09:03:27Z</time>
      </trkpt>
      <trkpt lat="45.90997" lon="4.77779">
        <ele>177</ele>
        <time>2018-05-06T09:03:28Z</time>
      </trkpt>
      <trkpt lat="45.90993" lon="4.77781">
        <ele>177</ele>
        <time>2018-05-06T09:03:29Z</time>
      </trkpt>
      <trkpt lat="45.90988" lon="4.7778">
        <ele>177</ele>
        <time>2018-05-06T09:03:30Z</time>
      </trkpt>
      <trkpt lat="45.90983" lon="4.7778">
        <ele>177</ele>
        <time>2018-05-06T09:03:31Z</time>
      </trkpt>
      <trkpt lat="45.90977" lon="4.77778">
        <ele>177</ele>
        <time>2018-05-06T09:03:32Z</time>
      </trkpt>
      <trkpt lat="45.90971" lon="4.77778">
        <ele>177</ele>
        <time>2018-05-06T09:03:33Z</time>
      </trkpt>
      <trkpt lat="45.90964" lon="4.77774">
        <ele>177</ele>
        <time>2018-05-06T09:03:35Z</time>
      </trkpt>
      <trkpt lat="45.9096" lon="4.77775">
        <ele>177</ele>
        <time>2018-05-06T09:03:36Z</time>
      </trkpt>
      <trkpt lat="45.90956" lon="4.77772">
        <ele>177</ele>
        <time>2018-05-06T09:03:37Z</time>
      </trkpt>
      <trkpt lat="45.90951" lon="4.77768">
        <ele>177</ele>
        <time>2018-05-06T09:03:38Z</time>
      </trkpt>
      <trkpt lat="45.90946" lon="4.77768">
        <ele>177</ele>
        <time>2018-05-06T09:03:39Z</time>
      </trkpt>
      <trkpt lat="45.90942" lon="4.77767">
        <ele>177</ele>
        <time>2018-05-06T09:03:40Z</time>
      </trkpt>
      <trkpt lat="45.90937" lon="4.77766">
        <ele>177</ele>
        <time>2018-05-06T09:03:41Z</time>
      </trkpt>
      <trkpt lat="45.90933" lon="4.77765">
        <ele>177</ele>
        <time>2018-05-06T09:03:42Z</time>
      </trkpt>
      <trkpt lat="45.90928" lon="4.77762">
        <ele>177</ele>
        <time>2018-05-06T09:03:43Z</time>
      </trkpt>
      <trkpt lat="45.90925" lon="4.77757">
        <ele>176</ele>
        <time>2018-05-06T09:03:44Z</time>
      </trkpt>
      <trkpt lat="45.90922" lon="4.77752">
        <ele>176</ele>
        <time>2018-05-06T09:03:45Z</time>
      </trkpt>
      <trkpt lat="45.90918" lon="4.77747">
        <ele>176</ele>
        <time>2018-05-06T09:03:46Z</time>
      </trkpt>
      <trkpt lat="45.90913" lon="4.77741">
        <ele>176</ele>
        <time>2018-05-06T09:03:48Z</time>
      </trkpt>
      <trkpt lat="45.90908" lon="4.77736">
        <ele>177</ele>
        <time>2018-05-06T09:03:49Z</time>
      </trkpt>
      <trkpt lat="45.90903" lon="4.7773">
        <ele>177</ele>
        <time>2018-05-06T09:03:51Z</time>
      </trkpt>
      <trkpt lat="45.90899" lon="4.77728">
        <ele>177</ele>
        <time>2018-05-06T09:03:52Z</time>
      </trkpt>
      <trkpt lat="45.90896" lon="4.77723">
        <ele>177</ele>
        <time>2018-05-06T09:03:53Z</time>
      </trkpt>
      <trkpt lat="45.90893" lon="4.77719">
        <ele>177</ele>
        <time>2018-05-06T09:03:54Z</time>
      </trkpt>
      <trkpt lat="45.90887" lon="4.77711">
        <ele>177</ele>
        <time>2018-05-06T09:03:56Z</time>
      </trkpt>
      <trkpt lat="45.90886" lon="4.77709">
        <ele>177</ele>
        <time>2018-05-06T09:03:57Z</time>
      </trkpt>
      <trkpt lat="45.9088" lon="4.77703">
        <ele>177</ele>
        <time>2018-05-06T09:04:00Z</time>
      </trkpt>
      <trkpt lat="45.90878" lon="4.777">
        <ele>177</ele>
        <time>2018-05-06T09:04:01Z</time>
      </trkpt>
      <trkpt lat="45.90871" lon="4.77694">
        <ele>178</ele>
        <time>2018-05-06T09:04:04Z</time>
      </trkpt>
      <trkpt lat="45.90868" lon="4.77691">
        <ele>178</ele>
        <time>2018-05-06T09:04:05Z</time>
      </trkpt>
      <trkpt lat="45.90862" lon="4.77686">
        <ele>178</ele>
        <time>2018-05-06T09:04:08Z</time>
      </trkpt>
      <trkpt lat="45.90859" lon="4.77684">
        <ele>178</ele>
        <time>2018-05-06T09:04:09Z</time>
      </trkpt>
      <trkpt lat="45.9085" lon="4.77677">
        <ele>178</ele>
        <time>2018-05-06T09:04:10Z</time>
      </trkpt>
      <trkpt lat="45.90844" lon="4.77674">
        <ele>178</ele>
        <time>2018-05-06T09:04:13Z</time>
      </trkpt>
      <trkpt lat="45.90837" lon="4.7767">
        <ele>179</ele>
        <time>2018-05-06T09:04:14Z</time>
      </trkpt>
      <trkpt lat="45.90833" lon="4.77669">
        <ele>179</ele>
        <time>2018-05-06T09:04:16Z</time>
      </trkpt>
      <trkpt lat="45.90826" lon="4.77667">
        <ele>179</ele>
        <time>2018-05-06T09:04:17Z</time>
      </trkpt>
      <trkpt lat="45.90818" lon="4.77665">
        <ele>179</ele>
        <time>2018-05-06T09:04:19Z</time>
      </trkpt>
      <trkpt lat="45.90814" lon="4.77664">
        <ele>179</ele>
        <time>2018-05-06T09:04:20Z</time>
      </trkpt>
      <trkpt lat="45.90805" lon="4.77661">
        <ele>179</ele>
        <time>2018-05-06T09:04:22Z</time>
      </trkpt>
      <trkpt lat="45.90802" lon="4.77661">
        <ele>179</ele>
        <time>2018-05-06T09:04:23Z</time>
      </trkpt>
      <trkpt lat="45.90794" lon="4.77659">
        <ele>179</ele>
        <time>2018-05-06T09:04:25Z</time>
      </trkpt>
      <trkpt lat="45.9079" lon="4.77658">
        <ele>179</ele>
        <time>2018-05-06T09:04:26Z</time>
      </trkpt>
      <trkpt lat="45.90782" lon="4.77656">
        <ele>179</ele>
        <time>2018-05-06T09:04:28Z</time>
      </trkpt>
      <trkpt lat="45.90778" lon="4.77655">
        <ele>180</ele>
        <time>2018-05-06T09:04:29Z</time>
      </trkpt>
      <trkpt lat="45.90773" lon="4.77653">
        <ele>180</ele>
        <time>2018-05-06T09:04:30Z</time>
      </trkpt>
      <trkpt lat="45.90769" lon="4.7765">
        <ele>180</ele>
        <time>2018-05-06T09:04:31Z</time>
      </trkpt>
      <trkpt lat="45.90764" lon="4.77646">
        <ele>180</ele>
        <time>2018-05-06T09:04:32Z</time>
      </trkpt>
      <trkpt lat="45.9076" lon="4.77643">
        <ele>180</ele>
        <time>2018-05-06T09:04:33Z</time>
      </trkpt>
      <trkpt lat="45.90755" lon="4.77641">
        <ele>180</ele>
        <time>2018-05-06T09:04:34Z</time>
      </trkpt>
      <trkpt lat="45.90749" lon="4.7764">
        <ele>180</ele>
        <time>2018-05-06T09:04:35Z</time>
      </trkpt>
      <trkpt lat="45.90744" lon="4.7764">
        <ele>180</ele>
        <time>2018-05-06T09:04:36Z</time>
      </trkpt>
      <trkpt lat="45.90739" lon="4.7764">
        <ele>180</ele>
        <time>2018-05-06T09:04:37Z</time>
      </trkpt>
      <trkpt lat="45.90733" lon="4.77639">
        <ele>180</ele>
        <time>2018-05-06T09:04:38Z</time>
      </trkpt>
      <trkpt lat="45.90728" lon="4.77638">
        <ele>180</ele>
        <time>2018-05-06T09:04:39Z</time>
      </trkpt>
      <trkpt lat="45.90722" lon="4.77637">
        <ele>180</ele>
        <time>2018-05-06T09:04:40Z</time>
      </trkpt>
      <trkpt lat="45.90718" lon="4.77637">
        <ele>179</ele>
        <time>2018-05-06T09:04:41Z</time>
      </trkpt>
      <trkpt lat="45.90712" lon="4.77636">
        <ele>179</ele>
        <time>2018-05-06T09:04:42Z</time>
      </trkpt>
      <trkpt lat="45.90706" lon="4.77633">
        <ele>179</ele>
        <time>2018-05-06T09:04:43Z</time>
      </trkpt>
      <trkpt lat="45.907" lon="4.7763">
        <ele>179</ele>
        <time>2018-05-06T09:04:44Z</time>
      </trkpt>
      <trkpt lat="45.90694" lon="4.77627">
        <ele>179</ele>
        <time>2018-05-06T09:04:45Z</time>
      </trkpt>
      <trkpt lat="45.90688" lon="4.77625">
        <ele>179</ele>
        <time>2018-05-06T09:04:46Z</time>
      </trkpt>
      <trkpt lat="45.90681" lon="4.77624">
        <ele>179</ele>
        <time>2018-05-06T09:04:47Z</time>
      </trkpt>
      <trkpt lat="45.90675" lon="4.77622">
        <ele>179</ele>
        <time>2018-05-06T09:04:48Z</time>
      </trkpt>
      <trkpt lat="45.90668" lon="4.77622">
        <ele>179</ele>
        <time>2018-05-06T09:04:49Z</time>
      </trkpt>
      <trkpt lat="45.90661" lon="4.77622">
        <ele>179</ele>
        <time>2018-05-06T09:04:50Z</time>
      </trkpt>
      <trkpt lat="45.90653" lon="4.77622">
        <ele>179</ele>
        <time>2018-05-06T09:04:51Z</time>
      </trkpt>
      <trkpt lat="45.90647" lon="4.77623">
        <ele>179</ele>
        <time>2018-05-06T09:04:52Z</time>
      </trkpt>
      <trkpt lat="45.9064" lon="4.77623">
        <ele>179</ele>
        <time>2018-05-06T09:04:53Z</time>
      </trkpt>
      <trkpt lat="45.90633" lon="4.77623">
        <ele>179</ele>
        <time>2018-05-06T09:04:54Z</time>
      </trkpt>
      <trkpt lat="45.90627" lon="4.77622">
        <ele>179</ele>
        <time>2018-05-06T09:04:55Z</time>
      </trkpt>
      <trkpt lat="45.9062" lon="4.77623">
        <ele>179</ele>
        <time>2018-05-06T09:04:56Z</time>
      </trkpt>
      <trkpt lat="45.90614" lon="4.77624">
        <ele>179</ele>
        <time>2018-05-06T09:04:57Z</time>
      </trkpt>
      <trkpt lat="45.90607" lon="4.77625">
        <ele>179</ele>
        <time>2018-05-06T09:04:58Z</time>
      </trkpt>
      <trkpt lat="45.906" lon="4.77625">
        <ele>179</ele>
        <time>2018-05-06T09:04:59Z</time>
      </trkpt>
      <trkpt lat="45.90593" lon="4.77626">
        <ele>179</ele>
        <time>2018-05-06T09:05:00Z</time>
      </trkpt>
      <trkpt lat="45.90587" lon="4.77627">
        <ele>179</ele>
        <time>2018-05-06T09:05:01Z</time>
      </trkpt>
      <trkpt lat="45.9058" lon="4.77627">
        <ele>178</ele>
        <time>2018-05-06T09:05:02Z</time>
      </trkpt>
      <trkpt lat="45.90573" lon="4.77629">
        <ele>178</ele>
        <time>2018-05-06T09:05:03Z</time>
      </trkpt>
      <trkpt lat="45.90566" lon="4.77631">
        <ele>178</ele>
        <time>2018-05-06T09:05:04Z</time>
      </trkpt>
      <trkpt lat="45.90559" lon="4.77631">
        <ele>178</ele>
        <time>2018-05-06T09:05:05Z</time>
      </trkpt>
      <trkpt lat="45.90553" lon="4.77632">
        <ele>178</ele>
        <time>2018-05-06T09:05:06Z</time>
      </trkpt>
      <trkpt lat="45.90546" lon="4.77632">
        <ele>178</ele>
        <time>2018-05-06T09:05:07Z</time>
      </trkpt>
      <trkpt lat="45.9054" lon="4.77633">
        <ele>178</ele>
        <time>2018-05-06T09:05:08Z</time>
      </trkpt>
      <trkpt lat="45.90534" lon="4.77635">
        <ele>178</ele>
        <time>2018-05-06T09:05:09Z</time>
      </trkpt>
      <trkpt lat="45.90528" lon="4.77636">
        <ele>178</ele>
        <time>2018-05-06T09:05:10Z</time>
      </trkpt>
      <trkpt lat="45.90522" lon="4.77637">
        <ele>178</ele>
        <time>2018-05-06T09:05:11Z</time>
      </trkpt>
      <trkpt lat="45.90516" lon="4.77638">
        <ele>178</ele>
        <time>2018-05-06T09:05:12Z</time>
      </trkpt>
      <trkpt lat="45.90509" lon="4.77639">
        <ele>178</ele>
        <time>2018-05-06T09:05:13Z</time>
      </trkpt>
      <trkpt lat="45.90502" lon="4.7764">
        <ele>178</ele>
        <time>2018-05-06T09:05:14Z</time>
      </trkpt>
      <trkpt lat="45.90496" lon="4.7764">
        <ele>179</ele>
        <time>2018-05-06T09:05:15Z</time>
      </trkpt>
      <trkpt lat="45.9049" lon="4.7764">
        <ele>179</ele>
        <time>2018-05-06T09:05:16Z</time>
      </trkpt>
      <trkpt lat="45.90484" lon="4.77641">
        <ele>179</ele>
        <time>2018-05-06T09:05:17Z</time>
      </trkpt>
      <trkpt lat="45.9048" lon="4.77642">
        <ele>179</ele>
        <time>2018-05-06T09:05:18Z</time>
      </trkpt>
      <trkpt lat="45.90474" lon="4.77642">
        <ele>179</ele>
        <time>2018-05-06T09:05:19Z</time>
      </trkpt>
      <trkpt lat="45.90468" lon="4.77643">
        <ele>179</ele>
        <time>2018-05-06T09:05:20Z</time>
      </trkpt>
      <trkpt lat="45.90462" lon="4.77644">
        <ele>179</ele>
        <time>2018-05-06T09:05:21Z</time>
      </trkpt>
      <trkpt lat="45.90457" lon="4.77649">
        <ele>179</ele>
        <time>2018-05-06T09:05:22Z</time>
      </trkpt>
      <trkpt lat="45.90451" lon="4.77649">
        <ele>179</ele>
        <time>2018-05-06T09:05:23Z</time>
      </trkpt>
      <trkpt lat="45.90445" lon="4.77648">
        <ele>179</ele>
        <time>2018-05-06T09:05:24Z</time>
      </trkpt>
      <trkpt lat="45.9044" lon="4.77649">
        <ele>180</ele>
        <time>2018-05-06T09:05:25Z</time>
      </trkpt>
      <trkpt lat="45.90435" lon="4.77649">
        <ele>180</ele>
        <time>2018-05-06T09:05:26Z</time>
      </trkpt>
      <trkpt lat="45.90429" lon="4.77653">
        <ele>180</ele>
        <time>2018-05-06T09:05:27Z</time>
      </trkpt>
      <trkpt lat="45.90424" lon="4.77654">
        <ele>180</ele>
        <time>2018-05-06T09:05:28Z</time>
      </trkpt>
      <trkpt lat="45.90418" lon="4.77655">
        <ele>180</ele>
        <time>2018-05-06T09:05:29Z</time>
      </trkpt>
      <trkpt lat="45.90413" lon="4.77655">
        <ele>181</ele>
        <time>2018-05-06T09:05:30Z</time>
      </trkpt>
      <trkpt lat="45.90407" lon="4.77657">
        <ele>181</ele>
        <time>2018-05-06T09:05:31Z</time>
      </trkpt>
      <trkpt lat="45.90402" lon="4.77659">
        <ele>181</ele>
        <time>2018-05-06T09:05:32Z</time>
      </trkpt>
      <trkpt lat="45.90396" lon="4.77659">
        <ele>181</ele>
        <time>2018-05-06T09:05:33Z</time>
      </trkpt>
      <trkpt lat="45.90391" lon="4.77662">
        <ele>181</ele>
        <time>2018-05-06T09:05:34Z</time>
      </trkpt>
      <trkpt lat="45.90386" lon="4.77665">
        <ele>181</ele>
        <time>2018-05-06T09:05:35Z</time>
      </trkpt>
      <trkpt lat="45.9038" lon="4.77666">
        <ele>181</ele>
        <time>2018-05-06T09:05:36Z</time>
      </trkpt>
      <trkpt lat="45.90375" lon="4.77667">
        <ele>181</ele>
        <time>2018-05-06T09:05:37Z</time>
      </trkpt>
      <trkpt lat="45.9037" lon="4.77669">
        <ele>182</ele>
        <time>2018-05-06T09:05:38Z</time>
      </trkpt>
      <trkpt lat="45.90363" lon="4.77669">
        <ele>182</ele>
        <time>2018-05-06T09:05:39Z</time>
      </trkpt>
      <trkpt lat="45.90358" lon="4.77669">
        <ele>182</ele>
        <time>2018-05-06T09:05:40Z</time>
      </trkpt>
      <trkpt lat="45.90352" lon="4.7767">
        <ele>182</ele>
        <time>2018-05-06T09:05:41Z</time>
      </trkpt>
      <trkpt lat="45.90347" lon="4.7767">
        <ele>182</ele>
        <time>2018-05-06T09:05:42Z</time>
      </trkpt>
      <trkpt lat="45.90342" lon="4.77671">
        <ele>182</ele>
        <time>2018-05-06T09:05:43Z</time>
      </trkpt>
      <trkpt lat="45.90336" lon="4.77674">
        <ele>182</ele>
        <time>2018-05-06T09:05:44Z</time>
      </trkpt>
      <trkpt lat="45.90331" lon="4.77674">
        <ele>182</ele>
        <time>2018-05-06T09:05:45Z</time>
      </trkpt>
      <trkpt lat="45.90326" lon="4.77675">
        <ele>182</ele>
        <time>2018-05-06T09:05:46Z</time>
      </trkpt>
      <trkpt lat="45.90321" lon="4.77676">
        <ele>182</ele>
        <time>2018-05-06T09:05:47Z</time>
      </trkpt>
      <trkpt lat="45.90314" lon="4.77677">
        <ele>182</ele>
        <time>2018-05-06T09:05:48Z</time>
      </trkpt>
      <trkpt lat="45.90309" lon="4.77678">
        <ele>182</ele>
        <time>2018-05-06T09:05:49Z</time>
      </trkpt>
      <trkpt lat="45.90304" lon="4.77678">
        <ele>182</ele>
        <time>2018-05-06T09:05:50Z</time>
      </trkpt>
      <trkpt lat="45.90298" lon="4.77678">
        <ele>182</ele>
        <time>2018-05-06T09:05:51Z</time>
      </trkpt>
      <trkpt lat="45.90293" lon="4.77678">
        <ele>182</ele>
        <time>2018-05-06T09:05:52Z</time>
      </trkpt>
      <trkpt lat="45.90287" lon="4.77679">
        <ele>182</ele>
        <time>2018-05-06T09:05:53Z</time>
      </trkpt>
      <trkpt lat="45.90282" lon="4.77678">
        <ele>182</ele>
        <time>2018-05-06T09:05:54Z</time>
      </trkpt>
      <trkpt lat="45.90277" lon="4.77677">
        <ele>182</ele>
        <time>2018-05-06T09:05:55Z</time>
      </trkpt>
      <trkpt lat="45.90272" lon="4.77677">
        <ele>182</ele>
        <time>2018-05-06T09:05:56Z</time>
      </trkpt>
      <trkpt lat="45.90267" lon="4.77676">
        <ele>182</ele>
        <time>2018-05-06T09:05:57Z</time>
      </trkpt>
      <trkpt lat="45.90262" lon="4.77676">
        <ele>182</ele>
        <time>2018-05-06T09:05:58Z</time>
      </trkpt>
      <trkpt lat="45.90256" lon="4.77676">
        <ele>182</ele>
        <time>2018-05-06T09:05:59Z</time>
      </trkpt>
      <trkpt lat="45.90251" lon="4.77676">
        <ele>182</ele>
        <time>2018-05-06T09:06:00Z</time>
      </trkpt>
      <trkpt lat="45.90247" lon="4.77676">
        <ele>183</ele>
        <time>2018-05-06T09:06:01Z</time>
      </trkpt>
      <trkpt lat="45.90241" lon="4.77677">
        <ele>183</ele>
        <time>2018-05-06T09:06:02Z</time>
      </trkpt>
      <trkpt lat="45.90236" lon="4.77676">
        <ele>183</ele>
        <time>2018-05-06T09:06:03Z</time>
      </trkpt>
      <trkpt lat="45.90231" lon="4.77676">
        <ele>183</ele>
        <time>2018-05-06T09:06:04Z</time>
      </trkpt>
      <trkpt lat="45.90225" lon="4.77677">
        <ele>184</ele>
        <time>2018-05-06T09:06:05Z</time>
      </trkpt>
      <trkpt lat="45.90221" lon="4.77675">
        <ele>184</ele>
        <time>2018-05-06T09:06:06Z</time>
      </trkpt>
      <trkpt lat="45.90216" lon="4.77675">
        <ele>184</ele>
        <time>2018-05-06T09:06:07Z</time>
      </trkpt>
      <trkpt lat="45.90211" lon="4.77676">
        <ele>184</ele>
        <time>2018-05-06T09:06:08Z</time>
      </trkpt>
      <trkpt lat="45.90207" lon="4.77674">
        <ele>184</ele>
        <time>2018-05-06T09:06:09Z</time>
      </trkpt>
      <trkpt lat="45.90201" lon="4.77675">
        <ele>184</ele>
        <time>2018-05-06T09:06:10Z</time>
      </trkpt>
      <trkpt lat="45.90196" lon="4.77674">
        <ele>184</ele>
        <time>2018-05-06T09:06:11Z</time>
      </trkpt>
      <trkpt lat="45.90191" lon="4.77674">
        <ele>185</ele>
        <time>2018-05-06T09:06:12Z</time>
      </trkpt>
      <trkpt lat="45.90186" lon="4.77674">
        <ele>185</ele>
        <time>2018-05-06T09:06:13Z</time>
      </trkpt>
      <trkpt lat="45.9018" lon="4.77674">
        <ele>185</ele>
        <time>2018-05-06T09:06:14Z</time>
      </trkpt>
      <trkpt lat="45.90175" lon="4.77674">
        <ele>185</ele>
        <time>2018-05-06T09:06:15Z</time>
      </trkpt>
      <trkpt lat="45.90169" lon="4.77674">
        <ele>185</ele>
        <time>2018-05-06T09:06:16Z</time>
      </trkpt>
      <trkpt lat="45.90164" lon="4.77673">
        <ele>185</ele>
        <time>2018-05-06T09:06:17Z</time>
      </trkpt>
      <trkpt lat="45.90159" lon="4.77674">
        <ele>185</ele>
        <time>2018-05-06T09:06:18Z</time>
      </trkpt>
      <trkpt lat="45.90154" lon="4.77675">
        <ele>185</ele>
        <time>2018-05-06T09:06:19Z</time>
      </trkpt>
      <trkpt lat="45.90149" lon="4.77676">
        <ele>185</ele>
        <time>2018-05-06T09:06:20Z</time>
      </trkpt>
      <trkpt lat="45.90144" lon="4.77677">
        <ele>185</ele>
        <time>2018-05-06T09:06:21Z</time>
      </trkpt>
      <trkpt lat="45.90138" lon="4.77677">
        <ele>185</ele>
        <time>2018-05-06T09:06:22Z</time>
      </trkpt>
      <trkpt lat="45.90133" lon="4.77676">
        <ele>185</ele>
        <time>2018-05-06T09:06:23Z</time>
      </trkpt>
      <trkpt lat="45.90128" lon="4.77677">
        <ele>185</ele>
        <time>2018-05-06T09:06:24Z</time>
      </trkpt>
      <trkpt lat="45.90123" lon="4.77677">
        <ele>184</ele>
        <time>2018-05-06T09:06:25Z</time>
      </trkpt>
      <trkpt lat="45.90117" lon="4.77676">
        <ele>184</ele>
        <time>2018-05-06T09:06:26Z</time>
      </trkpt>
      <trkpt lat="45.90112" lon="4.77676">
        <ele>184</ele>
        <time>2018-05-06T09:06:27Z</time>
      </trkpt>
      <trkpt lat="45.90106" lon="4.77676">
        <ele>184</ele>
        <time>2018-05-06T09:06:28Z</time>
      </trkpt>
      <trkpt lat="45.90101" lon="4.77677">
        <ele>184</ele>
        <time>2018-05-06T09:06:29Z</time>
      </trkpt>
      <trkpt lat="45.90097" lon="4.77677">
        <ele>184</ele>
        <time>2018-05-06T09:06:30Z</time>
      </trkpt>
      <trkpt lat="45.90091" lon="4.77677">
        <ele>184</ele>
        <time>2018-05-06T09:06:31Z</time>
      </trkpt>
      <trkpt lat="45.90086" lon="4.77676">
        <ele>184</ele>
        <time>2018-05-06T09:06:32Z</time>
      </trkpt>
      <trkpt lat="45.9008" lon="4.77675">
        <ele>184</ele>
        <time>2018-05-06T09:06:33Z</time>
      </trkpt>
      <trkpt lat="45.90075" lon="4.77674">
        <ele>184</ele>
        <time>2018-05-06T09:06:34Z</time>
      </trkpt>
      <trkpt lat="45.90069" lon="4.77674">
        <ele>184</ele>
        <time>2018-05-06T09:06:35Z</time>
      </trkpt>
      <trkpt lat="45.90064" lon="4.77674">
        <ele>184</ele>
        <time>2018-05-06T09:06:36Z</time>
      </trkpt>
      <trkpt lat="45.90058" lon="4.77674">
        <ele>184</ele>
        <time>2018-05-06T09:06:37Z</time>
      </trkpt>
      <trkpt lat="45.90053" lon="4.77674">
        <ele>184</ele>
        <time>2018-05-06T09:06:38Z</time>
      </trkpt>
      <trkpt lat="45.90048" lon="4.77672">
        <ele>185</ele>
        <time>2018-05-06T09:06:39Z</time>
      </trkpt>
      <trkpt lat="45.90042" lon="4.77674">
        <ele>185</ele>
        <time>2018-05-06T09:06:40Z</time>
      </trkpt>
      <trkpt lat="45.90037" lon="4.77674">
        <ele>185</ele>
        <time>2018-05-06T09:06:41Z</time>
      </trkpt>
      <trkpt lat="45.90031" lon="4.77673">
        <ele>185</ele>
        <time>2018-05-06T09:06:42Z</time>
      </trkpt>
      <trkpt lat="45.90024" lon="4.77672">
        <ele>185</ele>
        <time>2018-05-06T09:06:43Z</time>
      </trkpt>
      <trkpt lat="45.90019" lon="4.77671">
        <ele>185</ele>
        <time>2018-05-06T09:06:44Z</time>
      </trkpt>
      <trkpt lat="45.90014" lon="4.7767">
        <ele>185</ele>
        <time>2018-05-06T09:06:45Z</time>
      </trkpt>
      <trkpt lat="45.90009" lon="4.77671">
        <ele>186</ele>
        <time>2018-05-06T09:06:46Z</time>
      </trkpt>
      <trkpt lat="45.90004" lon="4.7767">
        <ele>186</ele>
        <time>2018-05-06T09:06:47Z</time>
      </trkpt>
      <trkpt lat="45.89998" lon="4.77669">
        <ele>186</ele>
        <time>2018-05-06T09:06:48Z</time>
      </trkpt>
      <trkpt lat="45.89993" lon="4.77668">
        <ele>186</ele>
        <time>2018-05-06T09:06:49Z</time>
      </trkpt>
      <trkpt lat="45.89987" lon="4.77668">
        <ele>186</ele>
        <time>2018-05-06T09:06:50Z</time>
      </trkpt>
      <trkpt lat="45.89982" lon="4.77668">
        <ele>187</ele>
        <time>2018-05-06T09:06:51Z</time>
      </trkpt>
      <trkpt lat="45.89976" lon="4.77667">
        <ele>185</ele>
        <time>2018-05-06T09:06:52Z</time>
      </trkpt>
      <trkpt lat="45.89971" lon="4.77666">
        <ele>185</ele>
        <time>2018-05-06T09:06:53Z</time>
      </trkpt>
      <trkpt lat="45.89966" lon="4.77662">
        <ele>185</ele>
        <time>2018-05-06T09:06:54Z</time>
      </trkpt>
      <trkpt lat="45.89961" lon="4.77664">
        <ele>185</ele>
        <time>2018-05-06T09:06:55Z</time>
      </trkpt>
      <trkpt lat="45.89955" lon="4.77662">
        <ele>185</ele>
        <time>2018-05-06T09:06:56Z</time>
      </trkpt>
      <trkpt lat="45.8995" lon="4.77661">
        <ele>185</ele>
        <time>2018-05-06T09:06:57Z</time>
      </trkpt>
      <trkpt lat="45.89945" lon="4.7766">
        <ele>185</ele>
        <time>2018-05-06T09:06:58Z</time>
      </trkpt>
      <trkpt lat="45.89939" lon="4.7766">
        <ele>186</ele>
        <time>2018-05-06T09:06:59Z</time>
      </trkpt>
      <trkpt lat="45.89934" lon="4.77656">
        <ele>186</ele>
        <time>2018-05-06T09:07:00Z</time>
      </trkpt>
      <trkpt lat="45.89929" lon="4.77658">
        <ele>186</ele>
        <time>2018-05-06T09:07:01Z</time>
      </trkpt>
      <trkpt lat="45.89923" lon="4.77658">
        <ele>186</ele>
        <time>2018-05-06T09:07:02Z</time>
      </trkpt>
      <trkpt lat="45.89918" lon="4.77657">
        <ele>186</ele>
        <time>2018-05-06T09:07:03Z</time>
      </trkpt>
      <trkpt lat="45.89913" lon="4.77658">
        <ele>186</ele>
        <time>2018-05-06T09:07:04Z</time>
      </trkpt>
      <trkpt lat="45.89907" lon="4.77657">
        <ele>186</ele>
        <time>2018-05-06T09:07:05Z</time>
      </trkpt>
      <trkpt lat="45.89902" lon="4.77657">
        <ele>186</ele>
        <time>2018-05-06T09:07:06Z</time>
      </trkpt>
      <trkpt lat="45.89897" lon="4.77656">
        <ele>186</ele>
        <time>2018-05-06T09:07:07Z</time>
      </trkpt>
      <trkpt lat="45.89892" lon="4.77655">
        <ele>186</ele>
        <time>2018-05-06T09:07:08Z</time>
      </trkpt>
      <trkpt lat="45.89886" lon="4.77657">
        <ele>186</ele>
        <time>2018-05-06T09:07:09Z</time>
      </trkpt>
      <trkpt lat="45.89881" lon="4.7766">
        <ele>186</ele>
        <time>2018-05-06T09:07:10Z</time>
      </trkpt>
      <trkpt lat="45.89877" lon="4.77659">
        <ele>186</ele>
        <time>2018-05-06T09:07:11Z</time>
      </trkpt>
      <trkpt lat="45.89873" lon="4.77661">
        <ele>186</ele>
        <time>2018-05-06T09:07:12Z</time>
      </trkpt>
      <trkpt lat="45.89868" lon="4.77661">
        <ele>186</ele>
        <time>2018-05-06T09:07:13Z</time>
      </trkpt>
      <trkpt lat="45.89864" lon="4.77661">
        <ele>186</ele>
        <time>2018-05-06T09:07:14Z</time>
      </trkpt>
      <trkpt lat="45.89859" lon="4.77661">
        <ele>187</ele>
        <time>2018-05-06T09:07:15Z</time>
      </trkpt>
      <trkpt lat="45.89854" lon="4.77661">
        <ele>187</ele>
        <time>2018-05-06T09:07:16Z</time>
      </trkpt>
      <trkpt lat="45.8985" lon="4.77661">
        <ele>187</ele>
        <time>2018-05-06T09:07:17Z</time>
      </trkpt>
      <trkpt lat="45.89845" lon="4.77662">
        <ele>187</ele>
        <time>2018-05-06T09:07:18Z</time>
      </trkpt>
      <trkpt lat="45.8984" lon="4.77663">
        <ele>188</ele>
        <time>2018-05-06T09:07:19Z</time>
      </trkpt>
      <trkpt lat="45.89832" lon="4.77663">
        <ele>189</ele>
        <time>2018-05-06T09:07:21Z</time>
      </trkpt>
      <trkpt lat="45.89828" lon="4.77662">
        <ele>189</ele>
        <time>2018-05-06T09:07:22Z</time>
      </trkpt>
      <trkpt lat="45.89819" lon="4.77662">
        <ele>188</ele>
        <time>2018-05-06T09:07:24Z</time>
      </trkpt>
      <trkpt lat="45.89815" lon="4.77662">
        <ele>188</ele>
        <time>2018-05-06T09:07:25Z</time>
      </trkpt>
      <trkpt lat="45.89808" lon="4.77661">
        <ele>188</ele>
        <time>2018-05-06T09:07:27Z</time>
      </trkpt>
      <trkpt lat="45.89805" lon="4.7766">
        <ele>188</ele>
        <time>2018-05-06T09:07:28Z</time>
      </trkpt>
      <trkpt lat="45.89797" lon="4.7766">
        <ele>189</ele>
        <time>2018-05-06T09:07:30Z</time>
      </trkpt>
      <trkpt lat="45.89794" lon="4.7766">
        <ele>189</ele>
        <time>2018-05-06T09:07:31Z</time>
      </trkpt>
      <trkpt lat="45.89786" lon="4.77659">
        <ele>189</ele>
        <time>2018-05-06T09:07:34Z</time>
      </trkpt>
      <trkpt lat="45.89778" lon="4.77659">
        <ele>189</ele>
        <time>2018-05-06T09:07:35Z</time>
      </trkpt>
      <trkpt lat="45.89771" lon="4.77658">
        <ele>190</ele>
        <time>2018-05-06T09:07:38Z</time>
      </trkpt>
      <trkpt lat="45.89764" lon="4.77657">
        <ele>190</ele>
        <time>2018-05-06T09:07:39Z</time>
      </trkpt>
      <trkpt lat="45.89756" lon="4.77655">
        <ele>190</ele>
        <time>2018-05-06T09:07:41Z</time>
      </trkpt>
      <trkpt lat="45.89752" lon="4.77654">
        <ele>190</ele>
        <time>2018-05-06T09:07:42Z</time>
      </trkpt>
      <trkpt lat="45.89744" lon="4.77653">
        <ele>191</ele>
        <time>2018-05-06T09:07:44Z</time>
      </trkpt>
      <trkpt lat="45.8974" lon="4.77654">
        <ele>191</ele>
        <time>2018-05-06T09:07:45Z</time>
      </trkpt>
      <trkpt lat="45.89735" lon="4.77656">
        <ele>191</ele>
        <time>2018-05-06T09:07:46Z</time>
      </trkpt>
      <trkpt lat="45.8973" lon="4.77656">
        <ele>191</ele>
        <time>2018-05-06T09:07:47Z</time>
      </trkpt>
      <trkpt lat="45.89725" lon="4.77655">
        <ele>190</ele>
        <time>2018-05-06T09:07:48Z</time>
      </trkpt>
      <trkpt lat="45.8972" lon="4.77654">
        <ele>190</ele>
        <time>2018-05-06T09:07:49Z</time>
      </trkpt>
      <trkpt lat="45.89715" lon="4.77653">
        <ele>190</ele>
        <time>2018-05-06T09:07:50Z</time>
      </trkpt>
      <trkpt lat="45.89711" lon="4.77652">
        <ele>190</ele>
        <time>2018-05-06T09:07:51Z</time>
      </trkpt>
      <trkpt lat="45.89702" lon="4.77651">
        <ele>190</ele>
        <time>2018-05-06T09:07:53Z</time>
      </trkpt>
      <trkpt lat="45.89697" lon="4.77649">
        <ele>190</ele>
        <time>2018-05-06T09:07:54Z</time>
      </trkpt>
      <trkpt lat="45.89693" lon="4.77648">
        <ele>190</ele>
        <time>2018-05-06T09:07:55Z</time>
      </trkpt>
      <trkpt lat="45.89688" lon="4.77645">
        <ele>190</ele>
        <time>2018-05-06T09:07:56Z</time>
      </trkpt>
      <trkpt lat="45.89683" lon="4.77644">
        <ele>190</ele>
        <time>2018-05-06T09:07:57Z</time>
      </trkpt>
      <trkpt lat="45.89679" lon="4.77644">
        <ele>190</ele>
        <time>2018-05-06T09:07:58Z</time>
      </trkpt>
      <trkpt lat="45.8967" lon="4.77644">
        <ele>190</ele>
        <time>2018-05-06T09:08:00Z</time>
      </trkpt>
      <trkpt lat="45.89666" lon="4.77643">
        <ele>190</ele>
        <time>2018-05-06T09:08:01Z</time>
      </trkpt>
      <trkpt lat="45.89657" lon="4.77641">
        <ele>190</ele>
        <time>2018-05-06T09:08:03Z</time>
      </trkpt>
      <trkpt lat="45.89652" lon="4.7764">
        <ele>190</ele>
        <time>2018-05-06T09:08:04Z</time>
      </trkpt>
      <trkpt lat="45.89644" lon="4.77637">
        <ele>190</ele>
        <time>2018-05-06T09:08:06Z</time>
      </trkpt>
      <trkpt lat="45.89639" lon="4.77636">
        <ele>190</ele>
        <time>2018-05-06T09:08:07Z</time>
      </trkpt>
      <trkpt lat="45.89635" lon="4.77635">
        <ele>190</ele>
        <time>2018-05-06T09:08:08Z</time>
      </trkpt>
      <trkpt lat="45.8963" lon="4.77634">
        <ele>190</ele>
        <time>2018-05-06T09:08:09Z</time>
      </trkpt>
      <trkpt lat="45.89625" lon="4.77634">
        <ele>191</ele>
        <time>2018-05-06T09:08:10Z</time>
      </trkpt>
      <trkpt lat="45.8962" lon="4.77633">
        <ele>191</ele>
        <time>2018-05-06T09:08:11Z</time>
      </trkpt>
      <trkpt lat="45.89615" lon="4.77631">
        <ele>191</ele>
        <time>2018-05-06T09:08:12Z</time>
      </trkpt>
      <trkpt lat="45.89611" lon="4.7763">
        <ele>191</ele>
        <time>2018-05-06T09:08:13Z</time>
      </trkpt>
      <trkpt lat="45.89602" lon="4.7763">
        <ele>191</ele>
        <time>2018-05-06T09:08:15Z</time>
      </trkpt>
      <trkpt lat="45.89598" lon="4.77629">
        <ele>191</ele>
        <time>2018-05-06T09:08:16Z</time>
      </trkpt>
      <trkpt lat="45.89594" lon="4.77629">
        <ele>191</ele>
        <time>2018-05-06T09:08:17Z</time>
      </trkpt>
      <trkpt lat="45.89589" lon="4.7763">
        <ele>191</ele>
        <time>2018-05-06T09:08:18Z</time>
      </trkpt>
      <trkpt lat="45.89584" lon="4.77629">
        <ele>191</ele>
        <time>2018-05-06T09:08:19Z</time>
      </trkpt>
      <trkpt lat="45.89579" lon="4.77629">
        <ele>192</ele>
        <time>2018-05-06T09:08:20Z</time>
      </trkpt>
      <trkpt lat="45.89575" lon="4.77628">
        <ele>192</ele>
        <time>2018-05-06T09:08:21Z</time>
      </trkpt>
      <trkpt lat="45.8957" lon="4.77628">
        <ele>192</ele>
        <time>2018-05-06T09:08:22Z</time>
      </trkpt>
      <trkpt lat="45.89565" lon="4.77627">
        <ele>192</ele>
        <time>2018-05-06T09:08:23Z</time>
      </trkpt>
      <trkpt lat="45.8956" lon="4.77626">
        <ele>192</ele>
        <time>2018-05-06T09:08:24Z</time>
      </trkpt>
      <trkpt lat="45.89555" lon="4.77624">
        <ele>192</ele>
        <time>2018-05-06T09:08:25Z</time>
      </trkpt>
      <trkpt lat="45.8955" lon="4.77624">
        <ele>192</ele>
        <time>2018-05-06T09:08:26Z</time>
      </trkpt>
      <trkpt lat="45.89541" lon="4.77623">
        <ele>192</ele>
        <time>2018-05-06T09:08:28Z</time>
      </trkpt>
      <trkpt lat="45.89537" lon="4.77621">
        <ele>192</ele>
        <time>2018-05-06T09:08:29Z</time>
      </trkpt>
      <trkpt lat="45.89531" lon="4.77619">
        <ele>192</ele>
        <time>2018-05-06T09:08:30Z</time>
      </trkpt>
      <trkpt lat="45.89526" lon="4.77618">
        <ele>192</ele>
        <time>2018-05-06T09:08:31Z</time>
      </trkpt>
      <trkpt lat="45.8952" lon="4.77617">
        <ele>192</ele>
        <time>2018-05-06T09:08:32Z</time>
      </trkpt>
      <trkpt lat="45.89516" lon="4.77615">
        <ele>192</ele>
        <time>2018-05-06T09:08:33Z</time>
      </trkpt>
      <trkpt lat="45.89511" lon="4.77614">
        <ele>192</ele>
        <time>2018-05-06T09:08:34Z</time>
      </trkpt>
      <trkpt lat="45.89505" lon="4.77613">
        <ele>192</ele>
        <time>2018-05-06T09:08:35Z</time>
      </trkpt>
      <trkpt lat="45.895" lon="4.77612">
        <ele>193</ele>
        <time>2018-05-06T09:08:36Z</time>
      </trkpt>
      <trkpt lat="45.89495" lon="4.77611">
        <ele>193</ele>
        <time>2018-05-06T09:08:37Z</time>
      </trkpt>
      <trkpt lat="45.89489" lon="4.7761">
        <ele>193</ele>
        <time>2018-05-06T09:08:38Z</time>
      </trkpt>
      <trkpt lat="45.89484" lon="4.77607">
        <ele>193</ele>
        <time>2018-05-06T09:08:39Z</time>
      </trkpt>
      <trkpt lat="45.89478" lon="4.77605">
        <ele>193</ele>
        <time>2018-05-06T09:08:40Z</time>
      </trkpt>
      <trkpt lat="45.89473" lon="4.77604">
        <ele>193</ele>
        <time>2018-05-06T09:08:41Z</time>
      </trkpt>
      <trkpt lat="45.89467" lon="4.77601">
        <ele>193</ele>
        <time>2018-05-06T09:08:42Z</time>
      </trkpt>
      <trkpt lat="45.89463" lon="4.77601">
        <ele>193</ele>
        <time>2018-05-06T09:08:43Z</time>
      </trkpt>
      <trkpt lat="45.89458" lon="4.77598">
        <ele>193</ele>
        <time>2018-05-06T09:08:44Z</time>
      </trkpt>
      <trkpt lat="45.89452" lon="4.77596">
        <ele>193</ele>
        <time>2018-05-06T09:08:45Z</time>
      </trkpt>
      <trkpt lat="45.89447" lon="4.77593">
        <ele>193</ele>
        <time>2018-05-06T09:08:46Z</time>
      </trkpt>
      <trkpt lat="45.89442" lon="4.7759">
        <ele>193</ele>
        <time>2018-05-06T09:08:47Z</time>
      </trkpt>
      <trkpt lat="45.89436" lon="4.77588">
        <ele>193</ele>
        <time>2018-05-06T09:08:48Z</time>
      </trkpt>
      <trkpt lat="45.8943" lon="4.77586">
        <ele>194</ele>
        <time>2018-05-06T09:08:49Z</time>
      </trkpt>
      <trkpt lat="45.89425" lon="4.77584">
        <ele>194</ele>
        <time>2018-05-06T09:08:50Z</time>
      </trkpt>
      <trkpt lat="45.89419" lon="4.77582">
        <ele>194</ele>
        <time>2018-05-06T09:08:51Z</time>
      </trkpt>
      <trkpt lat="45.89415" lon="4.77579">
        <ele>194</ele>
        <time>2018-05-06T09:08:52Z</time>
      </trkpt>
      <trkpt lat="45.89409" lon="4.77577">
        <ele>194</ele>
        <time>2018-05-06T09:08:53Z</time>
      </trkpt>
      <trkpt lat="45.89404" lon="4.77575">
        <ele>194</ele>
        <time>2018-05-06T09:08:54Z</time>
      </trkpt>
      <trkpt lat="45.89399" lon="4.77572">
        <ele>194</ele>
        <time>2018-05-06T09:08:55Z</time>
      </trkpt>
      <trkpt lat="45.89393" lon="4.7757">
        <ele>194</ele>
        <time>2018-05-06T09:08:56Z</time>
      </trkpt>
      <trkpt lat="45.89388" lon="4.77568">
        <ele>194</ele>
        <time>2018-05-06T09:08:57Z</time>
      </trkpt>
      <trkpt lat="45.89382" lon="4.77566">
        <ele>194</ele>
        <time>2018-05-06T09:08:58Z</time>
      </trkpt>
      <trkpt lat="45.89376" lon="4.77564">
        <ele>194</ele>
        <time>2018-05-06T09:08:59Z</time>
      </trkpt>
      <trkpt lat="45.8937" lon="4.77562">
        <ele>194</ele>
        <time>2018-05-06T09:09:00Z</time>
      </trkpt>
      <trkpt lat="45.89364" lon="4.77561">
        <ele>194</ele>
        <time>2018-05-06T09:09:01Z</time>
      </trkpt>
      <trkpt lat="45.89359" lon="4.77558">
        <ele>194</ele>
        <time>2018-05-06T09:09:02Z</time>
      </trkpt>
      <trkpt lat="45.89354" lon="4.77556">
        <ele>194</ele>
        <time>2018-05-06T09:09:03Z</time>
      </trkpt>
      <trkpt lat="45.89349" lon="4.77553">
        <ele>194</ele>
        <time>2018-05-06T09:09:04Z</time>
      </trkpt>
      <trkpt lat="45.89344" lon="4.77551">
        <ele>194</ele>
        <time>2018-05-06T09:09:05Z</time>
      </trkpt>
      <trkpt lat="45.89339" lon="4.77548">
        <ele>194</ele>
        <time>2018-05-06T09:09:06Z</time>
      </trkpt>
      <trkpt lat="45.89334" lon="4.77546">
        <ele>194</ele>
        <time>2018-05-06T09:09:07Z</time>
      </trkpt>
      <trkpt lat="45.89329" lon="4.77544">
        <ele>194</ele>
        <time>2018-05-06T09:09:08Z</time>
      </trkpt>
      <trkpt lat="45.89323" lon="4.77542">
        <ele>194</ele>
        <time>2018-05-06T09:09:09Z</time>
      </trkpt>
      <trkpt lat="45.89317" lon="4.77539">
        <ele>194</ele>
        <time>2018-05-06T09:09:10Z</time>
      </trkpt>
      <trkpt lat="45.89312" lon="4.77536">
        <ele>194</ele>
        <time>2018-05-06T09:09:11Z</time>
      </trkpt>
      <trkpt lat="45.89307" lon="4.77534">
        <ele>194</ele>
        <time>2018-05-06T09:09:12Z</time>
      </trkpt>
      <trkpt lat="45.89302" lon="4.77531">
        <ele>194</ele>
        <time>2018-05-06T09:09:13Z</time>
      </trkpt>
      <trkpt lat="45.89297" lon="4.77529">
        <ele>194</ele>
        <time>2018-05-06T09:09:14Z</time>
      </trkpt>
      <trkpt lat="45.89292" lon="4.77526">
        <ele>193</ele>
        <time>2018-05-06T09:09:15Z</time>
      </trkpt>
      <trkpt lat="45.89286" lon="4.77524">
        <ele>193</ele>
        <time>2018-05-06T09:09:16Z</time>
      </trkpt>
      <trkpt lat="45.89281" lon="4.77523">
        <ele>193</ele>
        <time>2018-05-06T09:09:17Z</time>
      </trkpt>
      <trkpt lat="45.89275" lon="4.77524">
        <ele>193</ele>
        <time>2018-05-06T09:09:18Z</time>
      </trkpt>
      <trkpt lat="45.8927" lon="4.77523">
        <ele>193</ele>
        <time>2018-05-06T09:09:19Z</time>
      </trkpt>
      <trkpt lat="45.89265" lon="4.77523">
        <ele>193</ele>
        <time>2018-05-06T09:09:20Z</time>
      </trkpt>
      <trkpt lat="45.8926" lon="4.77526">
        <ele>193</ele>
        <time>2018-05-06T09:09:21Z</time>
      </trkpt>
      <trkpt lat="45.89254" lon="4.77527">
        <ele>193</ele>
        <time>2018-05-06T09:09:22Z</time>
      </trkpt>
      <trkpt lat="45.89249" lon="4.77527">
        <ele>193</ele>
        <time>2018-05-06T09:09:23Z</time>
      </trkpt>
      <trkpt lat="45.89243" lon="4.77527">
        <ele>193</ele>
        <time>2018-05-06T09:09:24Z</time>
      </trkpt>
      <trkpt lat="45.89237" lon="4.77529">
        <ele>193</ele>
        <time>2018-05-06T09:09:25Z</time>
      </trkpt>
      <trkpt lat="45.89232" lon="4.7753">
        <ele>194</ele>
        <time>2018-05-06T09:09:26Z</time>
      </trkpt>
      <trkpt lat="45.89227" lon="4.77531">
        <ele>194</ele>
        <time>2018-05-06T09:09:27Z</time>
      </trkpt>
      <trkpt lat="45.89222" lon="4.77533">
        <ele>194</ele>
        <time>2018-05-06T09:09:28Z</time>
      </trkpt>
      <trkpt lat="45.89217" lon="4.77533">
        <ele>194</ele>
        <time>2018-05-06T09:09:29Z</time>
      </trkpt>
      <trkpt lat="45.89211" lon="4.77533">
        <ele>194</ele>
        <time>2018-05-06T09:09:30Z</time>
      </trkpt>
      <trkpt lat="45.89207" lon="4.77534">
        <ele>194</ele>
        <time>2018-05-06T09:09:31Z</time>
      </trkpt>
      <trkpt lat="45.89201" lon="4.77535">
        <ele>194</ele>
        <time>2018-05-06T09:09:32Z</time>
      </trkpt>
      <trkpt lat="45.89196" lon="4.77536">
        <ele>194</ele>
        <time>2018-05-06T09:09:33Z</time>
      </trkpt>
      <trkpt lat="45.8919" lon="4.77538">
        <ele>194</ele>
        <time>2018-05-06T09:09:34Z</time>
      </trkpt>
      <trkpt lat="45.89185" lon="4.77539">
        <ele>194</ele>
        <time>2018-05-06T09:09:35Z</time>
      </trkpt>
      <trkpt lat="45.89178" lon="4.77541">
        <ele>194</ele>
        <time>2018-05-06T09:09:36Z</time>
      </trkpt>
      <trkpt lat="45.89172" lon="4.77542">
        <ele>194</ele>
        <time>2018-05-06T09:09:37Z</time>
      </trkpt>
      <trkpt lat="45.89167" lon="4.77543">
        <ele>194</ele>
        <time>2018-05-06T09:09:38Z</time>
      </trkpt>
      <trkpt lat="45.89161" lon="4.77544">
        <ele>195</ele>
        <time>2018-05-06T09:09:39Z</time>
      </trkpt>
      <trkpt lat="45.89155" lon="4.77545">
        <ele>195</ele>
        <time>2018-05-06T09:09:40Z</time>
      </trkpt>
      <trkpt lat="45.8915" lon="4.77546">
        <ele>195</ele>
        <time>2018-05-06T09:09:41Z</time>
      </trkpt>
      <trkpt lat="45.89145" lon="4.77547">
        <ele>195</ele>
        <time>2018-05-06T09:09:42Z</time>
      </trkpt>
      <trkpt lat="45.89139" lon="4.77552">
        <ele>195</ele>
        <time>2018-05-06T09:09:43Z</time>
      </trkpt>
      <trkpt lat="45.89134" lon="4.77553">
        <ele>195</ele>
        <time>2018-05-06T09:09:44Z</time>
      </trkpt>
      <trkpt lat="45.89129" lon="4.77555">
        <ele>195</ele>
        <time>2018-05-06T09:09:45Z</time>
      </trkpt>
      <trkpt lat="45.89124" lon="4.77557">
        <ele>195</ele>
        <time>2018-05-06T09:09:46Z</time>
      </trkpt>
      <trkpt lat="45.89119" lon="4.77559">
        <ele>195</ele>
        <time>2018-05-06T09:09:47Z</time>
      </trkpt>
      <trkpt lat="45.89114" lon="4.77561">
        <ele>195</ele>
        <time>2018-05-06T09:09:48Z</time>
      </trkpt>
      <trkpt lat="45.89109" lon="4.77564">
        <ele>195</ele>
        <time>2018-05-06T09:09:49Z</time>
      </trkpt>
      <trkpt lat="45.89104" lon="4.77568">
        <ele>196</ele>
        <time>2018-05-06T09:09:50Z</time>
      </trkpt>
      <trkpt lat="45.89099" lon="4.77571">
        <ele>196</ele>
        <time>2018-05-06T09:09:51Z</time>
      </trkpt>
      <trkpt lat="45.89094" lon="4.77574">
        <ele>196</ele>
        <time>2018-05-06T09:09:52Z</time>
      </trkpt>
      <trkpt lat="45.89089" lon="4.77577">
        <ele>196</ele>
        <time>2018-05-06T09:09:53Z</time>
      </trkpt>
      <trkpt lat="45.89084" lon="4.77582">
        <ele>196</ele>
        <time>2018-05-06T09:09:54Z</time>
      </trkpt>
      <trkpt lat="45.89079" lon="4.77586">
        <ele>196</ele>
        <time>2018-05-06T09:09:55Z</time>
      </trkpt>
      <trkpt lat="45.89074" lon="4.77591">
        <ele>196</ele>
        <time>2018-05-06T09:09:56Z</time>
      </trkpt>
      <trkpt lat="45.8907" lon="4.77595">
        <ele>196</ele>
        <time>2018-05-06T09:09:57Z</time>
      </trkpt>
      <trkpt lat="45.89065" lon="4.77599">
        <ele>196</ele>
        <time>2018-05-06T09:09:58Z</time>
      </trkpt>
      <trkpt lat="45.8906" lon="4.77602">
        <ele>197</ele>
        <time>2018-05-06T09:09:59Z</time>
      </trkpt>
      <trkpt lat="45.89056" lon="4.77607">
        <ele>197</ele>
        <time>2018-05-06T09:10:00Z</time>
      </trkpt>
      <trkpt lat="45.89051" lon="4.77612">
        <ele>197</ele>
        <time>2018-05-06T09:10:01Z</time>
      </trkpt>
      <trkpt lat="45.89047" lon="4.77615">
        <ele>197</ele>
        <time>2018-05-06T09:10:02Z</time>
      </trkpt>
      <trkpt lat="45.89042" lon="4.77618">
        <ele>197</ele>
        <time>2018-05-06T09:10:03Z</time>
      </trkpt>
      <trkpt lat="45.89038" lon="4.77621">
        <ele>197</ele>
        <time>2018-05-06T09:10:04Z</time>
      </trkpt>
      <trkpt lat="45.89034" lon="4.77624">
        <ele>197</ele>
        <time>2018-05-06T09:10:05Z</time>
      </trkpt>
      <trkpt lat="45.8903" lon="4.77628">
        <ele>197</ele>
        <time>2018-05-06T09:10:06Z</time>
      </trkpt>
      <trkpt lat="45.89026" lon="4.77632">
        <ele>197</ele>
        <time>2018-05-06T09:10:07Z</time>
      </trkpt>
      <trkpt lat="45.89021" lon="4.77634">
        <ele>197</ele>
        <time>2018-05-06T09:10:08Z</time>
      </trkpt>
      <trkpt lat="45.89017" lon="4.77638">
        <ele>197</ele>
        <time>2018-05-06T09:10:09Z</time>
      </trkpt>
      <trkpt lat="45.89012" lon="4.77643">
        <ele>197</ele>
        <time>2018-05-06T09:10:10Z</time>
      </trkpt>
      <trkpt lat="45.89007" lon="4.77646">
        <ele>197</ele>
        <time>2018-05-06T09:10:11Z</time>
      </trkpt>
      <trkpt lat="45.89001" lon="4.77652">
        <ele>197</ele>
        <time>2018-05-06T09:10:13Z</time>
      </trkpt>
      <trkpt lat="45.88998" lon="4.7766">
        <ele>197</ele>
        <time>2018-05-06T09:10:14Z</time>
      </trkpt>
      <trkpt lat="45.88994" lon="4.77663">
        <ele>197</ele>
        <time>2018-05-06T09:10:15Z</time>
      </trkpt>
      <trkpt lat="45.88989" lon="4.77666">
        <ele>197</ele>
        <time>2018-05-06T09:10:16Z</time>
      </trkpt>
      <trkpt lat="45.88985" lon="4.77669">
        <ele>198</ele>
        <time>2018-05-06T09:10:17Z</time>
      </trkpt>
      <trkpt lat="45.8898" lon="4.77672">
        <ele>198</ele>
        <time>2018-05-06T09:10:18Z</time>
      </trkpt>
      <trkpt lat="45.88976" lon="4.77676">
        <ele>198</ele>
        <time>2018-05-06T09:10:19Z</time>
      </trkpt>
      <trkpt lat="45.88971" lon="4.77678">
        <ele>198</ele>
        <time>2018-05-06T09:10:20Z</time>
      </trkpt>
      <trkpt lat="45.88967" lon="4.7768">
        <ele>198</ele>
        <time>2018-05-06T09:10:21Z</time>
      </trkpt>
      <trkpt lat="45.88962" lon="4.77683">
        <ele>198</ele>
        <time>2018-05-06T09:10:22Z</time>
      </trkpt>
      <trkpt lat="45.88955" lon="4.77684">
        <ele>199</ele>
        <time>2018-05-06T09:10:24Z</time>
      </trkpt>
      <trkpt lat="45.8895" lon="4.77685">
        <ele>199</ele>
        <time>2018-05-06T09:10:25Z</time>
      </trkpt>
      <trkpt lat="45.88945" lon="4.77687">
        <ele>199</ele>
        <time>2018-05-06T09:10:26Z</time>
      </trkpt>
      <trkpt lat="45.88941" lon="4.77689">
        <ele>199</ele>
        <time>2018-05-06T09:10:27Z</time>
      </trkpt>
      <trkpt lat="45.88936" lon="4.77692">
        <ele>199</ele>
        <time>2018-05-06T09:10:28Z</time>
      </trkpt>
      <trkpt lat="45.88932" lon="4.77693">
        <ele>199</ele>
        <time>2018-05-06T09:10:29Z</time>
      </trkpt>
      <trkpt lat="45.88924" lon="4.77696">
        <ele>199</ele>
        <time>2018-05-06T09:10:31Z</time>
      </trkpt>
      <trkpt lat="45.88919" lon="4.77697">
        <ele>199</ele>
        <time>2018-05-06T09:10:32Z</time>
      </trkpt>
      <trkpt lat="45.88914" lon="4.77697">
        <ele>200</ele>
        <time>2018-05-06T09:10:33Z</time>
      </trkpt>
      <trkpt lat="45.88908" lon="4.77698">
        <ele>200</ele>
        <time>2018-05-06T09:10:34Z</time>
      </trkpt>
      <trkpt lat="45.88901" lon="4.77701">
        <ele>200</ele>
        <time>2018-05-06T09:10:36Z</time>
      </trkpt>
      <trkpt lat="45.88895" lon="4.77702">
        <ele>200</ele>
        <time>2018-05-06T09:10:37Z</time>
      </trkpt>
      <trkpt lat="45.8889" lon="4.77703">
        <ele>200</ele>
        <time>2018-05-06T09:10:38Z</time>
      </trkpt>
      <trkpt lat="45.88884" lon="4.77703">
        <ele>200</ele>
        <time>2018-05-06T09:10:39Z</time>
      </trkpt>
      <trkpt lat="45.88877" lon="4.77702">
        <ele>200</ele>
        <time>2018-05-06T09:10:41Z</time>
      </trkpt>
      <trkpt lat="45.88872" lon="4.77703">
        <ele>201</ele>
        <time>2018-05-06T09:10:42Z</time>
      </trkpt>
      <trkpt lat="45.88863" lon="4.77704">
        <ele>201</ele>
        <time>2018-05-06T09:10:44Z</time>
      </trkpt>
      <trkpt lat="45.88859" lon="4.77704">
        <ele>201</ele>
        <time>2018-05-06T09:10:45Z</time>
      </trkpt>
      <trkpt lat="45.88854" lon="4.77704">
        <ele>201</ele>
        <time>2018-05-06T09:10:46Z</time>
      </trkpt>
      <trkpt lat="45.8885" lon="4.77705">
        <ele>201</ele>
        <time>2018-05-06T09:10:47Z</time>
      </trkpt>
      <trkpt lat="45.88845" lon="4.77707">
        <ele>201</ele>
        <time>2018-05-06T09:10:48Z</time>
      </trkpt>
      <trkpt lat="45.8884" lon="4.77706">
        <ele>201</ele>
        <time>2018-05-06T09:10:49Z</time>
      </trkpt>
      <trkpt lat="45.88835" lon="4.77707">
        <ele>201</ele>
        <time>2018-05-06T09:10:50Z</time>
      </trkpt>
      <trkpt lat="45.88831" lon="4.77707">
        <ele>201</ele>
        <time>2018-05-06T09:10:51Z</time>
      </trkpt>
      <trkpt lat="45.88826" lon="4.77707">
        <ele>201</ele>
        <time>2018-05-06T09:10:52Z</time>
      </trkpt>
      <trkpt lat="45.88822" lon="4.77708">
        <ele>202</ele>
        <time>2018-05-06T09:10:53Z</time>
      </trkpt>
      <trkpt lat="45.88814" lon="4.77708">
        <ele>202</ele>
        <time>2018-05-06T09:10:55Z</time>
      </trkpt>
      <trkpt lat="45.88809" lon="4.77709">
        <ele>202</ele>
        <time>2018-05-06T09:10:56Z</time>
      </trkpt>
      <trkpt lat="45.88805" lon="4.77708">
        <ele>202</ele>
        <time>2018-05-06T09:10:57Z</time>
      </trkpt>
      <trkpt lat="45.888" lon="4.77708">
        <ele>202</ele>
        <time>2018-05-06T09:10:58Z</time>
      </trkpt>
      <trkpt lat="45.88792" lon="4.7771">
        <ele>202</ele>
        <time>2018-05-06T09:11:00Z</time>
      </trkpt>
      <trkpt lat="45.88787" lon="4.77711">
        <ele>202</ele>
        <time>2018-05-06T09:11:01Z</time>
      </trkpt>
      <trkpt lat="45.88782" lon="4.77711">
        <ele>202</ele>
        <time>2018-05-06T09:11:02Z</time>
      </trkpt>
      <trkpt lat="45.88777" lon="4.7771">
        <ele>202</ele>
        <time>2018-05-06T09:11:03Z</time>
      </trkpt>
      <trkpt lat="45.88768" lon="4.77711">
        <ele>202</ele>
        <time>2018-05-06T09:11:05Z</time>
      </trkpt>
      <trkpt lat="45.88763" lon="4.7771">
        <ele>202</ele>
        <time>2018-05-06T09:11:06Z</time>
      </trkpt>
      <trkpt lat="45.88759" lon="4.77711">
        <ele>202</ele>
        <time>2018-05-06T09:11:07Z</time>
      </trkpt>
      <trkpt lat="45.88754" lon="4.77711">
        <ele>202</ele>
        <time>2018-05-06T09:11:08Z</time>
      </trkpt>
      <trkpt lat="45.88749" lon="4.77712">
        <ele>203</ele>
        <time>2018-05-06T09:11:09Z</time>
      </trkpt>
      <trkpt lat="45.88744" lon="4.77712">
        <ele>203</ele>
        <time>2018-05-06T09:11:10Z</time>
      </trkpt>
      <trkpt lat="45.88736" lon="4.77711">
        <ele>203</ele>
        <time>2018-05-06T09:11:12Z</time>
      </trkpt>
      <trkpt lat="45.88731" lon="4.77711">
        <ele>203</ele>
        <time>2018-05-06T09:11:13Z</time>
      </trkpt>
      <trkpt lat="45.88726" lon="4.77711">
        <ele>203</ele>
        <time>2018-05-06T09:11:14Z</time>
      </trkpt>
      <trkpt lat="45.88721" lon="4.77712">
        <ele>203</ele>
        <time>2018-05-06T09:11:15Z</time>
      </trkpt>
      <trkpt lat="45.88713" lon="4.77714">
        <ele>203</ele>
        <time>2018-05-06T09:11:17Z</time>
      </trkpt>
      <trkpt lat="45.88708" lon="4.77714">
        <ele>203</ele>
        <time>2018-05-06T09:11:18Z</time>
      </trkpt>
      <trkpt lat="45.88703" lon="4.77714">
        <ele>203</ele>
        <time>2018-05-06T09:11:19Z</time>
      </trkpt>
      <trkpt lat="45.88698" lon="4.77714">
        <ele>203</ele>
        <time>2018-05-06T09:11:20Z</time>
      </trkpt>
      <trkpt lat="45.88689" lon="4.77713">
        <ele>203</ele>
        <time>2018-05-06T09:11:22Z</time>
      </trkpt>
      <trkpt lat="45.88685" lon="4.77712">
        <ele>203</ele>
        <time>2018-05-06T09:11:23Z</time>
      </trkpt>
      <trkpt lat="45.88679" lon="4.77712">
        <ele>203</ele>
        <time>2018-05-06T09:11:24Z</time>
      </trkpt>
      <trkpt lat="45.88675" lon="4.77712">
        <ele>203</ele>
        <time>2018-05-06T09:11:25Z</time>
      </trkpt>
      <trkpt lat="45.8867" lon="4.77711">
        <ele>203</ele>
        <time>2018-05-06T09:11:26Z</time>
      </trkpt>
      <trkpt lat="45.88665" lon="4.77711">
        <ele>203</ele>
        <time>2018-05-06T09:11:27Z</time>
      </trkpt>
      <trkpt lat="45.8866" lon="4.7771">
        <ele>203</ele>
        <time>2018-05-06T09:11:28Z</time>
      </trkpt>
      <trkpt lat="45.88655" lon="4.77711">
        <ele>203</ele>
        <time>2018-05-06T09:11:29Z</time>
      </trkpt>
      <trkpt lat="45.8865" lon="4.77711">
        <ele>203</ele>
        <time>2018-05-06T09:11:30Z</time>
      </trkpt>
      <trkpt lat="45.88645" lon="4.77711">
        <ele>203</ele>
        <time>2018-05-06T09:11:31Z</time>
      </trkpt>
      <trkpt lat="45.8864" lon="4.7771">
        <ele>203</ele>
        <time>2018-05-06T09:11:32Z</time>
      </trkpt>
      <trkpt lat="45.88635" lon="4.77708">
        <ele>203</ele>
        <time>2018-05-06T09:11:33Z</time>
      </trkpt>
      <trkpt lat="45.8863" lon="4.77708">
        <ele>203</ele>
        <time>2018-05-06T09:11:34Z</time>
      </trkpt>
      <trkpt lat="45.88626" lon="4.77708">
        <ele>203</ele>
        <time>2018-05-06T09:11:35Z</time>
      </trkpt>
      <trkpt lat="45.8862" lon="4.77707">
        <ele>203</ele>
        <time>2018-05-06T09:11:36Z</time>
      </trkpt>
      <trkpt lat="45.88616" lon="4.77708">
        <ele>203</ele>
        <time>2018-05-06T09:11:37Z</time>
      </trkpt>
      <trkpt lat="45.88607" lon="4.77707">
        <ele>203</ele>
        <time>2018-05-06T09:11:39Z</time>
      </trkpt>
      <trkpt lat="45.88602" lon="4.77705">
        <ele>203</ele>
        <time>2018-05-06T09:11:40Z</time>
      </trkpt>
      <trkpt lat="45.88597" lon="4.77703">
        <ele>203</ele>
        <time>2018-05-06T09:11:41Z</time>
      </trkpt>
      <trkpt lat="45.88592" lon="4.77702">
        <ele>203</ele>
        <time>2018-05-06T09:11:42Z</time>
      </trkpt>
      <trkpt lat="45.88587" lon="4.77701">
        <ele>203</ele>
        <time>2018-05-06T09:11:43Z</time>
      </trkpt>
      <trkpt lat="45.88583" lon="4.777">
        <ele>204</ele>
        <time>2018-05-06T09:11:44Z</time>
      </trkpt>
      <trkpt lat="45.88576" lon="4.777">
        <ele>204</ele>
        <time>2018-05-06T09:11:45Z</time>
      </trkpt>
      <trkpt lat="45.88572" lon="4.77698">
        <ele>204</ele>
        <time>2018-05-06T09:11:46Z</time>
      </trkpt>
      <trkpt lat="45.88567" lon="4.77696">
        <ele>204</ele>
        <time>2018-05-06T09:11:47Z</time>
      </trkpt>
      <trkpt lat="45.88562" lon="4.77695">
        <ele>204</ele>
        <time>2018-05-06T09:11:48Z</time>
      </trkpt>
      <trkpt lat="45.88558" lon="4.77694">
        <ele>204</ele>
        <time>2018-05-06T09:11:49Z</time>
      </trkpt>
      <trkpt lat="45.88553" lon="4.77692">
        <ele>204</ele>
        <time>2018-05-06T09:11:50Z</time>
      </trkpt>
      <trkpt lat="45.88545" lon="4.77691">
        <ele>204</ele>
        <time>2018-05-06T09:11:52Z</time>
      </trkpt>
      <trkpt lat="45.88541" lon="4.7769">
        <ele>204</ele>
        <time>2018-05-06T09:11:53Z</time>
      </trkpt>
      <trkpt lat="45.88533" lon="4.77685">
        <ele>204</ele>
        <time>2018-05-06T09:11:55Z</time>
      </trkpt>
      <trkpt lat="45.88528" lon="4.77683">
        <ele>204</ele>
        <time>2018-05-06T09:11:56Z</time>
      </trkpt>
      <trkpt lat="45.8852" lon="4.77684">
        <ele>204</ele>
        <time>2018-05-06T09:11:58Z</time>
      </trkpt>
      <trkpt lat="45.88515" lon="4.77683">
        <ele>205</ele>
        <time>2018-05-06T09:11:59Z</time>
      </trkpt>
      <trkpt lat="45.88507" lon="4.77681">
        <ele>205</ele>
        <time>2018-05-06T09:12:01Z</time>
      </trkpt>
      <trkpt lat="45.88501" lon="4.77678">
        <ele>205</ele>
        <time>2018-05-06T09:12:02Z</time>
      </trkpt>
      <trkpt lat="45.88496" lon="4.7768">
        <ele>205</ele>
        <time>2018-05-06T09:12:03Z</time>
      </trkpt>
      <trkpt lat="45.88491" lon="4.77679">
        <ele>205</ele>
        <time>2018-05-06T09:12:04Z</time>
      </trkpt>
      <trkpt lat="45.88483" lon="4.77677">
        <ele>206</ele>
        <time>2018-05-06T09:12:06Z</time>
      </trkpt>
      <trkpt lat="45.88479" lon="4.77677">
        <ele>206</ele>
        <time>2018-05-06T09:12:07Z</time>
      </trkpt>
      <trkpt lat="45.8847" lon="4.77678">
        <ele>206</ele>
        <time>2018-05-06T09:12:09Z</time>
      </trkpt>
      <trkpt lat="45.88466" lon="4.77677">
        <ele>206</ele>
        <time>2018-05-06T09:12:10Z</time>
      </trkpt>
      <trkpt lat="45.8846" lon="4.77675">
        <ele>206</ele>
        <time>2018-05-06T09:12:12Z</time>
      </trkpt>
      <trkpt lat="45.88456" lon="4.77674">
        <ele>206</ele>
        <time>2018-05-06T09:12:13Z</time>
      </trkpt>
      <trkpt lat="45.88448" lon="4.77672">
        <ele>206</ele>
        <time>2018-05-06T09:12:15Z</time>
      </trkpt>
      <trkpt lat="45.88443" lon="4.77671">
        <ele>206</ele>
        <time>2018-05-06T09:12:16Z</time>
      </trkpt>
      <trkpt lat="45.88439" lon="4.77671">
        <ele>206</ele>
        <time>2018-05-06T09:12:17Z</time>
      </trkpt>
      <trkpt lat="45.88434" lon="4.77669">
        <ele>206</ele>
        <time>2018-05-06T09:12:18Z</time>
      </trkpt>
      <trkpt lat="45.8843" lon="4.77668">
        <ele>206</ele>
        <time>2018-05-06T09:12:19Z</time>
      </trkpt>
      <trkpt lat="45.88425" lon="4.77667">
        <ele>206</ele>
        <time>2018-05-06T09:12:20Z</time>
      </trkpt>
      <trkpt lat="45.88417" lon="4.77665">
        <ele>206</ele>
        <time>2018-05-06T09:12:22Z</time>
      </trkpt>
      <trkpt lat="45.88412" lon="4.77663">
        <ele>206</ele>
        <time>2018-05-06T09:12:23Z</time>
      </trkpt>
      <trkpt lat="45.88404" lon="4.7766">
        <ele>207</ele>
        <time>2018-05-06T09:12:25Z</time>
      </trkpt>
      <trkpt lat="45.88401" lon="4.77661">
        <ele>207</ele>
        <time>2018-05-06T09:12:26Z</time>
      </trkpt>
      <trkpt lat="45.88392" lon="4.7766">
        <ele>207</ele>
        <time>2018-05-06T09:12:28Z</time>
      </trkpt>
      <trkpt lat="45.88387" lon="4.77661">
        <ele>207</ele>
        <time>2018-05-06T09:12:29Z</time>
      </trkpt>
      <trkpt lat="45.88383" lon="4.7766">
        <ele>207</ele>
        <time>2018-05-06T09:12:30Z</time>
      </trkpt>
      <trkpt lat="45.88378" lon="4.77659">
        <ele>207</ele>
        <time>2018-05-06T09:12:31Z</time>
      </trkpt>
      <trkpt lat="45.88369" lon="4.77658">
        <ele>207</ele>
        <time>2018-05-06T09:12:33Z</time>
      </trkpt>
      <trkpt lat="45.88366" lon="4.77658">
        <ele>207</ele>
        <time>2018-05-06T09:12:34Z</time>
      </trkpt>
      <trkpt lat="45.88362" lon="4.77656">
        <ele>208</ele>
        <time>2018-05-06T09:12:35Z</time>
      </trkpt>
      <trkpt lat="45.88357" lon="4.77656">
        <ele>208</ele>
        <time>2018-05-06T09:12:36Z</time>
      </trkpt>
      <trkpt lat="45.88352" lon="4.77655">
        <ele>208</ele>
        <time>2018-05-06T09:12:37Z</time>
      </trkpt>
      <trkpt lat="45.88346" lon="4.77654">
        <ele>208</ele>
        <time>2018-05-06T09:12:38Z</time>
      </trkpt>
      <trkpt lat="45.88338" lon="4.77655">
        <ele>208</ele>
        <time>2018-05-06T09:12:40Z</time>
      </trkpt>
      <trkpt lat="45.88333" lon="4.77655">
        <ele>208</ele>
        <time>2018-05-06T09:12:41Z</time>
      </trkpt>
      <trkpt lat="45.88328" lon="4.77656">
        <ele>208</ele>
        <time>2018-05-06T09:12:42Z</time>
      </trkpt>
      <trkpt lat="45.88323" lon="4.77656">
        <ele>209</ele>
        <time>2018-05-06T09:12:43Z</time>
      </trkpt>
      <trkpt lat="45.88318" lon="4.77656">
        <ele>209</ele>
        <time>2018-05-06T09:12:44Z</time>
      </trkpt>
      <trkpt lat="45.88314" lon="4.77657">
        <ele>209</ele>
        <time>2018-05-06T09:12:45Z</time>
      </trkpt>
      <trkpt lat="45.88305" lon="4.77657">
        <ele>209</ele>
        <time>2018-05-06T09:12:47Z</time>
      </trkpt>
      <trkpt lat="45.883" lon="4.77656">
        <ele>209</ele>
        <time>2018-05-06T09:12:48Z</time>
      </trkpt>
      <trkpt lat="45.88292" lon="4.77656">
        <ele>209</ele>
        <time>2018-05-06T09:12:50Z</time>
      </trkpt>
      <trkpt lat="45.88287" lon="4.77657">
        <ele>209</ele>
        <time>2018-05-06T09:12:51Z</time>
      </trkpt>
      <trkpt lat="45.88278" lon="4.77656">
        <ele>210</ele>
        <time>2018-05-06T09:12:53Z</time>
      </trkpt>
      <trkpt lat="45.88274" lon="4.77657">
        <ele>210</ele>
        <time>2018-05-06T09:12:54Z</time>
      </trkpt>
      <trkpt lat="45.88266" lon="4.77656">
        <ele>210</ele>
        <time>2018-05-06T09:12:56Z</time>
      </trkpt>
      <trkpt lat="45.88262" lon="4.77656">
        <ele>210</ele>
        <time>2018-05-06T09:12:57Z</time>
      </trkpt>
      <trkpt lat="45.88254" lon="4.77656">
        <ele>210</ele>
        <time>2018-05-06T09:12:59Z</time>
      </trkpt>
      <trkpt lat="45.88249" lon="4.77656">
        <ele>211</ele>
        <time>2018-05-06T09:13:00Z</time>
      </trkpt>
      <trkpt lat="45.88241" lon="4.77656">
        <ele>211</ele>
        <time>2018-05-06T09:13:02Z</time>
      </trkpt>
      <trkpt lat="45.88237" lon="4.77656">
        <ele>211</ele>
        <time>2018-05-06T09:13:03Z</time>
      </trkpt>
      <trkpt lat="45.88228" lon="4.77657">
        <ele>211</ele>
        <time>2018-05-06T09:13:05Z</time>
      </trkpt>
      <trkpt lat="45.88224" lon="4.77657">
        <ele>211</ele>
        <time>2018-05-06T09:13:06Z</time>
      </trkpt>
      <trkpt lat="45.88216" lon="4.77658">
        <ele>211</ele>
        <time>2018-05-06T09:13:08Z</time>
      </trkpt>
      <trkpt lat="45.88212" lon="4.77658">
        <ele>211</ele>
        <time>2018-05-06T09:13:09Z</time>
      </trkpt>
      <trkpt lat="45.88204" lon="4.7766">
        <ele>211</ele>
        <time>2018-05-06T09:13:11Z</time>
      </trkpt>
      <trkpt lat="45.88199" lon="4.77661">
        <ele>211</ele>
        <time>2018-05-06T09:13:12Z</time>
      </trkpt>
      <trkpt lat="45.88191" lon="4.77662">
        <ele>212</ele>
        <time>2018-05-06T09:13:14Z</time>
      </trkpt>
      <trkpt lat="45.88186" lon="4.77663">
        <ele>212</ele>
        <time>2018-05-06T09:13:15Z</time>
      </trkpt>
      <trkpt lat="45.88178" lon="4.77664">
        <ele>212</ele>
        <time>2018-05-06T09:13:17Z</time>
      </trkpt>
      <trkpt lat="45.88174" lon="4.77666">
        <ele>212</ele>
        <time>2018-05-06T09:13:18Z</time>
      </trkpt>
      <trkpt lat="45.88167" lon="4.77668">
        <ele>212</ele>
        <time>2018-05-06T09:13:20Z</time>
      </trkpt>
      <trkpt lat="45.88163" lon="4.77669">
        <ele>212</ele>
        <time>2018-05-06T09:13:21Z</time>
      </trkpt>
      <trkpt lat="45.88155" lon="4.77671">
        <ele>213</ele>
        <time>2018-05-06T09:13:23Z</time>
      </trkpt>
      <trkpt lat="45.88151" lon="4.77671">
        <ele>213</ele>
        <time>2018-05-06T09:13:24Z</time>
      </trkpt>
      <trkpt lat="45.88147" lon="4.77672">
        <ele>213</ele>
        <time>2018-05-06T09:13:25Z</time>
      </trkpt>
      <trkpt lat="45.88142" lon="4.77672">
        <ele>213</ele>
        <time>2018-05-06T09:13:26Z</time>
      </trkpt>
      <trkpt lat="45.88137" lon="4.77674">
        <ele>213</ele>
        <time>2018-05-06T09:13:27Z</time>
      </trkpt>
      <trkpt lat="45.88133" lon="4.77674">
        <ele>213</ele>
        <time>2018-05-06T09:13:28Z</time>
      </trkpt>
      <trkpt lat="45.88125" lon="4.77675">
        <ele>214</ele>
        <time>2018-05-06T09:13:30Z</time>
      </trkpt>
      <trkpt lat="45.88121" lon="4.77676">
        <ele>214</ele>
        <time>2018-05-06T09:13:31Z</time>
      </trkpt>
      <trkpt lat="45.88113" lon="4.77677">
        <ele>214</ele>
        <time>2018-05-06T09:13:33Z</time>
      </trkpt>
      <trkpt lat="45.88109" lon="4.77678">
        <ele>214</ele>
        <time>2018-05-06T09:13:34Z</time>
      </trkpt>
      <trkpt lat="45.88101" lon="4.77678">
        <ele>214</ele>
        <time>2018-05-06T09:13:36Z</time>
      </trkpt>
      <trkpt lat="45.88097" lon="4.77679">
        <ele>214</ele>
        <time>2018-05-06T09:13:37Z</time>
      </trkpt>
      <trkpt lat="45.88088" lon="4.77679">
        <ele>215</ele>
        <time>2018-05-06T09:13:39Z</time>
      </trkpt>
      <trkpt lat="45.88084" lon="4.7768">
        <ele>215</ele>
        <time>2018-05-06T09:13:40Z</time>
      </trkpt>
      <trkpt lat="45.88076" lon="4.77681">
        <ele>215</ele>
        <time>2018-05-06T09:13:42Z</time>
      </trkpt>
      <trkpt lat="45.88072" lon="4.77682">
        <ele>215</ele>
        <time>2018-05-06T09:13:43Z</time>
      </trkpt>
      <trkpt lat="45.88064" lon="4.77684">
        <ele>216</ele>
        <time>2018-05-06T09:13:45Z</time>
      </trkpt>
      <trkpt lat="45.88059" lon="4.77685">
        <ele>216</ele>
        <time>2018-05-06T09:13:46Z</time>
      </trkpt>
      <trkpt lat="45.88051" lon="4.77687">
        <ele>216</ele>
        <time>2018-05-06T09:13:48Z</time>
      </trkpt>
      <trkpt lat="45.88047" lon="4.77688">
        <ele>216</ele>
        <time>2018-05-06T09:13:49Z</time>
      </trkpt>
      <trkpt lat="45.88039" lon="4.7769">
        <ele>216</ele>
        <time>2018-05-06T09:13:51Z</time>
      </trkpt>
      <trkpt lat="45.88036" lon="4.7769">
        <ele>216</ele>
        <time>2018-05-06T09:13:52Z</time>
      </trkpt>
      <trkpt lat="45.88028" lon="4.77692">
        <ele>216</ele>
        <time>2018-05-06T09:13:54Z</time>
      </trkpt>
      <trkpt lat="45.88025" lon="4.77692">
        <ele>216</ele>
        <time>2018-05-06T09:13:55Z</time>
      </trkpt>
      <trkpt lat="45.88017" lon="4.77692">
        <ele>216</ele>
        <time>2018-05-06T09:13:57Z</time>
      </trkpt>
      <trkpt lat="45.88013" lon="4.77691">
        <ele>216</ele>
        <time>2018-05-06T09:13:58Z</time>
      </trkpt>
      <trkpt lat="45.88006" lon="4.77691">
        <ele>216</ele>
        <time>2018-05-06T09:14:00Z</time>
      </trkpt>
      <trkpt lat="45.88002" lon="4.77691">
        <ele>216</ele>
        <time>2018-05-06T09:14:01Z</time>
      </trkpt>
      <trkpt lat="45.87993" lon="4.77691">
        <ele>217</ele>
        <time>2018-05-06T09:14:03Z</time>
      </trkpt>
      <trkpt lat="45.87989" lon="4.77691">
        <ele>217</ele>
        <time>2018-05-06T09:14:04Z</time>
      </trkpt>
      <trkpt lat="45.87981" lon="4.77689">
        <ele>218</ele>
        <time>2018-05-06T09:14:06Z</time>
      </trkpt>
      <trkpt lat="45.87978" lon="4.77686">
        <ele>218</ele>
        <time>2018-05-06T09:14:07Z</time>
      </trkpt>
      <trkpt lat="45.87973" lon="4.77682">
        <ele>218</ele>
        <time>2018-05-06T09:14:09Z</time>
      </trkpt>
      <trkpt lat="45.87969" lon="4.77678">
        <ele>218</ele>
        <time>2018-05-06T09:14:10Z</time>
      </trkpt>
      <trkpt lat="45.87963" lon="4.7767">
        <ele>218</ele>
        <time>2018-05-06T09:14:12Z</time>
      </trkpt>
      <trkpt lat="45.8796" lon="4.77667">
        <ele>218</ele>
        <time>2018-05-06T09:14:13Z</time>
      </trkpt>
      <trkpt lat="45.87952" lon="4.77663">
        <ele>218</ele>
        <time>2018-05-06T09:14:15Z</time>
      </trkpt>
      <trkpt lat="45.87948" lon="4.77661">
        <ele>218</ele>
        <time>2018-05-06T09:14:16Z</time>
      </trkpt>
      <trkpt lat="45.87941" lon="4.77654">
        <ele>219</ele>
        <time>2018-05-06T09:14:18Z</time>
      </trkpt>
      <trkpt lat="45.87937" lon="4.7765">
        <ele>219</ele>
        <time>2018-05-06T09:14:19Z</time>
      </trkpt>
      <trkpt lat="45.8793" lon="4.77643">
        <ele>219</ele>
        <time>2018-05-06T09:14:21Z</time>
      </trkpt>
      <trkpt lat="45.87926" lon="4.77639">
        <ele>219</ele>
        <time>2018-05-06T09:14:22Z</time>
      </trkpt>
      <trkpt lat="45.87919" lon="4.77632">
        <ele>219</ele>
        <time>2018-05-06T09:14:24Z</time>
      </trkpt>
      <trkpt lat="45.87916" lon="4.77628">
        <ele>220</ele>
        <time>2018-05-06T09:14:25Z</time>
      </trkpt>
      <trkpt lat="45.87908" lon="4.77621">
        <ele>220</ele>
        <time>2018-05-06T09:14:27Z</time>
      </trkpt>
      <trkpt lat="45.87905" lon="4.77618">
        <ele>220</ele>
        <time>2018-05-06T09:14:28Z</time>
      </trkpt>
      <trkpt lat="45.87897" lon="4.77612">
        <ele>220</ele>
        <time>2018-05-06T09:14:30Z</time>
      </trkpt>
      <trkpt lat="45.87894" lon="4.77609">
        <ele>221</ele>
        <time>2018-05-06T09:14:31Z</time>
      </trkpt>
      <trkpt lat="45.87889" lon="4.77606">
        <ele>221</ele>
        <time>2018-05-06T09:14:32Z</time>
      </trkpt>
      <trkpt lat="45.87885" lon="4.77603">
        <ele>221</ele>
        <time>2018-05-06T09:14:33Z</time>
      </trkpt>
      <trkpt lat="45.87878" lon="4.77597">
        <ele>221</ele>
        <time>2018-05-06T09:14:35Z</time>
      </trkpt>
      <trkpt lat="45.87874" lon="4.77594">
        <ele>221</ele>
        <time>2018-05-06T09:14:36Z</time>
      </trkpt>
      <trkpt lat="45.8787" lon="4.7759">
        <ele>221</ele>
        <time>2018-05-06T09:14:37Z</time>
      </trkpt>
      <trkpt lat="45.87866" lon="4.77587">
        <ele>221</ele>
        <time>2018-05-06T09:14:38Z</time>
      </trkpt>
      <trkpt lat="45.87858" lon="4.7758">
        <ele>221</ele>
        <time>2018-05-06T09:14:40Z</time>
      </trkpt>
      <trkpt lat="45.87854" lon="4.77578">
        <ele>221</ele>
        <time>2018-05-06T09:14:41Z</time>
      </trkpt>
      <trkpt lat="45.87849" lon="4.77574">
        <ele>221</ele>
        <time>2018-05-06T09:14:42Z</time>
      </trkpt>
      <trkpt lat="45.87845" lon="4.7757">
        <ele>221</ele>
        <time>2018-05-06T09:14:43Z</time>
      </trkpt>
      <trkpt lat="45.87838" lon="4.77564">
        <ele>221</ele>
        <time>2018-05-06T09:14:45Z</time>
      </trkpt>
      <trkpt lat="45.87835" lon="4.77562">
        <ele>221</ele>
        <time>2018-05-06T09:14:46Z</time>
      </trkpt>
      <trkpt lat="45.87827" lon="4.77555">
        <ele>223</ele>
        <time>2018-05-06T09:14:48Z</time>
      </trkpt>
      <trkpt lat="45.87824" lon="4.77552">
        <ele>223</ele>
        <time>2018-05-06T09:14:49Z</time>
      </trkpt>
      <trkpt lat="45.87817" lon="4.77546">
        <ele>223</ele>
        <time>2018-05-06T09:14:51Z</time>
      </trkpt>
      <trkpt lat="45.87814" lon="4.77543">
        <ele>223</ele>
        <time>2018-05-06T09:14:52Z</time>
      </trkpt>
      <trkpt lat="45.8781" lon="4.77539">
        <ele>223</ele>
        <time>2018-05-06T09:14:53Z</time>
      </trkpt>
      <trkpt lat="45.87806" lon="4.77536">
        <ele>223</ele>
        <time>2018-05-06T09:14:54Z</time>
      </trkpt>
      <trkpt lat="45.87798" lon="4.77531">
        <ele>223</ele>
        <time>2018-05-06T09:14:56Z</time>
      </trkpt>
      <trkpt lat="45.87794" lon="4.77528">
        <ele>223</ele>
        <time>2018-05-06T09:14:57Z</time>
      </trkpt>
      <trkpt lat="45.87787" lon="4.77523">
        <ele>223</ele>
        <time>2018-05-06T09:14:59Z</time>
      </trkpt>
      <trkpt lat="45.87783" lon="4.7752">
        <ele>223</ele>
        <time>2018-05-06T09:15:00Z</time>
      </trkpt>
      <trkpt lat="45.87776" lon="4.77516">
        <ele>223</ele>
        <time>2018-05-06T09:15:02Z</time>
      </trkpt>
      <trkpt lat="45.87773" lon="4.77514">
        <ele>223</ele>
        <time>2018-05-06T09:15:03Z</time>
      </trkpt>
      <trkpt lat="45.87765" lon="4.77508">
        <ele>223</ele>
        <time>2018-05-06T09:15:05Z</time>
      </trkpt>
      <trkpt lat="45.87762" lon="4.77505">
        <ele>224</ele>
        <time>2018-05-06T09:15:06Z</time>
      </trkpt>
      <trkpt lat="45.87756" lon="4.77502">
        <ele>224</ele>
        <time>2018-05-06T09:15:08Z</time>
      </trkpt>
      <trkpt lat="45.87752" lon="4.775">
        <ele>224</ele>
        <time>2018-05-06T09:15:09Z</time>
      </trkpt>
      <trkpt lat="45.87745" lon="4.77496">
        <ele>225</ele>
        <time>2018-05-06T09:15:12Z</time>
      </trkpt>
      <trkpt lat="45.8774" lon="4.77492">
        <ele>225</ele>
        <time>2018-05-06T09:15:13Z</time>
      </trkpt>
      <trkpt lat="45.87733" lon="4.77488">
        <ele>225</ele>
        <time>2018-05-06T09:15:15Z</time>
      </trkpt>
      <trkpt lat="45.87729" lon="4.77486">
        <ele>226</ele>
        <time>2018-05-06T09:15:16Z</time>
      </trkpt>
      <trkpt lat="45.87722" lon="4.77483">
        <ele>226</ele>
        <time>2018-05-06T09:15:18Z</time>
      </trkpt>
      <trkpt lat="45.87718" lon="4.77482">
        <ele>226</ele>
        <time>2018-05-06T09:15:19Z</time>
      </trkpt>
      <trkpt lat="45.8771" lon="4.77481">
        <ele>226</ele>
        <time>2018-05-06T09:15:21Z</time>
      </trkpt>
      <trkpt lat="45.87708" lon="4.77481">
        <ele>226</ele>
        <time>2018-05-06T09:15:22Z</time>
      </trkpt>
      <trkpt lat="45.87699" lon="4.77481">
        <ele>227</ele>
        <time>2018-05-06T09:15:24Z</time>
      </trkpt>
      <trkpt lat="45.87697" lon="4.77481">
        <ele>227</ele>
        <time>2018-05-06T09:15:25Z</time>
      </trkpt>
      <trkpt lat="45.87688" lon="4.77481">
        <ele>227</ele>
        <time>2018-05-06T09:15:28Z</time>
      </trkpt>
      <trkpt lat="45.87685" lon="4.77481">
        <ele>227</ele>
        <time>2018-05-06T09:15:29Z</time>
      </trkpt>
      <trkpt lat="45.87682" lon="4.77481">
        <ele>227</ele>
        <time>2018-05-06T09:15:30Z</time>
      </trkpt>
      <trkpt lat="45.87673" lon="4.77483">
        <ele>228</ele>
        <time>2018-05-06T09:15:31Z</time>
      </trkpt>
      <trkpt lat="45.87666" lon="4.77484">
        <ele>230</ele>
        <time>2018-05-06T09:15:34Z</time>
      </trkpt>
      <trkpt lat="45.87664" lon="4.77485">
        <ele>230</ele>
        <time>2018-05-06T09:15:35Z</time>
      </trkpt>
      <trkpt lat="45.87658" lon="4.77485">
        <ele>230</ele>
        <time>2018-05-06T09:15:37Z</time>
      </trkpt>
      <trkpt lat="45.87654" lon="4.77486">
        <ele>230</ele>
        <time>2018-05-06T09:15:38Z</time>
      </trkpt>
      <trkpt lat="45.87648" lon="4.77486">
        <ele>230</ele>
        <time>2018-05-06T09:15:40Z</time>
      </trkpt>
      <trkpt lat="45.87645" lon="4.77487">
        <ele>230</ele>
        <time>2018-05-06T09:15:41Z</time>
      </trkpt>
      <trkpt lat="45.87639" lon="4.77487">
        <ele>230</ele>
        <time>2018-05-06T09:15:43Z</time>
      </trkpt>
      <trkpt lat="45.87636" lon="4.77488">
        <ele>231</ele>
        <time>2018-05-06T09:15:44Z</time>
      </trkpt>
      <trkpt lat="45.87629" lon="4.77489">
        <ele>231</ele>
        <time>2018-05-06T09:15:46Z</time>
      </trkpt>
      <trkpt lat="45.87626" lon="4.77489">
        <ele>231</ele>
        <time>2018-05-06T09:15:47Z</time>
      </trkpt>
      <trkpt lat="45.8762" lon="4.77491">
        <ele>231</ele>
        <time>2018-05-06T09:15:49Z</time>
      </trkpt>
      <trkpt lat="45.87617" lon="4.77491">
        <ele>231</ele>
        <time>2018-05-06T09:15:50Z</time>
      </trkpt>
      <trkpt lat="45.87608" lon="4.77493">
        <ele>231</ele>
        <time>2018-05-06T09:15:53Z</time>
      </trkpt>
      <trkpt lat="45.87605" lon="4.77494">
        <ele>231</ele>
        <time>2018-05-06T09:15:54Z</time>
      </trkpt>
      <trkpt lat="45.87597" lon="4.77495">
        <ele>232</ele>
        <time>2018-05-06T09:15:57Z</time>
      </trkpt>
      <trkpt lat="45.87595" lon="4.77496">
        <ele>232</ele>
        <time>2018-05-06T09:15:58Z</time>
      </trkpt>
      <trkpt lat="45.87586" lon="4.77496">
        <ele>232</ele>
        <time>2018-05-06T09:16:01Z</time>
      </trkpt>
      <trkpt lat="45.87583" lon="4.77497">
        <ele>232</ele>
        <time>2018-05-06T09:16:02Z</time>
      </trkpt>
      <trkpt lat="45.87577" lon="4.77497">
        <ele>232</ele>
        <time>2018-05-06T09:16:04Z</time>
      </trkpt>
      <trkpt lat="45.87574" lon="4.77496">
        <ele>233</ele>
        <time>2018-05-06T09:16:05Z</time>
      </trkpt>
      <trkpt lat="45.87568" lon="4.77493">
        <ele>233</ele>
        <time>2018-05-06T09:16:07Z</time>
      </trkpt>
      <trkpt lat="45.87565" lon="4.77491">
        <ele>233</ele>
        <time>2018-05-06T09:16:08Z</time>
      </trkpt>
      <trkpt lat="45.8756" lon="4.77485">
        <ele>233</ele>
        <time>2018-05-06T09:16:10Z</time>
      </trkpt>
      <trkpt lat="45.87557" lon="4.77482">
        <ele>233</ele>
        <time>2018-05-06T09:16:11Z</time>
      </trkpt>
      <trkpt lat="45.8755" lon="4.77475">
        <ele>233</ele>
        <time>2018-05-06T09:16:14Z</time>
      </trkpt>
      <trkpt lat="45.87548" lon="4.77472">
        <ele>233</ele>
        <time>2018-05-06T09:16:15Z</time>
      </trkpt>
      <trkpt lat="45.87543" lon="4.77465">
        <ele>233</ele>
        <time>2018-05-06T09:16:17Z</time>
      </trkpt>
      <trkpt lat="45.87537" lon="4.77455">
        <ele>234</ele>
        <time>2018-05-06T09:16:18Z</time>
      </trkpt>
      <trkpt lat="45.87532" lon="4.77448">
        <ele>234</ele>
        <time>2018-05-06T09:16:21Z</time>
      </trkpt>
      <trkpt lat="45.87527" lon="4.77441">
        <ele>233</ele>
        <time>2018-05-06T09:16:22Z</time>
      </trkpt>
      <trkpt lat="45.87521" lon="4.77434">
        <ele>233</ele>
        <time>2018-05-06T09:16:24Z</time>
      </trkpt>
      <trkpt lat="45.87518" lon="4.7743">
        <ele>233</ele>
        <time>2018-05-06T09:16:25Z</time>
      </trkpt>
      <trkpt lat="45.87512" lon="4.77423">
        <ele>233</ele>
        <time>2018-05-06T09:16:27Z</time>
      </trkpt>
      <trkpt lat="45.87509" lon="4.77419">
        <ele>233</ele>
        <time>2018-05-06T09:16:28Z</time>
      </trkpt>
      <trkpt lat="45.87504" lon="4.77412">
        <ele>233</ele>
        <time>2018-05-06T09:16:30Z</time>
      </trkpt>
      <trkpt lat="45.87502" lon="4.77408">
        <ele>233</ele>
        <time>2018-05-06T09:16:31Z</time>
      </trkpt>
      <trkpt lat="45.87498" lon="4.77403">
        <ele>234</ele>
        <time>2018-05-06T09:16:33Z</time>
      </trkpt>
      <trkpt lat="45.87494" lon="4.77397">
        <ele>234</ele>
        <time>2018-05-06T09:16:34Z</time>
      </trkpt>
      <trkpt lat="45.87491" lon="4.7739">
        <ele>235</ele>
        <time>2018-05-06T09:16:36Z</time>
      </trkpt>
      <trkpt lat="45.87488" lon="4.77383">
        <ele>235</ele>
        <time>2018-05-06T09:16:37Z</time>
      </trkpt>
      <trkpt lat="45.87486" lon="4.77372">
        <ele>235</ele>
        <time>2018-05-06T09:16:40Z</time>
      </trkpt>
      <trkpt lat="45.87485" lon="4.77368">
        <ele>235</ele>
        <time>2018-05-06T09:16:41Z</time>
      </trkpt>
      <trkpt lat="45.87484" lon="4.7736">
        <ele>235</ele>
        <time>2018-05-06T09:16:43Z</time>
      </trkpt>
      <trkpt lat="45.87483" lon="4.77355">
        <ele>235</ele>
        <time>2018-05-06T09:16:44Z</time>
      </trkpt>
      <trkpt lat="45.87483" lon="4.7735">
        <ele>235</ele>
        <time>2018-05-06T09:16:45Z</time>
      </trkpt>
      <trkpt lat="45.87481" lon="4.77337">
        <ele>235</ele>
        <time>2018-05-06T09:16:46Z</time>
      </trkpt>
      <trkpt lat="45.87479" lon="4.77326">
        <ele>234</ele>
        <time>2018-05-06T09:16:48Z</time>
      </trkpt>
      <trkpt lat="45.87478" lon="4.77321">
        <ele>235</ele>
        <time>2018-05-06T09:16:49Z</time>
      </trkpt>
      <trkpt lat="45.87476" lon="4.77311">
        <ele>235</ele>
        <time>2018-05-06T09:16:51Z</time>
      </trkpt>
      <trkpt lat="45.87474" lon="4.77305">
        <ele>235</ele>
        <time>2018-05-06T09:16:52Z</time>
      </trkpt>
      <trkpt lat="45.87472" lon="4.77295">
        <ele>235</ele>
        <time>2018-05-06T09:16:54Z</time>
      </trkpt>
      <trkpt lat="45.8747" lon="4.77289">
        <ele>235</ele>
        <time>2018-05-06T09:16:55Z</time>
      </trkpt>
      <trkpt lat="45.87467" lon="4.77278">
        <ele>235</ele>
        <time>2018-05-06T09:16:57Z</time>
      </trkpt>
      <trkpt lat="45.87466" lon="4.77273">
        <ele>235</ele>
        <time>2018-05-06T09:16:58Z</time>
      </trkpt>
      <trkpt lat="45.87462" lon="4.77263">
        <ele>235</ele>
        <time>2018-05-06T09:17:00Z</time>
      </trkpt>
      <trkpt lat="45.8746" lon="4.77259">
        <ele>235</ele>
        <time>2018-05-06T09:17:01Z</time>
      </trkpt>
      <trkpt lat="45.87454" lon="4.7725">
        <ele>235</ele>
        <time>2018-05-06T09:17:03Z</time>
      </trkpt>
      <trkpt lat="45.87451" lon="4.77246">
        <ele>235</ele>
        <time>2018-05-06T09:17:04Z</time>
      </trkpt>
      <trkpt lat="45.87445" lon="4.77239">
        <ele>235</ele>
        <time>2018-05-06T09:17:06Z</time>
      </trkpt>
      <trkpt lat="45.87441" lon="4.77236">
        <ele>235</ele>
        <time>2018-05-06T09:17:07Z</time>
      </trkpt>
      <trkpt lat="45.87434" lon="4.77231">
        <ele>235</ele>
        <time>2018-05-06T09:17:09Z</time>
      </trkpt>
      <trkpt lat="45.8743" lon="4.77229">
        <ele>235</ele>
        <time>2018-05-06T09:17:10Z</time>
      </trkpt>
      <trkpt lat="45.87422" lon="4.77224">
        <ele>235</ele>
        <time>2018-05-06T09:17:12Z</time>
      </trkpt>
      <trkpt lat="45.87418" lon="4.77222">
        <ele>235</ele>
        <time>2018-05-06T09:17:13Z</time>
      </trkpt>
      <trkpt lat="45.87409" lon="4.77219">
        <ele>238</ele>
        <time>2018-05-06T09:17:15Z</time>
      </trkpt>
      <trkpt lat="45.87405" lon="4.77217">
        <ele>238</ele>
        <time>2018-05-06T09:17:16Z</time>
      </trkpt>
      <trkpt lat="45.87397" lon="4.77215">
        <ele>239</ele>
        <time>2018-05-06T09:17:18Z</time>
      </trkpt>
      <trkpt lat="45.87392" lon="4.77214">
        <ele>239</ele>
        <time>2018-05-06T09:17:19Z</time>
      </trkpt>
      <trkpt lat="45.87384" lon="4.77213">
        <ele>239</ele>
        <time>2018-05-06T09:17:21Z</time>
      </trkpt>
      <trkpt lat="45.87379" lon="4.77213">
        <ele>239</ele>
        <time>2018-05-06T09:17:22Z</time>
      </trkpt>
      <trkpt lat="45.87371" lon="4.77213">
        <ele>239</ele>
        <time>2018-05-06T09:17:24Z</time>
      </trkpt>
      <trkpt lat="45.87366" lon="4.77214">
        <ele>240</ele>
        <time>2018-05-06T09:17:25Z</time>
      </trkpt>
      <trkpt lat="45.87357" lon="4.77214">
        <ele>240</ele>
        <time>2018-05-06T09:17:27Z</time>
      </trkpt>
      <trkpt lat="45.87353" lon="4.77215">
        <ele>240</ele>
        <time>2018-05-06T09:17:28Z</time>
      </trkpt>
      <trkpt lat="45.87348" lon="4.77214">
        <ele>240</ele>
        <time>2018-05-06T09:17:29Z</time>
      </trkpt>
      <trkpt lat="45.87344" lon="4.77214">
        <ele>240</ele>
        <time>2018-05-06T09:17:30Z</time>
      </trkpt>
      <trkpt lat="45.87336" lon="4.77216">
        <ele>240</ele>
        <time>2018-05-06T09:17:32Z</time>
      </trkpt>
      <trkpt lat="45.87334" lon="4.77215">
        <ele>240</ele>
        <time>2018-05-06T09:17:33Z</time>
      </trkpt>
      <trkpt lat="45.87329" lon="4.77214">
        <ele>243</ele>
        <time>2018-05-06T09:17:34Z</time>
      </trkpt>
      <trkpt lat="45.87325" lon="4.77215">
        <ele>243</ele>
        <time>2018-05-06T09:17:35Z</time>
      </trkpt>
      <trkpt lat="45.87317" lon="4.77216">
        <ele>244</ele>
        <time>2018-05-06T09:17:37Z</time>
      </trkpt>
      <trkpt lat="45.87314" lon="4.77217">
        <ele>244</ele>
        <time>2018-05-06T09:17:38Z</time>
      </trkpt>
      <trkpt lat="45.87306" lon="4.77216">
        <ele>244</ele>
        <time>2018-05-06T09:17:40Z</time>
      </trkpt>
      <trkpt lat="45.87302" lon="4.77215">
        <ele>244</ele>
        <time>2018-05-06T09:17:41Z</time>
      </trkpt>
      <trkpt lat="45.87296" lon="4.77212">
        <ele>244</ele>
        <time>2018-05-06T09:17:43Z</time>
      </trkpt>
      <trkpt lat="45.87291" lon="4.7721">
        <ele>244</ele>
        <time>2018-05-06T09:17:44Z</time>
      </trkpt>
      <trkpt lat="45.87284" lon="4.77205">
        <ele>244</ele>
        <time>2018-05-06T09:17:46Z</time>
      </trkpt>
      <trkpt lat="45.87281" lon="4.77201">
        <ele>244</ele>
        <time>2018-05-06T09:17:47Z</time>
      </trkpt>
      <trkpt lat="45.87277" lon="4.77189">
        <ele>244</ele>
        <time>2018-05-06T09:17:49Z</time>
      </trkpt>
      <trkpt lat="45.87275" lon="4.77183">
        <ele>244</ele>
        <time>2018-05-06T09:17:50Z</time>
      </trkpt>
      <trkpt lat="45.87274" lon="4.77172">
        <ele>244</ele>
        <time>2018-05-06T09:17:52Z</time>
      </trkpt>
      <trkpt lat="45.87273" lon="4.77166">
        <ele>242</ele>
        <time>2018-05-06T09:17:53Z</time>
      </trkpt>
      <trkpt lat="45.87274" lon="4.77154">
        <ele>242</ele>
        <time>2018-05-06T09:17:55Z</time>
      </trkpt>
      <trkpt lat="45.87274" lon="4.77147">
        <ele>241</ele>
        <time>2018-05-06T09:17:56Z</time>
      </trkpt>
      <trkpt lat="45.87273" lon="4.7714">
        <ele>241</ele>
        <time>2018-05-06T09:17:57Z</time>
      </trkpt>
      <trkpt lat="45.87273" lon="4.77133">
        <ele>241</ele>
        <time>2018-05-06T09:17:58Z</time>
      </trkpt>
      <trkpt lat="45.87272" lon="4.7712">
        <ele>240</ele>
        <time>2018-05-06T09:18:00Z</time>
      </trkpt>
      <trkpt lat="45.87273" lon="4.77113">
        <ele>240</ele>
        <time>2018-05-06T09:18:01Z</time>
      </trkpt>
      <trkpt lat="45.87273" lon="4.771">
        <ele>240</ele>
        <time>2018-05-06T09:18:03Z</time>
      </trkpt>
      <trkpt lat="45.87273" lon="4.77094">
        <ele>240</ele>
        <time>2018-05-06T09:18:04Z</time>
      </trkpt>
      <trkpt lat="45.87273" lon="4.77081">
        <ele>239</ele>
        <time>2018-05-06T09:18:06Z</time>
      </trkpt>
      <trkpt lat="45.87274" lon="4.77074">
        <ele>239</ele>
        <time>2018-05-06T09:18:07Z</time>
      </trkpt>
      <trkpt lat="45.87273" lon="4.77066">
        <ele>239</ele>
        <time>2018-05-06T09:18:08Z</time>
      </trkpt>
      <trkpt lat="45.87271" lon="4.77055">
        <ele>239</ele>
        <time>2018-05-06T09:18:09Z</time>
      </trkpt>
      <trkpt lat="45.87268" lon="4.77045">
        <ele>239</ele>
        <time>2018-05-06T09:18:10Z</time>
      </trkpt>
      <trkpt lat="45.87268" lon="4.77037">
        <ele>239</ele>
        <time>2018-05-06T09:18:11Z</time>
      </trkpt>
      <trkpt lat="45.8727" lon="4.77029">
        <ele>239</ele>
        <time>2018-05-06T09:18:12Z</time>
      </trkpt>
      <trkpt lat="45.8727" lon="4.77021">
        <ele>239</ele>
        <time>2018-05-06T09:18:13Z</time>
      </trkpt>
      <trkpt lat="45.8727" lon="4.77013">
        <ele>239</ele>
        <time>2018-05-06T09:18:14Z</time>
      </trkpt>
      <trkpt lat="45.87271" lon="4.77007">
        <ele>239</ele>
        <time>2018-05-06T09:18:15Z</time>
      </trkpt>
      <trkpt lat="45.87271" lon="4.77">
        <ele>240</ele>
        <time>2018-05-06T09:18:16Z</time>
      </trkpt>
      <trkpt lat="45.87271" lon="4.76992">
        <ele>240</ele>
        <time>2018-05-06T09:18:17Z</time>
      </trkpt>
      <trkpt lat="45.87271" lon="4.76984">
        <ele>240</ele>
        <time>2018-05-06T09:18:18Z</time>
      </trkpt>
      <trkpt lat="45.87271" lon="4.76976">
        <ele>240</ele>
        <time>2018-05-06T09:18:19Z</time>
      </trkpt>
      <trkpt lat="45.8727" lon="4.76969">
        <ele>240</ele>
        <time>2018-05-06T09:18:20Z</time>
      </trkpt>
      <trkpt lat="45.8727" lon="4.76963">
        <ele>240</ele>
        <time>2018-05-06T09:18:21Z</time>
      </trkpt>
      <trkpt lat="45.8727" lon="4.76951">
        <ele>240</ele>
        <time>2018-05-06T09:18:23Z</time>
      </trkpt>
      <trkpt lat="45.8727" lon="4.76945">
        <ele>240</ele>
        <time>2018-05-06T09:18:24Z</time>
      </trkpt>
      <trkpt lat="45.8727" lon="4.7694">
        <ele>241</ele>
        <time>2018-05-06T09:18:25Z</time>
      </trkpt>
      <trkpt lat="45.87271" lon="4.76931">
        <ele>241</ele>
        <time>2018-05-06T09:18:26Z</time>
      </trkpt>
      <trkpt lat="45.87271" lon="4.76925">
        <ele>241</ele>
        <time>2018-05-06T09:18:27Z</time>
      </trkpt>
      <trkpt lat="45.87271" lon="4.76917">
        <ele>241</ele>
        <time>2018-05-06T09:18:28Z</time>
      </trkpt>
      <trkpt lat="45.8727" lon="4.76908">
        <ele>241</ele>
        <time>2018-05-06T09:18:29Z</time>
      </trkpt>
      <trkpt lat="45.8727" lon="4.76899">
        <ele>240</ele>
        <time>2018-05-06T09:18:30Z</time>
      </trkpt>
      <trkpt lat="45.87269" lon="4.7689">
        <ele>240</ele>
        <time>2018-05-06T09:18:31Z</time>
      </trkpt>
      <trkpt lat="45.87269" lon="4.76881">
        <ele>240</ele>
        <time>2018-05-06T09:18:32Z</time>
      </trkpt>
      <trkpt lat="45.87269" lon="4.76872">
        <ele>240</ele>
        <time>2018-05-06T09:18:33Z</time>
      </trkpt>
      <trkpt lat="45.87269" lon="4.76863">
        <ele>239</ele>
        <time>2018-05-06T09:18:34Z</time>
      </trkpt>
      <trkpt lat="45.8727" lon="4.76854">
        <ele>239</ele>
        <time>2018-05-06T09:18:35Z</time>
      </trkpt>
      <trkpt lat="45.8727" lon="4.76847">
        <ele>239</ele>
        <time>2018-05-06T09:18:36Z</time>
      </trkpt>
      <trkpt lat="45.87269" lon="4.76838">
        <ele>239</ele>
        <time>2018-05-06T09:18:37Z</time>
      </trkpt>
      <trkpt lat="45.87269" lon="4.76829">
        <ele>237</ele>
        <time>2018-05-06T09:18:38Z</time>
      </trkpt>
      <trkpt lat="45.87269" lon="4.7682">
        <ele>237</ele>
        <time>2018-05-06T09:18:39Z</time>
      </trkpt>
      <trkpt lat="45.87269" lon="4.7681">
        <ele>237</ele>
        <time>2018-05-06T09:18:40Z</time>
      </trkpt>
      <trkpt lat="45.87268" lon="4.76803">
        <ele>237</ele>
        <time>2018-05-06T09:18:41Z</time>
      </trkpt>
      <trkpt lat="45.87267" lon="4.76793">
        <ele>236</ele>
        <time>2018-05-06T09:18:42Z</time>
      </trkpt>
      <trkpt lat="45.87266" lon="4.76785">
        <ele>236</ele>
        <time>2018-05-06T09:18:43Z</time>
      </trkpt>
      <trkpt lat="45.87267" lon="4.76776">
        <ele>236</ele>
        <time>2018-05-06T09:18:44Z</time>
      </trkpt>
      <trkpt lat="45.87267" lon="4.76767">
        <ele>236</ele>
        <time>2018-05-06T09:18:45Z</time>
      </trkpt>
      <trkpt lat="45.87267" lon="4.76756">
        <ele>236</ele>
        <time>2018-05-06T09:18:46Z</time>
      </trkpt>
      <trkpt lat="45.87266" lon="4.76747">
        <ele>235</ele>
        <time>2018-05-06T09:18:47Z</time>
      </trkpt>
      <trkpt lat="45.87266" lon="4.76739">
        <ele>235</ele>
        <time>2018-05-06T09:18:48Z</time>
      </trkpt>
      <trkpt lat="45.87265" lon="4.76729">
        <ele>234</ele>
        <time>2018-05-06T09:18:49Z</time>
      </trkpt>
      <trkpt lat="45.87266" lon="4.7672">
        <ele>234</ele>
        <time>2018-05-06T09:18:50Z</time>
      </trkpt>
      <trkpt lat="45.87265" lon="4.76713">
        <ele>234</ele>
        <time>2018-05-06T09:18:51Z</time>
      </trkpt>
      <trkpt lat="45.87265" lon="4.76704">
        <ele>234</ele>
        <time>2018-05-06T09:18:52Z</time>
      </trkpt>
      <trkpt lat="45.87264" lon="4.76696">
        <ele>234</ele>
        <time>2018-05-06T09:18:53Z</time>
      </trkpt>
      <trkpt lat="45.87265" lon="4.7669">
        <ele>234</ele>
        <time>2018-05-06T09:18:54Z</time>
      </trkpt>
      <trkpt lat="45.87265" lon="4.76681">
        <ele>234</ele>
        <time>2018-05-06T09:18:55Z</time>
      </trkpt>
      <trkpt lat="45.87265" lon="4.76672">
        <ele>234</ele>
        <time>2018-05-06T09:18:56Z</time>
      </trkpt>
      <trkpt lat="45.87264" lon="4.76662">
        <ele>234</ele>
        <time>2018-05-06T09:18:57Z</time>
      </trkpt>
      <trkpt lat="45.87265" lon="4.76653">
        <ele>234</ele>
        <time>2018-05-06T09:18:58Z</time>
      </trkpt>
      <trkpt lat="45.87265" lon="4.76643">
        <ele>234</ele>
        <time>2018-05-06T09:18:59Z</time>
      </trkpt>
      <trkpt lat="45.87264" lon="4.76635">
        <ele>234</ele>
        <time>2018-05-06T09:19:00Z</time>
      </trkpt>
      <trkpt lat="45.87264" lon="4.76626">
        <ele>234</ele>
        <time>2018-05-06T09:19:01Z</time>
      </trkpt>
      <trkpt lat="45.87264" lon="4.76618">
        <ele>234</ele>
        <time>2018-05-06T09:19:02Z</time>
      </trkpt>
      <trkpt lat="45.87263" lon="4.76607">
        <ele>235</ele>
        <time>2018-05-06T09:19:03Z</time>
      </trkpt>
      <trkpt lat="45.87262" lon="4.76598">
        <ele>235</ele>
        <time>2018-05-06T09:19:04Z</time>
      </trkpt>
      <trkpt lat="45.87261" lon="4.76589">
        <ele>235</ele>
        <time>2018-05-06T09:19:05Z</time>
      </trkpt>
      <trkpt lat="45.87261" lon="4.7658">
        <ele>236</ele>
        <time>2018-05-06T09:19:06Z</time>
      </trkpt>
      <trkpt lat="45.8726" lon="4.76571">
        <ele>236</ele>
        <time>2018-05-06T09:19:07Z</time>
      </trkpt>
      <trkpt lat="45.87259" lon="4.76562">
        <ele>235</ele>
        <time>2018-05-06T09:19:08Z</time>
      </trkpt>
      <trkpt lat="45.87259" lon="4.76555">
        <ele>235</ele>
        <time>2018-05-06T09:19:09Z</time>
      </trkpt>
      <trkpt lat="45.8726" lon="4.76548">
        <ele>235</ele>
        <time>2018-05-06T09:19:10Z</time>
      </trkpt>
      <trkpt lat="45.8726" lon="4.7654">
        <ele>236</ele>
        <time>2018-05-06T09:19:11Z</time>
      </trkpt>
      <trkpt lat="45.87259" lon="4.76532">
        <ele>236</ele>
        <time>2018-05-06T09:19:12Z</time>
      </trkpt>
      <trkpt lat="45.87259" lon="4.76524">
        <ele>236</ele>
        <time>2018-05-06T09:19:13Z</time>
      </trkpt>
      <trkpt lat="45.87259" lon="4.76517">
        <ele>236</ele>
        <time>2018-05-06T09:19:14Z</time>
      </trkpt>
      <trkpt lat="45.87259" lon="4.7651">
        <ele>236</ele>
        <time>2018-05-06T09:19:15Z</time>
      </trkpt>
      <trkpt lat="45.87261" lon="4.76504">
        <ele>236</ele>
        <time>2018-05-06T09:19:16Z</time>
      </trkpt>
      <trkpt lat="45.87261" lon="4.76496">
        <ele>236</ele>
        <time>2018-05-06T09:19:17Z</time>
      </trkpt>
      <trkpt lat="45.87258" lon="4.76484">
        <ele>236</ele>
        <time>2018-05-06T09:19:18Z</time>
      </trkpt>
      <trkpt lat="45.87258" lon="4.76476">
        <ele>236</ele>
        <time>2018-05-06T09:19:19Z</time>
      </trkpt>
      <trkpt lat="45.87257" lon="4.76467">
        <ele>235</ele>
        <time>2018-05-06T09:19:20Z</time>
      </trkpt>
      <trkpt lat="45.87257" lon="4.76458">
        <ele>235</ele>
        <time>2018-05-06T09:19:21Z</time>
      </trkpt>
      <trkpt lat="45.87257" lon="4.7645">
        <ele>235</ele>
        <time>2018-05-06T09:19:22Z</time>
      </trkpt>
      <trkpt lat="45.87256" lon="4.76441">
        <ele>235</ele>
        <time>2018-05-06T09:19:23Z</time>
      </trkpt>
      <trkpt lat="45.87256" lon="4.76433">
        <ele>235</ele>
        <time>2018-05-06T09:19:24Z</time>
      </trkpt>
      <trkpt lat="45.87256" lon="4.76424">
        <ele>236</ele>
        <time>2018-05-06T09:19:25Z</time>
      </trkpt>
      <trkpt lat="45.87255" lon="4.76418">
        <ele>236</ele>
        <time>2018-05-06T09:19:26Z</time>
      </trkpt>
      <trkpt lat="45.87255" lon="4.76408">
        <ele>235</ele>
        <time>2018-05-06T09:19:27Z</time>
      </trkpt>
      <trkpt lat="45.87254" lon="4.76399">
        <ele>235</ele>
        <time>2018-05-06T09:19:28Z</time>
      </trkpt>
      <trkpt lat="45.87254" lon="4.76391">
        <ele>234</ele>
        <time>2018-05-06T09:19:29Z</time>
      </trkpt>
      <trkpt lat="45.87255" lon="4.76383">
        <ele>234</ele>
        <time>2018-05-06T09:19:30Z</time>
      </trkpt>
      <trkpt lat="45.87255" lon="4.76374">
        <ele>234</ele>
        <time>2018-05-06T09:19:31Z</time>
      </trkpt>
      <trkpt lat="45.87255" lon="4.76366">
        <ele>234</ele>
        <time>2018-05-06T09:19:32Z</time>
      </trkpt>
      <trkpt lat="45.87255" lon="4.76357">
        <ele>234</ele>
        <time>2018-05-06T09:19:33Z</time>
      </trkpt>
      <trkpt lat="45.87255" lon="4.76349">
        <ele>234</ele>
        <time>2018-05-06T09:19:34Z</time>
      </trkpt>
      <trkpt lat="45.87255" lon="4.7634">
        <ele>234</ele>
        <time>2018-05-06T09:19:35Z</time>
      </trkpt>
      <trkpt lat="45.87256" lon="4.76333">
        <ele>234</ele>
        <time>2018-05-06T09:19:36Z</time>
      </trkpt>
      <trkpt lat="45.87258" lon="4.76327">
        <ele>233</ele>
        <time>2018-05-06T09:19:37Z</time>
      </trkpt>
      <trkpt lat="45.87257" lon="4.76318">
        <ele>233</ele>
        <time>2018-05-06T09:19:38Z</time>
      </trkpt>
      <trkpt lat="45.87257" lon="4.7631">
        <ele>233</ele>
        <time>2018-05-06T09:19:39Z</time>
      </trkpt>
      <trkpt lat="45.87256" lon="4.76302">
        <ele>233</ele>
        <time>2018-05-06T09:19:40Z</time>
      </trkpt>
      <trkpt lat="45.87256" lon="4.76293">
        <ele>233</ele>
        <time>2018-05-06T09:19:41Z</time>
      </trkpt>
      <trkpt lat="45.87256" lon="4.76285">
        <ele>233</ele>
        <time>2018-05-06T09:19:42Z</time>
      </trkpt>
      <trkpt lat="45.87253" lon="4.76272">
        <ele>233</ele>
        <time>2018-05-06T09:19:43Z</time>
      </trkpt>
      <trkpt lat="45.87252" lon="4.76264">
        <ele>234</ele>
        <time>2018-05-06T09:19:44Z</time>
      </trkpt>
      <trkpt lat="45.87252" lon="4.76254">
        <ele>235</ele>
        <time>2018-05-06T09:19:45Z</time>
      </trkpt>
      <trkpt lat="45.87252" lon="4.76244">
        <ele>234</ele>
        <time>2018-05-06T09:19:46Z</time>
      </trkpt>
      <trkpt lat="45.87253" lon="4.76235">
        <ele>233</ele>
        <time>2018-05-06T09:19:47Z</time>
      </trkpt>
      <trkpt lat="45.87253" lon="4.76226">
        <ele>233</ele>
        <time>2018-05-06T09:19:48Z</time>
      </trkpt>
      <trkpt lat="45.87251" lon="4.76217">
        <ele>233</ele>
        <time>2018-05-06T09:19:49Z</time>
      </trkpt>
      <trkpt lat="45.8725" lon="4.76209">
        <ele>234</ele>
        <time>2018-05-06T09:19:50Z</time>
      </trkpt>
      <trkpt lat="45.8725" lon="4.76201">
        <ele>234</ele>
        <time>2018-05-06T09:19:51Z</time>
      </trkpt>
      <trkpt lat="45.87249" lon="4.76193">
        <ele>234</ele>
        <time>2018-05-06T09:19:52Z</time>
      </trkpt>
      <trkpt lat="45.87249" lon="4.76184">
        <ele>233</ele>
        <time>2018-05-06T09:19:53Z</time>
      </trkpt>
      <trkpt lat="45.87248" lon="4.76177">
        <ele>233</ele>
        <time>2018-05-06T09:19:54Z</time>
      </trkpt>
      <trkpt lat="45.87247" lon="4.76169">
        <ele>232</ele>
        <time>2018-05-06T09:19:55Z</time>
      </trkpt>
      <trkpt lat="45.87247" lon="4.76161">
        <ele>232</ele>
        <time>2018-05-06T09:19:56Z</time>
      </trkpt>
      <trkpt lat="45.87247" lon="4.76153">
        <ele>232</ele>
        <time>2018-05-06T09:19:57Z</time>
      </trkpt>
      <trkpt lat="45.87247" lon="4.76145">
        <ele>232</ele>
        <time>2018-05-06T09:19:58Z</time>
      </trkpt>
      <trkpt lat="45.87244" lon="4.76135">
        <ele>232</ele>
        <time>2018-05-06T09:19:59Z</time>
      </trkpt>
      <trkpt lat="45.87243" lon="4.76127">
        <ele>232</ele>
        <time>2018-05-06T09:20:00Z</time>
      </trkpt>
      <trkpt lat="45.87243" lon="4.76118">
        <ele>232</ele>
        <time>2018-05-06T09:20:01Z</time>
      </trkpt>
      <trkpt lat="45.87241" lon="4.76109">
        <ele>232</ele>
        <time>2018-05-06T09:20:02Z</time>
      </trkpt>
      <trkpt lat="45.87242" lon="4.76099">
        <ele>231</ele>
        <time>2018-05-06T09:20:03Z</time>
      </trkpt>
      <trkpt lat="45.87241" lon="4.76091">
        <ele>231</ele>
        <time>2018-05-06T09:20:04Z</time>
      </trkpt>
      <trkpt lat="45.8724" lon="4.76081">
        <ele>230</ele>
        <time>2018-05-06T09:20:05Z</time>
      </trkpt>
      <trkpt lat="45.87239" lon="4.76072">
        <ele>230</ele>
        <time>2018-05-06T09:20:06Z</time>
      </trkpt>
      <trkpt lat="45.87239" lon="4.76063">
        <ele>230</ele>
        <time>2018-05-06T09:20:07Z</time>
      </trkpt>
      <trkpt lat="45.87238" lon="4.76053">
        <ele>230</ele>
        <time>2018-05-06T09:20:08Z</time>
      </trkpt>
      <trkpt lat="45.87239" lon="4.76046">
        <ele>230</ele>
        <time>2018-05-06T09:20:09Z</time>
      </trkpt>
      <trkpt lat="45.87237" lon="4.76036">
        <ele>230</ele>
        <time>2018-05-06T09:20:10Z</time>
      </trkpt>
      <trkpt lat="45.87238" lon="4.76028">
        <ele>230</ele>
        <time>2018-05-06T09:20:11Z</time>
      </trkpt>
      <trkpt lat="45.87236" lon="4.76019">
        <ele>230</ele>
        <time>2018-05-06T09:20:12Z</time>
      </trkpt>
      <trkpt lat="45.87235" lon="4.7601">
        <ele>229</ele>
        <time>2018-05-06T09:20:13Z</time>
      </trkpt>
      <trkpt lat="45.87234" lon="4.76">
        <ele>228</ele>
        <time>2018-05-06T09:20:14Z</time>
      </trkpt>
      <trkpt lat="45.87233" lon="4.7599">
        <ele>228</ele>
        <time>2018-05-06T09:20:15Z</time>
      </trkpt>
      <trkpt lat="45.87232" lon="4.7598">
        <ele>228</ele>
        <time>2018-05-06T09:20:16Z</time>
      </trkpt>
      <trkpt lat="45.87231" lon="4.75971">
        <ele>228</ele>
        <time>2018-05-06T09:20:17Z</time>
      </trkpt>
      <trkpt lat="45.8723" lon="4.75961">
        <ele>228</ele>
        <time>2018-05-06T09:20:18Z</time>
      </trkpt>
      <trkpt lat="45.87228" lon="4.7595">
        <ele>228</ele>
        <time>2018-05-06T09:20:19Z</time>
      </trkpt>
      <trkpt lat="45.87225" lon="4.7594">
        <ele>228</ele>
        <time>2018-05-06T09:20:20Z</time>
      </trkpt>
      <trkpt lat="45.87224" lon="4.7593">
        <ele>228</ele>
        <time>2018-05-06T09:20:21Z</time>
      </trkpt>
      <trkpt lat="45.87222" lon="4.7592">
        <ele>228</ele>
        <time>2018-05-06T09:20:22Z</time>
      </trkpt>
      <trkpt lat="45.87221" lon="4.75908">
        <ele>227</ele>
        <time>2018-05-06T09:20:23Z</time>
      </trkpt>
      <trkpt lat="45.8722" lon="4.75898">
        <ele>227</ele>
        <time>2018-05-06T09:20:24Z</time>
      </trkpt>
      <trkpt lat="45.87219" lon="4.75887">
        <ele>227</ele>
        <time>2018-05-06T09:20:25Z</time>
      </trkpt>
      <trkpt lat="45.87219" lon="4.75876">
        <ele>226</ele>
        <time>2018-05-06T09:20:26Z</time>
      </trkpt>
      <trkpt lat="45.87218" lon="4.75865">
        <ele>226</ele>
        <time>2018-05-06T09:20:27Z</time>
      </trkpt>
      <trkpt lat="45.87216" lon="4.75853">
        <ele>226</ele>
        <time>2018-05-06T09:20:28Z</time>
      </trkpt>
      <trkpt lat="45.87215" lon="4.75843">
        <ele>226</ele>
        <time>2018-05-06T09:20:29Z</time>
      </trkpt>
      <trkpt lat="45.87214" lon="4.75831">
        <ele>225</ele>
        <time>2018-05-06T09:20:30Z</time>
      </trkpt>
      <trkpt lat="45.87212" lon="4.75819">
        <ele>225</ele>
        <time>2018-05-06T09:20:31Z</time>
      </trkpt>
      <trkpt lat="45.8721" lon="4.75808">
        <ele>224</ele>
        <time>2018-05-06T09:20:32Z</time>
      </trkpt>
      <trkpt lat="45.87207" lon="4.758">
        <ele>224</ele>
        <time>2018-05-06T09:20:33Z</time>
      </trkpt>
      <trkpt lat="45.87203" lon="4.75789">
        <ele>224</ele>
        <time>2018-05-06T09:20:34Z</time>
      </trkpt>
      <trkpt lat="45.872" lon="4.75777">
        <ele>224</ele>
        <time>2018-05-06T09:20:35Z</time>
      </trkpt>
      <trkpt lat="45.87196" lon="4.75765">
        <ele>224</ele>
        <time>2018-05-06T09:20:36Z</time>
      </trkpt>
      <trkpt lat="45.87192" lon="4.75755">
        <ele>224</ele>
        <time>2018-05-06T09:20:37Z</time>
      </trkpt>
      <trkpt lat="45.87189" lon="4.75744">
        <ele>223</ele>
        <time>2018-05-06T09:20:38Z</time>
      </trkpt>
      <trkpt lat="45.87186" lon="4.75734">
        <ele>223</ele>
        <time>2018-05-06T09:20:39Z</time>
      </trkpt>
      <trkpt lat="45.87184" lon="4.75725">
        <ele>223</ele>
        <time>2018-05-06T09:20:40Z</time>
      </trkpt>
      <trkpt lat="45.87181" lon="4.75716">
        <ele>223</ele>
        <time>2018-05-06T09:20:41Z</time>
      </trkpt>
      <trkpt lat="45.87179" lon="4.75707">
        <ele>223</ele>
        <time>2018-05-06T09:20:42Z</time>
      </trkpt>
      <trkpt lat="45.87177" lon="4.75698">
        <ele>223</ele>
        <time>2018-05-06T09:20:43Z</time>
      </trkpt>
      <trkpt lat="45.87179" lon="4.7569">
        <ele>223</ele>
        <time>2018-05-06T09:20:44Z</time>
      </trkpt>
      <trkpt lat="45.87175" lon="4.75682">
        <ele>223</ele>
        <time>2018-05-06T09:20:45Z</time>
      </trkpt>
      <trkpt lat="45.87175" lon="4.75672">
        <ele>223</ele>
        <time>2018-05-06T09:20:46Z</time>
      </trkpt>
      <trkpt lat="45.87173" lon="4.75664">
        <ele>223</ele>
        <time>2018-05-06T09:20:47Z</time>
      </trkpt>
      <trkpt lat="45.87175" lon="4.75656">
        <ele>222</ele>
        <time>2018-05-06T09:20:48Z</time>
      </trkpt>
      <trkpt lat="45.87175" lon="4.75647">
        <ele>222</ele>
        <time>2018-05-06T09:20:49Z</time>
      </trkpt>
      <trkpt lat="45.87176" lon="4.7564">
        <ele>222</ele>
        <time>2018-05-06T09:20:50Z</time>
      </trkpt>
      <trkpt lat="45.87177" lon="4.75631">
        <ele>222</ele>
        <time>2018-05-06T09:20:51Z</time>
      </trkpt>
      <trkpt lat="45.87178" lon="4.75622">
        <ele>222</ele>
        <time>2018-05-06T09:20:52Z</time>
      </trkpt>
      <trkpt lat="45.87179" lon="4.75613">
        <ele>222</ele>
        <time>2018-05-06T09:20:53Z</time>
      </trkpt>
      <trkpt lat="45.87178" lon="4.75603">
        <ele>222</ele>
        <time>2018-05-06T09:20:54Z</time>
      </trkpt>
      <trkpt lat="45.87179" lon="4.75594">
        <ele>222</ele>
        <time>2018-05-06T09:20:55Z</time>
      </trkpt>
      <trkpt lat="45.8718" lon="4.75585">
        <ele>222</ele>
        <time>2018-05-06T09:20:56Z</time>
      </trkpt>
      <trkpt lat="45.8718" lon="4.75576">
        <ele>222</ele>
        <time>2018-05-06T09:20:57Z</time>
      </trkpt>
      <trkpt lat="45.87181" lon="4.75567">
        <ele>222</ele>
        <time>2018-05-06T09:20:58Z</time>
      </trkpt>
      <trkpt lat="45.87181" lon="4.75558">
        <ele>222</ele>
        <time>2018-05-06T09:20:59Z</time>
      </trkpt>
      <trkpt lat="45.87181" lon="4.75549">
        <ele>222</ele>
        <time>2018-05-06T09:21:00Z</time>
      </trkpt>
      <trkpt lat="45.8718" lon="4.75539">
        <ele>222</ele>
        <time>2018-05-06T09:21:01Z</time>
      </trkpt>
      <trkpt lat="45.8718" lon="4.75529">
        <ele>222</ele>
        <time>2018-05-06T09:21:02Z</time>
      </trkpt>
      <trkpt lat="45.8718" lon="4.7552">
        <ele>222</ele>
        <time>2018-05-06T09:21:03Z</time>
      </trkpt>
      <trkpt lat="45.8718" lon="4.75511">
        <ele>222</ele>
        <time>2018-05-06T09:21:04Z</time>
      </trkpt>
      <trkpt lat="45.87182" lon="4.75503">
        <ele>222</ele>
        <time>2018-05-06T09:21:05Z</time>
      </trkpt>
      <trkpt lat="45.87181" lon="4.75494">
        <ele>223</ele>
        <time>2018-05-06T09:21:06Z</time>
      </trkpt>
      <trkpt lat="45.87181" lon="4.75485">
        <ele>222</ele>
        <time>2018-05-06T09:21:07Z</time>
      </trkpt>
      <trkpt lat="45.87178" lon="4.75476">
        <ele>222</ele>
        <time>2018-05-06T09:21:08Z</time>
      </trkpt>
      <trkpt lat="45.87178" lon="4.75467">
        <ele>222</ele>
        <time>2018-05-06T09:21:09Z</time>
      </trkpt>
      <trkpt lat="45.87176" lon="4.75459">
        <ele>222</ele>
        <time>2018-05-06T09:21:10Z</time>
      </trkpt>
      <trkpt lat="45.87177" lon="4.75452">
        <ele>222</ele>
        <time>2018-05-06T09:21:11Z</time>
      </trkpt>
      <trkpt lat="45.87177" lon="4.75444">
        <ele>222</ele>
        <time>2018-05-06T09:21:12Z</time>
      </trkpt>
      <trkpt lat="45.87176" lon="4.75436">
        <ele>222</ele>
        <time>2018-05-06T09:21:13Z</time>
      </trkpt>
      <trkpt lat="45.87177" lon="4.75429">
        <ele>223</ele>
        <time>2018-05-06T09:21:14Z</time>
      </trkpt>
      <trkpt lat="45.87176" lon="4.75422">
        <ele>223</ele>
        <time>2018-05-06T09:21:15Z</time>
      </trkpt>
      <trkpt lat="45.87175" lon="4.75414">
        <ele>223</ele>
        <time>2018-05-06T09:21:16Z</time>
      </trkpt>
      <trkpt lat="45.87174" lon="4.75406">
        <ele>223</ele>
        <time>2018-05-06T09:21:17Z</time>
      </trkpt>
      <trkpt lat="45.87172" lon="4.75396">
        <ele>223</ele>
        <time>2018-05-06T09:21:18Z</time>
      </trkpt>
      <trkpt lat="45.87172" lon="4.75389">
        <ele>223</ele>
        <time>2018-05-06T09:21:19Z</time>
      </trkpt>
      <trkpt lat="45.87172" lon="4.75381">
        <ele>223</ele>
        <time>2018-05-06T09:21:20Z</time>
      </trkpt>
      <trkpt lat="45.87173" lon="4.75375">
        <ele>223</ele>
        <time>2018-05-06T09:21:21Z</time>
      </trkpt>
      <trkpt lat="45.87172" lon="4.75367">
        <ele>223</ele>
        <time>2018-05-06T09:21:22Z</time>
      </trkpt>
      <trkpt lat="45.87172" lon="4.7536">
        <ele>223</ele>
        <time>2018-05-06T09:21:23Z</time>
      </trkpt>
      <trkpt lat="45.87172" lon="4.75352">
        <ele>223</ele>
        <time>2018-05-06T09:21:24Z</time>
      </trkpt>
      <trkpt lat="45.87171" lon="4.75345">
        <ele>223</ele>
        <time>2018-05-06T09:21:25Z</time>
      </trkpt>
      <trkpt lat="45.8717" lon="4.75338">
        <ele>224</ele>
        <time>2018-05-06T09:21:26Z</time>
      </trkpt>
      <trkpt lat="45.8717" lon="4.75331">
        <ele>224</ele>
        <time>2018-05-06T09:21:27Z</time>
      </trkpt>
      <trkpt lat="45.87172" lon="4.75319">
        <ele>223</ele>
        <time>2018-05-06T09:21:29Z</time>
      </trkpt>
      <trkpt lat="45.87171" lon="4.75312">
        <ele>223</ele>
        <time>2018-05-06T09:21:30Z</time>
      </trkpt>
      <trkpt lat="45.87171" lon="4.75304">
        <ele>223</ele>
        <time>2018-05-06T09:21:31Z</time>
      </trkpt>
      <trkpt lat="45.8717" lon="4.75297">
        <ele>223</ele>
        <time>2018-05-06T09:21:32Z</time>
      </trkpt>
      <trkpt lat="45.87169" lon="4.7529">
        <ele>223</ele>
        <time>2018-05-06T09:21:33Z</time>
      </trkpt>
      <trkpt lat="45.87169" lon="4.75283">
        <ele>223</ele>
        <time>2018-05-06T09:21:34Z</time>
      </trkpt>
      <trkpt lat="45.87168" lon="4.75274">
        <ele>223</ele>
        <time>2018-05-06T09:21:35Z</time>
      </trkpt>
      <trkpt lat="45.87166" lon="4.75264">
        <ele>224</ele>
        <time>2018-05-06T09:21:36Z</time>
      </trkpt>
      <trkpt lat="45.87166" lon="4.75258">
        <ele>224</ele>
        <time>2018-05-06T09:21:37Z</time>
      </trkpt>
      <trkpt lat="45.87165" lon="4.75251">
        <ele>223</ele>
        <time>2018-05-06T09:21:38Z</time>
      </trkpt>
      <trkpt lat="45.87164" lon="4.75244">
        <ele>224</ele>
        <time>2018-05-06T09:21:39Z</time>
      </trkpt>
      <trkpt lat="45.87162" lon="4.75236">
        <ele>224</ele>
        <time>2018-05-06T09:21:40Z</time>
      </trkpt>
      <trkpt lat="45.8716" lon="4.75229">
        <ele>224</ele>
        <time>2018-05-06T09:21:41Z</time>
      </trkpt>
      <trkpt lat="45.87159" lon="4.75222">
        <ele>224</ele>
        <time>2018-05-06T09:21:42Z</time>
      </trkpt>
      <trkpt lat="45.87157" lon="4.75217">
        <ele>225</ele>
        <time>2018-05-06T09:21:43Z</time>
      </trkpt>
      <trkpt lat="45.87156" lon="4.75209">
        <ele>225</ele>
        <time>2018-05-06T09:21:44Z</time>
      </trkpt>
      <trkpt lat="45.87154" lon="4.75202">
        <ele>225</ele>
        <time>2018-05-06T09:21:45Z</time>
      </trkpt>
      <trkpt lat="45.87152" lon="4.75195">
        <ele>225</ele>
        <time>2018-05-06T09:21:46Z</time>
      </trkpt>
      <trkpt lat="45.87151" lon="4.75188">
        <ele>225</ele>
        <time>2018-05-06T09:21:47Z</time>
      </trkpt>
      <trkpt lat="45.8715" lon="4.75181">
        <ele>225</ele>
        <time>2018-05-06T09:21:48Z</time>
      </trkpt>
      <trkpt lat="45.87149" lon="4.75175">
        <ele>225</ele>
        <time>2018-05-06T09:21:49Z</time>
      </trkpt>
      <trkpt lat="45.87148" lon="4.75168">
        <ele>225</ele>
        <time>2018-05-06T09:21:50Z</time>
      </trkpt>
      <trkpt lat="45.87148" lon="4.75161">
        <ele>225</ele>
        <time>2018-05-06T09:21:51Z</time>
      </trkpt>
      <trkpt lat="45.87147" lon="4.75155">
        <ele>225</ele>
        <time>2018-05-06T09:21:52Z</time>
      </trkpt>
      <trkpt lat="45.87142" lon="4.75148">
        <ele>225</ele>
        <time>2018-05-06T09:21:53Z</time>
      </trkpt>
      <trkpt lat="45.87141" lon="4.7514">
        <ele>225</ele>
        <time>2018-05-06T09:21:54Z</time>
      </trkpt>
      <trkpt lat="45.8714" lon="4.75132">
        <ele>225</ele>
        <time>2018-05-06T09:21:55Z</time>
      </trkpt>
      <trkpt lat="45.87138" lon="4.75124">
        <ele>225</ele>
        <time>2018-05-06T09:21:56Z</time>
      </trkpt>
      <trkpt lat="45.87137" lon="4.75117">
        <ele>225</ele>
        <time>2018-05-06T09:21:57Z</time>
      </trkpt>
      <trkpt lat="45.87133" lon="4.75109">
        <ele>225</ele>
        <time>2018-05-06T09:21:58Z</time>
      </trkpt>
      <trkpt lat="45.87132" lon="4.75102">
        <ele>225</ele>
        <time>2018-05-06T09:21:59Z</time>
      </trkpt>
      <trkpt lat="45.87131" lon="4.75096">
        <ele>225</ele>
        <time>2018-05-06T09:22:00Z</time>
      </trkpt>
      <trkpt lat="45.8713" lon="4.75088">
        <ele>225</ele>
        <time>2018-05-06T09:22:01Z</time>
      </trkpt>
      <trkpt lat="45.87126" lon="4.7508">
        <ele>225</ele>
        <time>2018-05-06T09:22:02Z</time>
      </trkpt>
      <trkpt lat="45.87125" lon="4.75073">
        <ele>225</ele>
        <time>2018-05-06T09:22:03Z</time>
      </trkpt>
      <trkpt lat="45.87124" lon="4.75065">
        <ele>225</ele>
        <time>2018-05-06T09:22:04Z</time>
      </trkpt>
      <trkpt lat="45.87124" lon="4.75054">
        <ele>225</ele>
        <time>2018-05-06T09:22:06Z</time>
      </trkpt>
      <trkpt lat="45.87124" lon="4.75047">
        <ele>225</ele>
        <time>2018-05-06T09:22:07Z</time>
      </trkpt>
      <trkpt lat="45.87123" lon="4.75039">
        <ele>226</ele>
        <time>2018-05-06T09:22:08Z</time>
      </trkpt>
      <trkpt lat="45.8712" lon="4.75032">
        <ele>226</ele>
        <time>2018-05-06T09:22:09Z</time>
      </trkpt>
      <trkpt lat="45.87119" lon="4.75024">
        <ele>226</ele>
        <time>2018-05-06T09:22:10Z</time>
      </trkpt>
      <trkpt lat="45.8712" lon="4.75017">
        <ele>226</ele>
        <time>2018-05-06T09:22:11Z</time>
      </trkpt>
      <trkpt lat="45.8712" lon="4.75009">
        <ele>226</ele>
        <time>2018-05-06T09:22:12Z</time>
      </trkpt>
      <trkpt lat="45.87122" lon="4.75001">
        <ele>226</ele>
        <time>2018-05-06T09:22:13Z</time>
      </trkpt>
      <trkpt lat="45.87124" lon="4.74994">
        <ele>226</ele>
        <time>2018-05-06T09:22:14Z</time>
      </trkpt>
      <trkpt lat="45.87124" lon="4.74986">
        <ele>226</ele>
        <time>2018-05-06T09:22:15Z</time>
      </trkpt>
      <trkpt lat="45.87126" lon="4.74978">
        <ele>226</ele>
        <time>2018-05-06T09:22:16Z</time>
      </trkpt>
      <trkpt lat="45.87127" lon="4.74969">
        <ele>226</ele>
        <time>2018-05-06T09:22:17Z</time>
      </trkpt>
      <trkpt lat="45.87127" lon="4.74961">
        <ele>226</ele>
        <time>2018-05-06T09:22:18Z</time>
      </trkpt>
      <trkpt lat="45.87128" lon="4.74952">
        <ele>226</ele>
        <time>2018-05-06T09:22:19Z</time>
      </trkpt>
      <trkpt lat="45.87132" lon="4.74945">
        <ele>226</ele>
        <time>2018-05-06T09:22:20Z</time>
      </trkpt>
      <trkpt lat="45.87135" lon="4.74937">
        <ele>226</ele>
        <time>2018-05-06T09:22:21Z</time>
      </trkpt>
      <trkpt lat="45.87138" lon="4.74931">
        <ele>226</ele>
        <time>2018-05-06T09:22:22Z</time>
      </trkpt>
      <trkpt lat="45.87139" lon="4.74922">
        <ele>226</ele>
        <time>2018-05-06T09:22:23Z</time>
      </trkpt>
      <trkpt lat="45.8714" lon="4.74914">
        <ele>225</ele>
        <time>2018-05-06T09:22:24Z</time>
      </trkpt>
      <trkpt lat="45.87137" lon="4.74906">
        <ele>225</ele>
        <time>2018-05-06T09:22:25Z</time>
      </trkpt>
      <trkpt lat="45.87133" lon="4.749">
        <ele>225</ele>
        <time>2018-05-06T09:22:26Z</time>
      </trkpt>
      <trkpt lat="45.87131" lon="4.74892">
        <ele>225</ele>
        <time>2018-05-06T09:22:27Z</time>
      </trkpt>
      <trkpt lat="45.87129" lon="4.74883">
        <ele>225</ele>
        <time>2018-05-06T09:22:28Z</time>
      </trkpt>
      <trkpt lat="45.87128" lon="4.74875">
        <ele>225</ele>
        <time>2018-05-06T09:22:29Z</time>
      </trkpt>
      <trkpt lat="45.87128" lon="4.74865">
        <ele>225</ele>
        <time>2018-05-06T09:22:30Z</time>
      </trkpt>
      <trkpt lat="45.87129" lon="4.74856">
        <ele>224</ele>
        <time>2018-05-06T09:22:31Z</time>
      </trkpt>
      <trkpt lat="45.87131" lon="4.74847">
        <ele>224</ele>
        <time>2018-05-06T09:22:32Z</time>
      </trkpt>
      <trkpt lat="45.87131" lon="4.74837">
        <ele>224</ele>
        <time>2018-05-06T09:22:33Z</time>
      </trkpt>
      <trkpt lat="45.87131" lon="4.74828">
        <ele>223</ele>
        <time>2018-05-06T09:22:34Z</time>
      </trkpt>
      <trkpt lat="45.87131" lon="4.74819">
        <ele>223</ele>
        <time>2018-05-06T09:22:35Z</time>
      </trkpt>
      <trkpt lat="45.87131" lon="4.74809">
        <ele>222</ele>
        <time>2018-05-06T09:22:36Z</time>
      </trkpt>
      <trkpt lat="45.87131" lon="4.748">
        <ele>222</ele>
        <time>2018-05-06T09:22:37Z</time>
      </trkpt>
      <trkpt lat="45.87132" lon="4.7479">
        <ele>222</ele>
        <time>2018-05-06T09:22:38Z</time>
      </trkpt>
      <trkpt lat="45.87131" lon="4.7478">
        <ele>222</ele>
        <time>2018-05-06T09:22:39Z</time>
      </trkpt>
      <trkpt lat="45.87129" lon="4.74772">
        <ele>222</ele>
        <time>2018-05-06T09:22:40Z</time>
      </trkpt>
      <trkpt lat="45.87126" lon="4.74763">
        <ele>222</ele>
        <time>2018-05-06T09:22:41Z</time>
      </trkpt>
      <trkpt lat="45.87126" lon="4.74753">
        <ele>222</ele>
        <time>2018-05-06T09:22:42Z</time>
      </trkpt>
      <trkpt lat="45.87126" lon="4.74745">
        <ele>221</ele>
        <time>2018-05-06T09:22:43Z</time>
      </trkpt>
      <trkpt lat="45.87125" lon="4.74736">
        <ele>221</ele>
        <time>2018-05-06T09:22:44Z</time>
      </trkpt>
      <trkpt lat="45.87123" lon="4.74726">
        <ele>221</ele>
        <time>2018-05-06T09:22:45Z</time>
      </trkpt>
      <trkpt lat="45.87124" lon="4.74719">
        <ele>221</ele>
        <time>2018-05-06T09:22:46Z</time>
      </trkpt>
      <trkpt lat="45.87124" lon="4.7471">
        <ele>221</ele>
        <time>2018-05-06T09:22:47Z</time>
      </trkpt>
      <trkpt lat="45.87123" lon="4.74701">
        <ele>221</ele>
        <time>2018-05-06T09:22:48Z</time>
      </trkpt>
      <trkpt lat="45.87122" lon="4.74691">
        <ele>221</ele>
        <time>2018-05-06T09:22:49Z</time>
      </trkpt>
      <trkpt lat="45.87121" lon="4.74683">
        <ele>221</ele>
        <time>2018-05-06T09:22:50Z</time>
      </trkpt>
      <trkpt lat="45.8712" lon="4.74673">
        <ele>221</ele>
        <time>2018-05-06T09:22:51Z</time>
      </trkpt>
      <trkpt lat="45.8712" lon="4.74663">
        <ele>222</ele>
        <time>2018-05-06T09:22:52Z</time>
      </trkpt>
      <trkpt lat="45.87121" lon="4.74655">
        <ele>222</ele>
        <time>2018-05-06T09:22:53Z</time>
      </trkpt>
      <trkpt lat="45.8712" lon="4.74647">
        <ele>222</ele>
        <time>2018-05-06T09:22:54Z</time>
      </trkpt>
      <trkpt lat="45.8712" lon="4.74638">
        <ele>222</ele>
        <time>2018-05-06T09:22:55Z</time>
      </trkpt>
      <trkpt lat="45.87119" lon="4.74629">
        <ele>222</ele>
        <time>2018-05-06T09:22:56Z</time>
      </trkpt>
      <trkpt lat="45.87118" lon="4.7462">
        <ele>222</ele>
        <time>2018-05-06T09:22:57Z</time>
      </trkpt>
      <trkpt lat="45.87118" lon="4.7461">
        <ele>222</ele>
        <time>2018-05-06T09:22:58Z</time>
      </trkpt>
      <trkpt lat="45.87117" lon="4.74601">
        <ele>222</ele>
        <time>2018-05-06T09:22:59Z</time>
      </trkpt>
      <trkpt lat="45.87116" lon="4.74591">
        <ele>222</ele>
        <time>2018-05-06T09:23:00Z</time>
      </trkpt>
      <trkpt lat="45.87114" lon="4.74582">
        <ele>221</ele>
        <time>2018-05-06T09:23:01Z</time>
      </trkpt>
      <trkpt lat="45.87111" lon="4.74573">
        <ele>221</ele>
        <time>2018-05-06T09:23:02Z</time>
      </trkpt>
      <trkpt lat="45.87109" lon="4.74565">
        <ele>220</ele>
        <time>2018-05-06T09:23:03Z</time>
      </trkpt>
      <trkpt lat="45.87106" lon="4.74557">
        <ele>220</ele>
        <time>2018-05-06T09:23:04Z</time>
      </trkpt>
      <trkpt lat="45.87104" lon="4.7455">
        <ele>220</ele>
        <time>2018-05-06T09:23:05Z</time>
      </trkpt>
      <trkpt lat="45.87104" lon="4.74541">
        <ele>220</ele>
        <time>2018-05-06T09:23:06Z</time>
      </trkpt>
      <trkpt lat="45.87104" lon="4.74533">
        <ele>220</ele>
        <time>2018-05-06T09:23:07Z</time>
      </trkpt>
      <trkpt lat="45.87104" lon="4.74525">
        <ele>220</ele>
        <time>2018-05-06T09:23:08Z</time>
      </trkpt>
      <trkpt lat="45.87107" lon="4.74518">
        <ele>219</ele>
        <time>2018-05-06T09:23:09Z</time>
      </trkpt>
      <trkpt lat="45.87108" lon="4.74512">
        <ele>219</ele>
        <time>2018-05-06T09:23:10Z</time>
      </trkpt>
      <trkpt lat="45.87109" lon="4.74504">
        <ele>219</ele>
        <time>2018-05-06T09:23:11Z</time>
      </trkpt>
      <trkpt lat="45.87109" lon="4.74497">
        <ele>218</ele>
        <time>2018-05-06T09:23:12Z</time>
      </trkpt>
      <trkpt lat="45.87107" lon="4.74489">
        <ele>218</ele>
        <time>2018-05-06T09:23:13Z</time>
      </trkpt>
      <trkpt lat="45.87105" lon="4.74481">
        <ele>218</ele>
        <time>2018-05-06T09:23:14Z</time>
      </trkpt>
      <trkpt lat="45.87103" lon="4.74473">
        <ele>218</ele>
        <time>2018-05-06T09:23:15Z</time>
      </trkpt>
      <trkpt lat="45.87101" lon="4.74464">
        <ele>218</ele>
        <time>2018-05-06T09:23:16Z</time>
      </trkpt>
      <trkpt lat="45.871" lon="4.74455">
        <ele>218</ele>
        <time>2018-05-06T09:23:17Z</time>
      </trkpt>
      <trkpt lat="45.87099" lon="4.74447">
        <ele>218</ele>
        <time>2018-05-06T09:23:18Z</time>
      </trkpt>
      <trkpt lat="45.87096" lon="4.74436">
        <ele>218</ele>
        <time>2018-05-06T09:23:19Z</time>
      </trkpt>
      <trkpt lat="45.87094" lon="4.74427">
        <ele>218</ele>
        <time>2018-05-06T09:23:20Z</time>
      </trkpt>
      <trkpt lat="45.87093" lon="4.74417">
        <ele>219</ele>
        <time>2018-05-06T09:23:21Z</time>
      </trkpt>
      <trkpt lat="45.87093" lon="4.74408">
        <ele>218</ele>
        <time>2018-05-06T09:23:22Z</time>
      </trkpt>
      <trkpt lat="45.87092" lon="4.74399">
        <ele>218</ele>
        <time>2018-05-06T09:23:23Z</time>
      </trkpt>
      <trkpt lat="45.8709" lon="4.74389">
        <ele>218</ele>
        <time>2018-05-06T09:23:24Z</time>
      </trkpt>
      <trkpt lat="45.87089" lon="4.7438">
        <ele>218</ele>
        <time>2018-05-06T09:23:25Z</time>
      </trkpt>
      <trkpt lat="45.87086" lon="4.74371">
        <ele>218</ele>
        <time>2018-05-06T09:23:26Z</time>
      </trkpt>
      <trkpt lat="45.87085" lon="4.74363">
        <ele>218</ele>
        <time>2018-05-06T09:23:27Z</time>
      </trkpt>
      <trkpt lat="45.87083" lon="4.74354">
        <ele>219</ele>
        <time>2018-05-06T09:23:28Z</time>
      </trkpt>
      <trkpt lat="45.87081" lon="4.74345">
        <ele>219</ele>
        <time>2018-05-06T09:23:29Z</time>
      </trkpt>
      <trkpt lat="45.8708" lon="4.74336">
        <ele>219</ele>
        <time>2018-05-06T09:23:30Z</time>
      </trkpt>
      <trkpt lat="45.87078" lon="4.74327">
        <ele>219</ele>
        <time>2018-05-06T09:23:31Z</time>
      </trkpt>
      <trkpt lat="45.87076" lon="4.74318">
        <ele>218</ele>
        <time>2018-05-06T09:23:32Z</time>
      </trkpt>
      <trkpt lat="45.87075" lon="4.74308">
        <ele>218</ele>
        <time>2018-05-06T09:23:33Z</time>
      </trkpt>
      <trkpt lat="45.87074" lon="4.74298">
        <ele>218</ele>
        <time>2018-05-06T09:23:34Z</time>
      </trkpt>
      <trkpt lat="45.87073" lon="4.74287">
        <ele>217</ele>
        <time>2018-05-06T09:23:35Z</time>
      </trkpt>
      <trkpt lat="45.87072" lon="4.74277">
        <ele>217</ele>
        <time>2018-05-06T09:23:36Z</time>
      </trkpt>
      <trkpt lat="45.87072" lon="4.74268">
        <ele>216</ele>
        <time>2018-05-06T09:23:37Z</time>
      </trkpt>
      <trkpt lat="45.87071" lon="4.74257">
        <ele>216</ele>
        <time>2018-05-06T09:23:38Z</time>
      </trkpt>
      <trkpt lat="45.8707" lon="4.74248">
        <ele>214</ele>
        <time>2018-05-06T09:23:39Z</time>
      </trkpt>
      <trkpt lat="45.87068" lon="4.74238">
        <ele>214</ele>
        <time>2018-05-06T09:23:40Z</time>
      </trkpt>
      <trkpt lat="45.87071" lon="4.74226">
        <ele>214</ele>
        <time>2018-05-06T09:23:41Z</time>
      </trkpt>
      <trkpt lat="45.87071" lon="4.74215">
        <ele>214</ele>
        <time>2018-05-06T09:23:42Z</time>
      </trkpt>
      <trkpt lat="45.87071" lon="4.74204">
        <ele>213</ele>
        <time>2018-05-06T09:23:43Z</time>
      </trkpt>
      <trkpt lat="45.87072" lon="4.74193">
        <ele>213</ele>
        <time>2018-05-06T09:23:44Z</time>
      </trkpt>
      <trkpt lat="45.8707" lon="4.74181">
        <ele>213</ele>
        <time>2018-05-06T09:23:45Z</time>
      </trkpt>
      <trkpt lat="45.8707" lon="4.7417">
        <ele>212</ele>
        <time>2018-05-06T09:23:46Z</time>
      </trkpt>
      <trkpt lat="45.8707" lon="4.74159">
        <ele>212</ele>
        <time>2018-05-06T09:23:47Z</time>
      </trkpt>
      <trkpt lat="45.87072" lon="4.7415">
        <ele>212</ele>
        <time>2018-05-06T09:23:48Z</time>
      </trkpt>
      <trkpt lat="45.87072" lon="4.74141">
        <ele>212</ele>
        <time>2018-05-06T09:23:49Z</time>
      </trkpt>
      <trkpt lat="45.87072" lon="4.74133">
        <ele>212</ele>
        <time>2018-05-06T09:23:50Z</time>
      </trkpt>
      <trkpt lat="45.87071" lon="4.74124">
        <ele>212</ele>
        <time>2018-05-06T09:23:51Z</time>
      </trkpt>
      <trkpt lat="45.87071" lon="4.74116">
        <ele>212</ele>
        <time>2018-05-06T09:23:52Z</time>
      </trkpt>
      <trkpt lat="45.87072" lon="4.74107">
        <ele>212</ele>
        <time>2018-05-06T09:23:53Z</time>
      </trkpt>
      <trkpt lat="45.87072" lon="4.74099">
        <ele>212</ele>
        <time>2018-05-06T09:23:54Z</time>
      </trkpt>
      <trkpt lat="45.87072" lon="4.74091">
        <ele>212</ele>
        <time>2018-05-06T09:23:55Z</time>
      </trkpt>
      <trkpt lat="45.87073" lon="4.74084">
        <ele>212</ele>
        <time>2018-05-06T09:23:56Z</time>
      </trkpt>
      <trkpt lat="45.87072" lon="4.74074">
        <ele>213</ele>
        <time>2018-05-06T09:23:57Z</time>
      </trkpt>
      <trkpt lat="45.87072" lon="4.74066">
        <ele>214</ele>
        <time>2018-05-06T09:23:58Z</time>
      </trkpt>
      <trkpt lat="45.8707" lon="4.74058">
        <ele>214</ele>
        <time>2018-05-06T09:23:59Z</time>
      </trkpt>
      <trkpt lat="45.87072" lon="4.74052">
        <ele>214</ele>
        <time>2018-05-06T09:24:00Z</time>
      </trkpt>
      <trkpt lat="45.87072" lon="4.74045">
        <ele>215</ele>
        <time>2018-05-06T09:24:01Z</time>
      </trkpt>
      <trkpt lat="45.87072" lon="4.74037">
        <ele>215</ele>
        <time>2018-05-06T09:24:02Z</time>
      </trkpt>
      <trkpt lat="45.87073" lon="4.74031">
        <ele>215</ele>
        <time>2018-05-06T09:24:03Z</time>
      </trkpt>
      <trkpt lat="45.87073" lon="4.74022">
        <ele>215</ele>
        <time>2018-05-06T09:24:04Z</time>
      </trkpt>
      <trkpt lat="45.87073" lon="4.74015">
        <ele>215</ele>
        <time>2018-05-06T09:24:05Z</time>
      </trkpt>
      <trkpt lat="45.87073" lon="4.74008">
        <ele>216</ele>
        <time>2018-05-06T09:24:06Z</time>
      </trkpt>
      <trkpt lat="45.87073" lon="4.73999">
        <ele>217</ele>
        <time>2018-05-06T09:24:07Z</time>
      </trkpt>
      <trkpt lat="45.87072" lon="4.73991">
        <ele>217</ele>
        <time>2018-05-06T09:24:08Z</time>
      </trkpt>
      <trkpt lat="45.87071" lon="4.73985">
        <ele>217</ele>
        <time>2018-05-06T09:24:09Z</time>
      </trkpt>
      <trkpt lat="45.87072" lon="4.73978">
        <ele>217</ele>
        <time>2018-05-06T09:24:10Z</time>
      </trkpt>
      <trkpt lat="45.87072" lon="4.73971">
        <ele>217</ele>
        <time>2018-05-06T09:24:11Z</time>
      </trkpt>
      <trkpt lat="45.87071" lon="4.73964">
        <ele>217</ele>
        <time>2018-05-06T09:24:12Z</time>
      </trkpt>
      <trkpt lat="45.87071" lon="4.73956">
        <ele>218</ele>
        <time>2018-05-06T09:24:13Z</time>
      </trkpt>
      <trkpt lat="45.87071" lon="4.73949">
        <ele>218</ele>
        <time>2018-05-06T09:24:14Z</time>
      </trkpt>
      <trkpt lat="45.87071" lon="4.73941">
        <ele>218</ele>
        <time>2018-05-06T09:24:15Z</time>
      </trkpt>
      <trkpt lat="45.8707" lon="4.73933">
        <ele>218</ele>
        <time>2018-05-06T09:24:16Z</time>
      </trkpt>
      <trkpt lat="45.87071" lon="4.73925">
        <ele>218</ele>
        <time>2018-05-06T09:24:17Z</time>
      </trkpt>
      <trkpt lat="45.87071" lon="4.73917">
        <ele>218</ele>
        <time>2018-05-06T09:24:18Z</time>
      </trkpt>
      <trkpt lat="45.8707" lon="4.73907">
        <ele>218</ele>
        <time>2018-05-06T09:24:19Z</time>
      </trkpt>
      <trkpt lat="45.8707" lon="4.73898">
        <ele>218</ele>
        <time>2018-05-06T09:24:20Z</time>
      </trkpt>
      <trkpt lat="45.8707" lon="4.7389">
        <ele>218</ele>
        <time>2018-05-06T09:24:21Z</time>
      </trkpt>
      <trkpt lat="45.8707" lon="4.7388">
        <ele>218</ele>
        <time>2018-05-06T09:24:22Z</time>
      </trkpt>
      <trkpt lat="45.87069" lon="4.73871">
        <ele>218</ele>
        <time>2018-05-06T09:24:23Z</time>
      </trkpt>
      <trkpt lat="45.87068" lon="4.73862">
        <ele>218</ele>
        <time>2018-05-06T09:24:24Z</time>
      </trkpt>
      <trkpt lat="45.87068" lon="4.73852">
        <ele>218</ele>
        <time>2018-05-06T09:24:25Z</time>
      </trkpt>
      <trkpt lat="45.87067" lon="4.73844">
        <ele>218</ele>
        <time>2018-05-06T09:24:26Z</time>
      </trkpt>
      <trkpt lat="45.87068" lon="4.73836">
        <ele>218</ele>
        <time>2018-05-06T09:24:27Z</time>
      </trkpt>
      <trkpt lat="45.87068" lon="4.73827">
        <ele>217</ele>
        <time>2018-05-06T09:24:28Z</time>
      </trkpt>
      <trkpt lat="45.87069" lon="4.73817">
        <ele>217</ele>
        <time>2018-05-06T09:24:29Z</time>
      </trkpt>
      <trkpt lat="45.87065" lon="4.73807">
        <ele>217</ele>
        <time>2018-05-06T09:24:30Z</time>
      </trkpt>
      <trkpt lat="45.87067" lon="4.73798">
        <ele>217</ele>
        <time>2018-05-06T09:24:31Z</time>
      </trkpt>
      <trkpt lat="45.87066" lon="4.73788">
        <ele>217</ele>
        <time>2018-05-06T09:24:32Z</time>
      </trkpt>
      <trkpt lat="45.87067" lon="4.73779">
        <ele>217</ele>
        <time>2018-05-06T09:24:33Z</time>
      </trkpt>
      <trkpt lat="45.87068" lon="4.73771">
        <ele>217</ele>
        <time>2018-05-06T09:24:34Z</time>
      </trkpt>
      <trkpt lat="45.87068" lon="4.73761">
        <ele>217</ele>
        <time>2018-05-06T09:24:35Z</time>
      </trkpt>
      <trkpt lat="45.87068" lon="4.73752">
        <ele>216</ele>
        <time>2018-05-06T09:24:36Z</time>
      </trkpt>
      <trkpt lat="45.87069" lon="4.73742">
        <ele>216</ele>
        <time>2018-05-06T09:24:37Z</time>
      </trkpt>
      <trkpt lat="45.8707" lon="4.73733">
        <ele>216</ele>
        <time>2018-05-06T09:24:38Z</time>
      </trkpt>
      <trkpt lat="45.87072" lon="4.73724">
        <ele>217</ele>
        <time>2018-05-06T09:24:39Z</time>
      </trkpt>
      <trkpt lat="45.87074" lon="4.73715">
        <ele>217</ele>
        <time>2018-05-06T09:24:40Z</time>
      </trkpt>
      <trkpt lat="45.87075" lon="4.73706">
        <ele>217</ele>
        <time>2018-05-06T09:24:41Z</time>
      </trkpt>
      <trkpt lat="45.87074" lon="4.73696">
        <ele>217</ele>
        <time>2018-05-06T09:24:42Z</time>
      </trkpt>
      <trkpt lat="45.87075" lon="4.73688">
        <ele>217</ele>
        <time>2018-05-06T09:24:43Z</time>
      </trkpt>
      <trkpt lat="45.87076" lon="4.73679">
        <ele>217</ele>
        <time>2018-05-06T09:24:44Z</time>
      </trkpt>
      <trkpt lat="45.87077" lon="4.7367">
        <ele>216</ele>
        <time>2018-05-06T09:24:45Z</time>
      </trkpt>
      <trkpt lat="45.87079" lon="4.73661">
        <ele>216</ele>
        <time>2018-05-06T09:24:46Z</time>
      </trkpt>
      <trkpt lat="45.87082" lon="4.73654">
        <ele>216</ele>
        <time>2018-05-06T09:24:47Z</time>
      </trkpt>
      <trkpt lat="45.87084" lon="4.73644">
        <ele>214</ele>
        <time>2018-05-06T09:24:48Z</time>
      </trkpt>
      <trkpt lat="45.87084" lon="4.73633">
        <ele>214</ele>
        <time>2018-05-06T09:24:49Z</time>
      </trkpt>
      <trkpt lat="45.87085" lon="4.73623">
        <ele>214</ele>
        <time>2018-05-06T09:24:50Z</time>
      </trkpt>
      <trkpt lat="45.87086" lon="4.73614">
        <ele>214</ele>
        <time>2018-05-06T09:24:51Z</time>
      </trkpt>
      <trkpt lat="45.87089" lon="4.73604">
        <ele>214</ele>
        <time>2018-05-06T09:24:52Z</time>
      </trkpt>
      <trkpt lat="45.87091" lon="4.73594">
        <ele>214</ele>
        <time>2018-05-06T09:24:53Z</time>
      </trkpt>
      <trkpt lat="45.87092" lon="4.73584">
        <ele>214</ele>
        <time>2018-05-06T09:24:54Z</time>
      </trkpt>
      <trkpt lat="45.87093" lon="4.73574">
        <ele>214</ele>
        <time>2018-05-06T09:24:55Z</time>
      </trkpt>
      <trkpt lat="45.87095" lon="4.73563">
        <ele>213</ele>
        <time>2018-05-06T09:24:56Z</time>
      </trkpt>
      <trkpt lat="45.87096" lon="4.73553">
        <ele>213</ele>
        <time>2018-05-06T09:24:57Z</time>
      </trkpt>
      <trkpt lat="45.87099" lon="4.73543">
        <ele>213</ele>
        <time>2018-05-06T09:24:58Z</time>
      </trkpt>
      <trkpt lat="45.871" lon="4.73533">
        <ele>213</ele>
        <time>2018-05-06T09:24:59Z</time>
      </trkpt>
      <trkpt lat="45.87099" lon="4.73523">
        <ele>213</ele>
        <time>2018-05-06T09:25:00Z</time>
      </trkpt>
      <trkpt lat="45.87101" lon="4.73514">
        <ele>213</ele>
        <time>2018-05-06T09:25:01Z</time>
      </trkpt>
      <trkpt lat="45.87101" lon="4.73505">
        <ele>213</ele>
        <time>2018-05-06T09:25:02Z</time>
      </trkpt>
      <trkpt lat="45.87102" lon="4.73496">
        <ele>213</ele>
        <time>2018-05-06T09:25:03Z</time>
      </trkpt>
      <trkpt lat="45.87101" lon="4.73485">
        <ele>212</ele>
        <time>2018-05-06T09:25:04Z</time>
      </trkpt>
      <trkpt lat="45.87103" lon="4.73476">
        <ele>212</ele>
        <time>2018-05-06T09:25:05Z</time>
      </trkpt>
      <trkpt lat="45.87104" lon="4.73467">
        <ele>212</ele>
        <time>2018-05-06T09:25:06Z</time>
      </trkpt>
      <trkpt lat="45.87103" lon="4.73457">
        <ele>212</ele>
        <time>2018-05-06T09:25:07Z</time>
      </trkpt>
      <trkpt lat="45.87104" lon="4.73447">
        <ele>212</ele>
        <time>2018-05-06T09:25:08Z</time>
      </trkpt>
      <trkpt lat="45.87106" lon="4.7344">
        <ele>212</ele>
        <time>2018-05-06T09:25:09Z</time>
      </trkpt>
      <trkpt lat="45.8711" lon="4.73431">
        <ele>212</ele>
        <time>2018-05-06T09:25:10Z</time>
      </trkpt>
      <trkpt lat="45.87108" lon="4.7342">
        <ele>212</ele>
        <time>2018-05-06T09:25:11Z</time>
      </trkpt>
      <trkpt lat="45.87108" lon="4.7341">
        <ele>212</ele>
        <time>2018-05-06T09:25:12Z</time>
      </trkpt>
      <trkpt lat="45.87108" lon="4.73402">
        <ele>211</ele>
        <time>2018-05-06T09:25:13Z</time>
      </trkpt>
      <trkpt lat="45.8711" lon="4.73392">
        <ele>211</ele>
        <time>2018-05-06T09:25:14Z</time>
      </trkpt>
      <trkpt lat="45.87112" lon="4.73382">
        <ele>211</ele>
        <time>2018-05-06T09:25:15Z</time>
      </trkpt>
      <trkpt lat="45.87113" lon="4.73372">
        <ele>211</ele>
        <time>2018-05-06T09:25:16Z</time>
      </trkpt>
      <trkpt lat="45.87112" lon="4.7336">
        <ele>211</ele>
        <time>2018-05-06T09:25:17Z</time>
      </trkpt>
      <trkpt lat="45.87112" lon="4.7335">
        <ele>210</ele>
        <time>2018-05-06T09:25:18Z</time>
      </trkpt>
      <trkpt lat="45.87112" lon="4.73338">
        <ele>210</ele>
        <time>2018-05-06T09:25:19Z</time>
      </trkpt>
      <trkpt lat="45.87112" lon="4.73327">
        <ele>209</ele>
        <time>2018-05-06T09:25:20Z</time>
      </trkpt>
      <trkpt lat="45.87113" lon="4.73318">
        <ele>209</ele>
        <time>2018-05-06T09:25:21Z</time>
      </trkpt>
      <trkpt lat="45.87114" lon="4.73308">
        <ele>209</ele>
        <time>2018-05-06T09:25:22Z</time>
      </trkpt>
      <trkpt lat="45.87116" lon="4.73299">
        <ele>208</ele>
        <time>2018-05-06T09:25:23Z</time>
      </trkpt>
      <trkpt lat="45.87116" lon="4.73288">
        <ele>208</ele>
        <time>2018-05-06T09:25:24Z</time>
      </trkpt>
      <trkpt lat="45.87118" lon="4.73278">
        <ele>208</ele>
        <time>2018-05-06T09:25:25Z</time>
      </trkpt>
      <trkpt lat="45.87118" lon="4.73269">
        <ele>208</ele>
        <time>2018-05-06T09:25:26Z</time>
      </trkpt>
      <trkpt lat="45.87119" lon="4.73258">
        <ele>208</ele>
        <time>2018-05-06T09:25:27Z</time>
      </trkpt>
      <trkpt lat="45.87121" lon="4.73248">
        <ele>207</ele>
        <time>2018-05-06T09:25:28Z</time>
      </trkpt>
      <trkpt lat="45.87124" lon="4.73238">
        <ele>207</ele>
        <time>2018-05-06T09:25:29Z</time>
      </trkpt>
      <trkpt lat="45.87128" lon="4.73229">
        <ele>206</ele>
        <time>2018-05-06T09:25:30Z</time>
      </trkpt>
      <trkpt lat="45.87131" lon="4.73221">
        <ele>206</ele>
        <time>2018-05-06T09:25:31Z</time>
      </trkpt>
      <trkpt lat="45.87135" lon="4.73212">
        <ele>206</ele>
        <time>2018-05-06T09:25:32Z</time>
      </trkpt>
      <trkpt lat="45.87139" lon="4.73202">
        <ele>206</ele>
        <time>2018-05-06T09:25:33Z</time>
      </trkpt>
      <trkpt lat="45.87143" lon="4.73195">
        <ele>205</ele>
        <time>2018-05-06T09:25:34Z</time>
      </trkpt>
      <trkpt lat="45.87146" lon="4.73186">
        <ele>205</ele>
        <time>2018-05-06T09:25:35Z</time>
      </trkpt>
      <trkpt lat="45.8715" lon="4.73176">
        <ele>205</ele>
        <time>2018-05-06T09:25:36Z</time>
      </trkpt>
      <trkpt lat="45.87153" lon="4.73165">
        <ele>204</ele>
        <time>2018-05-06T09:25:37Z</time>
      </trkpt>
      <trkpt lat="45.87156" lon="4.73156">
        <ele>204</ele>
        <time>2018-05-06T09:25:38Z</time>
      </trkpt>
      <trkpt lat="45.87158" lon="4.73147">
        <ele>204</ele>
        <time>2018-05-06T09:25:39Z</time>
      </trkpt>
      <trkpt lat="45.87161" lon="4.73136">
        <ele>204</ele>
        <time>2018-05-06T09:25:40Z</time>
      </trkpt>
      <trkpt lat="45.87162" lon="4.73124">
        <ele>204</ele>
        <time>2018-05-06T09:25:41Z</time>
      </trkpt>
      <trkpt lat="45.87163" lon="4.73113">
        <ele>204</ele>
        <time>2018-05-06T09:25:42Z</time>
      </trkpt>
      <trkpt lat="45.87164" lon="4.73102">
        <ele>204</ele>
        <time>2018-05-06T09:25:43Z</time>
      </trkpt>
      <trkpt lat="45.87164" lon="4.7309">
        <ele>204</ele>
        <time>2018-05-06T09:25:44Z</time>
      </trkpt>
      <trkpt lat="45.87163" lon="4.73079">
        <ele>204</ele>
        <time>2018-05-06T09:25:45Z</time>
      </trkpt>
      <trkpt lat="45.87163" lon="4.73069">
        <ele>204</ele>
        <time>2018-05-06T09:25:46Z</time>
      </trkpt>
      <trkpt lat="45.87164" lon="4.73059">
        <ele>205</ele>
        <time>2018-05-06T09:25:47Z</time>
      </trkpt>
      <trkpt lat="45.87164" lon="4.73049">
        <ele>205</ele>
        <time>2018-05-06T09:25:48Z</time>
      </trkpt>
      <trkpt lat="45.87164" lon="4.73039">
        <ele>205</ele>
        <time>2018-05-06T09:25:49Z</time>
      </trkpt>
      <trkpt lat="45.87165" lon="4.73028">
        <ele>205</ele>
        <time>2018-05-06T09:25:50Z</time>
      </trkpt>
      <trkpt lat="45.87164" lon="4.73018">
        <ele>205</ele>
        <time>2018-05-06T09:25:51Z</time>
      </trkpt>
      <trkpt lat="45.87166" lon="4.7301">
        <ele>205</ele>
        <time>2018-05-06T09:25:52Z</time>
      </trkpt>
      <trkpt lat="45.87168" lon="4.73002">
        <ele>204</ele>
        <time>2018-05-06T09:25:53Z</time>
      </trkpt>
      <trkpt lat="45.87168" lon="4.72992">
        <ele>203</ele>
        <time>2018-05-06T09:25:54Z</time>
      </trkpt>
      <trkpt lat="45.87169" lon="4.72982">
        <ele>202</ele>
        <time>2018-05-06T09:25:55Z</time>
      </trkpt>
      <trkpt lat="45.87169" lon="4.72973">
        <ele>202</ele>
        <time>2018-05-06T09:25:56Z</time>
      </trkpt>
      <trkpt lat="45.8717" lon="4.72964">
        <ele>202</ele>
        <time>2018-05-06T09:25:57Z</time>
      </trkpt>
      <trkpt lat="45.87169" lon="4.72955">
        <ele>201</ele>
        <time>2018-05-06T09:25:58Z</time>
      </trkpt>
      <trkpt lat="45.8717" lon="4.72946">
        <ele>202</ele>
        <time>2018-05-06T09:25:59Z</time>
      </trkpt>
      <trkpt lat="45.8717" lon="4.72937">
        <ele>202</ele>
        <time>2018-05-06T09:26:00Z</time>
      </trkpt>
      <trkpt lat="45.87169" lon="4.72928">
        <ele>203</ele>
        <time>2018-05-06T09:26:01Z</time>
      </trkpt>
      <trkpt lat="45.8717" lon="4.72917">
        <ele>204</ele>
        <time>2018-05-06T09:26:02Z</time>
      </trkpt>
      <trkpt lat="45.87167" lon="4.72907">
        <ele>202</ele>
        <time>2018-05-06T09:26:03Z</time>
      </trkpt>
      <trkpt lat="45.87167" lon="4.72897">
        <ele>201</ele>
        <time>2018-05-06T09:26:04Z</time>
      </trkpt>
      <trkpt lat="45.87167" lon="4.72887">
        <ele>201</ele>
        <time>2018-05-06T09:26:05Z</time>
      </trkpt>
      <trkpt lat="45.87168" lon="4.72878">
        <ele>200</ele>
        <time>2018-05-06T09:26:06Z</time>
      </trkpt>
      <trkpt lat="45.87168" lon="4.72867">
        <ele>200</ele>
        <time>2018-05-06T09:26:07Z</time>
      </trkpt>
      <trkpt lat="45.87169" lon="4.72856">
        <ele>200</ele>
        <time>2018-05-06T09:26:08Z</time>
      </trkpt>
      <trkpt lat="45.8717" lon="4.72846">
        <ele>201</ele>
        <time>2018-05-06T09:26:09Z</time>
      </trkpt>
      <trkpt lat="45.8717" lon="4.72835">
        <ele>202</ele>
        <time>2018-05-06T09:26:10Z</time>
      </trkpt>
      <trkpt lat="45.8717" lon="4.72823">
        <ele>201</ele>
        <time>2018-05-06T09:26:11Z</time>
      </trkpt>
      <trkpt lat="45.8717" lon="4.72813">
        <ele>200</ele>
        <time>2018-05-06T09:26:12Z</time>
      </trkpt>
      <trkpt lat="45.87171" lon="4.72801">
        <ele>199</ele>
        <time>2018-05-06T09:26:13Z</time>
      </trkpt>
      <trkpt lat="45.87171" lon="4.7279">
        <ele>199</ele>
        <time>2018-05-06T09:26:14Z</time>
      </trkpt>
      <trkpt lat="45.8717" lon="4.72778">
        <ele>199</ele>
        <time>2018-05-06T09:26:15Z</time>
      </trkpt>
      <trkpt lat="45.87171" lon="4.72765">
        <ele>200</ele>
        <time>2018-05-06T09:26:16Z</time>
      </trkpt>
      <trkpt lat="45.87172" lon="4.72753">
        <ele>200</ele>
        <time>2018-05-06T09:26:17Z</time>
      </trkpt>
      <trkpt lat="45.87176" lon="4.72742">
        <ele>200</ele>
        <time>2018-05-06T09:26:18Z</time>
      </trkpt>
      <trkpt lat="45.87177" lon="4.72729">
        <ele>199</ele>
        <time>2018-05-06T09:26:19Z</time>
      </trkpt>
      <trkpt lat="45.8718" lon="4.72717">
        <ele>199</ele>
        <time>2018-05-06T09:26:20Z</time>
      </trkpt>
      <trkpt lat="45.87183" lon="4.72705">
        <ele>199</ele>
        <time>2018-05-06T09:26:21Z</time>
      </trkpt>
      <trkpt lat="45.87185" lon="4.72694">
        <ele>199</ele>
        <time>2018-05-06T09:26:22Z</time>
      </trkpt>
      <trkpt lat="45.87188" lon="4.72683">
        <ele>199</ele>
        <time>2018-05-06T09:26:23Z</time>
      </trkpt>
      <trkpt lat="45.87192" lon="4.72671">
        <ele>199</ele>
        <time>2018-05-06T09:26:24Z</time>
      </trkpt>
      <trkpt lat="45.87195" lon="4.7266">
        <ele>199</ele>
        <time>2018-05-06T09:26:25Z</time>
      </trkpt>
      <trkpt lat="45.87198" lon="4.72652">
        <ele>199</ele>
        <time>2018-05-06T09:26:26Z</time>
      </trkpt>
      <trkpt lat="45.872" lon="4.72641">
        <ele>199</ele>
        <time>2018-05-06T09:26:27Z</time>
      </trkpt>
      <trkpt lat="45.87204" lon="4.7263">
        <ele>199</ele>
        <time>2018-05-06T09:26:28Z</time>
      </trkpt>
      <trkpt lat="45.87207" lon="4.72619">
        <ele>199</ele>
        <time>2018-05-06T09:26:29Z</time>
      </trkpt>
      <trkpt lat="45.87209" lon="4.72607">
        <ele>199</ele>
        <time>2018-05-06T09:26:30Z</time>
      </trkpt>
      <trkpt lat="45.87211" lon="4.72596">
        <ele>199</ele>
        <time>2018-05-06T09:26:31Z</time>
      </trkpt>
      <trkpt lat="45.87213" lon="4.72583">
        <ele>199</ele>
        <time>2018-05-06T09:26:32Z</time>
      </trkpt>
      <trkpt lat="45.87214" lon="4.72571">
        <ele>198</ele>
        <time>2018-05-06T09:26:33Z</time>
      </trkpt>
      <trkpt lat="45.87214" lon="4.72559">
        <ele>198</ele>
        <time>2018-05-06T09:26:34Z</time>
      </trkpt>
      <trkpt lat="45.87213" lon="4.72547">
        <ele>198</ele>
        <time>2018-05-06T09:26:35Z</time>
      </trkpt>
      <trkpt lat="45.87212" lon="4.72534">
        <ele>198</ele>
        <time>2018-05-06T09:26:36Z</time>
      </trkpt>
      <trkpt lat="45.87211" lon="4.72522">
        <ele>198</ele>
        <time>2018-05-06T09:26:37Z</time>
      </trkpt>
      <trkpt lat="45.87209" lon="4.72512">
        <ele>198</ele>
        <time>2018-05-06T09:26:38Z</time>
      </trkpt>
      <trkpt lat="45.87206" lon="4.72501">
        <ele>198</ele>
        <time>2018-05-06T09:26:39Z</time>
      </trkpt>
      <trkpt lat="45.87203" lon="4.72489">
        <ele>195</ele>
        <time>2018-05-06T09:26:40Z</time>
      </trkpt>
      <trkpt lat="45.87199" lon="4.72479">
        <ele>195</ele>
        <time>2018-05-06T09:26:41Z</time>
      </trkpt>
      <trkpt lat="45.87194" lon="4.72468">
        <ele>195</ele>
        <time>2018-05-06T09:26:42Z</time>
      </trkpt>
      <trkpt lat="45.8719" lon="4.72458">
        <ele>195</ele>
        <time>2018-05-06T09:26:43Z</time>
      </trkpt>
      <trkpt lat="45.87187" lon="4.72448">
        <ele>194</ele>
        <time>2018-05-06T09:26:44Z</time>
      </trkpt>
      <trkpt lat="45.87183" lon="4.72439">
        <ele>194</ele>
        <time>2018-05-06T09:26:45Z</time>
      </trkpt>
      <trkpt lat="45.87179" lon="4.7243">
        <ele>194</ele>
        <time>2018-05-06T09:26:46Z</time>
      </trkpt>
      <trkpt lat="45.87177" lon="4.72419">
        <ele>194</ele>
        <time>2018-05-06T09:26:47Z</time>
      </trkpt>
      <trkpt lat="45.87172" lon="4.7241">
        <ele>193</ele>
        <time>2018-05-06T09:26:48Z</time>
      </trkpt>
      <trkpt lat="45.87168" lon="4.72401">
        <ele>192</ele>
        <time>2018-05-06T09:26:49Z</time>
      </trkpt>
      <trkpt lat="45.87164" lon="4.72393">
        <ele>197</ele>
        <time>2018-05-06T09:26:50Z</time>
      </trkpt>
      <trkpt lat="45.8716" lon="4.72384">
        <ele>197</ele>
        <time>2018-05-06T09:26:51Z</time>
      </trkpt>
      <trkpt lat="45.87156" lon="4.72376">
        <ele>197</ele>
        <time>2018-05-06T09:26:52Z</time>
      </trkpt>
      <trkpt lat="45.87152" lon="4.72367">
        <ele>197</ele>
        <time>2018-05-06T09:26:53Z</time>
      </trkpt>
      <trkpt lat="45.87149" lon="4.72357">
        <ele>196</ele>
        <time>2018-05-06T09:26:54Z</time>
      </trkpt>
      <trkpt lat="45.87145" lon="4.72346">
        <ele>196</ele>
        <time>2018-05-06T09:26:55Z</time>
      </trkpt>
      <trkpt lat="45.87141" lon="4.72338">
        <ele>196</ele>
        <time>2018-05-06T09:26:56Z</time>
      </trkpt>
      <trkpt lat="45.87138" lon="4.7233">
        <ele>195</ele>
        <time>2018-05-06T09:26:57Z</time>
      </trkpt>
      <trkpt lat="45.87135" lon="4.72323">
        <ele>195</ele>
        <time>2018-05-06T09:26:58Z</time>
      </trkpt>
      <trkpt lat="45.87132" lon="4.72313">
        <ele>196</ele>
        <time>2018-05-06T09:26:59Z</time>
      </trkpt>
      <trkpt lat="45.87128" lon="4.72305">
        <ele>196</ele>
        <time>2018-05-06T09:27:00Z</time>
      </trkpt>
      <trkpt lat="45.87123" lon="4.72298">
        <ele>196</ele>
        <time>2018-05-06T09:27:01Z</time>
      </trkpt>
      <trkpt lat="45.87118" lon="4.7229">
        <ele>197</ele>
        <time>2018-05-06T09:27:02Z</time>
      </trkpt>
      <trkpt lat="45.87113" lon="4.72282">
        <ele>197</ele>
        <time>2018-05-06T09:27:03Z</time>
      </trkpt>
      <trkpt lat="45.87107" lon="4.72274">
        <ele>197</ele>
        <time>2018-05-06T09:27:04Z</time>
      </trkpt>
      <trkpt lat="45.87101" lon="4.72266">
        <ele>197</ele>
        <time>2018-05-06T09:27:05Z</time>
      </trkpt>
      <trkpt lat="45.87094" lon="4.72259">
        <ele>198</ele>
        <time>2018-05-06T09:27:06Z</time>
      </trkpt>
      <trkpt lat="45.87089" lon="4.72253">
        <ele>198</ele>
        <time>2018-05-06T09:27:07Z</time>
      </trkpt>
      <trkpt lat="45.87083" lon="4.72245">
        <ele>198</ele>
        <time>2018-05-06T09:27:08Z</time>
      </trkpt>
      <trkpt lat="45.87078" lon="4.7224">
        <ele>200</ele>
        <time>2018-05-06T09:27:09Z</time>
      </trkpt>
      <trkpt lat="45.87072" lon="4.72234">
        <ele>200</ele>
        <time>2018-05-06T09:27:10Z</time>
      </trkpt>
      <trkpt lat="45.87067" lon="4.72228">
        <ele>200</ele>
        <time>2018-05-06T09:27:11Z</time>
      </trkpt>
      <trkpt lat="45.87061" lon="4.72223">
        <ele>200</ele>
        <time>2018-05-06T09:27:12Z</time>
      </trkpt>
      <trkpt lat="45.87056" lon="4.72217">
        <ele>200</ele>
        <time>2018-05-06T09:27:13Z</time>
      </trkpt>
      <trkpt lat="45.87049" lon="4.72211">
        <ele>200</ele>
        <time>2018-05-06T09:27:14Z</time>
      </trkpt>
      <trkpt lat="45.87043" lon="4.72204">
        <ele>200</ele>
        <time>2018-05-06T09:27:15Z</time>
      </trkpt>
      <trkpt lat="45.87036" lon="4.72197">
        <ele>200</ele>
        <time>2018-05-06T09:27:16Z</time>
      </trkpt>
      <trkpt lat="45.8703" lon="4.72195">
        <ele>201</ele>
        <time>2018-05-06T09:27:17Z</time>
      </trkpt>
      <trkpt lat="45.87023" lon="4.7219">
        <ele>201</ele>
        <time>2018-05-06T09:27:18Z</time>
      </trkpt>
      <trkpt lat="45.87015" lon="4.72185">
        <ele>201</ele>
        <time>2018-05-06T09:27:19Z</time>
      </trkpt>
      <trkpt lat="45.87009" lon="4.7218">
        <ele>201</ele>
        <time>2018-05-06T09:27:20Z</time>
      </trkpt>
      <trkpt lat="45.87002" lon="4.72175">
        <ele>201</ele>
        <time>2018-05-06T09:27:21Z</time>
      </trkpt>
      <trkpt lat="45.86995" lon="4.72171">
        <ele>204</ele>
        <time>2018-05-06T09:27:22Z</time>
      </trkpt>
      <trkpt lat="45.86989" lon="4.72167">
        <ele>205</ele>
        <time>2018-05-06T09:27:23Z</time>
      </trkpt>
      <trkpt lat="45.86982" lon="4.72162">
        <ele>201</ele>
        <time>2018-05-06T09:27:24Z</time>
      </trkpt>
      <trkpt lat="45.86976" lon="4.72158">
        <ele>201</ele>
        <time>2018-05-06T09:27:25Z</time>
      </trkpt>
      <trkpt lat="45.8697" lon="4.72153">
        <ele>201</ele>
        <time>2018-05-06T09:27:26Z</time>
      </trkpt>
      <trkpt lat="45.86963" lon="4.72149">
        <ele>201</ele>
        <time>2018-05-06T09:27:27Z</time>
      </trkpt>
      <trkpt lat="45.86957" lon="4.72144">
        <ele>201</ele>
        <time>2018-05-06T09:27:28Z</time>
      </trkpt>
      <trkpt lat="45.86951" lon="4.7214">
        <ele>201</ele>
        <time>2018-05-06T09:27:29Z</time>
      </trkpt>
      <trkpt lat="45.86944" lon="4.72136">
        <ele>201</ele>
        <time>2018-05-06T09:27:30Z</time>
      </trkpt>
      <trkpt lat="45.86938" lon="4.72132">
        <ele>201</ele>
        <time>2018-05-06T09:27:31Z</time>
      </trkpt>
      <trkpt lat="45.86932" lon="4.7213">
        <ele>201</ele>
        <time>2018-05-06T09:27:32Z</time>
      </trkpt>
      <trkpt lat="45.86926" lon="4.72127">
        <ele>200</ele>
        <time>2018-05-06T09:27:33Z</time>
      </trkpt>
      <trkpt lat="45.8692" lon="4.72124">
        <ele>200</ele>
        <time>2018-05-06T09:27:34Z</time>
      </trkpt>
      <trkpt lat="45.86913" lon="4.72121">
        <ele>202</ele>
        <time>2018-05-06T09:27:35Z</time>
      </trkpt>
      <trkpt lat="45.86907" lon="4.72118">
        <ele>201</ele>
        <time>2018-05-06T09:27:36Z</time>
      </trkpt>
      <trkpt lat="45.86901" lon="4.72116">
        <ele>201</ele>
        <time>2018-05-06T09:27:37Z</time>
      </trkpt>
      <trkpt lat="45.86894" lon="4.72114">
        <ele>201</ele>
        <time>2018-05-06T09:27:38Z</time>
      </trkpt>
      <trkpt lat="45.86888" lon="4.72111">
        <ele>201</ele>
        <time>2018-05-06T09:27:39Z</time>
      </trkpt>
      <trkpt lat="45.86883" lon="4.72108">
        <ele>200</ele>
        <time>2018-05-06T09:27:40Z</time>
      </trkpt>
      <trkpt lat="45.86877" lon="4.72106">
        <ele>200</ele>
        <time>2018-05-06T09:27:41Z</time>
      </trkpt>
      <trkpt lat="45.86872" lon="4.72103">
        <ele>200</ele>
        <time>2018-05-06T09:27:42Z</time>
      </trkpt>
      <trkpt lat="45.86866" lon="4.72099">
        <ele>200</ele>
        <time>2018-05-06T09:27:43Z</time>
      </trkpt>
      <trkpt lat="45.8686" lon="4.72101">
        <ele>200</ele>
        <time>2018-05-06T09:27:44Z</time>
      </trkpt>
      <trkpt lat="45.86855" lon="4.72096">
        <ele>199</ele>
        <time>2018-05-06T09:27:45Z</time>
      </trkpt>
      <trkpt lat="45.86849" lon="4.72094">
        <ele>198</ele>
        <time>2018-05-06T09:27:46Z</time>
      </trkpt>
      <trkpt lat="45.86843" lon="4.72092">
        <ele>197</ele>
        <time>2018-05-06T09:27:47Z</time>
      </trkpt>
      <trkpt lat="45.86838" lon="4.72089">
        <ele>196</ele>
        <time>2018-05-06T09:27:48Z</time>
      </trkpt>
      <trkpt lat="45.86832" lon="4.72084">
        <ele>194</ele>
        <time>2018-05-06T09:27:49Z</time>
      </trkpt>
      <trkpt lat="45.86826" lon="4.72081">
        <ele>193</ele>
        <time>2018-05-06T09:27:50Z</time>
      </trkpt>
      <trkpt lat="45.8682" lon="4.72078">
        <ele>193</ele>
        <time>2018-05-06T09:27:51Z</time>
      </trkpt>
      <trkpt lat="45.86814" lon="4.72078">
        <ele>194</ele>
        <time>2018-05-06T09:27:52Z</time>
      </trkpt>
      <trkpt lat="45.86807" lon="4.72076">
        <ele>194</ele>
        <time>2018-05-06T09:27:53Z</time>
      </trkpt>
      <trkpt lat="45.86801" lon="4.72072">
        <ele>194</ele>
        <time>2018-05-06T09:27:54Z</time>
      </trkpt>
      <trkpt lat="45.86795" lon="4.72069">
        <ele>194</ele>
        <time>2018-05-06T09:27:55Z</time>
      </trkpt>
      <trkpt lat="45.86789" lon="4.72067">
        <ele>194</ele>
        <time>2018-05-06T09:27:56Z</time>
      </trkpt>
      <trkpt lat="45.86783" lon="4.72065">
        <ele>194</ele>
        <time>2018-05-06T09:27:57Z</time>
      </trkpt>
      <trkpt lat="45.86777" lon="4.72063">
        <ele>194</ele>
        <time>2018-05-06T09:27:58Z</time>
      </trkpt>
      <trkpt lat="45.8677" lon="4.7206">
        <ele>195</ele>
        <time>2018-05-06T09:27:59Z</time>
      </trkpt>
      <trkpt lat="45.86764" lon="4.72058">
        <ele>195</ele>
        <time>2018-05-06T09:28:00Z</time>
      </trkpt>
      <trkpt lat="45.86759" lon="4.72055">
        <ele>195</ele>
        <time>2018-05-06T09:28:01Z</time>
      </trkpt>
      <trkpt lat="45.86752" lon="4.72052">
        <ele>195</ele>
        <time>2018-05-06T09:28:02Z</time>
      </trkpt>
      <trkpt lat="45.86747" lon="4.72049">
        <ele>197</ele>
        <time>2018-05-06T09:28:03Z</time>
      </trkpt>
      <trkpt lat="45.8674" lon="4.72046">
        <ele>197</ele>
        <time>2018-05-06T09:28:04Z</time>
      </trkpt>
      <trkpt lat="45.86735" lon="4.72044">
        <ele>197</ele>
        <time>2018-05-06T09:28:05Z</time>
      </trkpt>
      <trkpt lat="45.86729" lon="4.7204">
        <ele>197</ele>
        <time>2018-05-06T09:28:06Z</time>
      </trkpt>
      <trkpt lat="45.86723" lon="4.72037">
        <ele>197</ele>
        <time>2018-05-06T09:28:07Z</time>
      </trkpt>
      <trkpt lat="45.86722" lon="4.7203">
        <ele>197</ele>
        <time>2018-05-06T09:28:08Z</time>
      </trkpt>
      <trkpt lat="45.86716" lon="4.72028">
        <ele>197</ele>
        <time>2018-05-06T09:28:09Z</time>
      </trkpt>
      <trkpt lat="45.8671" lon="4.72025">
        <ele>197</ele>
        <time>2018-05-06T09:28:10Z</time>
      </trkpt>
      <trkpt lat="45.86705" lon="4.72021">
        <ele>197</ele>
        <time>2018-05-06T09:28:11Z</time>
      </trkpt>
      <trkpt lat="45.86701" lon="4.72016">
        <ele>196</ele>
        <time>2018-05-06T09:28:12Z</time>
      </trkpt>
      <trkpt lat="45.86695" lon="4.72012">
        <ele>196</ele>
        <time>2018-05-06T09:28:13Z</time>
      </trkpt>
      <trkpt lat="45.86689" lon="4.72009">
        <ele>196</ele>
        <time>2018-05-06T09:28:14Z</time>
      </trkpt>
      <trkpt lat="45.86684" lon="4.72005">
        <ele>196</ele>
        <time>2018-05-06T09:28:15Z</time>
      </trkpt>
      <trkpt lat="45.86676" lon="4.72">
        <ele>196</ele>
        <time>2018-05-06T09:28:16Z</time>
      </trkpt>
      <trkpt lat="45.86671" lon="4.71997">
        <ele>195</ele>
        <time>2018-05-06T09:28:17Z</time>
      </trkpt>
      <trkpt lat="45.86664" lon="4.71994">
        <ele>195</ele>
        <time>2018-05-06T09:28:18Z</time>
      </trkpt>
      <trkpt lat="45.86659" lon="4.71989">
        <ele>195</ele>
        <time>2018-05-06T09:28:19Z</time>
      </trkpt>
      <trkpt lat="45.86653" lon="4.71984">
        <ele>195</ele>
        <time>2018-05-06T09:28:20Z</time>
      </trkpt>
      <trkpt lat="45.86648" lon="4.7198">
        <ele>195</ele>
        <time>2018-05-06T09:28:21Z</time>
      </trkpt>
      <trkpt lat="45.86641" lon="4.71974">
        <ele>195</ele>
        <time>2018-05-06T09:28:22Z</time>
      </trkpt>
      <trkpt lat="45.86635" lon="4.71971">
        <ele>195</ele>
        <time>2018-05-06T09:28:23Z</time>
      </trkpt>
      <trkpt lat="45.86628" lon="4.71967">
        <ele>195</ele>
        <time>2018-05-06T09:28:24Z</time>
      </trkpt>
      <trkpt lat="45.86623" lon="4.71963">
        <ele>195</ele>
        <time>2018-05-06T09:28:25Z</time>
      </trkpt>
      <trkpt lat="45.86617" lon="4.71959">
        <ele>195</ele>
        <time>2018-05-06T09:28:26Z</time>
      </trkpt>
      <trkpt lat="45.86612" lon="4.71955">
        <ele>194</ele>
        <time>2018-05-06T09:28:27Z</time>
      </trkpt>
      <trkpt lat="45.86606" lon="4.7195">
        <ele>194</ele>
        <time>2018-05-06T09:28:28Z</time>
      </trkpt>
      <trkpt lat="45.86601" lon="4.71945">
        <ele>194</ele>
        <time>2018-05-06T09:28:29Z</time>
      </trkpt>
      <trkpt lat="45.86595" lon="4.71941">
        <ele>194</ele>
        <time>2018-05-06T09:28:30Z</time>
      </trkpt>
      <trkpt lat="45.86588" lon="4.71937">
        <ele>194</ele>
        <time>2018-05-06T09:28:31Z</time>
      </trkpt>
      <trkpt lat="45.86582" lon="4.71933">
        <ele>195</ele>
        <time>2018-05-06T09:28:32Z</time>
      </trkpt>
      <trkpt lat="45.86577" lon="4.71928">
        <ele>195</ele>
        <time>2018-05-06T09:28:33Z</time>
      </trkpt>
      <trkpt lat="45.86571" lon="4.71924">
        <ele>195</ele>
        <time>2018-05-06T09:28:34Z</time>
      </trkpt>
      <trkpt lat="45.86566" lon="4.71919">
        <ele>195</ele>
        <time>2018-05-06T09:28:35Z</time>
      </trkpt>
      <trkpt lat="45.86562" lon="4.71916">
        <ele>195</ele>
        <time>2018-05-06T09:28:36Z</time>
      </trkpt>
      <trkpt lat="45.86556" lon="4.71911">
        <ele>195</ele>
        <time>2018-05-06T09:28:37Z</time>
      </trkpt>
      <trkpt lat="45.8655" lon="4.71907">
        <ele>195</ele>
        <time>2018-05-06T09:28:38Z</time>
      </trkpt>
      <trkpt lat="45.86546" lon="4.71902">
        <ele>195</ele>
        <time>2018-05-06T09:28:39Z</time>
      </trkpt>
      <trkpt lat="45.8654" lon="4.71898">
        <ele>195</ele>
        <time>2018-05-06T09:28:40Z</time>
      </trkpt>
      <trkpt lat="45.86536" lon="4.71894">
        <ele>195</ele>
        <time>2018-05-06T09:28:41Z</time>
      </trkpt>
      <trkpt lat="45.8653" lon="4.7189">
        <ele>195</ele>
        <time>2018-05-06T09:28:42Z</time>
      </trkpt>
      <trkpt lat="45.86524" lon="4.71884">
        <ele>195</ele>
        <time>2018-05-06T09:28:43Z</time>
      </trkpt>
      <trkpt lat="45.86519" lon="4.71879">
        <ele>195</ele>
        <time>2018-05-06T09:28:44Z</time>
      </trkpt>
      <trkpt lat="45.86513" lon="4.71877">
        <ele>195</ele>
        <time>2018-05-06T09:28:45Z</time>
      </trkpt>
      <trkpt lat="45.86508" lon="4.71873">
        <ele>195</ele>
        <time>2018-05-06T09:28:46Z</time>
      </trkpt>
      <trkpt lat="45.86504" lon="4.71869">
        <ele>195</ele>
        <time>2018-05-06T09:28:47Z</time>
      </trkpt>
      <trkpt lat="45.86499" lon="4.71866">
        <ele>198</ele>
        <time>2018-05-06T09:28:48Z</time>
      </trkpt>
      <trkpt lat="45.86494" lon="4.71863">
        <ele>198</ele>
        <time>2018-05-06T09:28:49Z</time>
      </trkpt>
      <trkpt lat="45.86488" lon="4.7186">
        <ele>198</ele>
        <time>2018-05-06T09:28:50Z</time>
      </trkpt>
      <trkpt lat="45.86485" lon="4.71857">
        <ele>198</ele>
        <time>2018-05-06T09:28:51Z</time>
      </trkpt>
      <trkpt lat="45.86479" lon="4.71855">
        <ele>198</ele>
        <time>2018-05-06T09:28:52Z</time>
      </trkpt>
      <trkpt lat="45.86475" lon="4.71852">
        <ele>199</ele>
        <time>2018-05-06T09:28:53Z</time>
      </trkpt>
      <trkpt lat="45.8647" lon="4.71847">
        <ele>199</ele>
        <time>2018-05-06T09:28:54Z</time>
      </trkpt>
      <trkpt lat="45.86465" lon="4.71842">
        <ele>199</ele>
        <time>2018-05-06T09:28:55Z</time>
      </trkpt>
      <trkpt lat="45.86461" lon="4.71839">
        <ele>199</ele>
        <time>2018-05-06T09:28:56Z</time>
      </trkpt>
      <trkpt lat="45.86456" lon="4.71833">
        <ele>197</ele>
        <time>2018-05-06T09:28:57Z</time>
      </trkpt>
      <trkpt lat="45.86451" lon="4.71829">
        <ele>197</ele>
        <time>2018-05-06T09:28:58Z</time>
      </trkpt>
      <trkpt lat="45.86447" lon="4.71826">
        <ele>197</ele>
        <time>2018-05-06T09:28:59Z</time>
      </trkpt>
      <trkpt lat="45.86442" lon="4.71822">
        <ele>197</ele>
        <time>2018-05-06T09:29:00Z</time>
      </trkpt>
      <trkpt lat="45.86437" lon="4.71817">
        <ele>198</ele>
        <time>2018-05-06T09:29:01Z</time>
      </trkpt>
      <trkpt lat="45.86431" lon="4.71813">
        <ele>198</ele>
        <time>2018-05-06T09:29:02Z</time>
      </trkpt>
      <trkpt lat="45.86425" lon="4.71806">
        <ele>197</ele>
        <time>2018-05-06T09:29:03Z</time>
      </trkpt>
      <trkpt lat="45.86421" lon="4.71806">
        <ele>197</ele>
        <time>2018-05-06T09:29:04Z</time>
      </trkpt>
      <trkpt lat="45.86415" lon="4.71801">
        <ele>199</ele>
        <time>2018-05-06T09:29:05Z</time>
      </trkpt>
      <trkpt lat="45.8641" lon="4.71797">
        <ele>199</ele>
        <time>2018-05-06T09:29:06Z</time>
      </trkpt>
      <trkpt lat="45.86404" lon="4.71793">
        <ele>199</ele>
        <time>2018-05-06T09:29:07Z</time>
      </trkpt>
      <trkpt lat="45.86399" lon="4.71789">
        <ele>198</ele>
        <time>2018-05-06T09:29:08Z</time>
      </trkpt>
      <trkpt lat="45.86393" lon="4.71785">
        <ele>198</ele>
        <time>2018-05-06T09:29:09Z</time>
      </trkpt>
      <trkpt lat="45.86388" lon="4.71783">
        <ele>198</ele>
        <time>2018-05-06T09:29:10Z</time>
      </trkpt>
      <trkpt lat="45.86383" lon="4.71779">
        <ele>198</ele>
        <time>2018-05-06T09:29:11Z</time>
      </trkpt>
      <trkpt lat="45.86378" lon="4.71775">
        <ele>198</ele>
        <time>2018-05-06T09:29:12Z</time>
      </trkpt>
      <trkpt lat="45.86373" lon="4.71771">
        <ele>198</ele>
        <time>2018-05-06T09:29:13Z</time>
      </trkpt>
      <trkpt lat="45.86368" lon="4.71766">
        <ele>198</ele>
        <time>2018-05-06T09:29:14Z</time>
      </trkpt>
      <trkpt lat="45.86363" lon="4.71761">
        <ele>198</ele>
        <time>2018-05-06T09:29:15Z</time>
      </trkpt>
      <trkpt lat="45.86358" lon="4.71756">
        <ele>198</ele>
        <time>2018-05-06T09:29:16Z</time>
      </trkpt>
      <trkpt lat="45.86353" lon="4.71752">
        <ele>197</ele>
        <time>2018-05-06T09:29:17Z</time>
      </trkpt>
      <trkpt lat="45.86349" lon="4.71748">
        <ele>195</ele>
        <time>2018-05-06T09:29:18Z</time>
      </trkpt>
      <trkpt lat="45.86344" lon="4.71744">
        <ele>195</ele>
        <time>2018-05-06T09:29:19Z</time>
      </trkpt>
      <trkpt lat="45.86339" lon="4.7174">
        <ele>195</ele>
        <time>2018-05-06T09:29:20Z</time>
      </trkpt>
      <trkpt lat="45.86334" lon="4.71736">
        <ele>195</ele>
        <time>2018-05-06T09:29:21Z</time>
      </trkpt>
      <trkpt lat="45.8633" lon="4.71733">
        <ele>196</ele>
        <time>2018-05-06T09:29:22Z</time>
      </trkpt>
      <trkpt lat="45.86326" lon="4.71729">
        <ele>196</ele>
        <time>2018-05-06T09:29:23Z</time>
      </trkpt>
      <trkpt lat="45.8632" lon="4.71725">
        <ele>196</ele>
        <time>2018-05-06T09:29:24Z</time>
      </trkpt>
      <trkpt lat="45.86316" lon="4.71721">
        <ele>196</ele>
        <time>2018-05-06T09:29:25Z</time>
      </trkpt>
      <trkpt lat="45.86311" lon="4.71717">
        <ele>196</ele>
        <time>2018-05-06T09:29:26Z</time>
      </trkpt>
      <trkpt lat="45.86304" lon="4.71715">
        <ele>196</ele>
        <time>2018-05-06T09:29:27Z</time>
      </trkpt>
      <trkpt lat="45.86299" lon="4.71711">
        <ele>195</ele>
        <time>2018-05-06T09:29:28Z</time>
      </trkpt>
      <trkpt lat="45.86294" lon="4.71707">
        <ele>195</ele>
        <time>2018-05-06T09:29:29Z</time>
      </trkpt>
      <trkpt lat="45.86289" lon="4.71703">
        <ele>195</ele>
        <time>2018-05-06T09:29:30Z</time>
      </trkpt>
      <trkpt lat="45.86284" lon="4.71697">
        <ele>195</ele>
        <time>2018-05-06T09:29:31Z</time>
      </trkpt>
      <trkpt lat="45.8628" lon="4.71693">
        <ele>195</ele>
        <time>2018-05-06T09:29:32Z</time>
      </trkpt>
      <trkpt lat="45.86276" lon="4.7169">
        <ele>195</ele>
        <time>2018-05-06T09:29:33Z</time>
      </trkpt>
      <trkpt lat="45.86271" lon="4.71687">
        <ele>195</ele>
        <time>2018-05-06T09:29:34Z</time>
      </trkpt>
      <trkpt lat="45.86266" lon="4.71684">
        <ele>195</ele>
        <time>2018-05-06T09:29:35Z</time>
      </trkpt>
      <trkpt lat="45.86261" lon="4.71681">
        <ele>195</ele>
        <time>2018-05-06T09:29:36Z</time>
      </trkpt>
      <trkpt lat="45.86256" lon="4.71677">
        <ele>195</ele>
        <time>2018-05-06T09:29:37Z</time>
      </trkpt>
      <trkpt lat="45.86251" lon="4.71673">
        <ele>195</ele>
        <time>2018-05-06T09:29:38Z</time>
      </trkpt>
      <trkpt lat="45.86246" lon="4.7167">
        <ele>195</ele>
        <time>2018-05-06T09:29:39Z</time>
      </trkpt>
      <trkpt lat="45.86242" lon="4.71667">
        <ele>195</ele>
        <time>2018-05-06T09:29:40Z</time>
      </trkpt>
      <trkpt lat="45.86238" lon="4.71664">
        <ele>195</ele>
        <time>2018-05-06T09:29:41Z</time>
      </trkpt>
      <trkpt lat="45.86233" lon="4.7166">
        <ele>195</ele>
        <time>2018-05-06T09:29:42Z</time>
      </trkpt>
      <trkpt lat="45.86228" lon="4.71656">
        <ele>195</ele>
        <time>2018-05-06T09:29:43Z</time>
      </trkpt>
      <trkpt lat="45.86225" lon="4.7165">
        <ele>195</ele>
        <time>2018-05-06T09:29:44Z</time>
      </trkpt>
      <trkpt lat="45.86218" lon="4.71646">
        <ele>195</ele>
        <time>2018-05-06T09:29:46Z</time>
      </trkpt>
      <trkpt lat="45.86212" lon="4.71642">
        <ele>195</ele>
        <time>2018-05-06T09:29:47Z</time>
      </trkpt>
      <trkpt lat="45.86209" lon="4.71636">
        <ele>195</ele>
        <time>2018-05-06T09:29:48Z</time>
      </trkpt>
      <trkpt lat="45.86207" lon="4.7163">
        <ele>195</ele>
        <time>2018-05-06T09:29:49Z</time>
      </trkpt>
      <trkpt lat="45.86206" lon="4.71623">
        <ele>195</ele>
        <time>2018-05-06T09:29:50Z</time>
      </trkpt>
      <trkpt lat="45.86205" lon="4.71615">
        <ele>195</ele>
        <time>2018-05-06T09:29:51Z</time>
      </trkpt>
      <trkpt lat="45.86202" lon="4.7161">
        <ele>195</ele>
        <time>2018-05-06T09:29:52Z</time>
      </trkpt>
      <trkpt lat="45.86199" lon="4.71605">
        <ele>195</ele>
        <time>2018-05-06T09:29:53Z</time>
      </trkpt>
      <trkpt lat="45.86193" lon="4.71597">
        <ele>195</ele>
        <time>2018-05-06T09:29:55Z</time>
      </trkpt>
      <trkpt lat="45.86189" lon="4.7159">
        <ele>195</ele>
        <time>2018-05-06T09:29:56Z</time>
      </trkpt>
      <trkpt lat="45.86185" lon="4.71584">
        <ele>196</ele>
        <time>2018-05-06T09:29:57Z</time>
      </trkpt>
      <trkpt lat="45.86181" lon="4.71578">
        <ele>195</ele>
        <time>2018-05-06T09:29:58Z</time>
      </trkpt>
      <trkpt lat="45.86178" lon="4.71572">
        <ele>195</ele>
        <time>2018-05-06T09:29:59Z</time>
      </trkpt>
      <trkpt lat="45.86176" lon="4.71567">
        <ele>195</ele>
        <time>2018-05-06T09:30:00Z</time>
      </trkpt>
      <trkpt lat="45.86173" lon="4.71562">
        <ele>195</ele>
        <time>2018-05-06T09:30:01Z</time>
      </trkpt>
      <trkpt lat="45.86169" lon="4.71556">
        <ele>195</ele>
        <time>2018-05-06T09:30:02Z</time>
      </trkpt>
      <trkpt lat="45.86166" lon="4.71551">
        <ele>196</ele>
        <time>2018-05-06T09:30:03Z</time>
      </trkpt>
      <trkpt lat="45.86164" lon="4.71545">
        <ele>196</ele>
        <time>2018-05-06T09:30:04Z</time>
      </trkpt>
      <trkpt lat="45.86158" lon="4.71536">
        <ele>195</ele>
        <time>2018-05-06T09:30:06Z</time>
      </trkpt>
      <trkpt lat="45.86155" lon="4.7153">
        <ele>195</ele>
        <time>2018-05-06T09:30:07Z</time>
      </trkpt>
      <trkpt lat="45.86152" lon="4.71523">
        <ele>195</ele>
        <time>2018-05-06T09:30:08Z</time>
      </trkpt>
      <trkpt lat="45.86149" lon="4.71517">
        <ele>195</ele>
        <time>2018-05-06T09:30:09Z</time>
      </trkpt>
      <trkpt lat="45.86146" lon="4.71511">
        <ele>195</ele>
        <time>2018-05-06T09:30:10Z</time>
      </trkpt>
      <trkpt lat="45.86143" lon="4.71504">
        <ele>195</ele>
        <time>2018-05-06T09:30:11Z</time>
      </trkpt>
      <trkpt lat="45.8614" lon="4.71498">
        <ele>195</ele>
        <time>2018-05-06T09:30:12Z</time>
      </trkpt>
      <trkpt lat="45.86138" lon="4.71491">
        <ele>195</ele>
        <time>2018-05-06T09:30:13Z</time>
      </trkpt>
      <trkpt lat="45.86137" lon="4.71484">
        <ele>195</ele>
        <time>2018-05-06T09:30:14Z</time>
      </trkpt>
      <trkpt lat="45.86135" lon="4.71478">
        <ele>195</ele>
        <time>2018-05-06T09:30:15Z</time>
      </trkpt>
      <trkpt lat="45.86133" lon="4.7147">
        <ele>195</ele>
        <time>2018-05-06T09:30:16Z</time>
      </trkpt>
      <trkpt lat="45.86131" lon="4.71464">
        <ele>195</ele>
        <time>2018-05-06T09:30:17Z</time>
      </trkpt>
      <trkpt lat="45.86127" lon="4.71453">
        <ele>195</ele>
        <time>2018-05-06T09:30:19Z</time>
      </trkpt>
      <trkpt lat="45.86126" lon="4.71447">
        <ele>195</ele>
        <time>2018-05-06T09:30:20Z</time>
      </trkpt>
      <trkpt lat="45.86124" lon="4.7144">
        <ele>195</ele>
        <time>2018-05-06T09:30:21Z</time>
      </trkpt>
      <trkpt lat="45.86122" lon="4.71433">
        <ele>195</ele>
        <time>2018-05-06T09:30:22Z</time>
      </trkpt>
      <trkpt lat="45.86121" lon="4.71426">
        <ele>195</ele>
        <time>2018-05-06T09:30:23Z</time>
      </trkpt>
      <trkpt lat="45.86118" lon="4.71421">
        <ele>195</ele>
        <time>2018-05-06T09:30:24Z</time>
      </trkpt>
      <trkpt lat="45.86117" lon="4.71408">
        <ele>196</ele>
        <time>2018-05-06T09:30:26Z</time>
      </trkpt>
      <trkpt lat="45.86118" lon="4.71402">
        <ele>196</ele>
        <time>2018-05-06T09:30:27Z</time>
      </trkpt>
      <trkpt lat="45.86118" lon="4.71396">
        <ele>196</ele>
        <time>2018-05-06T09:30:28Z</time>
      </trkpt>
      <trkpt lat="45.86118" lon="4.71388">
        <ele>196</ele>
        <time>2018-05-06T09:30:29Z</time>
      </trkpt>
      <trkpt lat="45.86117" lon="4.71377">
        <ele>196</ele>
        <time>2018-05-06T09:30:31Z</time>
      </trkpt>
      <trkpt lat="45.86115" lon="4.71369">
        <ele>196</ele>
        <time>2018-05-06T09:30:32Z</time>
      </trkpt>
      <trkpt lat="45.86116" lon="4.71358">
        <ele>196</ele>
        <time>2018-05-06T09:30:34Z</time>
      </trkpt>
      <trkpt lat="45.86115" lon="4.71351">
        <ele>196</ele>
        <time>2018-05-06T09:30:35Z</time>
      </trkpt>
      <trkpt lat="45.86114" lon="4.71344">
        <ele>196</ele>
        <time>2018-05-06T09:30:36Z</time>
      </trkpt>
      <trkpt lat="45.86111" lon="4.71336">
        <ele>196</ele>
        <time>2018-05-06T09:30:37Z</time>
      </trkpt>
      <trkpt lat="45.8611" lon="4.71328">
        <ele>196</ele>
        <time>2018-05-06T09:30:38Z</time>
      </trkpt>
      <trkpt lat="45.86108" lon="4.7132">
        <ele>196</ele>
        <time>2018-05-06T09:30:39Z</time>
      </trkpt>
      <trkpt lat="45.86106" lon="4.71313">
        <ele>196</ele>
        <time>2018-05-06T09:30:40Z</time>
      </trkpt>
      <trkpt lat="45.86105" lon="4.71305">
        <ele>196</ele>
        <time>2018-05-06T09:30:41Z</time>
      </trkpt>
      <trkpt lat="45.86103" lon="4.71297">
        <ele>197</ele>
        <time>2018-05-06T09:30:42Z</time>
      </trkpt>
      <trkpt lat="45.861" lon="4.71291">
        <ele>197</ele>
        <time>2018-05-06T09:30:43Z</time>
      </trkpt>
      <trkpt lat="45.86099" lon="4.7128">
        <ele>197</ele>
        <time>2018-05-06T09:30:46Z</time>
      </trkpt>
      <trkpt lat="45.86099" lon="4.71278">
        <ele>197</ele>
        <time>2018-05-06T09:30:47Z</time>
      </trkpt>
      <trkpt lat="45.86101" lon="4.71274">
        <ele>197</ele>
        <time>2018-05-06T09:30:56Z</time>
      </trkpt>
      <trkpt lat="45.86101" lon="4.71273">
        <ele>197</ele>
        <time>2018-05-06T09:30:57Z</time>
      </trkpt>
      <trkpt lat="45.861" lon="4.71272">
        <ele>197</ele>
        <time>2018-05-06T09:31:14Z</time>
      </trkpt>
      <trkpt lat="45.861" lon="4.71272">
        <ele>197</ele>
        <time>2018-05-06T09:31:15Z</time>
      </trkpt>
      <trkpt lat="45.86093" lon="4.71265">
        <ele>197</ele>
        <time>2018-05-06T09:31:31Z</time>
      </trkpt>
      <trkpt lat="45.86092" lon="4.71263">
        <ele>197</ele>
        <time>2018-05-06T09:31:32Z</time>
      </trkpt>
      <trkpt lat="45.86087" lon="4.71255">
        <ele>198</ele>
        <time>2018-05-06T09:31:36Z</time>
      </trkpt>
      <trkpt lat="45.86085" lon="4.71253">
        <ele>198</ele>
        <time>2018-05-06T09:31:37Z</time>
      </trkpt>
      <trkpt lat="45.86085" lon="4.71241">
        <ele>198</ele>
        <time>2018-05-06T09:32:22Z</time>
      </trkpt>
      <trkpt lat="45.86085" lon="4.71239">
        <ele>197</ele>
        <time>2018-05-06T09:32:23Z</time>
      </trkpt>
      <trkpt lat="45.86086" lon="4.71228">
        <ele>197</ele>
        <time>2018-05-06T09:32:27Z</time>
      </trkpt>
      <trkpt lat="45.86086" lon="4.71226">
        <ele>197</ele>
        <time>2018-05-06T09:32:28Z</time>
      </trkpt>
      <trkpt lat="45.86088" lon="4.71215">
        <ele>197</ele>
        <time>2018-05-06T09:32:31Z</time>
      </trkpt>
      <trkpt lat="45.86089" lon="4.71212">
        <ele>197</ele>
        <time>2018-05-06T09:32:32Z</time>
      </trkpt>
      <trkpt lat="45.8609" lon="4.71205">
        <ele>197</ele>
        <time>2018-05-06T09:32:34Z</time>
      </trkpt>
      <trkpt lat="45.86092" lon="4.71192">
        <ele>197</ele>
        <time>2018-05-06T09:32:35Z</time>
      </trkpt>
      <trkpt lat="45.86093" lon="4.71186">
        <ele>197</ele>
        <time>2018-05-06T09:32:37Z</time>
      </trkpt>
      <trkpt lat="45.86095" lon="4.71175">
        <ele>197</ele>
        <time>2018-05-06T09:32:38Z</time>
      </trkpt>
      <trkpt lat="45.86096" lon="4.71166">
        <ele>197</ele>
        <time>2018-05-06T09:32:40Z</time>
      </trkpt>
      <trkpt lat="45.86096" lon="4.71155">
        <ele>197</ele>
        <time>2018-05-06T09:32:41Z</time>
      </trkpt>
      <trkpt lat="45.86095" lon="4.71149">
        <ele>197</ele>
        <time>2018-05-06T09:32:42Z</time>
      </trkpt>
      <trkpt lat="45.8609" lon="4.71143">
        <ele>197</ele>
        <time>2018-05-06T09:32:43Z</time>
      </trkpt>
      <trkpt lat="45.86087" lon="4.71139">
        <ele>197</ele>
        <time>2018-05-06T09:32:44Z</time>
      </trkpt>
      <trkpt lat="45.86083" lon="4.71135">
        <ele>197</ele>
        <time>2018-05-06T09:32:45Z</time>
      </trkpt>
      <trkpt lat="45.86079" lon="4.71131">
        <ele>197</ele>
        <time>2018-05-06T09:32:46Z</time>
      </trkpt>
      <trkpt lat="45.86075" lon="4.71128">
        <ele>197</ele>
        <time>2018-05-06T09:32:47Z</time>
      </trkpt>
      <trkpt lat="45.86069" lon="4.71123">
        <ele>197</ele>
        <time>2018-05-06T09:32:48Z</time>
      </trkpt>
      <trkpt lat="45.86064" lon="4.71118">
        <ele>197</ele>
        <time>2018-05-06T09:32:49Z</time>
      </trkpt>
      <trkpt lat="45.8606" lon="4.71113">
        <ele>197</ele>
        <time>2018-05-06T09:32:50Z</time>
      </trkpt>
      <trkpt lat="45.86057" lon="4.71107">
        <ele>197</ele>
        <time>2018-05-06T09:32:51Z</time>
      </trkpt>
      <trkpt lat="45.86054" lon="4.71101">
        <ele>197</ele>
        <time>2018-05-06T09:32:52Z</time>
      </trkpt>
      <trkpt lat="45.86051" lon="4.71096">
        <ele>197</ele>
        <time>2018-05-06T09:32:53Z</time>
      </trkpt>
      <trkpt lat="45.86048" lon="4.71091">
        <ele>197</ele>
        <time>2018-05-06T09:32:54Z</time>
      </trkpt>
      <trkpt lat="45.86044" lon="4.71085">
        <ele>197</ele>
        <time>2018-05-06T09:32:55Z</time>
      </trkpt>
      <trkpt lat="45.86042" lon="4.71079">
        <ele>196</ele>
        <time>2018-05-06T09:32:56Z</time>
      </trkpt>
      <trkpt lat="45.86041" lon="4.71071">
        <ele>197</ele>
        <time>2018-05-06T09:32:57Z</time>
      </trkpt>
      <trkpt lat="45.86038" lon="4.71062">
        <ele>197</ele>
        <time>2018-05-06T09:32:59Z</time>
      </trkpt>
      <trkpt lat="45.86037" lon="4.71056">
        <ele>197</ele>
        <time>2018-05-06T09:33:00Z</time>
      </trkpt>
      <trkpt lat="45.86037" lon="4.71047">
        <ele>197</ele>
        <time>2018-05-06T09:33:01Z</time>
      </trkpt>
      <trkpt lat="45.86032" lon="4.71039">
        <ele>197</ele>
        <time>2018-05-06T09:33:02Z</time>
      </trkpt>
      <trkpt lat="45.8603" lon="4.71032">
        <ele>197</ele>
        <time>2018-05-06T09:33:03Z</time>
      </trkpt>
      <trkpt lat="45.86028" lon="4.71026">
        <ele>197</ele>
        <time>2018-05-06T09:33:04Z</time>
      </trkpt>
      <trkpt lat="45.86024" lon="4.71015">
        <ele>197</ele>
        <time>2018-05-06T09:33:06Z</time>
      </trkpt>
      <trkpt lat="45.8602" lon="4.71012">
        <ele>197</ele>
        <time>2018-05-06T09:33:07Z</time>
      </trkpt>
      <trkpt lat="45.86016" lon="4.71006">
        <ele>197</ele>
        <time>2018-05-06T09:33:08Z</time>
      </trkpt>
      <trkpt lat="45.86012" lon="4.70999">
        <ele>197</ele>
        <time>2018-05-06T09:33:09Z</time>
      </trkpt>
      <trkpt lat="45.86008" lon="4.70993">
        <ele>197</ele>
        <time>2018-05-06T09:33:10Z</time>
      </trkpt>
      <trkpt lat="45.86004" lon="4.70988">
        <ele>197</ele>
        <time>2018-05-06T09:33:11Z</time>
      </trkpt>
      <trkpt lat="45.85999" lon="4.70983">
        <ele>197</ele>
        <time>2018-05-06T09:33:12Z</time>
      </trkpt>
      <trkpt lat="45.85995" lon="4.70981">
        <ele>197</ele>
        <time>2018-05-06T09:33:13Z</time>
      </trkpt>
      <trkpt lat="45.85991" lon="4.70976">
        <ele>197</ele>
        <time>2018-05-06T09:33:14Z</time>
      </trkpt>
      <trkpt lat="45.85985" lon="4.70973">
        <ele>197</ele>
        <time>2018-05-06T09:33:15Z</time>
      </trkpt>
      <trkpt lat="45.85979" lon="4.7097">
        <ele>197</ele>
        <time>2018-05-06T09:33:16Z</time>
      </trkpt>
      <trkpt lat="45.85973" lon="4.70969">
        <ele>197</ele>
        <time>2018-05-06T09:33:17Z</time>
      </trkpt>
      <trkpt lat="45.85968" lon="4.70968">
        <ele>197</ele>
        <time>2018-05-06T09:33:18Z</time>
      </trkpt>
      <trkpt lat="45.85961" lon="4.70968">
        <ele>197</ele>
        <time>2018-05-06T09:33:19Z</time>
      </trkpt>
      <trkpt lat="45.85955" lon="4.70968">
        <ele>197</ele>
        <time>2018-05-06T09:33:20Z</time>
      </trkpt>
      <trkpt lat="45.85949" lon="4.70967">
        <ele>197</ele>
        <time>2018-05-06T09:33:21Z</time>
      </trkpt>
      <trkpt lat="45.85943" lon="4.70965">
        <ele>197</ele>
        <time>2018-05-06T09:33:22Z</time>
      </trkpt>
      <trkpt lat="45.8594" lon="4.7096">
        <ele>197</ele>
        <time>2018-05-06T09:33:23Z</time>
      </trkpt>
      <trkpt lat="45.85938" lon="4.70955">
        <ele>197</ele>
        <time>2018-05-06T09:33:24Z</time>
      </trkpt>
      <trkpt lat="45.85938" lon="4.70947">
        <ele>197</ele>
        <time>2018-05-06T09:33:25Z</time>
      </trkpt>
      <trkpt lat="45.85941" lon="4.70936">
        <ele>197</ele>
        <time>2018-05-06T09:33:27Z</time>
      </trkpt>
      <trkpt lat="45.85942" lon="4.70929">
        <ele>197</ele>
        <time>2018-05-06T09:33:28Z</time>
      </trkpt>
      <trkpt lat="45.85944" lon="4.70922">
        <ele>197</ele>
        <time>2018-05-06T09:33:29Z</time>
      </trkpt>
      <trkpt lat="45.85946" lon="4.70915">
        <ele>197</ele>
        <time>2018-05-06T09:33:30Z</time>
      </trkpt>
      <trkpt lat="45.85949" lon="4.70908">
        <ele>197</ele>
        <time>2018-05-06T09:33:31Z</time>
      </trkpt>
      <trkpt lat="45.85952" lon="4.70901">
        <ele>197</ele>
        <time>2018-05-06T09:33:32Z</time>
      </trkpt>
      <trkpt lat="45.85953" lon="4.70894">
        <ele>197</ele>
        <time>2018-05-06T09:33:33Z</time>
      </trkpt>
      <trkpt lat="45.85956" lon="4.70887">
        <ele>197</ele>
        <time>2018-05-06T09:33:34Z</time>
      </trkpt>
      <trkpt lat="45.85958" lon="4.70875">
        <ele>196</ele>
        <time>2018-05-06T09:33:36Z</time>
      </trkpt>
      <trkpt lat="45.85957" lon="4.70867">
        <ele>196</ele>
        <time>2018-05-06T09:33:37Z</time>
      </trkpt>
      <trkpt lat="45.85958" lon="4.7086">
        <ele>196</ele>
        <time>2018-05-06T09:33:38Z</time>
      </trkpt>
      <trkpt lat="45.85959" lon="4.70852">
        <ele>196</ele>
        <time>2018-05-06T09:33:39Z</time>
      </trkpt>
      <trkpt lat="45.85959" lon="4.70843">
        <ele>196</ele>
        <time>2018-05-06T09:33:40Z</time>
      </trkpt>
      <trkpt lat="45.85959" lon="4.70835">
        <ele>196</ele>
        <time>2018-05-06T09:33:41Z</time>
      </trkpt>
      <trkpt lat="45.85958" lon="4.70827">
        <ele>196</ele>
        <time>2018-05-06T09:33:42Z</time>
      </trkpt>
      <trkpt lat="45.85958" lon="4.7082">
        <ele>195</ele>
        <time>2018-05-06T09:33:43Z</time>
      </trkpt>
      <trkpt lat="45.85957" lon="4.70813">
        <ele>195</ele>
        <time>2018-05-06T09:33:44Z</time>
      </trkpt>
      <trkpt lat="45.85956" lon="4.70807">
        <ele>195</ele>
        <time>2018-05-06T09:33:45Z</time>
      </trkpt>
      <trkpt lat="45.85954" lon="4.708">
        <ele>195</ele>
        <time>2018-05-06T09:33:46Z</time>
      </trkpt>
      <trkpt lat="45.85955" lon="4.70792">
        <ele>195</ele>
        <time>2018-05-06T09:33:47Z</time>
      </trkpt>
      <trkpt lat="45.85956" lon="4.70784">
        <ele>195</ele>
        <time>2018-05-06T09:33:48Z</time>
      </trkpt>
      <trkpt lat="45.85957" lon="4.70776">
        <ele>195</ele>
        <time>2018-05-06T09:33:49Z</time>
      </trkpt>
      <trkpt lat="45.85958" lon="4.70768">
        <ele>195</ele>
        <time>2018-05-06T09:33:50Z</time>
      </trkpt>
      <trkpt lat="45.85959" lon="4.7076">
        <ele>195</ele>
        <time>2018-05-06T09:33:51Z</time>
      </trkpt>
      <trkpt lat="45.85959" lon="4.70752">
        <ele>195</ele>
        <time>2018-05-06T09:33:52Z</time>
      </trkpt>
      <trkpt lat="45.85958" lon="4.70745">
        <ele>194</ele>
        <time>2018-05-06T09:33:53Z</time>
      </trkpt>
      <trkpt lat="45.85959" lon="4.70738">
        <ele>194</ele>
        <time>2018-05-06T09:33:54Z</time>
      </trkpt>
      <trkpt lat="45.85961" lon="4.70731">
        <ele>194</ele>
        <time>2018-05-06T09:33:55Z</time>
      </trkpt>
      <trkpt lat="45.85961" lon="4.70725">
        <ele>194</ele>
        <time>2018-05-06T09:33:56Z</time>
      </trkpt>
      <trkpt lat="45.85962" lon="4.70718">
        <ele>194</ele>
        <time>2018-05-06T09:33:57Z</time>
      </trkpt>
      <trkpt lat="45.85963" lon="4.70712">
        <ele>194</ele>
        <time>2018-05-06T09:33:58Z</time>
      </trkpt>
      <trkpt lat="45.85964" lon="4.70704">
        <ele>194</ele>
        <time>2018-05-06T09:33:59Z</time>
      </trkpt>
      <trkpt lat="45.85965" lon="4.70696">
        <ele>194</ele>
        <time>2018-05-06T09:34:00Z</time>
      </trkpt>
      <trkpt lat="45.85964" lon="4.70688">
        <ele>194</ele>
        <time>2018-05-06T09:34:01Z</time>
      </trkpt>
      <trkpt lat="45.85962" lon="4.70683">
        <ele>194</ele>
        <time>2018-05-06T09:34:02Z</time>
      </trkpt>
      <trkpt lat="45.8596" lon="4.70675">
        <ele>194</ele>
        <time>2018-05-06T09:34:03Z</time>
      </trkpt>
      <trkpt lat="45.85957" lon="4.70669">
        <ele>194</ele>
        <time>2018-05-06T09:34:04Z</time>
      </trkpt>
      <trkpt lat="45.85952" lon="4.70664">
        <ele>194</ele>
        <time>2018-05-06T09:34:05Z</time>
      </trkpt>
      <trkpt lat="45.85949" lon="4.70658">
        <ele>194</ele>
        <time>2018-05-06T09:34:06Z</time>
      </trkpt>
      <trkpt lat="45.85945" lon="4.7065">
        <ele>194</ele>
        <time>2018-05-06T09:34:07Z</time>
      </trkpt>
      <trkpt lat="45.85941" lon="4.70644">
        <ele>194</ele>
        <time>2018-05-06T09:34:08Z</time>
      </trkpt>
      <trkpt lat="45.85938" lon="4.70637">
        <ele>194</ele>
        <time>2018-05-06T09:34:09Z</time>
      </trkpt>
      <trkpt lat="45.85934" lon="4.7063">
        <ele>194</ele>
        <time>2018-05-06T09:34:10Z</time>
      </trkpt>
      <trkpt lat="45.8593" lon="4.70623">
        <ele>194</ele>
        <time>2018-05-06T09:34:11Z</time>
      </trkpt>
      <trkpt lat="45.85926" lon="4.70617">
        <ele>194</ele>
        <time>2018-05-06T09:34:12Z</time>
      </trkpt>
      <trkpt lat="45.85922" lon="4.70612">
        <ele>194</ele>
        <time>2018-05-06T09:34:13Z</time>
      </trkpt>
      <trkpt lat="45.85918" lon="4.70606">
        <ele>194</ele>
        <time>2018-05-06T09:34:14Z</time>
      </trkpt>
      <trkpt lat="45.85915" lon="4.706">
        <ele>195</ele>
        <time>2018-05-06T09:34:15Z</time>
      </trkpt>
      <trkpt lat="45.85911" lon="4.70594">
        <ele>195</ele>
        <time>2018-05-06T09:34:16Z</time>
      </trkpt>
      <trkpt lat="45.85906" lon="4.70592">
        <ele>195</ele>
        <time>2018-05-06T09:34:17Z</time>
      </trkpt>
      <trkpt lat="45.85903" lon="4.70588">
        <ele>195</ele>
        <time>2018-05-06T09:34:18Z</time>
      </trkpt>
      <trkpt lat="45.85898" lon="4.70584">
        <ele>195</ele>
        <time>2018-05-06T09:34:19Z</time>
      </trkpt>
      <trkpt lat="45.85893" lon="4.70581">
        <ele>195</ele>
        <time>2018-05-06T09:34:20Z</time>
      </trkpt>
      <trkpt lat="45.85888" lon="4.7058">
        <ele>195</ele>
        <time>2018-05-06T09:34:21Z</time>
      </trkpt>
      <trkpt lat="45.85882" lon="4.70578">
        <ele>195</ele>
        <time>2018-05-06T09:34:22Z</time>
      </trkpt>
      <trkpt lat="45.85877" lon="4.70577">
        <ele>195</ele>
        <time>2018-05-06T09:34:23Z</time>
      </trkpt>
      <trkpt lat="45.85872" lon="4.70574">
        <ele>195</ele>
        <time>2018-05-06T09:34:24Z</time>
      </trkpt>
      <trkpt lat="45.85867" lon="4.70572">
        <ele>195</ele>
        <time>2018-05-06T09:34:25Z</time>
      </trkpt>
      <trkpt lat="45.85861" lon="4.70569">
        <ele>195</ele>
        <time>2018-05-06T09:34:26Z</time>
      </trkpt>
      <trkpt lat="45.85857" lon="4.70568">
        <ele>195</ele>
        <time>2018-05-06T09:34:27Z</time>
      </trkpt>
      <trkpt lat="45.85851" lon="4.70567">
        <ele>195</ele>
        <time>2018-05-06T09:34:28Z</time>
      </trkpt>
      <trkpt lat="45.85845" lon="4.70565">
        <ele>195</ele>
        <time>2018-05-06T09:34:29Z</time>
      </trkpt>
      <trkpt lat="45.8584" lon="4.70565">
        <ele>195</ele>
        <time>2018-05-06T09:34:30Z</time>
      </trkpt>
      <trkpt lat="45.85835" lon="4.70562">
        <ele>195</ele>
        <time>2018-05-06T09:34:31Z</time>
      </trkpt>
      <trkpt lat="45.85831" lon="4.70559">
        <ele>195</ele>
        <time>2018-05-06T09:34:32Z</time>
      </trkpt>
      <trkpt lat="45.85825" lon="4.70557">
        <ele>195</ele>
        <time>2018-05-06T09:34:33Z</time>
      </trkpt>
      <trkpt lat="45.8582" lon="4.70553">
        <ele>195</ele>
        <time>2018-05-06T09:34:34Z</time>
      </trkpt>
      <trkpt lat="45.85814" lon="4.7055">
        <ele>195</ele>
        <time>2018-05-06T09:34:35Z</time>
      </trkpt>
      <trkpt lat="45.85808" lon="4.70549">
        <ele>195</ele>
        <time>2018-05-06T09:34:36Z</time>
      </trkpt>
      <trkpt lat="45.85802" lon="4.70546">
        <ele>195</ele>
        <time>2018-05-06T09:34:37Z</time>
      </trkpt>
      <trkpt lat="45.85797" lon="4.70544">
        <ele>195</ele>
        <time>2018-05-06T09:34:38Z</time>
      </trkpt>
      <trkpt lat="45.85793" lon="4.70539">
        <ele>195</ele>
        <time>2018-05-06T09:34:39Z</time>
      </trkpt>
      <trkpt lat="45.85787" lon="4.70538">
        <ele>196</ele>
        <time>2018-05-06T09:34:40Z</time>
      </trkpt>
      <trkpt lat="45.85783" lon="4.70536">
        <ele>196</ele>
        <time>2018-05-06T09:34:41Z</time>
      </trkpt>
      <trkpt lat="45.85777" lon="4.70532">
        <ele>196</ele>
        <time>2018-05-06T09:34:42Z</time>
      </trkpt>
      <trkpt lat="45.85771" lon="4.70529">
        <ele>196</ele>
        <time>2018-05-06T09:34:43Z</time>
      </trkpt>
      <trkpt lat="45.85766" lon="4.70526">
        <ele>196</ele>
        <time>2018-05-06T09:34:44Z</time>
      </trkpt>
      <trkpt lat="45.85761" lon="4.70521">
        <ele>196</ele>
        <time>2018-05-06T09:34:45Z</time>
      </trkpt>
      <trkpt lat="45.85757" lon="4.70518">
        <ele>196</ele>
        <time>2018-05-06T09:34:46Z</time>
      </trkpt>
      <trkpt lat="45.85753" lon="4.70514">
        <ele>196</ele>
        <time>2018-05-06T09:34:47Z</time>
      </trkpt>
      <trkpt lat="45.85746" lon="4.70507">
        <ele>196</ele>
        <time>2018-05-06T09:34:49Z</time>
      </trkpt>
      <trkpt lat="45.85742" lon="4.70503">
        <ele>196</ele>
        <time>2018-05-06T09:34:50Z</time>
      </trkpt>
      <trkpt lat="45.85738" lon="4.70496">
        <ele>196</ele>
        <time>2018-05-06T09:34:52Z</time>
      </trkpt>
      <trkpt lat="45.85735" lon="4.7049">
        <ele>196</ele>
        <time>2018-05-06T09:34:53Z</time>
      </trkpt>
      <trkpt lat="45.8573" lon="4.70481">
        <ele>196</ele>
        <time>2018-05-06T09:34:55Z</time>
      </trkpt>
      <trkpt lat="45.85728" lon="4.70475">
        <ele>196</ele>
        <time>2018-05-06T09:34:56Z</time>
      </trkpt>
      <trkpt lat="45.85727" lon="4.70468">
        <ele>196</ele>
        <time>2018-05-06T09:34:57Z</time>
      </trkpt>
      <trkpt lat="45.85726" lon="4.70461">
        <ele>196</ele>
        <time>2018-05-06T09:34:58Z</time>
      </trkpt>
      <trkpt lat="45.85725" lon="4.70454">
        <ele>196</ele>
        <time>2018-05-06T09:34:59Z</time>
      </trkpt>
      <trkpt lat="45.85725" lon="4.70448">
        <ele>196</ele>
        <time>2018-05-06T09:35:00Z</time>
      </trkpt>
      <trkpt lat="45.85723" lon="4.70441">
        <ele>196</ele>
        <time>2018-05-06T09:35:01Z</time>
      </trkpt>
      <trkpt lat="45.85722" lon="4.70433">
        <ele>196</ele>
        <time>2018-05-06T09:35:02Z</time>
      </trkpt>
      <trkpt lat="45.85721" lon="4.70422">
        <ele>196</ele>
        <time>2018-05-06T09:35:03Z</time>
      </trkpt>
      <trkpt lat="45.8572" lon="4.70414">
        <ele>196</ele>
        <time>2018-05-06T09:35:04Z</time>
      </trkpt>
      <trkpt lat="45.85719" lon="4.70406">
        <ele>196</ele>
        <time>2018-05-06T09:35:05Z</time>
      </trkpt>
      <trkpt lat="45.85718" lon="4.70399">
        <ele>196</ele>
        <time>2018-05-06T09:35:06Z</time>
      </trkpt>
      <trkpt lat="45.85715" lon="4.70388">
        <ele>196</ele>
        <time>2018-05-06T09:35:08Z</time>
      </trkpt>
      <trkpt lat="45.85715" lon="4.7038">
        <ele>196</ele>
        <time>2018-05-06T09:35:09Z</time>
      </trkpt>
      <trkpt lat="45.85716" lon="4.70372">
        <ele>196</ele>
        <time>2018-05-06T09:35:10Z</time>
      </trkpt>
      <trkpt lat="45.85713" lon="4.70364">
        <ele>196</ele>
        <time>2018-05-06T09:35:11Z</time>
      </trkpt>
      <trkpt lat="45.85714" lon="4.70356">
        <ele>196</ele>
        <time>2018-05-06T09:35:12Z</time>
      </trkpt>
      <trkpt lat="45.85713" lon="4.70348">
        <ele>196</ele>
        <time>2018-05-06T09:35:13Z</time>
      </trkpt>
      <trkpt lat="45.85711" lon="4.7034">
        <ele>196</ele>
        <time>2018-05-06T09:35:14Z</time>
      </trkpt>
      <trkpt lat="45.85711" lon="4.7033">
        <ele>197</ele>
        <time>2018-05-06T09:35:15Z</time>
      </trkpt>
      <trkpt lat="45.8571" lon="4.70324">
        <ele>197</ele>
        <time>2018-05-06T09:35:16Z</time>
      </trkpt>
      <trkpt lat="45.8571" lon="4.70317">
        <ele>197</ele>
        <time>2018-05-06T09:35:17Z</time>
      </trkpt>
      <trkpt lat="45.8571" lon="4.70309">
        <ele>197</ele>
        <time>2018-05-06T09:35:18Z</time>
      </trkpt>
      <trkpt lat="45.85709" lon="4.70302">
        <ele>197</ele>
        <time>2018-05-06T09:35:19Z</time>
      </trkpt>
      <trkpt lat="45.85708" lon="4.70295">
        <ele>197</ele>
        <time>2018-05-06T09:35:20Z</time>
      </trkpt>
      <trkpt lat="45.85708" lon="4.70288">
        <ele>197</ele>
        <time>2018-05-06T09:35:21Z</time>
      </trkpt>
      <trkpt lat="45.85707" lon="4.70281">
        <ele>197</ele>
        <time>2018-05-06T09:35:22Z</time>
      </trkpt>
      <trkpt lat="45.85706" lon="4.70272">
        <ele>197</ele>
        <time>2018-05-06T09:35:23Z</time>
      </trkpt>
      <trkpt lat="45.85704" lon="4.70265">
        <ele>197</ele>
        <time>2018-05-06T09:35:24Z</time>
      </trkpt>
      <trkpt lat="45.85703" lon="4.70257">
        <ele>197</ele>
        <time>2018-05-06T09:35:25Z</time>
      </trkpt>
      <trkpt lat="45.85701" lon="4.70247">
        <ele>197</ele>
        <time>2018-05-06T09:35:26Z</time>
      </trkpt>
      <trkpt lat="45.857" lon="4.70239">
        <ele>197</ele>
        <time>2018-05-06T09:35:27Z</time>
      </trkpt>
      <trkpt lat="45.85699" lon="4.70232">
        <ele>197</ele>
        <time>2018-05-06T09:35:28Z</time>
      </trkpt>
      <trkpt lat="45.85698" lon="4.70225">
        <ele>197</ele>
        <time>2018-05-06T09:35:29Z</time>
      </trkpt>
      <trkpt lat="45.85696" lon="4.70217">
        <ele>197</ele>
        <time>2018-05-06T09:35:30Z</time>
      </trkpt>
      <trkpt lat="45.85697" lon="4.7021">
        <ele>197</ele>
        <time>2018-05-06T09:35:31Z</time>
      </trkpt>
      <trkpt lat="45.85695" lon="4.70201">
        <ele>197</ele>
        <time>2018-05-06T09:35:32Z</time>
      </trkpt>
      <trkpt lat="45.85693" lon="4.70194">
        <ele>197</ele>
        <time>2018-05-06T09:35:33Z</time>
      </trkpt>
      <trkpt lat="45.85691" lon="4.70186">
        <ele>197</ele>
        <time>2018-05-06T09:35:34Z</time>
      </trkpt>
      <trkpt lat="45.8569" lon="4.70178">
        <ele>197</ele>
        <time>2018-05-06T09:35:35Z</time>
      </trkpt>
      <trkpt lat="45.85688" lon="4.70171">
        <ele>197</ele>
        <time>2018-05-06T09:35:36Z</time>
      </trkpt>
      <trkpt lat="45.85684" lon="4.70162">
        <ele>197</ele>
        <time>2018-05-06T09:35:37Z</time>
      </trkpt>
      <trkpt lat="45.85683" lon="4.70153">
        <ele>197</ele>
        <time>2018-05-06T09:35:38Z</time>
      </trkpt>
      <trkpt lat="45.85681" lon="4.70144">
        <ele>197</ele>
        <time>2018-05-06T09:35:39Z</time>
      </trkpt>
      <trkpt lat="45.8568" lon="4.70135">
        <ele>197</ele>
        <time>2018-05-06T09:35:40Z</time>
      </trkpt>
      <trkpt lat="45.8568" lon="4.70127">
        <ele>197</ele>
        <time>2018-05-06T09:35:41Z</time>
      </trkpt>
      <trkpt lat="45.8568" lon="4.7012">
        <ele>197</ele>
        <time>2018-05-06T09:35:42Z</time>
      </trkpt>
      <trkpt lat="45.85679" lon="4.70114">
        <ele>197</ele>
        <time>2018-05-06T09:35:43Z</time>
      </trkpt>
      <trkpt lat="45.85679" lon="4.70106">
        <ele>196</ele>
        <time>2018-05-06T09:35:44Z</time>
      </trkpt>
      <trkpt lat="45.85679" lon="4.70099">
        <ele>196</ele>
        <time>2018-05-06T09:35:45Z</time>
      </trkpt>
      <trkpt lat="45.85679" lon="4.70092">
        <ele>196</ele>
        <time>2018-05-06T09:35:46Z</time>
      </trkpt>
      <trkpt lat="45.85681" lon="4.70085">
        <ele>196</ele>
        <time>2018-05-06T09:35:47Z</time>
      </trkpt>
      <trkpt lat="45.85682" lon="4.70073">
        <ele>196</ele>
        <time>2018-05-06T09:35:49Z</time>
      </trkpt>
      <trkpt lat="45.85684" lon="4.70066">
        <ele>196</ele>
        <time>2018-05-06T09:35:50Z</time>
      </trkpt>
      <trkpt lat="45.85686" lon="4.70059">
        <ele>195</ele>
        <time>2018-05-06T09:35:51Z</time>
      </trkpt>
      <trkpt lat="45.85688" lon="4.70053">
        <ele>195</ele>
        <time>2018-05-06T09:35:52Z</time>
      </trkpt>
      <trkpt lat="45.8569" lon="4.70047">
        <ele>195</ele>
        <time>2018-05-06T09:35:53Z</time>
      </trkpt>
      <trkpt lat="45.8569" lon="4.7004">
        <ele>195</ele>
        <time>2018-05-06T09:35:54Z</time>
      </trkpt>
      <trkpt lat="45.85692" lon="4.70034">
        <ele>195</ele>
        <time>2018-05-06T09:35:55Z</time>
      </trkpt>
      <trkpt lat="45.85693" lon="4.70025">
        <ele>195</ele>
        <time>2018-05-06T09:35:56Z</time>
      </trkpt>
      <trkpt lat="45.85693" lon="4.70018">
        <ele>195</ele>
        <time>2018-05-06T09:35:57Z</time>
      </trkpt>
      <trkpt lat="45.85694" lon="4.7001">
        <ele>195</ele>
        <time>2018-05-06T09:35:58Z</time>
      </trkpt>
      <trkpt lat="45.85694" lon="4.70001">
        <ele>195</ele>
        <time>2018-05-06T09:35:59Z</time>
      </trkpt>
      <trkpt lat="45.85694" lon="4.69992">
        <ele>195</ele>
        <time>2018-05-06T09:36:00Z</time>
      </trkpt>
      <trkpt lat="45.85692" lon="4.69983">
        <ele>195</ele>
        <time>2018-05-06T09:36:01Z</time>
      </trkpt>
      <trkpt lat="45.85691" lon="4.69975">
        <ele>195</ele>
        <time>2018-05-06T09:36:02Z</time>
      </trkpt>
      <trkpt lat="45.85689" lon="4.69968">
        <ele>195</ele>
        <time>2018-05-06T09:36:03Z</time>
      </trkpt>
      <trkpt lat="45.85687" lon="4.6996">
        <ele>195</ele>
        <time>2018-05-06T09:36:04Z</time>
      </trkpt>
      <trkpt lat="45.85685" lon="4.69951">
        <ele>195</ele>
        <time>2018-05-06T09:36:05Z</time>
      </trkpt>
      <trkpt lat="45.85684" lon="4.69945">
        <ele>195</ele>
        <time>2018-05-06T09:36:06Z</time>
      </trkpt>
      <trkpt lat="45.8568" lon="4.69937">
        <ele>195</ele>
        <time>2018-05-06T09:36:07Z</time>
      </trkpt>
      <trkpt lat="45.85677" lon="4.69928">
        <ele>195</ele>
        <time>2018-05-06T09:36:08Z</time>
      </trkpt>
      <trkpt lat="45.85676" lon="4.69917">
        <ele>195</ele>
        <time>2018-05-06T09:36:09Z</time>
      </trkpt>
      <trkpt lat="45.85674" lon="4.69908">
        <ele>195</ele>
        <time>2018-05-06T09:36:10Z</time>
      </trkpt>
      <trkpt lat="45.85673" lon="4.69899">
        <ele>195</ele>
        <time>2018-05-06T09:36:11Z</time>
      </trkpt>
      <trkpt lat="45.85672" lon="4.69889">
        <ele>195</ele>
        <time>2018-05-06T09:36:12Z</time>
      </trkpt>
      <trkpt lat="45.8567" lon="4.6988">
        <ele>195</ele>
        <time>2018-05-06T09:36:13Z</time>
      </trkpt>
      <trkpt lat="45.8567" lon="4.69871">
        <ele>195</ele>
        <time>2018-05-06T09:36:14Z</time>
      </trkpt>
      <trkpt lat="45.8567" lon="4.69861">
        <ele>195</ele>
        <time>2018-05-06T09:36:15Z</time>
      </trkpt>
      <trkpt lat="45.85669" lon="4.69852">
        <ele>195</ele>
        <time>2018-05-06T09:36:16Z</time>
      </trkpt>
      <trkpt lat="45.85666" lon="4.69842">
        <ele>195</ele>
        <time>2018-05-06T09:36:17Z</time>
      </trkpt>
      <trkpt lat="45.85665" lon="4.69832">
        <ele>195</ele>
        <time>2018-05-06T09:36:18Z</time>
      </trkpt>
      <trkpt lat="45.85665" lon="4.69823">
        <ele>195</ele>
        <time>2018-05-06T09:36:19Z</time>
      </trkpt>
      <trkpt lat="45.85662" lon="4.69816">
        <ele>195</ele>
        <time>2018-05-06T09:36:20Z</time>
      </trkpt>
      <trkpt lat="45.8566" lon="4.69804">
        <ele>195</ele>
        <time>2018-05-06T09:36:22Z</time>
      </trkpt>
      <trkpt lat="45.85659" lon="4.69796">
        <ele>195</ele>
        <time>2018-05-06T09:36:23Z</time>
      </trkpt>
      <trkpt lat="45.85657" lon="4.69786">
        <ele>195</ele>
        <time>2018-05-06T09:36:24Z</time>
      </trkpt>
      <trkpt lat="45.85656" lon="4.69776">
        <ele>195</ele>
        <time>2018-05-06T09:36:25Z</time>
      </trkpt>
      <trkpt lat="45.85655" lon="4.69767">
        <ele>195</ele>
        <time>2018-05-06T09:36:26Z</time>
      </trkpt>
      <trkpt lat="45.85654" lon="4.69758">
        <ele>195</ele>
        <time>2018-05-06T09:36:27Z</time>
      </trkpt>
      <trkpt lat="45.85654" lon="4.6975">
        <ele>195</ele>
        <time>2018-05-06T09:36:28Z</time>
      </trkpt>
      <trkpt lat="45.85652" lon="4.69742">
        <ele>195</ele>
        <time>2018-05-06T09:36:29Z</time>
      </trkpt>
      <trkpt lat="45.85651" lon="4.69734">
        <ele>195</ele>
        <time>2018-05-06T09:36:30Z</time>
      </trkpt>
      <trkpt lat="45.85653" lon="4.69728">
        <ele>195</ele>
        <time>2018-05-06T09:36:31Z</time>
      </trkpt>
      <trkpt lat="45.85652" lon="4.6972">
        <ele>196</ele>
        <time>2018-05-06T09:36:32Z</time>
      </trkpt>
      <trkpt lat="45.85652" lon="4.69711">
        <ele>196</ele>
        <time>2018-05-06T09:36:33Z</time>
      </trkpt>
      <trkpt lat="45.85651" lon="4.69703">
        <ele>196</ele>
        <time>2018-05-06T09:36:34Z</time>
      </trkpt>
      <trkpt lat="45.8565" lon="4.69695">
        <ele>196</ele>
        <time>2018-05-06T09:36:35Z</time>
      </trkpt>
      <trkpt lat="45.85652" lon="4.69686">
        <ele>196</ele>
        <time>2018-05-06T09:36:36Z</time>
      </trkpt>
      <trkpt lat="45.8565" lon="4.69677">
        <ele>196</ele>
        <time>2018-05-06T09:36:37Z</time>
      </trkpt>
      <trkpt lat="45.85649" lon="4.69669">
        <ele>196</ele>
        <time>2018-05-06T09:36:38Z</time>
      </trkpt>
      <trkpt lat="45.8565" lon="4.6966">
        <ele>196</ele>
        <time>2018-05-06T09:36:39Z</time>
      </trkpt>
      <trkpt lat="45.8565" lon="4.69654">
        <ele>197</ele>
        <time>2018-05-06T09:36:40Z</time>
      </trkpt>
      <trkpt lat="45.85649" lon="4.69647">
        <ele>197</ele>
        <time>2018-05-06T09:36:41Z</time>
      </trkpt>
      <trkpt lat="45.85648" lon="4.6964">
        <ele>197</ele>
        <time>2018-05-06T09:36:42Z</time>
      </trkpt>
      <trkpt lat="45.85647" lon="4.69631">
        <ele>197</ele>
        <time>2018-05-06T09:36:43Z</time>
      </trkpt>
      <trkpt lat="45.85647" lon="4.69623">
        <ele>197</ele>
        <time>2018-05-06T09:36:44Z</time>
      </trkpt>
      <trkpt lat="45.85646" lon="4.69615">
        <ele>197</ele>
        <time>2018-05-06T09:36:45Z</time>
      </trkpt>
      <trkpt lat="45.85645" lon="4.69607">
        <ele>197</ele>
        <time>2018-05-06T09:36:46Z</time>
      </trkpt>
      <trkpt lat="45.85644" lon="4.69599">
        <ele>197</ele>
        <time>2018-05-06T09:36:47Z</time>
      </trkpt>
      <trkpt lat="45.85643" lon="4.69591">
        <ele>197</ele>
        <time>2018-05-06T09:36:48Z</time>
      </trkpt>
      <trkpt lat="45.85643" lon="4.69583">
        <ele>198</ele>
        <time>2018-05-06T09:36:49Z</time>
      </trkpt>
      <trkpt lat="45.85643" lon="4.69575">
        <ele>198</ele>
        <time>2018-05-06T09:36:50Z</time>
      </trkpt>
      <trkpt lat="45.85642" lon="4.69567">
        <ele>198</ele>
        <time>2018-05-06T09:36:51Z</time>
      </trkpt>
      <trkpt lat="45.85642" lon="4.69558">
        <ele>198</ele>
        <time>2018-05-06T09:36:52Z</time>
      </trkpt>
      <trkpt lat="45.85642" lon="4.69552">
        <ele>198</ele>
        <time>2018-05-06T09:36:53Z</time>
      </trkpt>
      <trkpt lat="45.85641" lon="4.69544">
        <ele>198</ele>
        <time>2018-05-06T09:36:54Z</time>
      </trkpt>
      <trkpt lat="45.85639" lon="4.69536">
        <ele>198</ele>
        <time>2018-05-06T09:36:55Z</time>
      </trkpt>
      <trkpt lat="45.85638" lon="4.69527">
        <ele>198</ele>
        <time>2018-05-06T09:36:56Z</time>
      </trkpt>
      <trkpt lat="45.85637" lon="4.69521">
        <ele>198</ele>
        <time>2018-05-06T09:36:57Z</time>
      </trkpt>
      <trkpt lat="45.85636" lon="4.69514">
        <ele>198</ele>
        <time>2018-05-06T09:36:58Z</time>
      </trkpt>
      <trkpt lat="45.85636" lon="4.69504">
        <ele>198</ele>
        <time>2018-05-06T09:36:59Z</time>
      </trkpt>
      <trkpt lat="45.85634" lon="4.69496">
        <ele>198</ele>
        <time>2018-05-06T09:37:00Z</time>
      </trkpt>
      <trkpt lat="45.85632" lon="4.69486">
        <ele>198</ele>
        <time>2018-05-06T09:37:01Z</time>
      </trkpt>
      <trkpt lat="45.85631" lon="4.69478">
        <ele>198</ele>
        <time>2018-05-06T09:37:02Z</time>
      </trkpt>
      <trkpt lat="45.85629" lon="4.69471">
        <ele>198</ele>
        <time>2018-05-06T09:37:03Z</time>
      </trkpt>
      <trkpt lat="45.85628" lon="4.69463">
        <ele>198</ele>
        <time>2018-05-06T09:37:04Z</time>
      </trkpt>
      <trkpt lat="45.85628" lon="4.69453">
        <ele>198</ele>
        <time>2018-05-06T09:37:05Z</time>
      </trkpt>
      <trkpt lat="45.85627" lon="4.69445">
        <ele>198</ele>
        <time>2018-05-06T09:37:06Z</time>
      </trkpt>
      <trkpt lat="45.85626" lon="4.69436">
        <ele>198</ele>
        <time>2018-05-06T09:37:07Z</time>
      </trkpt>
      <trkpt lat="45.85625" lon="4.69428">
        <ele>198</ele>
        <time>2018-05-06T09:37:08Z</time>
      </trkpt>
      <trkpt lat="45.85626" lon="4.6942">
        <ele>198</ele>
        <time>2018-05-06T09:37:09Z</time>
      </trkpt>
      <trkpt lat="45.85625" lon="4.69412">
        <ele>198</ele>
        <time>2018-05-06T09:37:10Z</time>
      </trkpt>
      <trkpt lat="45.85624" lon="4.69403">
        <ele>198</ele>
        <time>2018-05-06T09:37:11Z</time>
      </trkpt>
      <trkpt lat="45.85623" lon="4.69395">
        <ele>198</ele>
        <time>2018-05-06T09:37:12Z</time>
      </trkpt>
      <trkpt lat="45.8562" lon="4.69389">
        <ele>198</ele>
        <time>2018-05-06T09:37:13Z</time>
      </trkpt>
      <trkpt lat="45.85619" lon="4.6938">
        <ele>198</ele>
        <time>2018-05-06T09:37:14Z</time>
      </trkpt>
      <trkpt lat="45.85619" lon="4.69371">
        <ele>198</ele>
        <time>2018-05-06T09:37:15Z</time>
      </trkpt>
      <trkpt lat="45.85619" lon="4.69363">
        <ele>198</ele>
        <time>2018-05-06T09:37:16Z</time>
      </trkpt>
      <trkpt lat="45.85617" lon="4.69356">
        <ele>198</ele>
        <time>2018-05-06T09:37:17Z</time>
      </trkpt>
      <trkpt lat="45.85616" lon="4.69347">
        <ele>198</ele>
        <time>2018-05-06T09:37:18Z</time>
      </trkpt>
      <trkpt lat="45.85615" lon="4.69339">
        <ele>198</ele>
        <time>2018-05-06T09:37:19Z</time>
      </trkpt>
      <trkpt lat="45.85614" lon="4.69332">
        <ele>198</ele>
        <time>2018-05-06T09:37:20Z</time>
      </trkpt>
      <trkpt lat="45.85612" lon="4.69324">
        <ele>198</ele>
        <time>2018-05-06T09:37:21Z</time>
      </trkpt>
      <trkpt lat="45.85611" lon="4.69315">
        <ele>198</ele>
        <time>2018-05-06T09:37:22Z</time>
      </trkpt>
      <trkpt lat="45.85611" lon="4.69307">
        <ele>198</ele>
        <time>2018-05-06T09:37:23Z</time>
      </trkpt>
      <trkpt lat="45.8561" lon="4.69299">
        <ele>198</ele>
        <time>2018-05-06T09:37:24Z</time>
      </trkpt>
      <trkpt lat="45.85613" lon="4.69291">
        <ele>198</ele>
        <time>2018-05-06T09:37:25Z</time>
      </trkpt>
      <trkpt lat="45.85614" lon="4.69282">
        <ele>198</ele>
        <time>2018-05-06T09:37:26Z</time>
      </trkpt>
      <trkpt lat="45.85614" lon="4.69274">
        <ele>198</ele>
        <time>2018-05-06T09:37:27Z</time>
      </trkpt>
      <trkpt lat="45.85614" lon="4.69265">
        <ele>198</ele>
        <time>2018-05-06T09:37:28Z</time>
      </trkpt>
      <trkpt lat="45.85614" lon="4.69258">
        <ele>198</ele>
        <time>2018-05-06T09:37:29Z</time>
      </trkpt>
      <trkpt lat="45.85611" lon="4.69249">
        <ele>199</ele>
        <time>2018-05-06T09:37:30Z</time>
      </trkpt>
      <trkpt lat="45.8561" lon="4.69241">
        <ele>199</ele>
        <time>2018-05-06T09:37:31Z</time>
      </trkpt>
      <trkpt lat="45.85608" lon="4.69233">
        <ele>199</ele>
        <time>2018-05-06T09:37:32Z</time>
      </trkpt>
      <trkpt lat="45.85606" lon="4.69225">
        <ele>199</ele>
        <time>2018-05-06T09:37:33Z</time>
      </trkpt>
      <trkpt lat="45.85607" lon="4.69217">
        <ele>199</ele>
        <time>2018-05-06T09:37:34Z</time>
      </trkpt>
      <trkpt lat="45.85606" lon="4.69209">
        <ele>199</ele>
        <time>2018-05-06T09:37:35Z</time>
      </trkpt>
      <trkpt lat="45.85605" lon="4.69201">
        <ele>199</ele>
        <time>2018-05-06T09:37:36Z</time>
      </trkpt>
      <trkpt lat="45.85604" lon="4.69192">
        <ele>199</ele>
        <time>2018-05-06T09:37:37Z</time>
      </trkpt>
      <trkpt lat="45.85604" lon="4.69183">
        <ele>199</ele>
        <time>2018-05-06T09:37:38Z</time>
      </trkpt>
      <trkpt lat="45.85603" lon="4.69173">
        <ele>199</ele>
        <time>2018-05-06T09:37:39Z</time>
      </trkpt>
      <trkpt lat="45.85603" lon="4.69164">
        <ele>199</ele>
        <time>2018-05-06T09:37:40Z</time>
      </trkpt>
      <trkpt lat="45.85602" lon="4.69155">
        <ele>199</ele>
        <time>2018-05-06T09:37:41Z</time>
      </trkpt>
      <trkpt lat="45.85601" lon="4.69147">
        <ele>199</ele>
        <time>2018-05-06T09:37:42Z</time>
      </trkpt>
      <trkpt lat="45.85599" lon="4.69141">
        <ele>199</ele>
        <time>2018-05-06T09:37:43Z</time>
      </trkpt>
      <trkpt lat="45.85599" lon="4.69132">
        <ele>198</ele>
        <time>2018-05-06T09:37:44Z</time>
      </trkpt>
      <trkpt lat="45.85599" lon="4.69123">
        <ele>198</ele>
        <time>2018-05-06T09:37:45Z</time>
      </trkpt>
      <trkpt lat="45.85598" lon="4.69115">
        <ele>198</ele>
        <time>2018-05-06T09:37:46Z</time>
      </trkpt>
      <trkpt lat="45.85597" lon="4.69107">
        <ele>199</ele>
        <time>2018-05-06T09:37:47Z</time>
      </trkpt>
      <trkpt lat="45.85595" lon="4.69097">
        <ele>199</ele>
        <time>2018-05-06T09:37:48Z</time>
      </trkpt>
      <trkpt lat="45.85594" lon="4.69088">
        <ele>199</ele>
        <time>2018-05-06T09:37:49Z</time>
      </trkpt>
      <trkpt lat="45.85593" lon="4.69079">
        <ele>199</ele>
        <time>2018-05-06T09:37:50Z</time>
      </trkpt>
      <trkpt lat="45.85592" lon="4.69072">
        <ele>199</ele>
        <time>2018-05-06T09:37:51Z</time>
      </trkpt>
      <trkpt lat="45.85594" lon="4.69063">
        <ele>199</ele>
        <time>2018-05-06T09:37:52Z</time>
      </trkpt>
      <trkpt lat="45.85595" lon="4.69055">
        <ele>199</ele>
        <time>2018-05-06T09:37:53Z</time>
      </trkpt>
      <trkpt lat="45.85595" lon="4.69048">
        <ele>199</ele>
        <time>2018-05-06T09:37:54Z</time>
      </trkpt>
      <trkpt lat="45.85594" lon="4.69039">
        <ele>199</ele>
        <time>2018-05-06T09:37:55Z</time>
      </trkpt>
      <trkpt lat="45.85592" lon="4.69031">
        <ele>199</ele>
        <time>2018-05-06T09:37:56Z</time>
      </trkpt>
      <trkpt lat="45.85591" lon="4.69022">
        <ele>199</ele>
        <time>2018-05-06T09:37:57Z</time>
      </trkpt>
      <trkpt lat="45.8559" lon="4.69014">
        <ele>199</ele>
        <time>2018-05-06T09:37:58Z</time>
      </trkpt>
      <trkpt lat="45.8559" lon="4.69004">
        <ele>200</ele>
        <time>2018-05-06T09:37:59Z</time>
      </trkpt>
      <trkpt lat="45.85589" lon="4.68996">
        <ele>200</ele>
        <time>2018-05-06T09:38:00Z</time>
      </trkpt>
      <trkpt lat="45.85588" lon="4.68987">
        <ele>200</ele>
        <time>2018-05-06T09:38:01Z</time>
      </trkpt>
      <trkpt lat="45.85587" lon="4.68978">
        <ele>200</ele>
        <time>2018-05-06T09:38:02Z</time>
      </trkpt>
      <trkpt lat="45.85587" lon="4.68972">
        <ele>200</ele>
        <time>2018-05-06T09:38:03Z</time>
      </trkpt>
      <trkpt lat="45.85586" lon="4.68964">
        <ele>200</ele>
        <time>2018-05-06T09:38:04Z</time>
      </trkpt>
      <trkpt lat="45.85585" lon="4.68956">
        <ele>200</ele>
        <time>2018-05-06T09:38:05Z</time>
      </trkpt>
      <trkpt lat="45.85585" lon="4.68948">
        <ele>200</ele>
        <time>2018-05-06T09:38:06Z</time>
      </trkpt>
      <trkpt lat="45.85584" lon="4.6894">
        <ele>200</ele>
        <time>2018-05-06T09:38:07Z</time>
      </trkpt>
      <trkpt lat="45.85583" lon="4.68931">
        <ele>200</ele>
        <time>2018-05-06T09:38:08Z</time>
      </trkpt>
      <trkpt lat="45.85583" lon="4.68922">
        <ele>200</ele>
        <time>2018-05-06T09:38:09Z</time>
      </trkpt>
      <trkpt lat="45.85582" lon="4.68914">
        <ele>200</ele>
        <time>2018-05-06T09:38:10Z</time>
      </trkpt>
      <trkpt lat="45.85579" lon="4.68905">
        <ele>200</ele>
        <time>2018-05-06T09:38:11Z</time>
      </trkpt>
      <trkpt lat="45.8558" lon="4.68897">
        <ele>200</ele>
        <time>2018-05-06T09:38:12Z</time>
      </trkpt>
      <trkpt lat="45.85579" lon="4.68888">
        <ele>200</ele>
        <time>2018-05-06T09:38:13Z</time>
      </trkpt>
      <trkpt lat="45.85577" lon="4.6888">
        <ele>200</ele>
        <time>2018-05-06T09:38:14Z</time>
      </trkpt>
      <trkpt lat="45.85575" lon="4.6887">
        <ele>200</ele>
        <time>2018-05-06T09:38:15Z</time>
      </trkpt>
      <trkpt lat="45.85574" lon="4.68862">
        <ele>200</ele>
        <time>2018-05-06T09:38:16Z</time>
      </trkpt>
      <trkpt lat="45.85572" lon="4.68854">
        <ele>200</ele>
        <time>2018-05-06T09:38:17Z</time>
      </trkpt>
      <trkpt lat="45.85571" lon="4.68846">
        <ele>200</ele>
        <time>2018-05-06T09:38:18Z</time>
      </trkpt>
      <trkpt lat="45.85573" lon="4.68837">
        <ele>200</ele>
        <time>2018-05-06T09:38:19Z</time>
      </trkpt>
      <trkpt lat="45.85571" lon="4.68827">
        <ele>200</ele>
        <time>2018-05-06T09:38:20Z</time>
      </trkpt>
      <trkpt lat="45.8557" lon="4.68817">
        <ele>200</ele>
        <time>2018-05-06T09:38:21Z</time>
      </trkpt>
      <trkpt lat="45.8557" lon="4.68808">
        <ele>200</ele>
        <time>2018-05-06T09:38:22Z</time>
      </trkpt>
      <trkpt lat="45.8557" lon="4.68798">
        <ele>200</ele>
        <time>2018-05-06T09:38:23Z</time>
      </trkpt>
      <trkpt lat="45.85568" lon="4.6879">
        <ele>200</ele>
        <time>2018-05-06T09:38:24Z</time>
      </trkpt>
      <trkpt lat="45.85567" lon="4.68782">
        <ele>200</ele>
        <time>2018-05-06T09:38:25Z</time>
      </trkpt>
      <trkpt lat="45.85566" lon="4.68771">
        <ele>200</ele>
        <time>2018-05-06T09:38:26Z</time>
      </trkpt>
      <trkpt lat="45.85565" lon="4.6876">
        <ele>200</ele>
        <time>2018-05-06T09:38:27Z</time>
      </trkpt>
      <trkpt lat="45.85564" lon="4.68752">
        <ele>200</ele>
        <time>2018-05-06T09:38:28Z</time>
      </trkpt>
      <trkpt lat="45.85564" lon="4.68744">
        <ele>200</ele>
        <time>2018-05-06T09:38:29Z</time>
      </trkpt>
      <trkpt lat="45.85563" lon="4.68735">
        <ele>200</ele>
        <time>2018-05-06T09:38:30Z</time>
      </trkpt>
      <trkpt lat="45.85563" lon="4.68727">
        <ele>200</ele>
        <time>2018-05-06T09:38:31Z</time>
      </trkpt>
      <trkpt lat="45.85562" lon="4.68719">
        <ele>200</ele>
        <time>2018-05-06T09:38:32Z</time>
      </trkpt>
      <trkpt lat="45.85561" lon="4.6871">
        <ele>200</ele>
        <time>2018-05-06T09:38:33Z</time>
      </trkpt>
      <trkpt lat="45.85559" lon="4.68702">
        <ele>200</ele>
        <time>2018-05-06T09:38:34Z</time>
      </trkpt>
      <trkpt lat="45.85559" lon="4.68694">
        <ele>200</ele>
        <time>2018-05-06T09:38:35Z</time>
      </trkpt>
      <trkpt lat="45.85558" lon="4.68685">
        <ele>200</ele>
        <time>2018-05-06T09:38:36Z</time>
      </trkpt>
      <trkpt lat="45.85555" lon="4.68676">
        <ele>200</ele>
        <time>2018-05-06T09:38:37Z</time>
      </trkpt>
      <trkpt lat="45.85555" lon="4.68666">
        <ele>200</ele>
        <time>2018-05-06T09:38:38Z</time>
      </trkpt>
      <trkpt lat="45.85554" lon="4.68657">
        <ele>200</ele>
        <time>2018-05-06T09:38:39Z</time>
      </trkpt>
      <trkpt lat="45.85553" lon="4.68648">
        <ele>201</ele>
        <time>2018-05-06T09:38:40Z</time>
      </trkpt>
      <trkpt lat="45.85553" lon="4.6864">
        <ele>201</ele>
        <time>2018-05-06T09:38:41Z</time>
      </trkpt>
      <trkpt lat="45.85552" lon="4.68632">
        <ele>201</ele>
        <time>2018-05-06T09:38:42Z</time>
      </trkpt>
      <trkpt lat="45.85551" lon="4.68623">
        <ele>201</ele>
        <time>2018-05-06T09:38:43Z</time>
      </trkpt>
      <trkpt lat="45.85551" lon="4.68614">
        <ele>201</ele>
        <time>2018-05-06T09:38:44Z</time>
      </trkpt>
      <trkpt lat="45.85551" lon="4.68608">
        <ele>201</ele>
        <time>2018-05-06T09:38:45Z</time>
      </trkpt>
      <trkpt lat="45.85552" lon="4.68597">
        <ele>201</ele>
        <time>2018-05-06T09:38:46Z</time>
      </trkpt>
      <trkpt lat="45.85551" lon="4.6859">
        <ele>201</ele>
        <time>2018-05-06T09:38:47Z</time>
      </trkpt>
      <trkpt lat="45.85551" lon="4.68581">
        <ele>201</ele>
        <time>2018-05-06T09:38:48Z</time>
      </trkpt>
      <trkpt lat="45.85551" lon="4.68572">
        <ele>201</ele>
        <time>2018-05-06T09:38:49Z</time>
      </trkpt>
      <trkpt lat="45.85549" lon="4.68566">
        <ele>201</ele>
        <time>2018-05-06T09:38:50Z</time>
      </trkpt>
      <trkpt lat="45.85548" lon="4.68559">
        <ele>201</ele>
        <time>2018-05-06T09:38:51Z</time>
      </trkpt>
      <trkpt lat="45.85547" lon="4.6855">
        <ele>201</ele>
        <time>2018-05-06T09:38:52Z</time>
      </trkpt>
      <trkpt lat="45.85548" lon="4.68544">
        <ele>201</ele>
        <time>2018-05-06T09:38:53Z</time>
      </trkpt>
      <trkpt lat="45.85547" lon="4.68534">
        <ele>201</ele>
        <time>2018-05-06T09:38:54Z</time>
      </trkpt>
      <trkpt lat="45.85544" lon="4.68527">
        <ele>201</ele>
        <time>2018-05-06T09:38:55Z</time>
      </trkpt>
      <trkpt lat="45.85543" lon="4.68518">
        <ele>201</ele>
        <time>2018-05-06T09:38:56Z</time>
      </trkpt>
      <trkpt lat="45.85541" lon="4.68509">
        <ele>201</ele>
        <time>2018-05-06T09:38:57Z</time>
      </trkpt>
      <trkpt lat="45.8554" lon="4.685">
        <ele>200</ele>
        <time>2018-05-06T09:38:58Z</time>
      </trkpt>
      <trkpt lat="45.8554" lon="4.68493">
        <ele>200</ele>
        <time>2018-05-06T09:38:59Z</time>
      </trkpt>
      <trkpt lat="45.85539" lon="4.68484">
        <ele>200</ele>
        <time>2018-05-06T09:39:00Z</time>
      </trkpt>
      <trkpt lat="45.85539" lon="4.68476">
        <ele>200</ele>
        <time>2018-05-06T09:39:01Z</time>
      </trkpt>
      <trkpt lat="45.85538" lon="4.68465">
        <ele>200</ele>
        <time>2018-05-06T09:39:02Z</time>
      </trkpt>
      <trkpt lat="45.85536" lon="4.68456">
        <ele>200</ele>
        <time>2018-05-06T09:39:03Z</time>
      </trkpt>
      <trkpt lat="45.85536" lon="4.68447">
        <ele>200</ele>
        <time>2018-05-06T09:39:04Z</time>
      </trkpt>
      <trkpt lat="45.85535" lon="4.68437">
        <ele>200</ele>
        <time>2018-05-06T09:39:05Z</time>
      </trkpt>
      <trkpt lat="45.85534" lon="4.68428">
        <ele>200</ele>
        <time>2018-05-06T09:39:06Z</time>
      </trkpt>
      <trkpt lat="45.85532" lon="4.68419">
        <ele>200</ele>
        <time>2018-05-06T09:39:07Z</time>
      </trkpt>
      <trkpt lat="45.8553" lon="4.68411">
        <ele>200</ele>
        <time>2018-05-06T09:39:08Z</time>
      </trkpt>
      <trkpt lat="45.8553" lon="4.68401">
        <ele>200</ele>
        <time>2018-05-06T09:39:09Z</time>
      </trkpt>
      <trkpt lat="45.8553" lon="4.68392">
        <ele>200</ele>
        <time>2018-05-06T09:39:10Z</time>
      </trkpt>
      <trkpt lat="45.85529" lon="4.68383">
        <ele>200</ele>
        <time>2018-05-06T09:39:11Z</time>
      </trkpt>
      <trkpt lat="45.85529" lon="4.68375">
        <ele>201</ele>
        <time>2018-05-06T09:39:12Z</time>
      </trkpt>
      <trkpt lat="45.85528" lon="4.68367">
        <ele>201</ele>
        <time>2018-05-06T09:39:13Z</time>
      </trkpt>
      <trkpt lat="45.85526" lon="4.68357">
        <ele>201</ele>
        <time>2018-05-06T09:39:14Z</time>
      </trkpt>
      <trkpt lat="45.85525" lon="4.68348">
        <ele>201</ele>
        <time>2018-05-06T09:39:15Z</time>
      </trkpt>
      <trkpt lat="45.85524" lon="4.6834">
        <ele>201</ele>
        <time>2018-05-06T09:39:16Z</time>
      </trkpt>
      <trkpt lat="45.85523" lon="4.68334">
        <ele>201</ele>
        <time>2018-05-06T09:39:17Z</time>
      </trkpt>
      <trkpt lat="45.85523" lon="4.68326">
        <ele>202</ele>
        <time>2018-05-06T09:39:18Z</time>
      </trkpt>
      <trkpt lat="45.85522" lon="4.6832">
        <ele>202</ele>
        <time>2018-05-06T09:39:19Z</time>
      </trkpt>
      <trkpt lat="45.85522" lon="4.68312">
        <ele>202</ele>
        <time>2018-05-06T09:39:20Z</time>
      </trkpt>
      <trkpt lat="45.85521" lon="4.68304">
        <ele>202</ele>
        <time>2018-05-06T09:39:21Z</time>
      </trkpt>
      <trkpt lat="45.8552" lon="4.68296">
        <ele>202</ele>
        <time>2018-05-06T09:39:22Z</time>
      </trkpt>
      <trkpt lat="45.8552" lon="4.68288">
        <ele>202</ele>
        <time>2018-05-06T09:39:23Z</time>
      </trkpt>
      <trkpt lat="45.85519" lon="4.6828">
        <ele>202</ele>
        <time>2018-05-06T09:39:24Z</time>
      </trkpt>
      <trkpt lat="45.85518" lon="4.68272">
        <ele>202</ele>
        <time>2018-05-06T09:39:25Z</time>
      </trkpt>
      <trkpt lat="45.85518" lon="4.68266">
        <ele>202</ele>
        <time>2018-05-06T09:39:26Z</time>
      </trkpt>
      <trkpt lat="45.85519" lon="4.68258">
        <ele>202</ele>
        <time>2018-05-06T09:39:27Z</time>
      </trkpt>
      <trkpt lat="45.85518" lon="4.6825">
        <ele>202</ele>
        <time>2018-05-06T09:39:28Z</time>
      </trkpt>
      <trkpt lat="45.85517" lon="4.68242">
        <ele>203</ele>
        <time>2018-05-06T09:39:29Z</time>
      </trkpt>
      <trkpt lat="45.85518" lon="4.68235">
        <ele>203</ele>
        <time>2018-05-06T09:39:30Z</time>
      </trkpt>
      <trkpt lat="45.85517" lon="4.68228">
        <ele>203</ele>
        <time>2018-05-06T09:39:31Z</time>
      </trkpt>
      <trkpt lat="45.85517" lon="4.68221">
        <ele>203</ele>
        <time>2018-05-06T09:39:32Z</time>
      </trkpt>
      <trkpt lat="45.85517" lon="4.68213">
        <ele>203</ele>
        <time>2018-05-06T09:39:33Z</time>
      </trkpt>
      <trkpt lat="45.85516" lon="4.68205">
        <ele>203</ele>
        <time>2018-05-06T09:39:34Z</time>
      </trkpt>
      <trkpt lat="45.85515" lon="4.68197">
        <ele>203</ele>
        <time>2018-05-06T09:39:35Z</time>
      </trkpt>
      <trkpt lat="45.85512" lon="4.68186">
        <ele>203</ele>
        <time>2018-05-06T09:39:37Z</time>
      </trkpt>
      <trkpt lat="45.8551" lon="4.68179">
        <ele>204</ele>
        <time>2018-05-06T09:39:38Z</time>
      </trkpt>
      <trkpt lat="45.85511" lon="4.68168">
        <ele>204</ele>
        <time>2018-05-06T09:39:40Z</time>
      </trkpt>
      <trkpt lat="45.8551" lon="4.68163">
        <ele>204</ele>
        <time>2018-05-06T09:39:41Z</time>
      </trkpt>
      <trkpt lat="45.8551" lon="4.6815">
        <ele>203</ele>
        <time>2018-05-06T09:39:43Z</time>
      </trkpt>
      <trkpt lat="45.8551" lon="4.68144">
        <ele>203</ele>
        <time>2018-05-06T09:39:44Z</time>
      </trkpt>
      <trkpt lat="45.85508" lon="4.68132">
        <ele>203</ele>
        <time>2018-05-06T09:39:46Z</time>
      </trkpt>
      <trkpt lat="45.85508" lon="4.68126">
        <ele>203</ele>
        <time>2018-05-06T09:39:47Z</time>
      </trkpt>
      <trkpt lat="45.85505" lon="4.68113">
        <ele>203</ele>
        <time>2018-05-06T09:39:49Z</time>
      </trkpt>
      <trkpt lat="45.85505" lon="4.68108">
        <ele>203</ele>
        <time>2018-05-06T09:39:50Z</time>
      </trkpt>
      <trkpt lat="45.85505" lon="4.68102">
        <ele>203</ele>
        <time>2018-05-06T09:39:51Z</time>
      </trkpt>
      <trkpt lat="45.85504" lon="4.68094">
        <ele>203</ele>
        <time>2018-05-06T09:39:52Z</time>
      </trkpt>
      <trkpt lat="45.85502" lon="4.68086">
        <ele>204</ele>
        <time>2018-05-06T09:39:53Z</time>
      </trkpt>
      <trkpt lat="45.85501" lon="4.68079">
        <ele>204</ele>
        <time>2018-05-06T09:39:54Z</time>
      </trkpt>
      <trkpt lat="45.85501" lon="4.68067">
        <ele>203</ele>
        <time>2018-05-06T09:39:56Z</time>
      </trkpt>
      <trkpt lat="45.85501" lon="4.68061">
        <ele>203</ele>
        <time>2018-05-06T09:39:57Z</time>
      </trkpt>
      <trkpt lat="45.85499" lon="4.68055">
        <ele>206</ele>
        <time>2018-05-06T09:39:58Z</time>
      </trkpt>
      <trkpt lat="45.85499" lon="4.68048">
        <ele>206</ele>
        <time>2018-05-06T09:39:59Z</time>
      </trkpt>
      <trkpt lat="45.85498" lon="4.68036">
        <ele>207</ele>
        <time>2018-05-06T09:40:01Z</time>
      </trkpt>
      <trkpt lat="45.85498" lon="4.68028">
        <ele>207</ele>
        <time>2018-05-06T09:40:02Z</time>
      </trkpt>
      <trkpt lat="45.85497" lon="4.68017">
        <ele>207</ele>
        <time>2018-05-06T09:40:04Z</time>
      </trkpt>
      <trkpt lat="45.85499" lon="4.68011">
        <ele>206</ele>
        <time>2018-05-06T09:40:05Z</time>
      </trkpt>
      <trkpt lat="45.85503" lon="4.68002">
        <ele>206</ele>
        <time>2018-05-06T09:40:07Z</time>
      </trkpt>
      <trkpt lat="45.85505" lon="4.67998">
        <ele>206</ele>
        <time>2018-05-06T09:40:08Z</time>
      </trkpt>
      <trkpt lat="45.85508" lon="4.67994">
        <ele>206</ele>
        <time>2018-05-06T09:40:09Z</time>
      </trkpt>
      <trkpt lat="45.85513" lon="4.6799">
        <ele>206</ele>
        <time>2018-05-06T09:40:10Z</time>
      </trkpt>
      <trkpt lat="45.85517" lon="4.67986">
        <ele>206</ele>
        <time>2018-05-06T09:40:11Z</time>
      </trkpt>
      <trkpt lat="45.85521" lon="4.67983">
        <ele>205</ele>
        <time>2018-05-06T09:40:12Z</time>
      </trkpt>
      <trkpt lat="45.85527" lon="4.6798">
        <ele>205</ele>
        <time>2018-05-06T09:40:13Z</time>
      </trkpt>
      <trkpt lat="45.85532" lon="4.67975">
        <ele>205</ele>
        <time>2018-05-06T09:40:14Z</time>
      </trkpt>
      <trkpt lat="45.85537" lon="4.67971">
        <ele>205</ele>
        <time>2018-05-06T09:40:15Z</time>
      </trkpt>
      <trkpt lat="45.8554" lon="4.67966">
        <ele>205</ele>
        <time>2018-05-06T09:40:16Z</time>
      </trkpt>
      <trkpt lat="45.85545" lon="4.67962">
        <ele>205</ele>
        <time>2018-05-06T09:40:17Z</time>
      </trkpt>
      <trkpt lat="45.85548" lon="4.67957">
        <ele>205</ele>
        <time>2018-05-06T09:40:18Z</time>
      </trkpt>
      <trkpt lat="45.85552" lon="4.67952">
        <ele>205</ele>
        <time>2018-05-06T09:40:19Z</time>
      </trkpt>
      <trkpt lat="45.85554" lon="4.67947">
        <ele>205</ele>
        <time>2018-05-06T09:40:20Z</time>
      </trkpt>
      <trkpt lat="45.85559" lon="4.67944">
        <ele>205</ele>
        <time>2018-05-06T09:40:21Z</time>
      </trkpt>
      <trkpt lat="45.85563" lon="4.6794">
        <ele>205</ele>
        <time>2018-05-06T09:40:22Z</time>
      </trkpt>
      <trkpt lat="45.85567" lon="4.67935">
        <ele>205</ele>
        <time>2018-05-06T09:40:23Z</time>
      </trkpt>
      <trkpt lat="45.85572" lon="4.67933">
        <ele>205</ele>
        <time>2018-05-06T09:40:24Z</time>
      </trkpt>
      <trkpt lat="45.85577" lon="4.67938">
        <ele>205</ele>
        <time>2018-05-06T09:40:26Z</time>
      </trkpt>
      <trkpt lat="45.8558" lon="4.67943">
        <ele>205</ele>
        <time>2018-05-06T09:40:27Z</time>
      </trkpt>
      <trkpt lat="45.85583" lon="4.67949">
        <ele>204</ele>
        <time>2018-05-06T09:40:28Z</time>
      </trkpt>
      <trkpt lat="45.85585" lon="4.67957">
        <ele>203</ele>
        <time>2018-05-06T09:40:29Z</time>
      </trkpt>
      <trkpt lat="45.85587" lon="4.67965">
        <ele>203</ele>
        <time>2018-05-06T09:40:30Z</time>
      </trkpt>
      <trkpt lat="45.85588" lon="4.67972">
        <ele>203</ele>
        <time>2018-05-06T09:40:31Z</time>
      </trkpt>
      <trkpt lat="45.85591" lon="4.6798">
        <ele>203</ele>
        <time>2018-05-06T09:40:32Z</time>
      </trkpt>
      <trkpt lat="45.85593" lon="4.67988">
        <ele>202</ele>
        <time>2018-05-06T09:40:33Z</time>
      </trkpt>
      <trkpt lat="45.85596" lon="4.67994">
        <ele>202</ele>
        <time>2018-05-06T09:40:34Z</time>
      </trkpt>
      <trkpt lat="45.85599" lon="4.68001">
        <ele>201</ele>
        <time>2018-05-06T09:40:35Z</time>
      </trkpt>
      <trkpt lat="45.85602" lon="4.68008">
        <ele>201</ele>
        <time>2018-05-06T09:40:36Z</time>
      </trkpt>
      <trkpt lat="45.85604" lon="4.68015">
        <ele>201</ele>
        <time>2018-05-06T09:40:37Z</time>
      </trkpt>
      <trkpt lat="45.85608" lon="4.68021">
        <ele>201</ele>
        <time>2018-05-06T09:40:38Z</time>
      </trkpt>
      <trkpt lat="45.85611" lon="4.68029">
        <ele>201</ele>
        <time>2018-05-06T09:40:39Z</time>
      </trkpt>
      <trkpt lat="45.85614" lon="4.68035">
        <ele>201</ele>
        <time>2018-05-06T09:40:40Z</time>
      </trkpt>
      <trkpt lat="45.85617" lon="4.6804">
        <ele>200</ele>
        <time>2018-05-06T09:40:41Z</time>
      </trkpt>
      <trkpt lat="45.85623" lon="4.68048">
        <ele>200</ele>
        <time>2018-05-06T09:40:44Z</time>
      </trkpt>
      <trkpt lat="45.85624" lon="4.68051">
        <ele>200</ele>
        <time>2018-05-06T09:40:45Z</time>
      </trkpt>
      <trkpt lat="45.85624" lon="4.68063">
        <ele>200</ele>
        <time>2018-05-06T09:49:15.193Z</time>
      </trkpt>
      <trkpt lat="45.85624" lon="4.68064">
        <ele>200</ele>
        <time>2018-05-06T09:49:16Z</time>
      </trkpt>
      <trkpt lat="45.85625" lon="4.68063">
        <ele>200</ele>
        <time>2018-05-06T09:54:10.597Z</time>
      </trkpt>
      <trkpt lat="45.85625" lon="4.68064">
        <ele>200</ele>
        <time>2018-05-06T09:54:11Z</time>
      </trkpt>
      <trkpt lat="45.85624" lon="4.68065">
        <ele>200</ele>
        <time>2018-05-06T09:54:17Z</time>
      </trkpt>
      <trkpt lat="45.85624" lon="4.68066">
        <ele>200</ele>
        <time>2018-05-06T09:54:18Z</time>
      </trkpt>
      <trkpt lat="45.85631" lon="4.68072">
        <ele>200</ele>
        <time>2018-05-06T09:54:30Z</time>
      </trkpt>
      <trkpt lat="45.85632" lon="4.68073">
        <ele>200</ele>
        <time>2018-05-06T09:54:31Z</time>
      </trkpt>
      <trkpt lat="45.85638" lon="4.68079">
        <ele>200</ele>
        <time>2018-05-06T09:54:34Z</time>
      </trkpt>
      <trkpt lat="45.8564" lon="4.68082">
        <ele>200</ele>
        <time>2018-05-06T09:54:35Z</time>
      </trkpt>
      <trkpt lat="45.85644" lon="4.68087">
        <ele>200</ele>
        <time>2018-05-06T09:54:37Z</time>
      </trkpt>
      <trkpt lat="45.8565" lon="4.68096">
        <ele>200</ele>
        <time>2018-05-06T09:54:38Z</time>
      </trkpt>
      <trkpt lat="45.85655" lon="4.68104">
        <ele>200</ele>
        <time>2018-05-06T09:54:40Z</time>
      </trkpt>
      <trkpt lat="45.85658" lon="4.68108">
        <ele>200</ele>
        <time>2018-05-06T09:54:41Z</time>
      </trkpt>
      <trkpt lat="45.85664" lon="4.68115">
        <ele>200</ele>
        <time>2018-05-06T09:54:43Z</time>
      </trkpt>
      <trkpt lat="45.85669" lon="4.68118">
        <ele>200</ele>
        <time>2018-05-06T09:54:44Z</time>
      </trkpt>
      <trkpt lat="45.85675" lon="4.68126">
        <ele>200</ele>
        <time>2018-05-06T09:54:46Z</time>
      </trkpt>
      <trkpt lat="45.85679" lon="4.68129">
        <ele>200</ele>
        <time>2018-05-06T09:54:47Z</time>
      </trkpt>
      <trkpt lat="45.85685" lon="4.68136">
        <ele>200</ele>
        <time>2018-05-06T09:54:49Z</time>
      </trkpt>
      <trkpt lat="45.85689" lon="4.6814">
        <ele>200</ele>
        <time>2018-05-06T09:54:50Z</time>
      </trkpt>
      <trkpt lat="45.85694" lon="4.68144">
        <ele>200</ele>
        <time>2018-05-06T09:54:51Z</time>
      </trkpt>
      <trkpt lat="45.85697" lon="4.68149">
        <ele>200</ele>
        <time>2018-05-06T09:54:52Z</time>
      </trkpt>
      <trkpt lat="45.85703" lon="4.68151">
        <ele>200</ele>
        <time>2018-05-06T09:54:53Z</time>
      </trkpt>
      <trkpt lat="45.85708" lon="4.68157">
        <ele>200</ele>
        <time>2018-05-06T09:54:54Z</time>
      </trkpt>
      <trkpt lat="45.85713" lon="4.68163">
        <ele>200</ele>
        <time>2018-05-06T09:54:55Z</time>
      </trkpt>
      <trkpt lat="45.85717" lon="4.68168">
        <ele>199</ele>
        <time>2018-05-06T09:54:56Z</time>
      </trkpt>
      <trkpt lat="45.85721" lon="4.68173">
        <ele>199</ele>
        <time>2018-05-06T09:54:57Z</time>
      </trkpt>
      <trkpt lat="45.85725" lon="4.68178">
        <ele>199</ele>
        <time>2018-05-06T09:54:58Z</time>
      </trkpt>
      <trkpt lat="45.8573" lon="4.68184">
        <ele>199</ele>
        <time>2018-05-06T09:54:59Z</time>
      </trkpt>
      <trkpt lat="45.85734" lon="4.6819">
        <ele>199</ele>
        <time>2018-05-06T09:55:00Z</time>
      </trkpt>
      <trkpt lat="45.85737" lon="4.68195">
        <ele>199</ele>
        <time>2018-05-06T09:55:01Z</time>
      </trkpt>
      <trkpt lat="45.85742" lon="4.68202">
        <ele>199</ele>
        <time>2018-05-06T09:55:02Z</time>
      </trkpt>
      <trkpt lat="45.85746" lon="4.68207">
        <ele>199</ele>
        <time>2018-05-06T09:55:03Z</time>
      </trkpt>
      <trkpt lat="45.85751" lon="4.68214">
        <ele>201</ele>
        <time>2018-05-06T09:55:04Z</time>
      </trkpt>
      <trkpt lat="45.85756" lon="4.68219">
        <ele>201</ele>
        <time>2018-05-06T09:55:05Z</time>
      </trkpt>
      <trkpt lat="45.85761" lon="4.68224">
        <ele>201</ele>
        <time>2018-05-06T09:55:06Z</time>
      </trkpt>
      <trkpt lat="45.85765" lon="4.68229">
        <ele>201</ele>
        <time>2018-05-06T09:55:07Z</time>
      </trkpt>
      <trkpt lat="45.8577" lon="4.68234">
        <ele>201</ele>
        <time>2018-05-06T09:55:08Z</time>
      </trkpt>
      <trkpt lat="45.85774" lon="4.68241">
        <ele>201</ele>
        <time>2018-05-06T09:55:09Z</time>
      </trkpt>
      <trkpt lat="45.85779" lon="4.68245">
        <ele>201</ele>
        <time>2018-05-06T09:55:10Z</time>
      </trkpt>
      <trkpt lat="45.85783" lon="4.6825">
        <ele>200</ele>
        <time>2018-05-06T09:55:11Z</time>
      </trkpt>
      <trkpt lat="45.85788" lon="4.68255">
        <ele>200</ele>
        <time>2018-05-06T09:55:12Z</time>
      </trkpt>
      <trkpt lat="45.85792" lon="4.68261">
        <ele>201</ele>
        <time>2018-05-06T09:55:13Z</time>
      </trkpt>
      <trkpt lat="45.85796" lon="4.68267">
        <ele>201</ele>
        <time>2018-05-06T09:55:14Z</time>
      </trkpt>
      <trkpt lat="45.85799" lon="4.68272">
        <ele>201</ele>
        <time>2018-05-06T09:55:15Z</time>
      </trkpt>
      <trkpt lat="45.85804" lon="4.68277">
        <ele>201</ele>
        <time>2018-05-06T09:55:16Z</time>
      </trkpt>
      <trkpt lat="45.85807" lon="4.68284">
        <ele>201</ele>
        <time>2018-05-06T09:55:17Z</time>
      </trkpt>
      <trkpt lat="45.85811" lon="4.68288">
        <ele>201</ele>
        <time>2018-05-06T09:55:18Z</time>
      </trkpt>
      <trkpt lat="45.85815" lon="4.68294">
        <ele>201</ele>
        <time>2018-05-06T09:55:19Z</time>
      </trkpt>
      <trkpt lat="45.85818" lon="4.683">
        <ele>201</ele>
        <time>2018-05-06T09:55:20Z</time>
      </trkpt>
      <trkpt lat="45.85824" lon="4.68309">
        <ele>200</ele>
        <time>2018-05-06T09:55:22Z</time>
      </trkpt>
      <trkpt lat="45.85828" lon="4.68316">
        <ele>200</ele>
        <time>2018-05-06T09:55:23Z</time>
      </trkpt>
      <trkpt lat="45.85831" lon="4.68322">
        <ele>200</ele>
        <time>2018-05-06T09:55:24Z</time>
      </trkpt>
      <trkpt lat="45.85834" lon="4.68328">
        <ele>201</ele>
        <time>2018-05-06T09:55:25Z</time>
      </trkpt>
      <trkpt lat="45.85837" lon="4.68335">
        <ele>200</ele>
        <time>2018-05-06T09:55:26Z</time>
      </trkpt>
      <trkpt lat="45.85841" lon="4.68344">
        <ele>201</ele>
        <time>2018-05-06T09:55:27Z</time>
      </trkpt>
      <trkpt lat="45.85843" lon="4.68349">
        <ele>201</ele>
        <time>2018-05-06T09:55:28Z</time>
      </trkpt>
      <trkpt lat="45.85846" lon="4.68357">
        <ele>201</ele>
        <time>2018-05-06T09:55:29Z</time>
      </trkpt>
      <trkpt lat="45.85848" lon="4.68363">
        <ele>201</ele>
        <time>2018-05-06T09:55:30Z</time>
      </trkpt>
      <trkpt lat="45.85852" lon="4.6837">
        <ele>201</ele>
        <time>2018-05-06T09:55:31Z</time>
      </trkpt>
      <trkpt lat="45.85854" lon="4.68377">
        <ele>201</ele>
        <time>2018-05-06T09:55:32Z</time>
      </trkpt>
      <trkpt lat="45.85856" lon="4.68383">
        <ele>201</ele>
        <time>2018-05-06T09:55:33Z</time>
      </trkpt>
      <trkpt lat="45.85857" lon="4.68392">
        <ele>201</ele>
        <time>2018-05-06T09:55:34Z</time>
      </trkpt>
      <trkpt lat="45.85858" lon="4.68399">
        <ele>201</ele>
        <time>2018-05-06T09:55:35Z</time>
      </trkpt>
      <trkpt lat="45.85861" lon="4.68407">
        <ele>201</ele>
        <time>2018-05-06T09:55:36Z</time>
      </trkpt>
      <trkpt lat="45.85862" lon="4.68412">
        <ele>201</ele>
        <time>2018-05-06T09:55:37Z</time>
      </trkpt>
      <trkpt lat="45.85864" lon="4.68419">
        <ele>200</ele>
        <time>2018-05-06T09:55:38Z</time>
      </trkpt>
      <trkpt lat="45.85865" lon="4.68427">
        <ele>200</ele>
        <time>2018-05-06T09:55:39Z</time>
      </trkpt>
      <trkpt lat="45.85868" lon="4.68439">
        <ele>200</ele>
        <time>2018-05-06T09:55:41Z</time>
      </trkpt>
      <trkpt lat="45.85869" lon="4.68447">
        <ele>200</ele>
        <time>2018-05-06T09:55:42Z</time>
      </trkpt>
      <trkpt lat="45.8587" lon="4.68456">
        <ele>200</ele>
        <time>2018-05-06T09:55:43Z</time>
      </trkpt>
      <trkpt lat="45.85871" lon="4.68462">
        <ele>200</ele>
        <time>2018-05-06T09:55:44Z</time>
      </trkpt>
      <trkpt lat="45.85872" lon="4.68469">
        <ele>200</ele>
        <time>2018-05-06T09:55:45Z</time>
      </trkpt>
      <trkpt lat="45.85874" lon="4.68476">
        <ele>200</ele>
        <time>2018-05-06T09:55:46Z</time>
      </trkpt>
      <trkpt lat="45.85875" lon="4.68482">
        <ele>200</ele>
        <time>2018-05-06T09:55:47Z</time>
      </trkpt>
      <trkpt lat="45.85875" lon="4.6849">
        <ele>201</ele>
        <time>2018-05-06T09:55:48Z</time>
      </trkpt>
      <trkpt lat="45.85876" lon="4.68498">
        <ele>201</ele>
        <time>2018-05-06T09:55:49Z</time>
      </trkpt>
      <trkpt lat="45.85878" lon="4.68506">
        <ele>200</ele>
        <time>2018-05-06T09:55:50Z</time>
      </trkpt>
      <trkpt lat="45.85879" lon="4.68514">
        <ele>200</ele>
        <time>2018-05-06T09:55:51Z</time>
      </trkpt>
      <trkpt lat="45.85881" lon="4.68522">
        <ele>200</ele>
        <time>2018-05-06T09:55:52Z</time>
      </trkpt>
      <trkpt lat="45.85881" lon="4.68528">
        <ele>200</ele>
        <time>2018-05-06T09:55:53Z</time>
      </trkpt>
      <trkpt lat="45.85882" lon="4.68535">
        <ele>200</ele>
        <time>2018-05-06T09:55:54Z</time>
      </trkpt>
      <trkpt lat="45.85882" lon="4.68542">
        <ele>200</ele>
        <time>2018-05-06T09:55:55Z</time>
      </trkpt>
      <trkpt lat="45.85884" lon="4.68549">
        <ele>200</ele>
        <time>2018-05-06T09:55:56Z</time>
      </trkpt>
      <trkpt lat="45.85885" lon="4.68557">
        <ele>200</ele>
        <time>2018-05-06T09:55:57Z</time>
      </trkpt>
      <trkpt lat="45.85885" lon="4.68564">
        <ele>200</ele>
        <time>2018-05-06T09:55:58Z</time>
      </trkpt>
      <trkpt lat="45.85886" lon="4.68571">
        <ele>200</ele>
        <time>2018-05-06T09:55:59Z</time>
      </trkpt>
      <trkpt lat="45.85887" lon="4.68578">
        <ele>199</ele>
        <time>2018-05-06T09:56:00Z</time>
      </trkpt>
      <trkpt lat="45.85887" lon="4.68587">
        <ele>199</ele>
        <time>2018-05-06T09:56:01Z</time>
      </trkpt>
      <trkpt lat="45.85888" lon="4.68594">
        <ele>199</ele>
        <time>2018-05-06T09:56:02Z</time>
      </trkpt>
      <trkpt lat="45.85889" lon="4.68601">
        <ele>199</ele>
        <time>2018-05-06T09:56:03Z</time>
      </trkpt>
      <trkpt lat="45.85889" lon="4.68609">
        <ele>199</ele>
        <time>2018-05-06T09:56:04Z</time>
      </trkpt>
      <trkpt lat="45.85891" lon="4.68618">
        <ele>199</ele>
        <time>2018-05-06T09:56:05Z</time>
      </trkpt>
      <trkpt lat="45.85891" lon="4.68626">
        <ele>198</ele>
        <time>2018-05-06T09:56:06Z</time>
      </trkpt>
      <trkpt lat="45.85892" lon="4.68635">
        <ele>198</ele>
        <time>2018-05-06T09:56:07Z</time>
      </trkpt>
      <trkpt lat="45.85892" lon="4.68642">
        <ele>198</ele>
        <time>2018-05-06T09:56:08Z</time>
      </trkpt>
      <trkpt lat="45.85892" lon="4.68651">
        <ele>198</ele>
        <time>2018-05-06T09:56:09Z</time>
      </trkpt>
      <trkpt lat="45.85892" lon="4.68659">
        <ele>198</ele>
        <time>2018-05-06T09:56:10Z</time>
      </trkpt>
      <trkpt lat="45.85891" lon="4.68665">
        <ele>198</ele>
        <time>2018-05-06T09:56:11Z</time>
      </trkpt>
      <trkpt lat="45.85891" lon="4.68673">
        <ele>198</ele>
        <time>2018-05-06T09:56:12Z</time>
      </trkpt>
      <trkpt lat="45.85891" lon="4.68681">
        <ele>198</ele>
        <time>2018-05-06T09:56:13Z</time>
      </trkpt>
      <trkpt lat="45.85891" lon="4.68689">
        <ele>198</ele>
        <time>2018-05-06T09:56:14Z</time>
      </trkpt>
      <trkpt lat="45.8589" lon="4.68696">
        <ele>198</ele>
        <time>2018-05-06T09:56:15Z</time>
      </trkpt>
      <trkpt lat="45.85889" lon="4.68702">
        <ele>198</ele>
        <time>2018-05-06T09:56:16Z</time>
      </trkpt>
      <trkpt lat="45.85888" lon="4.68709">
        <ele>198</ele>
        <time>2018-05-06T09:56:17Z</time>
      </trkpt>
      <trkpt lat="45.85887" lon="4.68717">
        <ele>198</ele>
        <time>2018-05-06T09:56:18Z</time>
      </trkpt>
      <trkpt lat="45.85887" lon="4.68728">
        <ele>198</ele>
        <time>2018-05-06T09:56:19Z</time>
      </trkpt>
      <trkpt lat="45.85887" lon="4.68737">
        <ele>198</ele>
        <time>2018-05-06T09:56:20Z</time>
      </trkpt>
      <trkpt lat="45.85886" lon="4.68744">
        <ele>198</ele>
        <time>2018-05-06T09:56:21Z</time>
      </trkpt>
      <trkpt lat="45.85886" lon="4.6875">
        <ele>198</ele>
        <time>2018-05-06T09:56:22Z</time>
      </trkpt>
      <trkpt lat="45.85885" lon="4.68757">
        <ele>198</ele>
        <time>2018-05-06T09:56:23Z</time>
      </trkpt>
      <trkpt lat="45.85884" lon="4.68764">
        <ele>198</ele>
        <time>2018-05-06T09:56:24Z</time>
      </trkpt>
      <trkpt lat="45.85883" lon="4.68772">
        <ele>198</ele>
        <time>2018-05-06T09:56:25Z</time>
      </trkpt>
      <trkpt lat="45.85881" lon="4.6878">
        <ele>198</ele>
        <time>2018-05-06T09:56:26Z</time>
      </trkpt>
      <trkpt lat="45.85879" lon="4.68788">
        <ele>198</ele>
        <time>2018-05-06T09:56:27Z</time>
      </trkpt>
      <trkpt lat="45.85878" lon="4.68795">
        <ele>198</ele>
        <time>2018-05-06T09:56:28Z</time>
      </trkpt>
      <trkpt lat="45.85876" lon="4.68802">
        <ele>198</ele>
        <time>2018-05-06T09:56:29Z</time>
      </trkpt>
      <trkpt lat="45.85874" lon="4.6881">
        <ele>198</ele>
        <time>2018-05-06T09:56:30Z</time>
      </trkpt>
      <trkpt lat="45.85873" lon="4.6882">
        <ele>198</ele>
        <time>2018-05-06T09:56:31Z</time>
      </trkpt>
      <trkpt lat="45.85872" lon="4.68828">
        <ele>198</ele>
        <time>2018-05-06T09:56:32Z</time>
      </trkpt>
      <trkpt lat="45.85871" lon="4.68835">
        <ele>198</ele>
        <time>2018-05-06T09:56:33Z</time>
      </trkpt>
      <trkpt lat="45.8587" lon="4.68844">
        <ele>198</ele>
        <time>2018-05-06T09:56:34Z</time>
      </trkpt>
      <trkpt lat="45.85869" lon="4.68852">
        <ele>198</ele>
        <time>2018-05-06T09:56:35Z</time>
      </trkpt>
      <trkpt lat="45.85868" lon="4.68861">
        <ele>198</ele>
        <time>2018-05-06T09:56:36Z</time>
      </trkpt>
      <trkpt lat="45.85869" lon="4.68865">
        <ele>198</ele>
        <time>2018-05-06T09:56:37Z</time>
      </trkpt>
      <trkpt lat="45.85869" lon="4.68874">
        <ele>198</ele>
        <time>2018-05-06T09:56:38Z</time>
      </trkpt>
      <trkpt lat="45.85868" lon="4.68881">
        <ele>197</ele>
        <time>2018-05-06T09:56:39Z</time>
      </trkpt>
      <trkpt lat="45.85867" lon="4.68889">
        <ele>197</ele>
        <time>2018-05-06T09:56:40Z</time>
      </trkpt>
      <trkpt lat="45.85866" lon="4.68895">
        <ele>197</ele>
        <time>2018-05-06T09:56:41Z</time>
      </trkpt>
      <trkpt lat="45.85865" lon="4.68903">
        <ele>197</ele>
        <time>2018-05-06T09:56:42Z</time>
      </trkpt>
      <trkpt lat="45.85864" lon="4.68914">
        <ele>197</ele>
        <time>2018-05-06T09:56:43Z</time>
      </trkpt>
      <trkpt lat="45.85864" lon="4.68922">
        <ele>197</ele>
        <time>2018-05-06T09:56:44Z</time>
      </trkpt>
      <trkpt lat="45.85864" lon="4.68932">
        <ele>197</ele>
        <time>2018-05-06T09:56:45Z</time>
      </trkpt>
      <trkpt lat="45.85864" lon="4.6894">
        <ele>197</ele>
        <time>2018-05-06T09:56:46Z</time>
      </trkpt>
      <trkpt lat="45.85863" lon="4.68949">
        <ele>197</ele>
        <time>2018-05-06T09:56:47Z</time>
      </trkpt>
      <trkpt lat="45.85864" lon="4.68957">
        <ele>197</ele>
        <time>2018-05-06T09:56:48Z</time>
      </trkpt>
      <trkpt lat="45.85864" lon="4.68966">
        <ele>197</ele>
        <time>2018-05-06T09:56:49Z</time>
      </trkpt>
      <trkpt lat="45.85864" lon="4.68973">
        <ele>197</ele>
        <time>2018-05-06T09:56:50Z</time>
      </trkpt>
      <trkpt lat="45.85865" lon="4.68981">
        <ele>197</ele>
        <time>2018-05-06T09:56:51Z</time>
      </trkpt>
      <trkpt lat="45.85866" lon="4.68988">
        <ele>197</ele>
        <time>2018-05-06T09:56:52Z</time>
      </trkpt>
      <trkpt lat="45.85868" lon="4.68995">
        <ele>197</ele>
        <time>2018-05-06T09:56:53Z</time>
      </trkpt>
      <trkpt lat="45.85869" lon="4.69003">
        <ele>197</ele>
        <time>2018-05-06T09:56:54Z</time>
      </trkpt>
      <trkpt lat="45.85872" lon="4.6901">
        <ele>197</ele>
        <time>2018-05-06T09:56:55Z</time>
      </trkpt>
      <trkpt lat="45.85874" lon="4.69018">
        <ele>197</ele>
        <time>2018-05-06T09:56:56Z</time>
      </trkpt>
      <trkpt lat="45.85876" lon="4.69025">
        <ele>198</ele>
        <time>2018-05-06T09:56:57Z</time>
      </trkpt>
      <trkpt lat="45.85879" lon="4.69032">
        <ele>198</ele>
        <time>2018-05-06T09:56:58Z</time>
      </trkpt>
      <trkpt lat="45.85882" lon="4.69038">
        <ele>198</ele>
        <time>2018-05-06T09:56:59Z</time>
      </trkpt>
      <trkpt lat="45.85885" lon="4.69045">
        <ele>198</ele>
        <time>2018-05-06T09:57:00Z</time>
      </trkpt>
      <trkpt lat="45.85888" lon="4.69052">
        <ele>198</ele>
        <time>2018-05-06T09:57:01Z</time>
      </trkpt>
      <trkpt lat="45.85892" lon="4.69057">
        <ele>198</ele>
        <time>2018-05-06T09:57:02Z</time>
      </trkpt>
      <trkpt lat="45.85895" lon="4.69063">
        <ele>198</ele>
        <time>2018-05-06T09:57:03Z</time>
      </trkpt>
      <trkpt lat="45.85898" lon="4.69067">
        <ele>198</ele>
        <time>2018-05-06T09:57:04Z</time>
      </trkpt>
      <trkpt lat="45.85905" lon="4.69075">
        <ele>198</ele>
        <time>2018-05-06T09:57:06Z</time>
      </trkpt>
      <trkpt lat="45.85909" lon="4.69079">
        <ele>198</ele>
        <time>2018-05-06T09:57:07Z</time>
      </trkpt>
      <trkpt lat="45.85914" lon="4.69083">
        <ele>198</ele>
        <time>2018-05-06T09:57:08Z</time>
      </trkpt>
      <trkpt lat="45.85919" lon="4.69085">
        <ele>198</ele>
        <time>2018-05-06T09:57:09Z</time>
      </trkpt>
      <trkpt lat="45.85924" lon="4.69088">
        <ele>198</ele>
        <time>2018-05-06T09:57:10Z</time>
      </trkpt>
      <trkpt lat="45.8593" lon="4.6909">
        <ele>198</ele>
        <time>2018-05-06T09:57:11Z</time>
      </trkpt>
      <trkpt lat="45.85935" lon="4.69092">
        <ele>197</ele>
        <time>2018-05-06T09:57:12Z</time>
      </trkpt>
      <trkpt lat="45.85942" lon="4.69093">
        <ele>197</ele>
        <time>2018-05-06T09:57:13Z</time>
      </trkpt>
      <trkpt lat="45.85948" lon="4.69094">
        <ele>197</ele>
        <time>2018-05-06T09:57:14Z</time>
      </trkpt>
      <trkpt lat="45.85954" lon="4.69095">
        <ele>197</ele>
        <time>2018-05-06T09:57:15Z</time>
      </trkpt>
      <trkpt lat="45.85962" lon="4.69097">
        <ele>197</ele>
        <time>2018-05-06T09:57:17Z</time>
      </trkpt>
      <trkpt lat="45.85968" lon="4.69097">
        <ele>197</ele>
        <time>2018-05-06T09:57:18Z</time>
      </trkpt>
      <trkpt lat="45.85972" lon="4.69099">
        <ele>197</ele>
        <time>2018-05-06T09:57:19Z</time>
      </trkpt>
      <trkpt lat="45.85978" lon="4.69099">
        <ele>197</ele>
        <time>2018-05-06T09:57:20Z</time>
      </trkpt>
      <trkpt lat="45.85985" lon="4.69099">
        <ele>197</ele>
        <time>2018-05-06T09:57:21Z</time>
      </trkpt>
      <trkpt lat="45.85991" lon="4.69098">
        <ele>196</ele>
        <time>2018-05-06T09:57:22Z</time>
      </trkpt>
      <trkpt lat="45.85996" lon="4.69096">
        <ele>196</ele>
        <time>2018-05-06T09:57:23Z</time>
      </trkpt>
      <trkpt lat="45.86002" lon="4.69095">
        <ele>196</ele>
        <time>2018-05-06T09:57:24Z</time>
      </trkpt>
      <trkpt lat="45.86007" lon="4.69096">
        <ele>197</ele>
        <time>2018-05-06T09:57:25Z</time>
      </trkpt>
      <trkpt lat="45.86012" lon="4.69096">
        <ele>197</ele>
        <time>2018-05-06T09:57:26Z</time>
      </trkpt>
      <trkpt lat="45.86017" lon="4.69097">
        <ele>197</ele>
        <time>2018-05-06T09:57:27Z</time>
      </trkpt>
      <trkpt lat="45.86022" lon="4.69096">
        <ele>197</ele>
        <time>2018-05-06T09:57:28Z</time>
      </trkpt>
      <trkpt lat="45.86027" lon="4.69097">
        <ele>197</ele>
        <time>2018-05-06T09:57:29Z</time>
      </trkpt>
      <trkpt lat="45.86033" lon="4.69094">
        <ele>197</ele>
        <time>2018-05-06T09:57:30Z</time>
      </trkpt>
      <trkpt lat="45.86038" lon="4.69094">
        <ele>197</ele>
        <time>2018-05-06T09:57:31Z</time>
      </trkpt>
      <trkpt lat="45.86043" lon="4.69093">
        <ele>197</ele>
        <time>2018-05-06T09:57:32Z</time>
      </trkpt>
      <trkpt lat="45.86049" lon="4.69092">
        <ele>197</ele>
        <time>2018-05-06T09:57:33Z</time>
      </trkpt>
      <trkpt lat="45.86055" lon="4.69092">
        <ele>197</ele>
        <time>2018-05-06T09:57:34Z</time>
      </trkpt>
      <trkpt lat="45.8606" lon="4.69092">
        <ele>197</ele>
        <time>2018-05-06T09:57:35Z</time>
      </trkpt>
      <trkpt lat="45.86065" lon="4.69091">
        <ele>198</ele>
        <time>2018-05-06T09:57:36Z</time>
      </trkpt>
      <trkpt lat="45.86069" lon="4.69091">
        <ele>198</ele>
        <time>2018-05-06T09:57:37Z</time>
      </trkpt>
      <trkpt lat="45.86074" lon="4.69091">
        <ele>198</ele>
        <time>2018-05-06T09:57:38Z</time>
      </trkpt>
      <trkpt lat="45.86079" lon="4.69091">
        <ele>198</ele>
        <time>2018-05-06T09:57:39Z</time>
      </trkpt>
      <trkpt lat="45.86084" lon="4.6909">
        <ele>199</ele>
        <time>2018-05-06T09:57:40Z</time>
      </trkpt>
      <trkpt lat="45.86093" lon="4.6909">
        <ele>199</ele>
        <time>2018-05-06T09:57:42Z</time>
      </trkpt>
      <trkpt lat="45.86097" lon="4.6909">
        <ele>200</ele>
        <time>2018-05-06T09:57:43Z</time>
      </trkpt>
      <trkpt lat="45.86102" lon="4.69089">
        <ele>200</ele>
        <time>2018-05-06T09:57:44Z</time>
      </trkpt>
      <trkpt lat="45.86107" lon="4.69088">
        <ele>200</ele>
        <time>2018-05-06T09:57:45Z</time>
      </trkpt>
      <trkpt lat="45.86115" lon="4.69087">
        <ele>201</ele>
        <time>2018-05-06T09:57:47Z</time>
      </trkpt>
      <trkpt lat="45.86119" lon="4.69087">
        <ele>201</ele>
        <time>2018-05-06T09:57:48Z</time>
      </trkpt>
      <trkpt lat="45.86125" lon="4.69085">
        <ele>201</ele>
        <time>2018-05-06T09:57:49Z</time>
      </trkpt>
      <trkpt lat="45.86129" lon="4.69084">
        <ele>202</ele>
        <time>2018-05-06T09:57:50Z</time>
      </trkpt>
      <trkpt lat="45.86137" lon="4.69082">
        <ele>203</ele>
        <time>2018-05-06T09:57:53Z</time>
      </trkpt>
      <trkpt lat="45.8614" lon="4.69081">
        <ele>203</ele>
        <time>2018-05-06T09:57:54Z</time>
      </trkpt>
      <trkpt lat="45.86148" lon="4.6908">
        <ele>204</ele>
        <time>2018-05-06T09:57:57Z</time>
      </trkpt>
      <trkpt lat="45.86151" lon="4.6908">
        <ele>204</ele>
        <time>2018-05-06T09:57:58Z</time>
      </trkpt>
      <trkpt lat="45.86157" lon="4.69079">
        <ele>204</ele>
        <time>2018-05-06T09:58:00Z</time>
      </trkpt>
      <trkpt lat="45.8616" lon="4.69079">
        <ele>205</ele>
        <time>2018-05-06T09:58:01Z</time>
      </trkpt>
      <trkpt lat="45.86166" lon="4.69078">
        <ele>205</ele>
        <time>2018-05-06T09:58:03Z</time>
      </trkpt>
      <trkpt lat="45.86169" lon="4.69078">
        <ele>206</ele>
        <time>2018-05-06T09:58:04Z</time>
      </trkpt>
      <trkpt lat="45.86178" lon="4.69076">
        <ele>207</ele>
        <time>2018-05-06T09:58:07Z</time>
      </trkpt>
      <trkpt lat="45.86181" lon="4.69076">
        <ele>208</ele>
        <time>2018-05-06T09:58:08Z</time>
      </trkpt>
      <trkpt lat="45.86189" lon="4.69074">
        <ele>208</ele>
        <time>2018-05-06T09:58:11Z</time>
      </trkpt>
      <trkpt lat="45.86193" lon="4.69074">
        <ele>209</ele>
        <time>2018-05-06T09:58:12Z</time>
      </trkpt>
      <trkpt lat="45.86199" lon="4.69073">
        <ele>209</ele>
        <time>2018-05-06T09:58:14Z</time>
      </trkpt>
      <trkpt lat="45.86202" lon="4.69072">
        <ele>209</ele>
        <time>2018-05-06T09:58:15Z</time>
      </trkpt>
      <trkpt lat="45.8621" lon="4.69072">
        <ele>210</ele>
        <time>2018-05-06T09:58:18Z</time>
      </trkpt>
      <trkpt lat="45.86213" lon="4.69071">
        <ele>210</ele>
        <time>2018-05-06T09:58:19Z</time>
      </trkpt>
      <trkpt lat="45.86221" lon="4.69071">
        <ele>210</ele>
        <time>2018-05-06T09:58:22Z</time>
      </trkpt>
      <trkpt lat="45.86223" lon="4.69071">
        <ele>210</ele>
        <time>2018-05-06T09:58:23Z</time>
      </trkpt>
      <trkpt lat="45.86231" lon="4.69072">
        <ele>211</ele>
        <time>2018-05-06T09:58:26Z</time>
      </trkpt>
      <trkpt lat="45.86233" lon="4.69072">
        <ele>211</ele>
        <time>2018-05-06T09:58:27Z</time>
      </trkpt>
      <trkpt lat="45.8624" lon="4.69075">
        <ele>211</ele>
        <time>2018-05-06T09:58:30Z</time>
      </trkpt>
      <trkpt lat="45.86242" lon="4.69076">
        <ele>211</ele>
        <time>2018-05-06T09:58:31Z</time>
      </trkpt>
      <trkpt lat="45.86249" lon="4.69079">
        <ele>211</ele>
        <time>2018-05-06T09:58:34Z</time>
      </trkpt>
      <trkpt lat="45.86252" lon="4.69081">
        <ele>211</ele>
        <time>2018-05-06T09:58:35Z</time>
      </trkpt>
      <trkpt lat="45.86258" lon="4.69085">
        <ele>212</ele>
        <time>2018-05-06T09:58:38Z</time>
      </trkpt>
      <trkpt lat="45.86261" lon="4.69086">
        <ele>212</ele>
        <time>2018-05-06T09:58:39Z</time>
      </trkpt>
      <trkpt lat="45.86267" lon="4.6909">
        <ele>212</ele>
        <time>2018-05-06T09:58:42Z</time>
      </trkpt>
      <trkpt lat="45.8627" lon="4.69091">
        <ele>213</ele>
        <time>2018-05-06T09:58:43Z</time>
      </trkpt>
      <trkpt lat="45.86277" lon="4.69094">
        <ele>213</ele>
        <time>2018-05-06T09:58:46Z</time>
      </trkpt>
      <trkpt lat="45.8628" lon="4.69096">
        <ele>213</ele>
        <time>2018-05-06T09:58:47Z</time>
      </trkpt>
      <trkpt lat="45.86288" lon="4.691">
        <ele>213</ele>
        <time>2018-05-06T09:58:50Z</time>
      </trkpt>
      <trkpt lat="45.8629" lon="4.69102">
        <ele>214</ele>
        <time>2018-05-06T09:58:51Z</time>
      </trkpt>
      <trkpt lat="45.86298" lon="4.69107">
        <ele>214</ele>
        <time>2018-05-06T09:58:54Z</time>
      </trkpt>
      <trkpt lat="45.863" lon="4.69109">
        <ele>214</ele>
        <time>2018-05-06T09:58:55Z</time>
      </trkpt>
      <trkpt lat="45.86307" lon="4.69115">
        <ele>214</ele>
        <time>2018-05-06T09:58:58Z</time>
      </trkpt>
      <trkpt lat="45.8631" lon="4.69117">
        <ele>214</ele>
        <time>2018-05-06T09:58:59Z</time>
      </trkpt>
      <trkpt lat="45.86316" lon="4.69123">
        <ele>214</ele>
        <time>2018-05-06T09:59:02Z</time>
      </trkpt>
      <trkpt lat="45.86318" lon="4.69126">
        <ele>214</ele>
        <time>2018-05-06T09:59:03Z</time>
      </trkpt>
      <trkpt lat="45.86323" lon="4.69133">
        <ele>215</ele>
        <time>2018-05-06T09:59:06Z</time>
      </trkpt>
      <trkpt lat="45.86325" lon="4.69135">
        <ele>215</ele>
        <time>2018-05-06T09:59:07Z</time>
      </trkpt>
      <trkpt lat="45.86331" lon="4.6914">
        <ele>215</ele>
        <time>2018-05-06T09:59:10Z</time>
      </trkpt>
      <trkpt lat="45.86333" lon="4.69142">
        <ele>215</ele>
        <time>2018-05-06T09:59:11Z</time>
      </trkpt>
      <trkpt lat="45.86338" lon="4.6915">
        <ele>217</ele>
        <time>2018-05-06T09:59:14Z</time>
      </trkpt>
      <trkpt lat="45.8634" lon="4.69153">
        <ele>217</ele>
        <time>2018-05-06T09:59:15Z</time>
      </trkpt>
      <trkpt lat="45.86344" lon="4.69161">
        <ele>217</ele>
        <time>2018-05-06T09:59:18Z</time>
      </trkpt>
      <trkpt lat="45.86345" lon="4.69164">
        <ele>217</ele>
        <time>2018-05-06T09:59:19Z</time>
      </trkpt>
      <trkpt lat="45.8635" lon="4.69172">
        <ele>218</ele>
        <time>2018-05-06T09:59:22Z</time>
      </trkpt>
      <trkpt lat="45.86351" lon="4.69175">
        <ele>218</ele>
        <time>2018-05-06T09:59:23Z</time>
      </trkpt>
      <trkpt lat="45.86356" lon="4.69184">
        <ele>218</ele>
        <time>2018-05-06T09:59:26Z</time>
      </trkpt>
      <trkpt lat="45.86358" lon="4.69187">
        <ele>218</ele>
        <time>2018-05-06T09:59:27Z</time>
      </trkpt>
      <trkpt lat="45.86363" lon="4.69196">
        <ele>218</ele>
        <time>2018-05-06T09:59:30Z</time>
      </trkpt>
      <trkpt lat="45.86364" lon="4.692">
        <ele>219</ele>
        <time>2018-05-06T09:59:31Z</time>
      </trkpt>
      <trkpt lat="45.86369" lon="4.6921">
        <ele>219</ele>
        <time>2018-05-06T09:59:34Z</time>
      </trkpt>
      <trkpt lat="45.86371" lon="4.69213">
        <ele>219</ele>
        <time>2018-05-06T09:59:35Z</time>
      </trkpt>
      <trkpt lat="45.86375" lon="4.69224">
        <ele>219</ele>
        <time>2018-05-06T09:59:38Z</time>
      </trkpt>
      <trkpt lat="45.86377" lon="4.69227">
        <ele>219</ele>
        <time>2018-05-06T09:59:39Z</time>
      </trkpt>
      <trkpt lat="45.8638" lon="4.69235">
        <ele>219</ele>
        <time>2018-05-06T09:59:41Z</time>
      </trkpt>
      <trkpt lat="45.86382" lon="4.69238">
        <ele>219</ele>
        <time>2018-05-06T09:59:42Z</time>
      </trkpt>
      <trkpt lat="45.86386" lon="4.69247">
        <ele>219</ele>
        <time>2018-05-06T09:59:44Z</time>
      </trkpt>
      <trkpt lat="45.86388" lon="4.69251">
        <ele>219</ele>
        <time>2018-05-06T09:59:45Z</time>
      </trkpt>
      <trkpt lat="45.8639" lon="4.69255">
        <ele>219</ele>
        <time>2018-05-06T09:59:46Z</time>
      </trkpt>
      <trkpt lat="45.86395" lon="4.69267">
        <ele>219</ele>
        <time>2018-05-06T09:59:47Z</time>
      </trkpt>
      <trkpt lat="45.86399" lon="4.69276">
        <ele>219</ele>
        <time>2018-05-06T09:59:49Z</time>
      </trkpt>
      <trkpt lat="45.86401" lon="4.69281">
        <ele>219</ele>
        <time>2018-05-06T09:59:50Z</time>
      </trkpt>
      <trkpt lat="45.86405" lon="4.6929">
        <ele>219</ele>
        <time>2018-05-06T09:59:52Z</time>
      </trkpt>
      <trkpt lat="45.86407" lon="4.69294">
        <ele>219</ele>
        <time>2018-05-06T09:59:53Z</time>
      </trkpt>
      <trkpt lat="45.86411" lon="4.69304">
        <ele>219</ele>
        <time>2018-05-06T09:59:55Z</time>
      </trkpt>
      <trkpt lat="45.86413" lon="4.6931">
        <ele>219</ele>
        <time>2018-05-06T09:59:56Z</time>
      </trkpt>
      <trkpt lat="45.86417" lon="4.69321">
        <ele>219</ele>
        <time>2018-05-06T09:59:58Z</time>
      </trkpt>
      <trkpt lat="45.86419" lon="4.69327">
        <ele>219</ele>
        <time>2018-05-06T09:59:59Z</time>
      </trkpt>
      <trkpt lat="45.86423" lon="4.69333">
        <ele>219</ele>
        <time>2018-05-06T10:00:00Z</time>
      </trkpt>
      <trkpt lat="45.86426" lon="4.69339">
        <ele>219</ele>
        <time>2018-05-06T10:00:01Z</time>
      </trkpt>
      <trkpt lat="45.86428" lon="4.69345">
        <ele>219</ele>
        <time>2018-05-06T10:00:02Z</time>
      </trkpt>
      <trkpt lat="45.86431" lon="4.69352">
        <ele>219</ele>
        <time>2018-05-06T10:00:03Z</time>
      </trkpt>
      <trkpt lat="45.86434" lon="4.69359">
        <ele>219</ele>
        <time>2018-05-06T10:00:04Z</time>
      </trkpt>
      <trkpt lat="45.86436" lon="4.69364">
        <ele>219</ele>
        <time>2018-05-06T10:00:05Z</time>
      </trkpt>
      <trkpt lat="45.86439" lon="4.69371">
        <ele>219</ele>
        <time>2018-05-06T10:00:06Z</time>
      </trkpt>
      <trkpt lat="45.86442" lon="4.69376">
        <ele>219</ele>
        <time>2018-05-06T10:00:07Z</time>
      </trkpt>
      <trkpt lat="45.86443" lon="4.69382">
        <ele>219</ele>
        <time>2018-05-06T10:00:08Z</time>
      </trkpt>
      <trkpt lat="45.86446" lon="4.69388">
        <ele>219</ele>
        <time>2018-05-06T10:00:09Z</time>
      </trkpt>
      <trkpt lat="45.86448" lon="4.69395">
        <ele>219</ele>
        <time>2018-05-06T10:00:10Z</time>
      </trkpt>
      <trkpt lat="45.86452" lon="4.69401">
        <ele>219</ele>
        <time>2018-05-06T10:00:11Z</time>
      </trkpt>
      <trkpt lat="45.86455" lon="4.69405">
        <ele>219</ele>
        <time>2018-05-06T10:00:12Z</time>
      </trkpt>
      <trkpt lat="45.86458" lon="4.69411">
        <ele>219</ele>
        <time>2018-05-06T10:00:13Z</time>
      </trkpt>
      <trkpt lat="45.86462" lon="4.69416">
        <ele>219</ele>
        <time>2018-05-06T10:00:14Z</time>
      </trkpt>
      <trkpt lat="45.86465" lon="4.6942">
        <ele>218</ele>
        <time>2018-05-06T10:00:15Z</time>
      </trkpt>
      <trkpt lat="45.86469" lon="4.69425">
        <ele>218</ele>
        <time>2018-05-06T10:00:16Z</time>
      </trkpt>
      <trkpt lat="45.86472" lon="4.69431">
        <ele>218</ele>
        <time>2018-05-06T10:00:17Z</time>
      </trkpt>
      <trkpt lat="45.86479" lon="4.69439">
        <ele>218</ele>
        <time>2018-05-06T10:00:19Z</time>
      </trkpt>
      <trkpt lat="45.86483" lon="4.69445">
        <ele>218</ele>
        <time>2018-05-06T10:00:20Z</time>
      </trkpt>
      <trkpt lat="45.86486" lon="4.6945">
        <ele>218</ele>
        <time>2018-05-06T10:00:21Z</time>
      </trkpt>
      <trkpt lat="45.8649" lon="4.69455">
        <ele>218</ele>
        <time>2018-05-06T10:00:22Z</time>
      </trkpt>
      <trkpt lat="45.86496" lon="4.69463">
        <ele>218</ele>
        <time>2018-05-06T10:00:24Z</time>
      </trkpt>
      <trkpt lat="45.86499" lon="4.69468">
        <ele>218</ele>
        <time>2018-05-06T10:00:25Z</time>
      </trkpt>
      <trkpt lat="45.86503" lon="4.69472">
        <ele>219</ele>
        <time>2018-05-06T10:00:26Z</time>
      </trkpt>
      <trkpt lat="45.86506" lon="4.69477">
        <ele>219</ele>
        <time>2018-05-06T10:00:27Z</time>
      </trkpt>
      <trkpt lat="45.86509" lon="4.69482">
        <ele>219</ele>
        <time>2018-05-06T10:00:28Z</time>
      </trkpt>
      <trkpt lat="45.86513" lon="4.69487">
        <ele>219</ele>
        <time>2018-05-06T10:00:29Z</time>
      </trkpt>
      <trkpt lat="45.86516" lon="4.69494">
        <ele>219</ele>
        <time>2018-05-06T10:00:30Z</time>
      </trkpt>
      <trkpt lat="45.8652" lon="4.69499">
        <ele>219</ele>
        <time>2018-05-06T10:00:31Z</time>
      </trkpt>
      <trkpt lat="45.86524" lon="4.69505">
        <ele>219</ele>
        <time>2018-05-06T10:00:32Z</time>
      </trkpt>
      <trkpt lat="45.86526" lon="4.69511">
        <ele>219</ele>
        <time>2018-05-06T10:00:33Z</time>
      </trkpt>
      <trkpt lat="45.86529" lon="4.69516">
        <ele>219</ele>
        <time>2018-05-06T10:00:34Z</time>
      </trkpt>
      <trkpt lat="45.86533" lon="4.69524">
        <ele>219</ele>
        <time>2018-05-06T10:00:35Z</time>
      </trkpt>
      <trkpt lat="45.86537" lon="4.6953">
        <ele>219</ele>
        <time>2018-05-06T10:00:36Z</time>
      </trkpt>
      <trkpt lat="45.86541" lon="4.69532">
        <ele>219</ele>
        <time>2018-05-06T10:00:37Z</time>
      </trkpt>
      <trkpt lat="45.86544" lon="4.69538">
        <ele>219</ele>
        <time>2018-05-06T10:00:38Z</time>
      </trkpt>
      <trkpt lat="45.86548" lon="4.69543">
        <ele>219</ele>
        <time>2018-05-06T10:00:39Z</time>
      </trkpt>
      <trkpt lat="45.86551" lon="4.69549">
        <ele>219</ele>
        <time>2018-05-06T10:00:40Z</time>
      </trkpt>
      <trkpt lat="45.86555" lon="4.69551">
        <ele>219</ele>
        <time>2018-05-06T10:00:41Z</time>
      </trkpt>
      <trkpt lat="45.86559" lon="4.69556">
        <ele>219</ele>
        <time>2018-05-06T10:00:42Z</time>
      </trkpt>
      <trkpt lat="45.86563" lon="4.69563">
        <ele>219</ele>
        <time>2018-05-06T10:00:43Z</time>
      </trkpt>
      <trkpt lat="45.86567" lon="4.69569">
        <ele>219</ele>
        <time>2018-05-06T10:00:44Z</time>
      </trkpt>
      <trkpt lat="45.8657" lon="4.69574">
        <ele>219</ele>
        <time>2018-05-06T10:00:45Z</time>
      </trkpt>
      <trkpt lat="45.86574" lon="4.6958">
        <ele>219</ele>
        <time>2018-05-06T10:00:46Z</time>
      </trkpt>
      <trkpt lat="45.86577" lon="4.69586">
        <ele>219</ele>
        <time>2018-05-06T10:00:47Z</time>
      </trkpt>
      <trkpt lat="45.86581" lon="4.69592">
        <ele>219</ele>
        <time>2018-05-06T10:00:48Z</time>
      </trkpt>
      <trkpt lat="45.86584" lon="4.69597">
        <ele>219</ele>
        <time>2018-05-06T10:00:49Z</time>
      </trkpt>
      <trkpt lat="45.86588" lon="4.69602">
        <ele>219</ele>
        <time>2018-05-06T10:00:50Z</time>
      </trkpt>
      <trkpt lat="45.86591" lon="4.69607">
        <ele>219</ele>
        <time>2018-05-06T10:00:51Z</time>
      </trkpt>
      <trkpt lat="45.86595" lon="4.69613">
        <ele>219</ele>
        <time>2018-05-06T10:00:52Z</time>
      </trkpt>
      <trkpt lat="45.86599" lon="4.69619">
        <ele>219</ele>
        <time>2018-05-06T10:00:53Z</time>
      </trkpt>
      <trkpt lat="45.86603" lon="4.69624">
        <ele>219</ele>
        <time>2018-05-06T10:00:54Z</time>
      </trkpt>
      <trkpt lat="45.86607" lon="4.6963">
        <ele>219</ele>
        <time>2018-05-06T10:00:55Z</time>
      </trkpt>
      <trkpt lat="45.86609" lon="4.69634">
        <ele>219</ele>
        <time>2018-05-06T10:00:56Z</time>
      </trkpt>
      <trkpt lat="45.86613" lon="4.69639">
        <ele>219</ele>
        <time>2018-05-06T10:00:57Z</time>
      </trkpt>
      <trkpt lat="45.86617" lon="4.69646">
        <ele>219</ele>
        <time>2018-05-06T10:00:58Z</time>
      </trkpt>
      <trkpt lat="45.86621" lon="4.69653">
        <ele>219</ele>
        <time>2018-05-06T10:00:59Z</time>
      </trkpt>
      <trkpt lat="45.86625" lon="4.69658">
        <ele>219</ele>
        <time>2018-05-06T10:01:00Z</time>
      </trkpt>
      <trkpt lat="45.86627" lon="4.69662">
        <ele>218</ele>
        <time>2018-05-06T10:01:01Z</time>
      </trkpt>
      <trkpt lat="45.86631" lon="4.69667">
        <ele>218</ele>
        <time>2018-05-06T10:01:02Z</time>
      </trkpt>
      <trkpt lat="45.86636" lon="4.69671">
        <ele>218</ele>
        <time>2018-05-06T10:01:03Z</time>
      </trkpt>
      <trkpt lat="45.8664" lon="4.69676">
        <ele>218</ele>
        <time>2018-05-06T10:01:04Z</time>
      </trkpt>
      <trkpt lat="45.86643" lon="4.6968">
        <ele>218</ele>
        <time>2018-05-06T10:01:05Z</time>
      </trkpt>
      <trkpt lat="45.86647" lon="4.69685">
        <ele>218</ele>
        <time>2018-05-06T10:01:06Z</time>
      </trkpt>
      <trkpt lat="45.86651" lon="4.69689">
        <ele>218</ele>
        <time>2018-05-06T10:01:07Z</time>
      </trkpt>
      <trkpt lat="45.86655" lon="4.69696">
        <ele>218</ele>
        <time>2018-05-06T10:01:08Z</time>
      </trkpt>
      <trkpt lat="45.86659" lon="4.69701">
        <ele>218</ele>
        <time>2018-05-06T10:01:09Z</time>
      </trkpt>
      <trkpt lat="45.86663" lon="4.69705">
        <ele>218</ele>
        <time>2018-05-06T10:01:10Z</time>
      </trkpt>
      <trkpt lat="45.86668" lon="4.6971">
        <ele>217</ele>
        <time>2018-05-06T10:01:11Z</time>
      </trkpt>
      <trkpt lat="45.86672" lon="4.69714">
        <ele>217</ele>
        <time>2018-05-06T10:01:12Z</time>
      </trkpt>
      <trkpt lat="45.86679" lon="4.69718">
        <ele>217</ele>
        <time>2018-05-06T10:01:13Z</time>
      </trkpt>
      <trkpt lat="45.86683" lon="4.69723">
        <ele>217</ele>
        <time>2018-05-06T10:01:14Z</time>
      </trkpt>
      <trkpt lat="45.86688" lon="4.69726">
        <ele>217</ele>
        <time>2018-05-06T10:01:15Z</time>
      </trkpt>
      <trkpt lat="45.86693" lon="4.69731">
        <ele>217</ele>
        <time>2018-05-06T10:01:16Z</time>
      </trkpt>
      <trkpt lat="45.86698" lon="4.69735">
        <ele>217</ele>
        <time>2018-05-06T10:01:17Z</time>
      </trkpt>
      <trkpt lat="45.86703" lon="4.6974">
        <ele>217</ele>
        <time>2018-05-06T10:01:18Z</time>
      </trkpt>
      <trkpt lat="45.86707" lon="4.69744">
        <ele>217</ele>
        <time>2018-05-06T10:01:19Z</time>
      </trkpt>
      <trkpt lat="45.86711" lon="4.69747">
        <ele>217</ele>
        <time>2018-05-06T10:01:20Z</time>
      </trkpt>
      <trkpt lat="45.86716" lon="4.6975">
        <ele>217</ele>
        <time>2018-05-06T10:01:21Z</time>
      </trkpt>
      <trkpt lat="45.86721" lon="4.69755">
        <ele>217</ele>
        <time>2018-05-06T10:01:22Z</time>
      </trkpt>
      <trkpt lat="45.86725" lon="4.69759">
        <ele>217</ele>
        <time>2018-05-06T10:01:23Z</time>
      </trkpt>
      <trkpt lat="45.8673" lon="4.69764">
        <ele>217</ele>
        <time>2018-05-06T10:01:24Z</time>
      </trkpt>
      <trkpt lat="45.86734" lon="4.69767">
        <ele>217</ele>
        <time>2018-05-06T10:01:25Z</time>
      </trkpt>
      <trkpt lat="45.86738" lon="4.69771">
        <ele>217</ele>
        <time>2018-05-06T10:01:26Z</time>
      </trkpt>
      <trkpt lat="45.86743" lon="4.69773">
        <ele>217</ele>
        <time>2018-05-06T10:01:27Z</time>
      </trkpt>
      <trkpt lat="45.86748" lon="4.69778">
        <ele>217</ele>
        <time>2018-05-06T10:01:28Z</time>
      </trkpt>
      <trkpt lat="45.86752" lon="4.69784">
        <ele>217</ele>
        <time>2018-05-06T10:01:29Z</time>
      </trkpt>
      <trkpt lat="45.86756" lon="4.69787">
        <ele>217</ele>
        <time>2018-05-06T10:01:30Z</time>
      </trkpt>
      <trkpt lat="45.86761" lon="4.69792">
        <ele>217</ele>
        <time>2018-05-06T10:01:31Z</time>
      </trkpt>
      <trkpt lat="45.86766" lon="4.69795">
        <ele>217</ele>
        <time>2018-05-06T10:01:32Z</time>
      </trkpt>
      <trkpt lat="45.8677" lon="4.698">
        <ele>217</ele>
        <time>2018-05-06T10:01:33Z</time>
      </trkpt>
      <trkpt lat="45.86775" lon="4.69804">
        <ele>217</ele>
        <time>2018-05-06T10:01:34Z</time>
      </trkpt>
      <trkpt lat="45.8678" lon="4.69808">
        <ele>217</ele>
        <time>2018-05-06T10:01:35Z</time>
      </trkpt>
      <trkpt lat="45.86785" lon="4.69813">
        <ele>217</ele>
        <time>2018-05-06T10:01:36Z</time>
      </trkpt>
      <trkpt lat="45.86789" lon="4.69817">
        <ele>217</ele>
        <time>2018-05-06T10:01:37Z</time>
      </trkpt>
      <trkpt lat="45.86794" lon="4.69821">
        <ele>217</ele>
        <time>2018-05-06T10:01:38Z</time>
      </trkpt>
      <trkpt lat="45.86798" lon="4.69825">
        <ele>217</ele>
        <time>2018-05-06T10:01:39Z</time>
      </trkpt>
      <trkpt lat="45.86804" lon="4.69831">
        <ele>217</ele>
        <time>2018-05-06T10:01:40Z</time>
      </trkpt>
      <trkpt lat="45.86808" lon="4.69836">
        <ele>217</ele>
        <time>2018-05-06T10:01:41Z</time>
      </trkpt>
      <trkpt lat="45.86811" lon="4.69841">
        <ele>217</ele>
        <time>2018-05-06T10:01:42Z</time>
      </trkpt>
      <trkpt lat="45.86814" lon="4.69846">
        <ele>217</ele>
        <time>2018-05-06T10:01:43Z</time>
      </trkpt>
      <trkpt lat="45.86821" lon="4.69849">
        <ele>217</ele>
        <time>2018-05-06T10:01:44Z</time>
      </trkpt>
      <trkpt lat="45.86825" lon="4.69852">
        <ele>217</ele>
        <time>2018-05-06T10:01:45Z</time>
      </trkpt>
      <trkpt lat="45.8683" lon="4.69857">
        <ele>217</ele>
        <time>2018-05-06T10:01:46Z</time>
      </trkpt>
      <trkpt lat="45.86833" lon="4.69861">
        <ele>216</ele>
        <time>2018-05-06T10:01:47Z</time>
      </trkpt>
      <trkpt lat="45.86839" lon="4.69864">
        <ele>217</ele>
        <time>2018-05-06T10:01:48Z</time>
      </trkpt>
      <trkpt lat="45.86843" lon="4.69871">
        <ele>217</ele>
        <time>2018-05-06T10:01:49Z</time>
      </trkpt>
      <trkpt lat="45.86847" lon="4.69873">
        <ele>217</ele>
        <time>2018-05-06T10:01:50Z</time>
      </trkpt>
      <trkpt lat="45.86852" lon="4.69876">
        <ele>217</ele>
        <time>2018-05-06T10:01:51Z</time>
      </trkpt>
      <trkpt lat="45.86856" lon="4.6988">
        <ele>217</ele>
        <time>2018-05-06T10:01:52Z</time>
      </trkpt>
      <trkpt lat="45.8686" lon="4.69884">
        <ele>217</ele>
        <time>2018-05-06T10:01:53Z</time>
      </trkpt>
      <trkpt lat="45.86864" lon="4.69889">
        <ele>217</ele>
        <time>2018-05-06T10:01:54Z</time>
      </trkpt>
      <trkpt lat="45.86868" lon="4.69893">
        <ele>217</ele>
        <time>2018-05-06T10:01:55Z</time>
      </trkpt>
      <trkpt lat="45.86872" lon="4.69897">
        <ele>217</ele>
        <time>2018-05-06T10:01:56Z</time>
      </trkpt>
      <trkpt lat="45.86876" lon="4.69901">
        <ele>217</ele>
        <time>2018-05-06T10:01:57Z</time>
      </trkpt>
      <trkpt lat="45.8688" lon="4.69905">
        <ele>217</ele>
        <time>2018-05-06T10:01:58Z</time>
      </trkpt>
      <trkpt lat="45.86883" lon="4.69909">
        <ele>217</ele>
        <time>2018-05-06T10:01:59Z</time>
      </trkpt>
      <trkpt lat="45.86888" lon="4.69913">
        <ele>217</ele>
        <time>2018-05-06T10:02:00Z</time>
      </trkpt>
      <trkpt lat="45.86892" lon="4.69916">
        <ele>217</ele>
        <time>2018-05-06T10:02:01Z</time>
      </trkpt>
      <trkpt lat="45.86897" lon="4.6992">
        <ele>217</ele>
        <time>2018-05-06T10:02:02Z</time>
      </trkpt>
      <trkpt lat="45.86902" lon="4.69924">
        <ele>217</ele>
        <time>2018-05-06T10:02:03Z</time>
      </trkpt>
      <trkpt lat="45.86907" lon="4.69927">
        <ele>217</ele>
        <time>2018-05-06T10:02:04Z</time>
      </trkpt>
      <trkpt lat="45.86911" lon="4.69932">
        <ele>217</ele>
        <time>2018-05-06T10:02:05Z</time>
      </trkpt>
      <trkpt lat="45.86915" lon="4.69936">
        <ele>217</ele>
        <time>2018-05-06T10:02:06Z</time>
      </trkpt>
      <trkpt lat="45.8692" lon="4.6994">
        <ele>217</ele>
        <time>2018-05-06T10:02:07Z</time>
      </trkpt>
      <trkpt lat="45.86925" lon="4.69944">
        <ele>217</ele>
        <time>2018-05-06T10:02:08Z</time>
      </trkpt>
      <trkpt lat="45.86929" lon="4.69948">
        <ele>217</ele>
        <time>2018-05-06T10:02:09Z</time>
      </trkpt>
      <trkpt lat="45.86934" lon="4.69952">
        <ele>217</ele>
        <time>2018-05-06T10:02:10Z</time>
      </trkpt>
      <trkpt lat="45.8694" lon="4.69957">
        <ele>217</ele>
        <time>2018-05-06T10:02:11Z</time>
      </trkpt>
      <trkpt lat="45.86944" lon="4.6996">
        <ele>217</ele>
        <time>2018-05-06T10:02:12Z</time>
      </trkpt>
      <trkpt lat="45.8695" lon="4.69964">
        <ele>217</ele>
        <time>2018-05-06T10:02:13Z</time>
      </trkpt>
      <trkpt lat="45.86955" lon="4.69968">
        <ele>217</ele>
        <time>2018-05-06T10:02:14Z</time>
      </trkpt>
      <trkpt lat="45.86959" lon="4.69972">
        <ele>217</ele>
        <time>2018-05-06T10:02:15Z</time>
      </trkpt>
      <trkpt lat="45.86963" lon="4.69976">
        <ele>217</ele>
        <time>2018-05-06T10:02:16Z</time>
      </trkpt>
      <trkpt lat="45.86967" lon="4.6998">
        <ele>217</ele>
        <time>2018-05-06T10:02:17Z</time>
      </trkpt>
      <trkpt lat="45.8697" lon="4.69986">
        <ele>217</ele>
        <time>2018-05-06T10:02:18Z</time>
      </trkpt>
      <trkpt lat="45.86973" lon="4.69991">
        <ele>217</ele>
        <time>2018-05-06T10:02:19Z</time>
      </trkpt>
      <trkpt lat="45.86975" lon="4.69998">
        <ele>217</ele>
        <time>2018-05-06T10:02:20Z</time>
      </trkpt>
      <trkpt lat="45.86979" lon="4.70003">
        <ele>217</ele>
        <time>2018-05-06T10:02:21Z</time>
      </trkpt>
      <trkpt lat="45.86983" lon="4.70006">
        <ele>217</ele>
        <time>2018-05-06T10:02:22Z</time>
      </trkpt>
      <trkpt lat="45.86988" lon="4.70008">
        <ele>217</ele>
        <time>2018-05-06T10:02:23Z</time>
      </trkpt>
      <trkpt lat="45.86993" lon="4.70008">
        <ele>217</ele>
        <time>2018-05-06T10:02:24Z</time>
      </trkpt>
      <trkpt lat="45.86997" lon="4.70008">
        <ele>217</ele>
        <time>2018-05-06T10:02:25Z</time>
      </trkpt>
      <trkpt lat="45.87002" lon="4.70007">
        <ele>217</ele>
        <time>2018-05-06T10:02:26Z</time>
      </trkpt>
      <trkpt lat="45.87008" lon="4.70007">
        <ele>217</ele>
        <time>2018-05-06T10:02:27Z</time>
      </trkpt>
      <trkpt lat="45.87013" lon="4.7001">
        <ele>217</ele>
        <time>2018-05-06T10:02:28Z</time>
      </trkpt>
      <trkpt lat="45.87017" lon="4.70012">
        <ele>217</ele>
        <time>2018-05-06T10:02:29Z</time>
      </trkpt>
      <trkpt lat="45.87022" lon="4.70015">
        <ele>217</ele>
        <time>2018-05-06T10:02:30Z</time>
      </trkpt>
      <trkpt lat="45.87026" lon="4.7002">
        <ele>217</ele>
        <time>2018-05-06T10:02:31Z</time>
      </trkpt>
      <trkpt lat="45.8703" lon="4.70024">
        <ele>217</ele>
        <time>2018-05-06T10:02:32Z</time>
      </trkpt>
      <trkpt lat="45.87034" lon="4.70027">
        <ele>217</ele>
        <time>2018-05-06T10:02:33Z</time>
      </trkpt>
      <trkpt lat="45.87037" lon="4.70032">
        <ele>217</ele>
        <time>2018-05-06T10:02:34Z</time>
      </trkpt>
      <trkpt lat="45.87041" lon="4.70039">
        <ele>217</ele>
        <time>2018-05-06T10:02:35Z</time>
      </trkpt>
      <trkpt lat="45.87044" lon="4.70045">
        <ele>217</ele>
        <time>2018-05-06T10:02:36Z</time>
      </trkpt>
      <trkpt lat="45.87046" lon="4.7005">
        <ele>217</ele>
        <time>2018-05-06T10:02:37Z</time>
      </trkpt>
      <trkpt lat="45.87049" lon="4.70056">
        <ele>217</ele>
        <time>2018-05-06T10:02:38Z</time>
      </trkpt>
      <trkpt lat="45.87053" lon="4.70061">
        <ele>217</ele>
        <time>2018-05-06T10:02:39Z</time>
      </trkpt>
      <trkpt lat="45.87056" lon="4.70067">
        <ele>217</ele>
        <time>2018-05-06T10:02:40Z</time>
      </trkpt>
      <trkpt lat="45.87059" lon="4.70072">
        <ele>217</ele>
        <time>2018-05-06T10:02:41Z</time>
      </trkpt>
      <trkpt lat="45.87062" lon="4.70078">
        <ele>217</ele>
        <time>2018-05-06T10:02:42Z</time>
      </trkpt>
      <trkpt lat="45.87066" lon="4.70084">
        <ele>217</ele>
        <time>2018-05-06T10:02:43Z</time>
      </trkpt>
      <trkpt lat="45.87069" lon="4.7009">
        <ele>217</ele>
        <time>2018-05-06T10:02:44Z</time>
      </trkpt>
      <trkpt lat="45.87073" lon="4.70098">
        <ele>217</ele>
        <time>2018-05-06T10:02:45Z</time>
      </trkpt>
      <trkpt lat="45.87075" lon="4.70103">
        <ele>217</ele>
        <time>2018-05-06T10:02:46Z</time>
      </trkpt>
      <trkpt lat="45.87078" lon="4.70109">
        <ele>217</ele>
        <time>2018-05-06T10:02:47Z</time>
      </trkpt>
      <trkpt lat="45.87081" lon="4.70115">
        <ele>217</ele>
        <time>2018-05-06T10:02:48Z</time>
      </trkpt>
      <trkpt lat="45.87083" lon="4.7012">
        <ele>217</ele>
        <time>2018-05-06T10:02:49Z</time>
      </trkpt>
      <trkpt lat="45.87085" lon="4.70126">
        <ele>217</ele>
        <time>2018-05-06T10:02:50Z</time>
      </trkpt>
      <trkpt lat="45.87088" lon="4.70133">
        <ele>217</ele>
        <time>2018-05-06T10:02:51Z</time>
      </trkpt>
      <trkpt lat="45.87092" lon="4.70138">
        <ele>217</ele>
        <time>2018-05-06T10:02:52Z</time>
      </trkpt>
      <trkpt lat="45.87096" lon="4.70144">
        <ele>217</ele>
        <time>2018-05-06T10:02:53Z</time>
      </trkpt>
      <trkpt lat="45.871" lon="4.70151">
        <ele>217</ele>
        <time>2018-05-06T10:02:54Z</time>
      </trkpt>
      <trkpt lat="45.87103" lon="4.70157">
        <ele>217</ele>
        <time>2018-05-06T10:02:55Z</time>
      </trkpt>
      <trkpt lat="45.87106" lon="4.70164">
        <ele>217</ele>
        <time>2018-05-06T10:02:56Z</time>
      </trkpt>
      <trkpt lat="45.87111" lon="4.7017">
        <ele>216</ele>
        <time>2018-05-06T10:02:57Z</time>
      </trkpt>
      <trkpt lat="45.87114" lon="4.70175">
        <ele>216</ele>
        <time>2018-05-06T10:02:58Z</time>
      </trkpt>
      <trkpt lat="45.87118" lon="4.70181">
        <ele>216</ele>
        <time>2018-05-06T10:02:59Z</time>
      </trkpt>
      <trkpt lat="45.87122" lon="4.70186">
        <ele>216</ele>
        <time>2018-05-06T10:03:00Z</time>
      </trkpt>
      <trkpt lat="45.87125" lon="4.7019">
        <ele>216</ele>
        <time>2018-05-06T10:03:01Z</time>
      </trkpt>
      <trkpt lat="45.87129" lon="4.70196">
        <ele>216</ele>
        <time>2018-05-06T10:03:02Z</time>
      </trkpt>
      <trkpt lat="45.87132" lon="4.70202">
        <ele>216</ele>
        <time>2018-05-06T10:03:03Z</time>
      </trkpt>
      <trkpt lat="45.87135" lon="4.70208">
        <ele>216</ele>
        <time>2018-05-06T10:03:04Z</time>
      </trkpt>
      <trkpt lat="45.87139" lon="4.70214">
        <ele>216</ele>
        <time>2018-05-06T10:03:05Z</time>
      </trkpt>
      <trkpt lat="45.87146" lon="4.70218">
        <ele>216</ele>
        <time>2018-05-06T10:03:06Z</time>
      </trkpt>
      <trkpt lat="45.8715" lon="4.70224">
        <ele>216</ele>
        <time>2018-05-06T10:03:07Z</time>
      </trkpt>
      <trkpt lat="45.87154" lon="4.7023">
        <ele>216</ele>
        <time>2018-05-06T10:03:08Z</time>
      </trkpt>
      <trkpt lat="45.87158" lon="4.70235">
        <ele>216</ele>
        <time>2018-05-06T10:03:09Z</time>
      </trkpt>
      <trkpt lat="45.87163" lon="4.70242">
        <ele>216</ele>
        <time>2018-05-06T10:03:10Z</time>
      </trkpt>
      <trkpt lat="45.87167" lon="4.70248">
        <ele>216</ele>
        <time>2018-05-06T10:03:11Z</time>
      </trkpt>
      <trkpt lat="45.87172" lon="4.70255">
        <ele>216</ele>
        <time>2018-05-06T10:03:12Z</time>
      </trkpt>
      <trkpt lat="45.87176" lon="4.7026">
        <ele>216</ele>
        <time>2018-05-06T10:03:13Z</time>
      </trkpt>
      <trkpt lat="45.87179" lon="4.70266">
        <ele>216</ele>
        <time>2018-05-06T10:03:14Z</time>
      </trkpt>
      <trkpt lat="45.87184" lon="4.70273">
        <ele>217</ele>
        <time>2018-05-06T10:03:15Z</time>
      </trkpt>
      <trkpt lat="45.8719" lon="4.70278">
        <ele>217</ele>
        <time>2018-05-06T10:03:16Z</time>
      </trkpt>
      <trkpt lat="45.87194" lon="4.70283">
        <ele>217</ele>
        <time>2018-05-06T10:03:17Z</time>
      </trkpt>
      <trkpt lat="45.87197" lon="4.70289">
        <ele>217</ele>
        <time>2018-05-06T10:03:18Z</time>
      </trkpt>
      <trkpt lat="45.87202" lon="4.70294">
        <ele>217</ele>
        <time>2018-05-06T10:03:19Z</time>
      </trkpt>
      <trkpt lat="45.87207" lon="4.70297">
        <ele>217</ele>
        <time>2018-05-06T10:03:20Z</time>
      </trkpt>
      <trkpt lat="45.87211" lon="4.70303">
        <ele>217</ele>
        <time>2018-05-06T10:03:21Z</time>
      </trkpt>
      <trkpt lat="45.87216" lon="4.70309">
        <ele>217</ele>
        <time>2018-05-06T10:03:22Z</time>
      </trkpt>
      <trkpt lat="45.8722" lon="4.70316">
        <ele>217</ele>
        <time>2018-05-06T10:03:23Z</time>
      </trkpt>
      <trkpt lat="45.87224" lon="4.70321">
        <ele>217</ele>
        <time>2018-05-06T10:03:24Z</time>
      </trkpt>
      <trkpt lat="45.87229" lon="4.70327">
        <ele>217</ele>
        <time>2018-05-06T10:03:25Z</time>
      </trkpt>
      <trkpt lat="45.87233" lon="4.70331">
        <ele>217</ele>
        <time>2018-05-06T10:03:26Z</time>
      </trkpt>
      <trkpt lat="45.87238" lon="4.70337">
        <ele>217</ele>
        <time>2018-05-06T10:03:27Z</time>
      </trkpt>
      <trkpt lat="45.87243" lon="4.70341">
        <ele>217</ele>
        <time>2018-05-06T10:03:28Z</time>
      </trkpt>
      <trkpt lat="45.87248" lon="4.70346">
        <ele>217</ele>
        <time>2018-05-06T10:03:29Z</time>
      </trkpt>
      <trkpt lat="45.87251" lon="4.70353">
        <ele>217</ele>
        <time>2018-05-06T10:03:30Z</time>
      </trkpt>
      <trkpt lat="45.87254" lon="4.70358">
        <ele>216</ele>
        <time>2018-05-06T10:03:31Z</time>
      </trkpt>
      <trkpt lat="45.87258" lon="4.70364">
        <ele>216</ele>
        <time>2018-05-06T10:03:32Z</time>
      </trkpt>
      <trkpt lat="45.87262" lon="4.70368">
        <ele>216</ele>
        <time>2018-05-06T10:03:33Z</time>
      </trkpt>
      <trkpt lat="45.87266" lon="4.70374">
        <ele>216</ele>
        <time>2018-05-06T10:03:34Z</time>
      </trkpt>
      <trkpt lat="45.87269" lon="4.70379">
        <ele>216</ele>
        <time>2018-05-06T10:03:35Z</time>
      </trkpt>
      <trkpt lat="45.87271" lon="4.70387">
        <ele>216</ele>
        <time>2018-05-06T10:03:36Z</time>
      </trkpt>
      <trkpt lat="45.87274" lon="4.70394">
        <ele>216</ele>
        <time>2018-05-06T10:03:37Z</time>
      </trkpt>
      <trkpt lat="45.87277" lon="4.70401">
        <ele>216</ele>
        <time>2018-05-06T10:03:38Z</time>
      </trkpt>
      <trkpt lat="45.87281" lon="4.70405">
        <ele>216</ele>
        <time>2018-05-06T10:03:39Z</time>
      </trkpt>
      <trkpt lat="45.87284" lon="4.70412">
        <ele>216</ele>
        <time>2018-05-06T10:03:40Z</time>
      </trkpt>
      <trkpt lat="45.87288" lon="4.70416">
        <ele>216</ele>
        <time>2018-05-06T10:03:41Z</time>
      </trkpt>
      <trkpt lat="45.87293" lon="4.70422">
        <ele>214</ele>
        <time>2018-05-06T10:03:42Z</time>
      </trkpt>
      <trkpt lat="45.87298" lon="4.70427">
        <ele>214</ele>
        <time>2018-05-06T10:03:43Z</time>
      </trkpt>
      <trkpt lat="45.87301" lon="4.70434">
        <ele>214</ele>
        <time>2018-05-06T10:03:44Z</time>
      </trkpt>
      <trkpt lat="45.87306" lon="4.70441">
        <ele>214</ele>
        <time>2018-05-06T10:03:45Z</time>
      </trkpt>
      <trkpt lat="45.8731" lon="4.70446">
        <ele>214</ele>
        <time>2018-05-06T10:03:46Z</time>
      </trkpt>
      <trkpt lat="45.87315" lon="4.70452">
        <ele>214</ele>
        <time>2018-05-06T10:03:47Z</time>
      </trkpt>
      <trkpt lat="45.87319" lon="4.70461">
        <ele>214</ele>
        <time>2018-05-06T10:03:48Z</time>
      </trkpt>
      <trkpt lat="45.87323" lon="4.70469">
        <ele>214</ele>
        <time>2018-05-06T10:03:49Z</time>
      </trkpt>
      <trkpt lat="45.87328" lon="4.70476">
        <ele>214</ele>
        <time>2018-05-06T10:03:50Z</time>
      </trkpt>
      <trkpt lat="45.87333" lon="4.70483">
        <ele>214</ele>
        <time>2018-05-06T10:03:51Z</time>
      </trkpt>
      <trkpt lat="45.87338" lon="4.70493">
        <ele>213</ele>
        <time>2018-05-06T10:03:52Z</time>
      </trkpt>
      <trkpt lat="45.87343" lon="4.70502">
        <ele>213</ele>
        <time>2018-05-06T10:03:53Z</time>
      </trkpt>
      <trkpt lat="45.87348" lon="4.70507">
        <ele>212</ele>
        <time>2018-05-06T10:03:54Z</time>
      </trkpt>
      <trkpt lat="45.87354" lon="4.70516">
        <ele>212</ele>
        <time>2018-05-06T10:03:55Z</time>
      </trkpt>
      <trkpt lat="45.87359" lon="4.70527">
        <ele>212</ele>
        <time>2018-05-06T10:03:56Z</time>
      </trkpt>
      <trkpt lat="45.87365" lon="4.70536">
        <ele>212</ele>
        <time>2018-05-06T10:03:57Z</time>
      </trkpt>
      <trkpt lat="45.87372" lon="4.70545">
        <ele>212</ele>
        <time>2018-05-06T10:03:58Z</time>
      </trkpt>
      <trkpt lat="45.87378" lon="4.70552">
        <ele>212</ele>
        <time>2018-05-06T10:03:59Z</time>
      </trkpt>
      <trkpt lat="45.87383" lon="4.70561">
        <ele>211</ele>
        <time>2018-05-06T10:04:00Z</time>
      </trkpt>
      <trkpt lat="45.87389" lon="4.70569">
        <ele>211</ele>
        <time>2018-05-06T10:04:01Z</time>
      </trkpt>
      <trkpt lat="45.87395" lon="4.70577">
        <ele>211</ele>
        <time>2018-05-06T10:04:02Z</time>
      </trkpt>
      <trkpt lat="45.87402" lon="4.70586">
        <ele>210</ele>
        <time>2018-05-06T10:04:03Z</time>
      </trkpt>
      <trkpt lat="45.87409" lon="4.70594">
        <ele>210</ele>
        <time>2018-05-06T10:04:04Z</time>
      </trkpt>
      <trkpt lat="45.87413" lon="4.70601">
        <ele>210</ele>
        <time>2018-05-06T10:04:05Z</time>
      </trkpt>
      <trkpt lat="45.87416" lon="4.70609">
        <ele>210</ele>
        <time>2018-05-06T10:04:06Z</time>
      </trkpt>
      <trkpt lat="45.8742" lon="4.70618">
        <ele>210</ele>
        <time>2018-05-06T10:04:07Z</time>
      </trkpt>
      <trkpt lat="45.8742" lon="4.70628">
        <ele>210</ele>
        <time>2018-05-06T10:04:08Z</time>
      </trkpt>
      <trkpt lat="45.87422" lon="4.70638">
        <ele>209</ele>
        <time>2018-05-06T10:04:09Z</time>
      </trkpt>
      <trkpt lat="45.87423" lon="4.70648">
        <ele>209</ele>
        <time>2018-05-06T10:04:10Z</time>
      </trkpt>
      <trkpt lat="45.87424" lon="4.70657">
        <ele>208</ele>
        <time>2018-05-06T10:04:11Z</time>
      </trkpt>
      <trkpt lat="45.87425" lon="4.70665">
        <ele>208</ele>
        <time>2018-05-06T10:04:12Z</time>
      </trkpt>
      <trkpt lat="45.87425" lon="4.70676">
        <ele>208</ele>
        <time>2018-05-06T10:04:13Z</time>
      </trkpt>
      <trkpt lat="45.87425" lon="4.70684">
        <ele>209</ele>
        <time>2018-05-06T10:04:14Z</time>
      </trkpt>
      <trkpt lat="45.87426" lon="4.70691">
        <ele>209</ele>
        <time>2018-05-06T10:04:15Z</time>
      </trkpt>
      <trkpt lat="45.87427" lon="4.70698">
        <ele>209</ele>
        <time>2018-05-06T10:04:16Z</time>
      </trkpt>
      <trkpt lat="45.87427" lon="4.70705">
        <ele>209</ele>
        <time>2018-05-06T10:04:17Z</time>
      </trkpt>
      <trkpt lat="45.87431" lon="4.70717">
        <ele>209</ele>
        <time>2018-05-06T10:04:18Z</time>
      </trkpt>
      <trkpt lat="45.87431" lon="4.70724">
        <ele>209</ele>
        <time>2018-05-06T10:04:19Z</time>
      </trkpt>
      <trkpt lat="45.87433" lon="4.70733">
        <ele>209</ele>
        <time>2018-05-06T10:04:20Z</time>
      </trkpt>
      <trkpt lat="45.87434" lon="4.70738">
        <ele>209</ele>
        <time>2018-05-06T10:04:21Z</time>
      </trkpt>
      <trkpt lat="45.87436" lon="4.7075">
        <ele>209</ele>
        <time>2018-05-06T10:04:23Z</time>
      </trkpt>
      <trkpt lat="45.87437" lon="4.70757">
        <ele>210</ele>
        <time>2018-05-06T10:04:24Z</time>
      </trkpt>
      <trkpt lat="45.8744" lon="4.70769">
        <ele>210</ele>
        <time>2018-05-06T10:04:26Z</time>
      </trkpt>
      <trkpt lat="45.8744" lon="4.70771">
        <ele>210</ele>
        <time>2018-05-06T10:04:27Z</time>
      </trkpt>
      <trkpt lat="45.87442" lon="4.70777">
        <ele>210</ele>
        <time>2018-05-06T10:04:28Z</time>
      </trkpt>
      <trkpt lat="45.87443" lon="4.70783">
        <ele>211</ele>
        <time>2018-05-06T10:04:29Z</time>
      </trkpt>
      <trkpt lat="45.87445" lon="4.70791">
        <ele>211</ele>
        <time>2018-05-06T10:04:30Z</time>
      </trkpt>
      <trkpt lat="45.87446" lon="4.70796">
        <ele>211</ele>
        <time>2018-05-06T10:04:31Z</time>
      </trkpt>
      <trkpt lat="45.87449" lon="4.70808">
        <ele>211</ele>
        <time>2018-05-06T10:04:33Z</time>
      </trkpt>
      <trkpt lat="45.8745" lon="4.70813">
        <ele>211</ele>
        <time>2018-05-06T10:04:34Z</time>
      </trkpt>
      <trkpt lat="45.87452" lon="4.70819">
        <ele>211</ele>
        <time>2018-05-06T10:04:35Z</time>
      </trkpt>
      <trkpt lat="45.87454" lon="4.70826">
        <ele>211</ele>
        <time>2018-05-06T10:04:36Z</time>
      </trkpt>
      <trkpt lat="45.87456" lon="4.70837">
        <ele>213</ele>
        <time>2018-05-06T10:04:38Z</time>
      </trkpt>
      <trkpt lat="45.87457" lon="4.70843">
        <ele>213</ele>
        <time>2018-05-06T10:04:39Z</time>
      </trkpt>
      <trkpt lat="45.87459" lon="4.7085">
        <ele>213</ele>
        <time>2018-05-06T10:04:40Z</time>
      </trkpt>
      <trkpt lat="45.8746" lon="4.70856">
        <ele>213</ele>
        <time>2018-05-06T10:04:41Z</time>
      </trkpt>
      <trkpt lat="45.87461" lon="4.70862">
        <ele>213</ele>
        <time>2018-05-06T10:04:42Z</time>
      </trkpt>
      <trkpt lat="45.87464" lon="4.7087">
        <ele>213</ele>
        <time>2018-05-06T10:04:43Z</time>
      </trkpt>
      <trkpt lat="45.87466" lon="4.70877">
        <ele>213</ele>
        <time>2018-05-06T10:04:44Z</time>
      </trkpt>
      <trkpt lat="45.87468" lon="4.70883">
        <ele>214</ele>
        <time>2018-05-06T10:04:45Z</time>
      </trkpt>
      <trkpt lat="45.87469" lon="4.70889">
        <ele>214</ele>
        <time>2018-05-06T10:04:46Z</time>
      </trkpt>
      <trkpt lat="45.87471" lon="4.70896">
        <ele>214</ele>
        <time>2018-05-06T10:04:47Z</time>
      </trkpt>
      <trkpt lat="45.87473" lon="4.70903">
        <ele>214</ele>
        <time>2018-05-06T10:04:48Z</time>
      </trkpt>
      <trkpt lat="45.87474" lon="4.7091">
        <ele>214</ele>
        <time>2018-05-06T10:04:49Z</time>
      </trkpt>
      <trkpt lat="45.87475" lon="4.70918">
        <ele>215</ele>
        <time>2018-05-06T10:04:50Z</time>
      </trkpt>
      <trkpt lat="45.87475" lon="4.70925">
        <ele>215</ele>
        <time>2018-05-06T10:04:51Z</time>
      </trkpt>
      <trkpt lat="45.87475" lon="4.70937">
        <ele>215</ele>
        <time>2018-05-06T10:04:53Z</time>
      </trkpt>
      <trkpt lat="45.87475" lon="4.70941">
        <ele>215</ele>
        <time>2018-05-06T10:04:54Z</time>
      </trkpt>
      <trkpt lat="45.87478" lon="4.70951">
        <ele>215</ele>
        <time>2018-05-06T10:04:56Z</time>
      </trkpt>
      <trkpt lat="45.8748" lon="4.70956">
        <ele>215</ele>
        <time>2018-05-06T10:04:57Z</time>
      </trkpt>
      <trkpt lat="45.87483" lon="4.70962">
        <ele>215</ele>
        <time>2018-05-06T10:04:58Z</time>
      </trkpt>
      <trkpt lat="45.87485" lon="4.70968">
        <ele>215</ele>
        <time>2018-05-06T10:04:59Z</time>
      </trkpt>
      <trkpt lat="45.87488" lon="4.70973">
        <ele>215</ele>
        <time>2018-05-06T10:05:00Z</time>
      </trkpt>
      <trkpt lat="45.87492" lon="4.70979">
        <ele>215</ele>
        <time>2018-05-06T10:05:01Z</time>
      </trkpt>
      <trkpt lat="45.87494" lon="4.70983">
        <ele>214</ele>
        <time>2018-05-06T10:05:02Z</time>
      </trkpt>
      <trkpt lat="45.87497" lon="4.70989">
        <ele>214</ele>
        <time>2018-05-06T10:05:03Z</time>
      </trkpt>
      <trkpt lat="45.87503" lon="4.70997">
        <ele>214</ele>
        <time>2018-05-06T10:05:05Z</time>
      </trkpt>
      <trkpt lat="45.87505" lon="4.71002">
        <ele>214</ele>
        <time>2018-05-06T10:05:06Z</time>
      </trkpt>
      <trkpt lat="45.87511" lon="4.7101">
        <ele>215</ele>
        <time>2018-05-06T10:05:08Z</time>
      </trkpt>
      <trkpt lat="45.87514" lon="4.71016">
        <ele>215</ele>
        <time>2018-05-06T10:05:09Z</time>
      </trkpt>
      <trkpt lat="45.87517" lon="4.71022">
        <ele>215</ele>
        <time>2018-05-06T10:05:10Z</time>
      </trkpt>
      <trkpt lat="45.8752" lon="4.71026">
        <ele>215</ele>
        <time>2018-05-06T10:05:11Z</time>
      </trkpt>
      <trkpt lat="45.87526" lon="4.71034">
        <ele>215</ele>
        <time>2018-05-06T10:05:13Z</time>
      </trkpt>
      <trkpt lat="45.87528" lon="4.71038">
        <ele>215</ele>
        <time>2018-05-06T10:05:14Z</time>
      </trkpt>
      <trkpt lat="45.87533" lon="4.71047">
        <ele>215</ele>
        <time>2018-05-06T10:05:17Z</time>
      </trkpt>
      <trkpt lat="45.87535" lon="4.7105">
        <ele>215</ele>
        <time>2018-05-06T10:05:18Z</time>
      </trkpt>
      <trkpt lat="45.8754" lon="4.71058">
        <ele>215</ele>
        <time>2018-05-06T10:05:21Z</time>
      </trkpt>
      <trkpt lat="45.87543" lon="4.71061">
        <ele>216</ele>
        <time>2018-05-06T10:05:22Z</time>
      </trkpt>
      <trkpt lat="45.87549" lon="4.71068">
        <ele>216</ele>
        <time>2018-05-06T10:05:25Z</time>
      </trkpt>
      <trkpt lat="45.87551" lon="4.7107">
        <ele>216</ele>
        <time>2018-05-06T10:05:26Z</time>
      </trkpt>
      <trkpt lat="45.87555" lon="4.71075">
        <ele>216</ele>
        <time>2018-05-06T10:05:29Z</time>
      </trkpt>
      <trkpt lat="45.87556" lon="4.71076">
        <ele>216</ele>
        <time>2018-05-06T10:05:30Z</time>
      </trkpt>
      <trkpt lat="45.87556" lon="4.71075">
        <ele>216</ele>
        <time>2018-05-06T10:06:09Z</time>
      </trkpt>
      <trkpt lat="45.87556" lon="4.71075">
        <ele>216</ele>
        <time>2018-05-06T10:06:10Z</time>
      </trkpt>
      <trkpt lat="45.87563" lon="4.71083">
        <ele>216</ele>
        <time>2018-05-06T10:06:18Z</time>
      </trkpt>
      <trkpt lat="45.87565" lon="4.71084">
        <ele>218</ele>
        <time>2018-05-06T10:06:19Z</time>
      </trkpt>
      <trkpt lat="45.87571" lon="4.71089">
        <ele>218</ele>
        <time>2018-05-06T10:06:22Z</time>
      </trkpt>
      <trkpt lat="45.87573" lon="4.7109">
        <ele>217</ele>
        <time>2018-05-06T10:06:23Z</time>
      </trkpt>
      <trkpt lat="45.8758" lon="4.71092">
        <ele>217</ele>
        <time>2018-05-06T10:06:26Z</time>
      </trkpt>
      <trkpt lat="45.87583" lon="4.71092">
        <ele>217</ele>
        <time>2018-05-06T10:06:27Z</time>
      </trkpt>
      <trkpt lat="45.87593" lon="4.7109">
        <ele>218</ele>
        <time>2018-05-06T10:06:28Z</time>
      </trkpt>
      <trkpt lat="45.87601" lon="4.71086">
        <ele>219</ele>
        <time>2018-05-06T10:06:30Z</time>
      </trkpt>
      <trkpt lat="45.87606" lon="4.71085">
        <ele>219</ele>
        <time>2018-05-06T10:06:31Z</time>
      </trkpt>
      <trkpt lat="45.87614" lon="4.71082">
        <ele>217</ele>
        <time>2018-05-06T10:06:33Z</time>
      </trkpt>
      <trkpt lat="45.87618" lon="4.71079">
        <ele>217</ele>
        <time>2018-05-06T10:06:34Z</time>
      </trkpt>
      <trkpt lat="45.87622" lon="4.71077">
        <ele>217</ele>
        <time>2018-05-06T10:06:35Z</time>
      </trkpt>
      <trkpt lat="45.87627" lon="4.71076">
        <ele>218</ele>
        <time>2018-05-06T10:06:36Z</time>
      </trkpt>
      <trkpt lat="45.87636" lon="4.71073">
        <ele>218</ele>
        <time>2018-05-06T10:06:38Z</time>
      </trkpt>
      <trkpt lat="45.87639" lon="4.71074">
        <ele>218</ele>
        <time>2018-05-06T10:06:39Z</time>
      </trkpt>
      <trkpt lat="45.87644" lon="4.71072">
        <ele>218</ele>
        <time>2018-05-06T10:06:40Z</time>
      </trkpt>
      <trkpt lat="45.87648" lon="4.71071">
        <ele>218</ele>
        <time>2018-05-06T10:06:41Z</time>
      </trkpt>
      <trkpt lat="45.87655" lon="4.71064">
        <ele>218</ele>
        <time>2018-05-06T10:06:43Z</time>
      </trkpt>
      <trkpt lat="45.8766" lon="4.71062">
        <ele>218</ele>
        <time>2018-05-06T10:06:44Z</time>
      </trkpt>
      <trkpt lat="45.87668" lon="4.71059">
        <ele>220</ele>
        <time>2018-05-06T10:06:46Z</time>
      </trkpt>
      <trkpt lat="45.87672" lon="4.71057">
        <ele>220</ele>
        <time>2018-05-06T10:06:47Z</time>
      </trkpt>
      <trkpt lat="45.87678" lon="4.71053">
        <ele>220</ele>
        <time>2018-05-06T10:06:48Z</time>
      </trkpt>
      <trkpt lat="45.87684" lon="4.71053">
        <ele>220</ele>
        <time>2018-05-06T10:06:49Z</time>
      </trkpt>
      <trkpt lat="45.87689" lon="4.71049">
        <ele>220</ele>
        <time>2018-05-06T10:06:50Z</time>
      </trkpt>
      <trkpt lat="45.87694" lon="4.71046">
        <ele>220</ele>
        <time>2018-05-06T10:06:51Z</time>
      </trkpt>
      <trkpt lat="45.87702" lon="4.7105">
        <ele>220</ele>
        <time>2018-05-06T10:06:53Z</time>
      </trkpt>
      <trkpt lat="45.87706" lon="4.71049">
        <ele>220</ele>
        <time>2018-05-06T10:06:54Z</time>
      </trkpt>
      <trkpt lat="45.87712" lon="4.71045">
        <ele>220</ele>
        <time>2018-05-06T10:06:56Z</time>
      </trkpt>
      <trkpt lat="45.87717" lon="4.71043">
        <ele>220</ele>
        <time>2018-05-06T10:06:57Z</time>
      </trkpt>
      <trkpt lat="45.87725" lon="4.7104">
        <ele>220</ele>
        <time>2018-05-06T10:06:59Z</time>
      </trkpt>
      <trkpt lat="45.87729" lon="4.71039">
        <ele>220</ele>
        <time>2018-05-06T10:07:00Z</time>
      </trkpt>
      <trkpt lat="45.87737" lon="4.71035">
        <ele>220</ele>
        <time>2018-05-06T10:07:02Z</time>
      </trkpt>
      <trkpt lat="45.87741" lon="4.71035">
        <ele>220</ele>
        <time>2018-05-06T10:07:03Z</time>
      </trkpt>
      <trkpt lat="45.87748" lon="4.71033">
        <ele>220</ele>
        <time>2018-05-06T10:07:05Z</time>
      </trkpt>
      <trkpt lat="45.87752" lon="4.71031">
        <ele>222</ele>
        <time>2018-05-06T10:07:06Z</time>
      </trkpt>
      <trkpt lat="45.8776" lon="4.7103">
        <ele>222</ele>
        <time>2018-05-06T10:07:08Z</time>
      </trkpt>
      <trkpt lat="45.87762" lon="4.71029">
        <ele>222</ele>
        <time>2018-05-06T10:07:09Z</time>
      </trkpt>
      <trkpt lat="45.87767" lon="4.71027">
        <ele>222</ele>
        <time>2018-05-06T10:07:10Z</time>
      </trkpt>
      <trkpt lat="45.87771" lon="4.71026">
        <ele>222</ele>
        <time>2018-05-06T10:07:11Z</time>
      </trkpt>
      <trkpt lat="45.8778" lon="4.71023">
        <ele>222</ele>
        <time>2018-05-06T10:07:13Z</time>
      </trkpt>
      <trkpt lat="45.87784" lon="4.71021">
        <ele>223</ele>
        <time>2018-05-06T10:07:14Z</time>
      </trkpt>
      <trkpt lat="45.87789" lon="4.71019">
        <ele>223</ele>
        <time>2018-05-06T10:07:15Z</time>
      </trkpt>
      <trkpt lat="45.87794" lon="4.71018">
        <ele>223</ele>
        <time>2018-05-06T10:07:16Z</time>
      </trkpt>
      <trkpt lat="45.87801" lon="4.7101">
        <ele>223</ele>
        <time>2018-05-06T10:07:18Z</time>
      </trkpt>
      <trkpt lat="45.87805" lon="4.71008">
        <ele>223</ele>
        <time>2018-05-06T10:07:19Z</time>
      </trkpt>
      <trkpt lat="45.87813" lon="4.71005">
        <ele>223</ele>
        <time>2018-05-06T10:07:21Z</time>
      </trkpt>
      <trkpt lat="45.87816" lon="4.71003">
        <ele>223</ele>
        <time>2018-05-06T10:07:22Z</time>
      </trkpt>
      <trkpt lat="45.87824" lon="4.71001">
        <ele>224</ele>
        <time>2018-05-06T10:07:24Z</time>
      </trkpt>
      <trkpt lat="45.87829" lon="4.70999">
        <ele>224</ele>
        <time>2018-05-06T10:07:25Z</time>
      </trkpt>
      <trkpt lat="45.87836" lon="4.70994">
        <ele>224</ele>
        <time>2018-05-06T10:07:27Z</time>
      </trkpt>
      <trkpt lat="45.87839" lon="4.70992">
        <ele>224</ele>
        <time>2018-05-06T10:07:28Z</time>
      </trkpt>
      <trkpt lat="45.87846" lon="4.70988">
        <ele>224</ele>
        <time>2018-05-06T10:07:30Z</time>
      </trkpt>
      <trkpt lat="45.8785" lon="4.70987">
        <ele>224</ele>
        <time>2018-05-06T10:07:31Z</time>
      </trkpt>
      <trkpt lat="45.87857" lon="4.70982">
        <ele>224</ele>
        <time>2018-05-06T10:07:33Z</time>
      </trkpt>
      <trkpt lat="45.87861" lon="4.7098">
        <ele>224</ele>
        <time>2018-05-06T10:07:34Z</time>
      </trkpt>
      <trkpt lat="45.87868" lon="4.70974">
        <ele>225</ele>
        <time>2018-05-06T10:07:36Z</time>
      </trkpt>
      <trkpt lat="45.87872" lon="4.70972">
        <ele>225</ele>
        <time>2018-05-06T10:07:37Z</time>
      </trkpt>
      <trkpt lat="45.87879" lon="4.70967">
        <ele>225</ele>
        <time>2018-05-06T10:07:39Z</time>
      </trkpt>
      <trkpt lat="45.87883" lon="4.70964">
        <ele>225</ele>
        <time>2018-05-06T10:07:40Z</time>
      </trkpt>
      <trkpt lat="45.8789" lon="4.70959">
        <ele>225</ele>
        <time>2018-05-06T10:07:42Z</time>
      </trkpt>
      <trkpt lat="45.87893" lon="4.70956">
        <ele>225</ele>
        <time>2018-05-06T10:07:43Z</time>
      </trkpt>
      <trkpt lat="45.879" lon="4.70951">
        <ele>225</ele>
        <time>2018-05-06T10:07:45Z</time>
      </trkpt>
      <trkpt lat="45.87904" lon="4.70949">
        <ele>225</ele>
        <time>2018-05-06T10:07:46Z</time>
      </trkpt>
      <trkpt lat="45.87911" lon="4.70944">
        <ele>224</ele>
        <time>2018-05-06T10:07:48Z</time>
      </trkpt>
      <trkpt lat="45.87915" lon="4.70942">
        <ele>224</ele>
        <time>2018-05-06T10:07:49Z</time>
      </trkpt>
      <trkpt lat="45.87922" lon="4.70938">
        <ele>225</ele>
        <time>2018-05-06T10:07:52Z</time>
      </trkpt>
      <trkpt lat="45.87928" lon="4.70935">
        <ele>225</ele>
        <time>2018-05-06T10:07:53Z</time>
      </trkpt>
      <trkpt lat="45.87935" lon="4.70931">
        <ele>225</ele>
        <time>2018-05-06T10:07:55Z</time>
      </trkpt>
      <trkpt lat="45.87938" lon="4.70929">
        <ele>225</ele>
        <time>2018-05-06T10:07:56Z</time>
      </trkpt>
      <trkpt lat="45.87945" lon="4.70924">
        <ele>225</ele>
        <time>2018-05-06T10:07:58Z</time>
      </trkpt>
      <trkpt lat="45.87948" lon="4.70922">
        <ele>225</ele>
        <time>2018-05-06T10:07:59Z</time>
      </trkpt>
      <trkpt lat="45.87955" lon="4.70916">
        <ele>224</ele>
        <time>2018-05-06T10:08:01Z</time>
      </trkpt>
      <trkpt lat="45.87959" lon="4.70914">
        <ele>225</ele>
        <time>2018-05-06T10:08:02Z</time>
      </trkpt>
      <trkpt lat="45.87966" lon="4.7091">
        <ele>225</ele>
        <time>2018-05-06T10:08:04Z</time>
      </trkpt>
      <trkpt lat="45.8797" lon="4.70908">
        <ele>225</ele>
        <time>2018-05-06T10:08:05Z</time>
      </trkpt>
      <trkpt lat="45.87977" lon="4.70903">
        <ele>225</ele>
        <time>2018-05-06T10:08:07Z</time>
      </trkpt>
      <trkpt lat="45.8798" lon="4.709">
        <ele>225</ele>
        <time>2018-05-06T10:08:08Z</time>
      </trkpt>
      <trkpt lat="45.87986" lon="4.70896">
        <ele>225</ele>
        <time>2018-05-06T10:08:10Z</time>
      </trkpt>
      <trkpt lat="45.87991" lon="4.70894">
        <ele>225</ele>
        <time>2018-05-06T10:08:11Z</time>
      </trkpt>
      <trkpt lat="45.87998" lon="4.7089">
        <ele>225</ele>
        <time>2018-05-06T10:08:13Z</time>
      </trkpt>
      <trkpt lat="45.88001" lon="4.70888">
        <ele>226</ele>
        <time>2018-05-06T10:08:14Z</time>
      </trkpt>
      <trkpt lat="45.88008" lon="4.70884">
        <ele>226</ele>
        <time>2018-05-06T10:08:16Z</time>
      </trkpt>
      <trkpt lat="45.88012" lon="4.70882">
        <ele>226</ele>
        <time>2018-05-06T10:08:17Z</time>
      </trkpt>
      <trkpt lat="45.8802" lon="4.70877">
        <ele>226</ele>
        <time>2018-05-06T10:08:19Z</time>
      </trkpt>
      <trkpt lat="45.88023" lon="4.70875">
        <ele>226</ele>
        <time>2018-05-06T10:08:20Z</time>
      </trkpt>
      <trkpt lat="45.88031" lon="4.7087">
        <ele>226</ele>
        <time>2018-05-06T10:08:22Z</time>
      </trkpt>
      <trkpt lat="45.88034" lon="4.70867">
        <ele>226</ele>
        <time>2018-05-06T10:08:23Z</time>
      </trkpt>
      <trkpt lat="45.88042" lon="4.70862">
        <ele>227</ele>
        <time>2018-05-06T10:08:25Z</time>
      </trkpt>
      <trkpt lat="45.88045" lon="4.7086">
        <ele>227</ele>
        <time>2018-05-06T10:08:26Z</time>
      </trkpt>
      <trkpt lat="45.88053" lon="4.70855">
        <ele>227</ele>
        <time>2018-05-06T10:08:28Z</time>
      </trkpt>
      <trkpt lat="45.88056" lon="4.70853">
        <ele>227</ele>
        <time>2018-05-06T10:08:29Z</time>
      </trkpt>
      <trkpt lat="45.88063" lon="4.70849">
        <ele>227</ele>
        <time>2018-05-06T10:08:31Z</time>
      </trkpt>
      <trkpt lat="45.88066" lon="4.70847">
        <ele>227</ele>
        <time>2018-05-06T10:08:32Z</time>
      </trkpt>
      <trkpt lat="45.88073" lon="4.70842">
        <ele>228</ele>
        <time>2018-05-06T10:08:34Z</time>
      </trkpt>
      <trkpt lat="45.88076" lon="4.7084">
        <ele>228</ele>
        <time>2018-05-06T10:08:35Z</time>
      </trkpt>
      <trkpt lat="45.88084" lon="4.7084">
        <ele>229</ele>
        <time>2018-05-06T10:08:37Z</time>
      </trkpt>
      <trkpt lat="45.88087" lon="4.70845">
        <ele>229</ele>
        <time>2018-05-06T10:08:38Z</time>
      </trkpt>
      <trkpt lat="45.88094" lon="4.70852">
        <ele>229</ele>
        <time>2018-05-06T10:08:40Z</time>
      </trkpt>
      <trkpt lat="45.88098" lon="4.70852">
        <ele>229</ele>
        <time>2018-05-06T10:08:41Z</time>
      </trkpt>
      <trkpt lat="45.88105" lon="4.70847">
        <ele>229</ele>
        <time>2018-05-06T10:08:43Z</time>
      </trkpt>
      <trkpt lat="45.88108" lon="4.70843">
        <ele>229</ele>
        <time>2018-05-06T10:08:44Z</time>
      </trkpt>
      <trkpt lat="45.8811" lon="4.70834">
        <ele>229</ele>
        <time>2018-05-06T10:08:46Z</time>
      </trkpt>
      <trkpt lat="45.88113" lon="4.70828">
        <ele>230</ele>
        <time>2018-05-06T10:08:47Z</time>
      </trkpt>
      <trkpt lat="45.88117" lon="4.70817">
        <ele>230</ele>
        <time>2018-05-06T10:08:49Z</time>
      </trkpt>
      <trkpt lat="45.88119" lon="4.70816">
        <ele>230</ele>
        <time>2018-05-06T10:08:50Z</time>
      </trkpt>
      <trkpt lat="45.88121" lon="4.70814">
        <ele>230</ele>
        <time>2018-05-06T10:08:51Z</time>
      </trkpt>
      <trkpt lat="45.88126" lon="4.70808">
        <ele>230</ele>
        <time>2018-05-06T10:08:52Z</time>
      </trkpt>
      <trkpt lat="45.88132" lon="4.70803">
        <ele>231</ele>
        <time>2018-05-06T10:08:54Z</time>
      </trkpt>
      <trkpt lat="45.88134" lon="4.70801">
        <ele>231</ele>
        <time>2018-05-06T10:08:55Z</time>
      </trkpt>
      <trkpt lat="45.88136" lon="4.70799">
        <ele>231</ele>
        <time>2018-05-06T10:08:56Z</time>
      </trkpt>
      <trkpt lat="45.88142" lon="4.70793">
        <ele>231</ele>
        <time>2018-05-06T10:08:57Z</time>
      </trkpt>
      <trkpt lat="45.88149" lon="4.70786">
        <ele>231</ele>
        <time>2018-05-06T10:08:59Z</time>
      </trkpt>
      <trkpt lat="45.88152" lon="4.70783">
        <ele>231</ele>
        <time>2018-05-06T10:09:00Z</time>
      </trkpt>
      <trkpt lat="45.8816" lon="4.70776">
        <ele>231</ele>
        <time>2018-05-06T10:09:02Z</time>
      </trkpt>
      <trkpt lat="45.88162" lon="4.70775">
        <ele>231</ele>
        <time>2018-05-06T10:09:03Z</time>
      </trkpt>
      <trkpt lat="45.88167" lon="4.70771">
        <ele>232</ele>
        <time>2018-05-06T10:09:04Z</time>
      </trkpt>
      <trkpt lat="45.88171" lon="4.70769">
        <ele>232</ele>
        <time>2018-05-06T10:09:05Z</time>
      </trkpt>
      <trkpt lat="45.88178" lon="4.70765">
        <ele>232</ele>
        <time>2018-05-06T10:09:08Z</time>
      </trkpt>
      <trkpt lat="45.88181" lon="4.70763">
        <ele>232</ele>
        <time>2018-05-06T10:09:09Z</time>
      </trkpt>
      <trkpt lat="45.88187" lon="4.70759">
        <ele>232</ele>
        <time>2018-05-06T10:09:10Z</time>
      </trkpt>
      <trkpt lat="45.88191" lon="4.70757">
        <ele>232</ele>
        <time>2018-05-06T10:09:11Z</time>
      </trkpt>
      <trkpt lat="45.88198" lon="4.70752">
        <ele>232</ele>
        <time>2018-05-06T10:09:13Z</time>
      </trkpt>
      <trkpt lat="45.88202" lon="4.7075">
        <ele>235</ele>
        <time>2018-05-06T10:09:14Z</time>
      </trkpt>
      <trkpt lat="45.88209" lon="4.70745">
        <ele>235</ele>
        <time>2018-05-06T10:09:16Z</time>
      </trkpt>
      <trkpt lat="45.88213" lon="4.70743">
        <ele>235</ele>
        <time>2018-05-06T10:09:17Z</time>
      </trkpt>
      <trkpt lat="45.8822" lon="4.70738">
        <ele>235</ele>
        <time>2018-05-06T10:09:19Z</time>
      </trkpt>
      <trkpt lat="45.88224" lon="4.70737">
        <ele>235</ele>
        <time>2018-05-06T10:09:20Z</time>
      </trkpt>
      <trkpt lat="45.8823" lon="4.70733">
        <ele>235</ele>
        <time>2018-05-06T10:09:22Z</time>
      </trkpt>
      <trkpt lat="45.88233" lon="4.70731">
        <ele>235</ele>
        <time>2018-05-06T10:09:23Z</time>
      </trkpt>
      <trkpt lat="45.8824" lon="4.70726">
        <ele>235</ele>
        <time>2018-05-06T10:09:25Z</time>
      </trkpt>
      <trkpt lat="45.88243" lon="4.70724">
        <ele>235</ele>
        <time>2018-05-06T10:09:26Z</time>
      </trkpt>
      <trkpt lat="45.88248" lon="4.70721">
        <ele>235</ele>
        <time>2018-05-06T10:09:27Z</time>
      </trkpt>
      <trkpt lat="45.88252" lon="4.70716">
        <ele>234</ele>
        <time>2018-05-06T10:09:28Z</time>
      </trkpt>
      <trkpt lat="45.88256" lon="4.70711">
        <ele>235</ele>
        <time>2018-05-06T10:09:29Z</time>
      </trkpt>
      <trkpt lat="45.88259" lon="4.70703">
        <ele>235</ele>
        <time>2018-05-06T10:09:30Z</time>
      </trkpt>
      <trkpt lat="45.88264" lon="4.70701">
        <ele>235</ele>
        <time>2018-05-06T10:09:31Z</time>
      </trkpt>
      <trkpt lat="45.88268" lon="4.70697">
        <ele>235</ele>
        <time>2018-05-06T10:09:32Z</time>
      </trkpt>
      <trkpt lat="45.88272" lon="4.70694">
        <ele>235</ele>
        <time>2018-05-06T10:09:33Z</time>
      </trkpt>
      <trkpt lat="45.88277" lon="4.70691">
        <ele>235</ele>
        <time>2018-05-06T10:09:34Z</time>
      </trkpt>
      <trkpt lat="45.88281" lon="4.70687">
        <ele>235</ele>
        <time>2018-05-06T10:09:35Z</time>
      </trkpt>
      <trkpt lat="45.88284" lon="4.70684">
        <ele>235</ele>
        <time>2018-05-06T10:09:36Z</time>
      </trkpt>
      <trkpt lat="45.88292" lon="4.70679">
        <ele>235</ele>
        <time>2018-05-06T10:09:38Z</time>
      </trkpt>
      <trkpt lat="45.88296" lon="4.70676">
        <ele>235</ele>
        <time>2018-05-06T10:09:39Z</time>
      </trkpt>
      <trkpt lat="45.88303" lon="4.70669">
        <ele>235</ele>
        <time>2018-05-06T10:09:41Z</time>
      </trkpt>
      <trkpt lat="45.88307" lon="4.70665">
        <ele>238</ele>
        <time>2018-05-06T10:09:42Z</time>
      </trkpt>
      <trkpt lat="45.88311" lon="4.70662">
        <ele>238</ele>
        <time>2018-05-06T10:09:43Z</time>
      </trkpt>
      <trkpt lat="45.88315" lon="4.70658">
        <ele>238</ele>
        <time>2018-05-06T10:09:44Z</time>
      </trkpt>
      <trkpt lat="45.88322" lon="4.70653">
        <ele>237</ele>
        <time>2018-05-06T10:09:46Z</time>
      </trkpt>
      <trkpt lat="45.88326" lon="4.7065">
        <ele>237</ele>
        <time>2018-05-06T10:09:47Z</time>
      </trkpt>
      <trkpt lat="45.88331" lon="4.70647">
        <ele>238</ele>
        <time>2018-05-06T10:09:48Z</time>
      </trkpt>
      <trkpt lat="45.88335" lon="4.70644">
        <ele>235</ele>
        <time>2018-05-06T10:09:49Z</time>
      </trkpt>
      <trkpt lat="45.88344" lon="4.7064">
        <ele>235</ele>
        <time>2018-05-06T10:09:51Z</time>
      </trkpt>
      <trkpt lat="45.88348" lon="4.70634">
        <ele>235</ele>
        <time>2018-05-06T10:09:52Z</time>
      </trkpt>
      <trkpt lat="45.88355" lon="4.70632">
        <ele>235</ele>
        <time>2018-05-06T10:09:54Z</time>
      </trkpt>
      <trkpt lat="45.88359" lon="4.70629">
        <ele>235</ele>
        <time>2018-05-06T10:09:55Z</time>
      </trkpt>
      <trkpt lat="45.88363" lon="4.70624">
        <ele>235</ele>
        <time>2018-05-06T10:09:56Z</time>
      </trkpt>
      <trkpt lat="45.88367" lon="4.70622">
        <ele>235</ele>
        <time>2018-05-06T10:09:57Z</time>
      </trkpt>
      <trkpt lat="45.88372" lon="4.70618">
        <ele>235</ele>
        <time>2018-05-06T10:09:58Z</time>
      </trkpt>
      <trkpt lat="45.88377" lon="4.70613">
        <ele>235</ele>
        <time>2018-05-06T10:09:59Z</time>
      </trkpt>
      <trkpt lat="45.88381" lon="4.7061">
        <ele>235</ele>
        <time>2018-05-06T10:10:00Z</time>
      </trkpt>
      <trkpt lat="45.88385" lon="4.70606">
        <ele>235</ele>
        <time>2018-05-06T10:10:01Z</time>
      </trkpt>
      <trkpt lat="45.8839" lon="4.70602">
        <ele>235</ele>
        <time>2018-05-06T10:10:02Z</time>
      </trkpt>
      <trkpt lat="45.88395" lon="4.70599">
        <ele>235</ele>
        <time>2018-05-06T10:10:03Z</time>
      </trkpt>
      <trkpt lat="45.88399" lon="4.70596">
        <ele>235</ele>
        <time>2018-05-06T10:10:04Z</time>
      </trkpt>
      <trkpt lat="45.88405" lon="4.70592">
        <ele>235</ele>
        <time>2018-05-06T10:10:05Z</time>
      </trkpt>
      <trkpt lat="45.8841" lon="4.70587">
        <ele>235</ele>
        <time>2018-05-06T10:10:06Z</time>
      </trkpt>
      <trkpt lat="45.88415" lon="4.70584">
        <ele>235</ele>
        <time>2018-05-06T10:10:07Z</time>
      </trkpt>
      <trkpt lat="45.88421" lon="4.70579">
        <ele>235</ele>
        <time>2018-05-06T10:10:08Z</time>
      </trkpt>
      <trkpt lat="45.88426" lon="4.70575">
        <ele>235</ele>
        <time>2018-05-06T10:10:09Z</time>
      </trkpt>
      <trkpt lat="45.8843" lon="4.70573">
        <ele>235</ele>
        <time>2018-05-06T10:10:10Z</time>
      </trkpt>
      <trkpt lat="45.88434" lon="4.70571">
        <ele>235</ele>
        <time>2018-05-06T10:10:11Z</time>
      </trkpt>
      <trkpt lat="45.88439" lon="4.70568">
        <ele>234</ele>
        <time>2018-05-06T10:10:12Z</time>
      </trkpt>
      <trkpt lat="45.88446" lon="4.70563">
        <ele>234</ele>
        <time>2018-05-06T10:10:13Z</time>
      </trkpt>
      <trkpt lat="45.88451" lon="4.70558">
        <ele>234</ele>
        <time>2018-05-06T10:10:14Z</time>
      </trkpt>
      <trkpt lat="45.88458" lon="4.70552">
        <ele>234</ele>
        <time>2018-05-06T10:10:15Z</time>
      </trkpt>
      <trkpt lat="45.88463" lon="4.70548">
        <ele>234</ele>
        <time>2018-05-06T10:10:16Z</time>
      </trkpt>
      <trkpt lat="45.88468" lon="4.70546">
        <ele>234</ele>
        <time>2018-05-06T10:10:17Z</time>
      </trkpt>
      <trkpt lat="45.88473" lon="4.70541">
        <ele>234</ele>
        <time>2018-05-06T10:10:18Z</time>
      </trkpt>
      <trkpt lat="45.88479" lon="4.70537">
        <ele>234</ele>
        <time>2018-05-06T10:10:19Z</time>
      </trkpt>
      <trkpt lat="45.88483" lon="4.70536">
        <ele>234</ele>
        <time>2018-05-06T10:10:20Z</time>
      </trkpt>
      <trkpt lat="45.88488" lon="4.70532">
        <ele>234</ele>
        <time>2018-05-06T10:10:21Z</time>
      </trkpt>
      <trkpt lat="45.88492" lon="4.70526">
        <ele>234</ele>
        <time>2018-05-06T10:10:22Z</time>
      </trkpt>
      <trkpt lat="45.88498" lon="4.70521">
        <ele>233</ele>
        <time>2018-05-06T10:10:23Z</time>
      </trkpt>
      <trkpt lat="45.88504" lon="4.70516">
        <ele>231</ele>
        <time>2018-05-06T10:10:24Z</time>
      </trkpt>
      <trkpt lat="45.88509" lon="4.70511">
        <ele>231</ele>
        <time>2018-05-06T10:10:25Z</time>
      </trkpt>
      <trkpt lat="45.88514" lon="4.70506">
        <ele>231</ele>
        <time>2018-05-06T10:10:26Z</time>
      </trkpt>
      <trkpt lat="45.88519" lon="4.70502">
        <ele>230</ele>
        <time>2018-05-06T10:10:27Z</time>
      </trkpt>
      <trkpt lat="45.88525" lon="4.70498">
        <ele>232</ele>
        <time>2018-05-06T10:10:28Z</time>
      </trkpt>
      <trkpt lat="45.88531" lon="4.70493">
        <ele>232</ele>
        <time>2018-05-06T10:10:29Z</time>
      </trkpt>
      <trkpt lat="45.88536" lon="4.70489">
        <ele>232</ele>
        <time>2018-05-06T10:10:30Z</time>
      </trkpt>
      <trkpt lat="45.88541" lon="4.70484">
        <ele>232</ele>
        <time>2018-05-06T10:10:31Z</time>
      </trkpt>
      <trkpt lat="45.88546" lon="4.7048">
        <ele>232</ele>
        <time>2018-05-06T10:10:32Z</time>
      </trkpt>
      <trkpt lat="45.88552" lon="4.70476">
        <ele>232</ele>
        <time>2018-05-06T10:10:33Z</time>
      </trkpt>
      <trkpt lat="45.88557" lon="4.70472">
        <ele>231</ele>
        <time>2018-05-06T10:10:34Z</time>
      </trkpt>
      <trkpt lat="45.88562" lon="4.70469">
        <ele>231</ele>
        <time>2018-05-06T10:10:35Z</time>
      </trkpt>
      <trkpt lat="45.88567" lon="4.70466">
        <ele>231</ele>
        <time>2018-05-06T10:10:36Z</time>
      </trkpt>
      <trkpt lat="45.88571" lon="4.70462">
        <ele>231</ele>
        <time>2018-05-06T10:10:37Z</time>
      </trkpt>
      <trkpt lat="45.88576" lon="4.70458">
        <ele>231</ele>
        <time>2018-05-06T10:10:38Z</time>
      </trkpt>
      <trkpt lat="45.88581" lon="4.70455">
        <ele>232</ele>
        <time>2018-05-06T10:10:39Z</time>
      </trkpt>
      <trkpt lat="45.88586" lon="4.70451">
        <ele>228</ele>
        <time>2018-05-06T10:10:40Z</time>
      </trkpt>
      <trkpt lat="45.88592" lon="4.70446">
        <ele>228</ele>
        <time>2018-05-06T10:10:41Z</time>
      </trkpt>
      <trkpt lat="45.88597" lon="4.70442">
        <ele>229</ele>
        <time>2018-05-06T10:10:42Z</time>
      </trkpt>
      <trkpt lat="45.88603" lon="4.70439">
        <ele>228</ele>
        <time>2018-05-06T10:10:43Z</time>
      </trkpt>
      <trkpt lat="45.88608" lon="4.70435">
        <ele>228</ele>
        <time>2018-05-06T10:10:44Z</time>
      </trkpt>
      <trkpt lat="45.88614" lon="4.70427">
        <ele>228</ele>
        <time>2018-05-06T10:10:45Z</time>
      </trkpt>
      <trkpt lat="45.88621" lon="4.7042">
        <ele>228</ele>
        <time>2018-05-06T10:10:46Z</time>
      </trkpt>
      <trkpt lat="45.88627" lon="4.70415">
        <ele>231</ele>
        <time>2018-05-06T10:10:47Z</time>
      </trkpt>
      <trkpt lat="45.88632" lon="4.70409">
        <ele>230</ele>
        <time>2018-05-06T10:10:48Z</time>
      </trkpt>
      <trkpt lat="45.88637" lon="4.70406">
        <ele>230</ele>
        <time>2018-05-06T10:10:49Z</time>
      </trkpt>
      <trkpt lat="45.88641" lon="4.70402">
        <ele>230</ele>
        <time>2018-05-06T10:10:50Z</time>
      </trkpt>
      <trkpt lat="45.88646" lon="4.70398">
        <ele>230</ele>
        <time>2018-05-06T10:10:51Z</time>
      </trkpt>
      <trkpt lat="45.8865" lon="4.70398">
        <ele>230</ele>
        <time>2018-05-06T10:10:52Z</time>
      </trkpt>
      <trkpt lat="45.88655" lon="4.70393">
        <ele>230</ele>
        <time>2018-05-06T10:10:53Z</time>
      </trkpt>
      <trkpt lat="45.88661" lon="4.7039">
        <ele>230</ele>
        <time>2018-05-06T10:10:54Z</time>
      </trkpt>
      <trkpt lat="45.88665" lon="4.70386">
        <ele>230</ele>
        <time>2018-05-06T10:10:55Z</time>
      </trkpt>
      <trkpt lat="45.8867" lon="4.70382">
        <ele>228</ele>
        <time>2018-05-06T10:10:56Z</time>
      </trkpt>
      <trkpt lat="45.88674" lon="4.70377">
        <ele>228</ele>
        <time>2018-05-06T10:10:57Z</time>
      </trkpt>
      <trkpt lat="45.8868" lon="4.70373">
        <ele>229</ele>
        <time>2018-05-06T10:10:58Z</time>
      </trkpt>
      <trkpt lat="45.88685" lon="4.70369">
        <ele>229</ele>
        <time>2018-05-06T10:10:59Z</time>
      </trkpt>
      <trkpt lat="45.88691" lon="4.70365">
        <ele>229</ele>
        <time>2018-05-06T10:11:00Z</time>
      </trkpt>
      <trkpt lat="45.88696" lon="4.7036">
        <ele>229</ele>
        <time>2018-05-06T10:11:01Z</time>
      </trkpt>
      <trkpt lat="45.88702" lon="4.70356">
        <ele>229</ele>
        <time>2018-05-06T10:11:02Z</time>
      </trkpt>
      <trkpt lat="45.88708" lon="4.70351">
        <ele>229</ele>
        <time>2018-05-06T10:11:03Z</time>
      </trkpt>
      <trkpt lat="45.88714" lon="4.70346">
        <ele>229</ele>
        <time>2018-05-06T10:11:04Z</time>
      </trkpt>
      <trkpt lat="45.88719" lon="4.70343">
        <ele>229</ele>
        <time>2018-05-06T10:11:05Z</time>
      </trkpt>
      <trkpt lat="45.88727" lon="4.70337">
        <ele>229</ele>
        <time>2018-05-06T10:11:07Z</time>
      </trkpt>
      <trkpt lat="45.88733" lon="4.70329">
        <ele>232</ele>
        <time>2018-05-06T10:11:08Z</time>
      </trkpt>
      <trkpt lat="45.88738" lon="4.70325">
        <ele>232</ele>
        <time>2018-05-06T10:11:09Z</time>
      </trkpt>
      <trkpt lat="45.88742" lon="4.70321">
        <ele>232</ele>
        <time>2018-05-06T10:11:10Z</time>
      </trkpt>
      <trkpt lat="45.88747" lon="4.7032">
        <ele>232</ele>
        <time>2018-05-06T10:11:11Z</time>
      </trkpt>
      <trkpt lat="45.88752" lon="4.70314">
        <ele>232</ele>
        <time>2018-05-06T10:11:12Z</time>
      </trkpt>
      <trkpt lat="45.88757" lon="4.70309">
        <ele>232</ele>
        <time>2018-05-06T10:11:13Z</time>
      </trkpt>
      <trkpt lat="45.88762" lon="4.70306">
        <ele>233</ele>
        <time>2018-05-06T10:11:14Z</time>
      </trkpt>
      <trkpt lat="45.88765" lon="4.70303">
        <ele>233</ele>
        <time>2018-05-06T10:11:15Z</time>
      </trkpt>
      <trkpt lat="45.8877" lon="4.70299">
        <ele>233</ele>
        <time>2018-05-06T10:11:16Z</time>
      </trkpt>
      <trkpt lat="45.88775" lon="4.70295">
        <ele>234</ele>
        <time>2018-05-06T10:11:17Z</time>
      </trkpt>
      <trkpt lat="45.8878" lon="4.70291">
        <ele>234</ele>
        <time>2018-05-06T10:11:18Z</time>
      </trkpt>
      <trkpt lat="45.88785" lon="4.70287">
        <ele>234</ele>
        <time>2018-05-06T10:11:19Z</time>
      </trkpt>
      <trkpt lat="45.8879" lon="4.70283">
        <ele>234</ele>
        <time>2018-05-06T10:11:20Z</time>
      </trkpt>
      <trkpt lat="45.88795" lon="4.70279">
        <ele>234</ele>
        <time>2018-05-06T10:11:21Z</time>
      </trkpt>
      <trkpt lat="45.88801" lon="4.70276">
        <ele>234</ele>
        <time>2018-05-06T10:11:22Z</time>
      </trkpt>
      <trkpt lat="45.88805" lon="4.70273">
        <ele>234</ele>
        <time>2018-05-06T10:11:23Z</time>
      </trkpt>
      <trkpt lat="45.88809" lon="4.7027">
        <ele>235</ele>
        <time>2018-05-06T10:11:24Z</time>
      </trkpt>
      <trkpt lat="45.88815" lon="4.70267">
        <ele>235</ele>
        <time>2018-05-06T10:11:25Z</time>
      </trkpt>
      <trkpt lat="45.88819" lon="4.70263">
        <ele>235</ele>
        <time>2018-05-06T10:11:26Z</time>
      </trkpt>
      <trkpt lat="45.88824" lon="4.70259">
        <ele>236</ele>
        <time>2018-05-06T10:11:27Z</time>
      </trkpt>
      <trkpt lat="45.88829" lon="4.70257">
        <ele>236</ele>
        <time>2018-05-06T10:11:28Z</time>
      </trkpt>
      <trkpt lat="45.88833" lon="4.70255">
        <ele>236</ele>
        <time>2018-05-06T10:11:29Z</time>
      </trkpt>
      <trkpt lat="45.88838" lon="4.70251">
        <ele>236</ele>
        <time>2018-05-06T10:11:30Z</time>
      </trkpt>
      <trkpt lat="45.88844" lon="4.70247">
        <ele>238</ele>
        <time>2018-05-06T10:11:31Z</time>
      </trkpt>
      <trkpt lat="45.88849" lon="4.70244">
        <ele>238</ele>
        <time>2018-05-06T10:11:32Z</time>
      </trkpt>
      <trkpt lat="45.88853" lon="4.70244">
        <ele>238</ele>
        <time>2018-05-06T10:11:33Z</time>
      </trkpt>
      <trkpt lat="45.88859" lon="4.70237">
        <ele>238</ele>
        <time>2018-05-06T10:11:34Z</time>
      </trkpt>
      <trkpt lat="45.88865" lon="4.70234">
        <ele>238</ele>
        <time>2018-05-06T10:11:35Z</time>
      </trkpt>
      <trkpt lat="45.8887" lon="4.70232">
        <ele>238</ele>
        <time>2018-05-06T10:11:36Z</time>
      </trkpt>
      <trkpt lat="45.88875" lon="4.70229">
        <ele>238</ele>
        <time>2018-05-06T10:11:37Z</time>
      </trkpt>
      <trkpt lat="45.88881" lon="4.70224">
        <ele>238</ele>
        <time>2018-05-06T10:11:38Z</time>
      </trkpt>
      <trkpt lat="45.88887" lon="4.70221">
        <ele>238</ele>
        <time>2018-05-06T10:11:39Z</time>
      </trkpt>
      <trkpt lat="45.88893" lon="4.70218">
        <ele>238</ele>
        <time>2018-05-06T10:11:40Z</time>
      </trkpt>
      <trkpt lat="45.88899" lon="4.70212">
        <ele>238</ele>
        <time>2018-05-06T10:11:41Z</time>
      </trkpt>
      <trkpt lat="45.88905" lon="4.70209">
        <ele>239</ele>
        <time>2018-05-06T10:11:42Z</time>
      </trkpt>
      <trkpt lat="45.8891" lon="4.70206">
        <ele>239</ele>
        <time>2018-05-06T10:11:43Z</time>
      </trkpt>
      <trkpt lat="45.88915" lon="4.70202">
        <ele>239</ele>
        <time>2018-05-06T10:11:44Z</time>
      </trkpt>
      <trkpt lat="45.8892" lon="4.702">
        <ele>235</ele>
        <time>2018-05-06T10:11:45Z</time>
      </trkpt>
      <trkpt lat="45.88925" lon="4.70197">
        <ele>235</ele>
        <time>2018-05-06T10:11:46Z</time>
      </trkpt>
      <trkpt lat="45.8893" lon="4.70195">
        <ele>235</ele>
        <time>2018-05-06T10:11:47Z</time>
      </trkpt>
      <trkpt lat="45.88934" lon="4.70196">
        <ele>235</ele>
        <time>2018-05-06T10:11:48Z</time>
      </trkpt>
      <trkpt lat="45.88939" lon="4.70192">
        <ele>235</ele>
        <time>2018-05-06T10:11:49Z</time>
      </trkpt>
      <trkpt lat="45.88945" lon="4.70189">
        <ele>235</ele>
        <time>2018-05-06T10:11:50Z</time>
      </trkpt>
      <trkpt lat="45.8895" lon="4.70187">
        <ele>234</ele>
        <time>2018-05-06T10:11:51Z</time>
      </trkpt>
      <trkpt lat="45.88955" lon="4.70184">
        <ele>234</ele>
        <time>2018-05-06T10:11:52Z</time>
      </trkpt>
      <trkpt lat="45.88961" lon="4.70181">
        <ele>234</ele>
        <time>2018-05-06T10:11:53Z</time>
      </trkpt>
      <trkpt lat="45.88967" lon="4.70177">
        <ele>234</ele>
        <time>2018-05-06T10:11:54Z</time>
      </trkpt>
      <trkpt lat="45.8897" lon="4.7018">
        <ele>233</ele>
        <time>2018-05-06T10:11:55Z</time>
      </trkpt>
      <trkpt lat="45.88976" lon="4.70177">
        <ele>233</ele>
        <time>2018-05-06T10:11:56Z</time>
      </trkpt>
      <trkpt lat="45.88982" lon="4.70173">
        <ele>233</ele>
        <time>2018-05-06T10:11:57Z</time>
      </trkpt>
      <trkpt lat="45.88987" lon="4.7017">
        <ele>232</ele>
        <time>2018-05-06T10:11:58Z</time>
      </trkpt>
      <trkpt lat="45.88993" lon="4.70167">
        <ele>234</ele>
        <time>2018-05-06T10:11:59Z</time>
      </trkpt>
      <trkpt lat="45.88998" lon="4.70163">
        <ele>233</ele>
        <time>2018-05-06T10:12:00Z</time>
      </trkpt>
      <trkpt lat="45.89003" lon="4.70162">
        <ele>232</ele>
        <time>2018-05-06T10:12:01Z</time>
      </trkpt>
      <trkpt lat="45.89009" lon="4.70159">
        <ele>232</ele>
        <time>2018-05-06T10:12:02Z</time>
      </trkpt>
      <trkpt lat="45.89014" lon="4.70154">
        <ele>231</ele>
        <time>2018-05-06T10:12:03Z</time>
      </trkpt>
      <trkpt lat="45.89019" lon="4.70148">
        <ele>231</ele>
        <time>2018-05-06T10:12:04Z</time>
      </trkpt>
      <trkpt lat="45.89024" lon="4.70146">
        <ele>231</ele>
        <time>2018-05-06T10:12:05Z</time>
      </trkpt>
      <trkpt lat="45.89029" lon="4.70144">
        <ele>231</ele>
        <time>2018-05-06T10:12:06Z</time>
      </trkpt>
      <trkpt lat="45.89034" lon="4.7014">
        <ele>231</ele>
        <time>2018-05-06T10:12:07Z</time>
      </trkpt>
      <trkpt lat="45.8904" lon="4.70136">
        <ele>231</ele>
        <time>2018-05-06T10:12:08Z</time>
      </trkpt>
      <trkpt lat="45.89046" lon="4.70128">
        <ele>231</ele>
        <time>2018-05-06T10:12:09Z</time>
      </trkpt>
      <trkpt lat="45.89052" lon="4.70125">
        <ele>231</ele>
        <time>2018-05-06T10:12:10Z</time>
      </trkpt>
      <trkpt lat="45.89055" lon="4.70123">
        <ele>230</ele>
        <time>2018-05-06T10:12:11Z</time>
      </trkpt>
      <trkpt lat="45.8906" lon="4.7012">
        <ele>230</ele>
        <time>2018-05-06T10:12:12Z</time>
      </trkpt>
      <trkpt lat="45.89065" lon="4.70118">
        <ele>230</ele>
        <time>2018-05-06T10:12:13Z</time>
      </trkpt>
      <trkpt lat="45.89071" lon="4.70114">
        <ele>230</ele>
        <time>2018-05-06T10:12:14Z</time>
      </trkpt>
      <trkpt lat="45.89076" lon="4.70111">
        <ele>230</ele>
        <time>2018-05-06T10:12:15Z</time>
      </trkpt>
      <trkpt lat="45.89081" lon="4.70108">
        <ele>230</ele>
        <time>2018-05-06T10:12:16Z</time>
      </trkpt>
      <trkpt lat="45.89087" lon="4.70104">
        <ele>228</ele>
        <time>2018-05-06T10:12:17Z</time>
      </trkpt>
      <trkpt lat="45.89092" lon="4.70101">
        <ele>228</ele>
        <time>2018-05-06T10:12:18Z</time>
      </trkpt>
      <trkpt lat="45.89098" lon="4.70097">
        <ele>228</ele>
        <time>2018-05-06T10:12:19Z</time>
      </trkpt>
      <trkpt lat="45.89103" lon="4.70094">
        <ele>228</ele>
        <time>2018-05-06T10:12:20Z</time>
      </trkpt>
      <trkpt lat="45.89109" lon="4.70091">
        <ele>228</ele>
        <time>2018-05-06T10:12:21Z</time>
      </trkpt>
      <trkpt lat="45.89116" lon="4.70086">
        <ele>228</ele>
        <time>2018-05-06T10:12:22Z</time>
      </trkpt>
      <trkpt lat="45.89121" lon="4.70083">
        <ele>231</ele>
        <time>2018-05-06T10:12:23Z</time>
      </trkpt>
      <trkpt lat="45.89127" lon="4.7008">
        <ele>231</ele>
        <time>2018-05-06T10:12:24Z</time>
      </trkpt>
      <trkpt lat="45.89132" lon="4.70077">
        <ele>231</ele>
        <time>2018-05-06T10:12:25Z</time>
      </trkpt>
      <trkpt lat="45.89138" lon="4.70075">
        <ele>231</ele>
        <time>2018-05-06T10:12:26Z</time>
      </trkpt>
      <trkpt lat="45.89144" lon="4.7007">
        <ele>230</ele>
        <time>2018-05-06T10:12:27Z</time>
      </trkpt>
      <trkpt lat="45.8915" lon="4.70068">
        <ele>230</ele>
        <time>2018-05-06T10:12:28Z</time>
      </trkpt>
      <trkpt lat="45.89156" lon="4.70064">
        <ele>230</ele>
        <time>2018-05-06T10:12:29Z</time>
      </trkpt>
      <trkpt lat="45.89161" lon="4.70062">
        <ele>230</ele>
        <time>2018-05-06T10:12:30Z</time>
      </trkpt>
      <trkpt lat="45.89167" lon="4.7006">
        <ele>229</ele>
        <time>2018-05-06T10:12:31Z</time>
      </trkpt>
      <trkpt lat="45.89173" lon="4.70057">
        <ele>229</ele>
        <time>2018-05-06T10:12:32Z</time>
      </trkpt>
      <trkpt lat="45.89179" lon="4.70055">
        <ele>229</ele>
        <time>2018-05-06T10:12:33Z</time>
      </trkpt>
      <trkpt lat="45.89185" lon="4.70052">
        <ele>229</ele>
        <time>2018-05-06T10:12:34Z</time>
      </trkpt>
      <trkpt lat="45.89191" lon="4.70049">
        <ele>229</ele>
        <time>2018-05-06T10:12:35Z</time>
      </trkpt>
      <trkpt lat="45.89198" lon="4.70047">
        <ele>229</ele>
        <time>2018-05-06T10:12:36Z</time>
      </trkpt>
      <trkpt lat="45.89203" lon="4.70045">
        <ele>229</ele>
        <time>2018-05-06T10:12:37Z</time>
      </trkpt>
      <trkpt lat="45.89209" lon="4.70042">
        <ele>228</ele>
        <time>2018-05-06T10:12:38Z</time>
      </trkpt>
      <trkpt lat="45.89214" lon="4.70038">
        <ele>228</ele>
        <time>2018-05-06T10:12:39Z</time>
      </trkpt>
      <trkpt lat="45.89221" lon="4.70033">
        <ele>228</ele>
        <time>2018-05-06T10:12:40Z</time>
      </trkpt>
      <trkpt lat="45.89226" lon="4.70031">
        <ele>228</ele>
        <time>2018-05-06T10:12:41Z</time>
      </trkpt>
      <trkpt lat="45.89231" lon="4.70029">
        <ele>228</ele>
        <time>2018-05-06T10:12:42Z</time>
      </trkpt>
      <trkpt lat="45.89237" lon="4.70028">
        <ele>228</ele>
        <time>2018-05-06T10:12:43Z</time>
      </trkpt>
      <trkpt lat="45.89243" lon="4.70026">
        <ele>228</ele>
        <time>2018-05-06T10:12:44Z</time>
      </trkpt>
      <trkpt lat="45.8925" lon="4.70024">
        <ele>227</ele>
        <time>2018-05-06T10:12:45Z</time>
      </trkpt>
      <trkpt lat="45.89257" lon="4.70022">
        <ele>227</ele>
        <time>2018-05-06T10:12:46Z</time>
      </trkpt>
      <trkpt lat="45.89262" lon="4.7002">
        <ele>227</ele>
        <time>2018-05-06T10:12:47Z</time>
      </trkpt>
      <trkpt lat="45.89268" lon="4.70017">
        <ele>227</ele>
        <time>2018-05-06T10:12:48Z</time>
      </trkpt>
      <trkpt lat="45.89274" lon="4.70014">
        <ele>226</ele>
        <time>2018-05-06T10:12:49Z</time>
      </trkpt>
      <trkpt lat="45.89279" lon="4.70012">
        <ele>226</ele>
        <time>2018-05-06T10:12:50Z</time>
      </trkpt>
      <trkpt lat="45.89285" lon="4.7001">
        <ele>226</ele>
        <time>2018-05-06T10:12:51Z</time>
      </trkpt>
      <trkpt lat="45.8929" lon="4.70009">
        <ele>226</ele>
        <time>2018-05-06T10:12:52Z</time>
      </trkpt>
      <trkpt lat="45.89295" lon="4.70009">
        <ele>226</ele>
        <time>2018-05-06T10:12:53Z</time>
      </trkpt>
      <trkpt lat="45.893" lon="4.70007">
        <ele>226</ele>
        <time>2018-05-06T10:12:54Z</time>
      </trkpt>
      <trkpt lat="45.89305" lon="4.70006">
        <ele>226</ele>
        <time>2018-05-06T10:12:55Z</time>
      </trkpt>
      <trkpt lat="45.8931" lon="4.70005">
        <ele>226</ele>
        <time>2018-05-06T10:12:56Z</time>
      </trkpt>
      <trkpt lat="45.89315" lon="4.70003">
        <ele>226</ele>
        <time>2018-05-06T10:12:57Z</time>
      </trkpt>
      <trkpt lat="45.89321" lon="4.69999">
        <ele>228</ele>
        <time>2018-05-06T10:12:58Z</time>
      </trkpt>
      <trkpt lat="45.89327" lon="4.69998">
        <ele>227</ele>
        <time>2018-05-06T10:12:59Z</time>
      </trkpt>
      <trkpt lat="45.89333" lon="4.69996">
        <ele>227</ele>
        <time>2018-05-06T10:13:00Z</time>
      </trkpt>
      <trkpt lat="45.89339" lon="4.69995">
        <ele>227</ele>
        <time>2018-05-06T10:13:01Z</time>
      </trkpt>
      <trkpt lat="45.89345" lon="4.69995">
        <ele>227</ele>
        <time>2018-05-06T10:13:02Z</time>
      </trkpt>
      <trkpt lat="45.89352" lon="4.69997">
        <ele>227</ele>
        <time>2018-05-06T10:13:03Z</time>
      </trkpt>
      <trkpt lat="45.89358" lon="4.69997">
        <ele>227</ele>
        <time>2018-05-06T10:13:04Z</time>
      </trkpt>
      <trkpt lat="45.89363" lon="4.69998">
        <ele>227</ele>
        <time>2018-05-06T10:13:05Z</time>
      </trkpt>
      <trkpt lat="45.89369" lon="4.7">
        <ele>227</ele>
        <time>2018-05-06T10:13:06Z</time>
      </trkpt>
      <trkpt lat="45.89375" lon="4.7">
        <ele>225</ele>
        <time>2018-05-06T10:13:07Z</time>
      </trkpt>
      <trkpt lat="45.89381" lon="4.70001">
        <ele>225</ele>
        <time>2018-05-06T10:13:08Z</time>
      </trkpt>
      <trkpt lat="45.89386" lon="4.70006">
        <ele>226</ele>
        <time>2018-05-06T10:13:09Z</time>
      </trkpt>
      <trkpt lat="45.89392" lon="4.70004">
        <ele>226</ele>
        <time>2018-05-06T10:13:10Z</time>
      </trkpt>
      <trkpt lat="45.89398" lon="4.70005">
        <ele>226</ele>
        <time>2018-05-06T10:13:11Z</time>
      </trkpt>
      <trkpt lat="45.89404" lon="4.70007">
        <ele>226</ele>
        <time>2018-05-06T10:13:12Z</time>
      </trkpt>
      <trkpt lat="45.89409" lon="4.70008">
        <ele>226</ele>
        <time>2018-05-06T10:13:13Z</time>
      </trkpt>
      <trkpt lat="45.89415" lon="4.7001">
        <ele>226</ele>
        <time>2018-05-06T10:13:14Z</time>
      </trkpt>
      <trkpt lat="45.8942" lon="4.70011">
        <ele>226</ele>
        <time>2018-05-06T10:13:15Z</time>
      </trkpt>
      <trkpt lat="45.89425" lon="4.70012">
        <ele>226</ele>
        <time>2018-05-06T10:13:16Z</time>
      </trkpt>
      <trkpt lat="45.89432" lon="4.70012">
        <ele>226</ele>
        <time>2018-05-06T10:13:17Z</time>
      </trkpt>
      <trkpt lat="45.89438" lon="4.70013">
        <ele>225</ele>
        <time>2018-05-06T10:13:18Z</time>
      </trkpt>
      <trkpt lat="45.89443" lon="4.70014">
        <ele>225</ele>
        <time>2018-05-06T10:13:19Z</time>
      </trkpt>
      <trkpt lat="45.89449" lon="4.70016">
        <ele>225</ele>
        <time>2018-05-06T10:13:20Z</time>
      </trkpt>
      <trkpt lat="45.89456" lon="4.70015">
        <ele>225</ele>
        <time>2018-05-06T10:13:21Z</time>
      </trkpt>
      <trkpt lat="45.89462" lon="4.70017">
        <ele>225</ele>
        <time>2018-05-06T10:13:22Z</time>
      </trkpt>
      <trkpt lat="45.89469" lon="4.70018">
        <ele>225</ele>
        <time>2018-05-06T10:13:23Z</time>
      </trkpt>
      <trkpt lat="45.89474" lon="4.7002">
        <ele>224</ele>
        <time>2018-05-06T10:13:24Z</time>
      </trkpt>
      <trkpt lat="45.8948" lon="4.70021">
        <ele>224</ele>
        <time>2018-05-06T10:13:25Z</time>
      </trkpt>
      <trkpt lat="45.89487" lon="4.70023">
        <ele>224</ele>
        <time>2018-05-06T10:13:26Z</time>
      </trkpt>
      <trkpt lat="45.89491" lon="4.70024">
        <ele>224</ele>
        <time>2018-05-06T10:13:27Z</time>
      </trkpt>
      <trkpt lat="45.89496" lon="4.70025">
        <ele>224</ele>
        <time>2018-05-06T10:13:28Z</time>
      </trkpt>
      <trkpt lat="45.89502" lon="4.70026">
        <ele>223</ele>
        <time>2018-05-06T10:13:29Z</time>
      </trkpt>
      <trkpt lat="45.89508" lon="4.70028">
        <ele>223</ele>
        <time>2018-05-06T10:13:30Z</time>
      </trkpt>
      <trkpt lat="45.89513" lon="4.70029">
        <ele>223</ele>
        <time>2018-05-06T10:13:31Z</time>
      </trkpt>
      <trkpt lat="45.8952" lon="4.70028">
        <ele>223</ele>
        <time>2018-05-06T10:13:32Z</time>
      </trkpt>
      <trkpt lat="45.89527" lon="4.70031">
        <ele>223</ele>
        <time>2018-05-06T10:13:33Z</time>
      </trkpt>
      <trkpt lat="45.89533" lon="4.70032">
        <ele>223</ele>
        <time>2018-05-06T10:13:34Z</time>
      </trkpt>
      <trkpt lat="45.8954" lon="4.70034">
        <ele>222</ele>
        <time>2018-05-06T10:13:35Z</time>
      </trkpt>
      <trkpt lat="45.89546" lon="4.70036">
        <ele>222</ele>
        <time>2018-05-06T10:13:36Z</time>
      </trkpt>
      <trkpt lat="45.89553" lon="4.70037">
        <ele>222</ele>
        <time>2018-05-06T10:13:37Z</time>
      </trkpt>
      <trkpt lat="45.8956" lon="4.70038">
        <ele>222</ele>
        <time>2018-05-06T10:13:38Z</time>
      </trkpt>
      <trkpt lat="45.89567" lon="4.70039">
        <ele>222</ele>
        <time>2018-05-06T10:13:39Z</time>
      </trkpt>
      <trkpt lat="45.89575" lon="4.70039">
        <ele>222</ele>
        <time>2018-05-06T10:13:40Z</time>
      </trkpt>
      <trkpt lat="45.89582" lon="4.70041">
        <ele>222</ele>
        <time>2018-05-06T10:13:41Z</time>
      </trkpt>
      <trkpt lat="45.89589" lon="4.70041">
        <ele>222</ele>
        <time>2018-05-06T10:13:42Z</time>
      </trkpt>
      <trkpt lat="45.89596" lon="4.70044">
        <ele>222</ele>
        <time>2018-05-06T10:13:43Z</time>
      </trkpt>
      <trkpt lat="45.89602" lon="4.70045">
        <ele>222</ele>
        <time>2018-05-06T10:13:44Z</time>
      </trkpt>
      <trkpt lat="45.89608" lon="4.70047">
        <ele>222</ele>
        <time>2018-05-06T10:13:45Z</time>
      </trkpt>
      <trkpt lat="45.89614" lon="4.70046">
        <ele>222</ele>
        <time>2018-05-06T10:13:46Z</time>
      </trkpt>
      <trkpt lat="45.89621" lon="4.70046">
        <ele>222</ele>
        <time>2018-05-06T10:13:47Z</time>
      </trkpt>
      <trkpt lat="45.89628" lon="4.70047">
        <ele>222</ele>
        <time>2018-05-06T10:13:48Z</time>
      </trkpt>
      <trkpt lat="45.89633" lon="4.70048">
        <ele>222</ele>
        <time>2018-05-06T10:13:49Z</time>
      </trkpt>
      <trkpt lat="45.89639" lon="4.70048">
        <ele>222</ele>
        <time>2018-05-06T10:13:50Z</time>
      </trkpt>
      <trkpt lat="45.89646" lon="4.7005">
        <ele>222</ele>
        <time>2018-05-06T10:13:51Z</time>
      </trkpt>
      <trkpt lat="45.89653" lon="4.70052">
        <ele>222</ele>
        <time>2018-05-06T10:13:52Z</time>
      </trkpt>
      <trkpt lat="45.8966" lon="4.70052">
        <ele>222</ele>
        <time>2018-05-06T10:13:53Z</time>
      </trkpt>
      <trkpt lat="45.89667" lon="4.70053">
        <ele>222</ele>
        <time>2018-05-06T10:13:54Z</time>
      </trkpt>
      <trkpt lat="45.89674" lon="4.70054">
        <ele>222</ele>
        <time>2018-05-06T10:13:55Z</time>
      </trkpt>
      <trkpt lat="45.8968" lon="4.70055">
        <ele>222</ele>
        <time>2018-05-06T10:13:56Z</time>
      </trkpt>
      <trkpt lat="45.89687" lon="4.70056">
        <ele>222</ele>
        <time>2018-05-06T10:13:57Z</time>
      </trkpt>
      <trkpt lat="45.89694" lon="4.7006">
        <ele>222</ele>
        <time>2018-05-06T10:13:58Z</time>
      </trkpt>
      <trkpt lat="45.89701" lon="4.7006">
        <ele>221</ele>
        <time>2018-05-06T10:13:59Z</time>
      </trkpt>
      <trkpt lat="45.89708" lon="4.7006">
        <ele>221</ele>
        <time>2018-05-06T10:14:00Z</time>
      </trkpt>
      <trkpt lat="45.89716" lon="4.7006">
        <ele>221</ele>
        <time>2018-05-06T10:14:01Z</time>
      </trkpt>
      <trkpt lat="45.89722" lon="4.7006">
        <ele>221</ele>
        <time>2018-05-06T10:14:02Z</time>
      </trkpt>
      <trkpt lat="45.89729" lon="4.70063">
        <ele>221</ele>
        <time>2018-05-06T10:14:04Z</time>
      </trkpt>
      <trkpt lat="45.89733" lon="4.70064">
        <ele>221</ele>
        <time>2018-05-06T10:14:05Z</time>
      </trkpt>
      <trkpt lat="45.89741" lon="4.70066">
        <ele>220</ele>
        <time>2018-05-06T10:14:09Z</time>
      </trkpt>
      <trkpt lat="45.89743" lon="4.70067">
        <ele>220</ele>
        <time>2018-05-06T10:14:10Z</time>
      </trkpt>
      <trkpt lat="45.8975" lon="4.70068">
        <ele>220</ele>
        <time>2018-05-06T10:14:13Z</time>
      </trkpt>
      <trkpt lat="45.89752" lon="4.70068">
        <ele>220</ele>
        <time>2018-05-06T10:14:14Z</time>
      </trkpt>
      <trkpt lat="45.89758" lon="4.70069">
        <ele>220</ele>
        <time>2018-05-06T10:14:16Z</time>
      </trkpt>
      <trkpt lat="45.89767" lon="4.70071">
        <ele>220</ele>
        <time>2018-05-06T10:14:17Z</time>
      </trkpt>
      <trkpt lat="45.89772" lon="4.70072">
        <ele>220</ele>
        <time>2018-05-06T10:14:18Z</time>
      </trkpt>
      <trkpt lat="45.89776" lon="4.70073">
        <ele>220</ele>
        <time>2018-05-06T10:14:19Z</time>
      </trkpt>
      <trkpt lat="45.89783" lon="4.70075">
        <ele>221</ele>
        <time>2018-05-06T10:14:20Z</time>
      </trkpt>
      <trkpt lat="45.89788" lon="4.70075">
        <ele>221</ele>
        <time>2018-05-06T10:14:21Z</time>
      </trkpt>
      <trkpt lat="45.89793" lon="4.70076">
        <ele>221</ele>
        <time>2018-05-06T10:14:22Z</time>
      </trkpt>
      <trkpt lat="45.89798" lon="4.70076">
        <ele>221</ele>
        <time>2018-05-06T10:14:23Z</time>
      </trkpt>
      <trkpt lat="45.89802" lon="4.70076">
        <ele>221</ele>
        <time>2018-05-06T10:14:24Z</time>
      </trkpt>
      <trkpt lat="45.89807" lon="4.70076">
        <ele>221</ele>
        <time>2018-05-06T10:14:25Z</time>
      </trkpt>
      <trkpt lat="45.89812" lon="4.70076">
        <ele>221</ele>
        <time>2018-05-06T10:14:26Z</time>
      </trkpt>
      <trkpt lat="45.89816" lon="4.70076">
        <ele>221</ele>
        <time>2018-05-06T10:14:27Z</time>
      </trkpt>
      <trkpt lat="45.89825" lon="4.70077">
        <ele>220</ele>
        <time>2018-05-06T10:14:29Z</time>
      </trkpt>
      <trkpt lat="45.89826" lon="4.70077">
        <ele>220</ele>
        <time>2018-05-06T10:14:30Z</time>
      </trkpt>
      <trkpt lat="45.89834" lon="4.70078">
        <ele>220</ele>
        <time>2018-05-06T10:14:31Z</time>
      </trkpt>
      <trkpt lat="45.89838" lon="4.70079">
        <ele>220</ele>
        <time>2018-05-06T10:14:32Z</time>
      </trkpt>
      <trkpt lat="45.89843" lon="4.70079">
        <ele>221</ele>
        <time>2018-05-06T10:14:33Z</time>
      </trkpt>
      <trkpt lat="45.89848" lon="4.70079">
        <ele>221</ele>
        <time>2018-05-06T10:14:34Z</time>
      </trkpt>
      <trkpt lat="45.89853" lon="4.7008">
        <ele>221</ele>
        <time>2018-05-06T10:14:35Z</time>
      </trkpt>
      <trkpt lat="45.89858" lon="4.70081">
        <ele>221</ele>
        <time>2018-05-06T10:14:36Z</time>
      </trkpt>
      <trkpt lat="45.89864" lon="4.70082">
        <ele>221</ele>
        <time>2018-05-06T10:14:37Z</time>
      </trkpt>
      <trkpt lat="45.89869" lon="4.70083">
        <ele>221</ele>
        <time>2018-05-06T10:14:38Z</time>
      </trkpt>
      <trkpt lat="45.89874" lon="4.70079">
        <ele>221</ele>
        <time>2018-05-06T10:14:39Z</time>
      </trkpt>
      <trkpt lat="45.89879" lon="4.7008">
        <ele>221</ele>
        <time>2018-05-06T10:14:40Z</time>
      </trkpt>
      <trkpt lat="45.89884" lon="4.7008">
        <ele>221</ele>
        <time>2018-05-06T10:14:41Z</time>
      </trkpt>
      <trkpt lat="45.89889" lon="4.70081">
        <ele>221</ele>
        <time>2018-05-06T10:14:42Z</time>
      </trkpt>
      <trkpt lat="45.89897" lon="4.70081">
        <ele>221</ele>
        <time>2018-05-06T10:14:44Z</time>
      </trkpt>
      <trkpt lat="45.89902" lon="4.70081">
        <ele>221</ele>
        <time>2018-05-06T10:14:45Z</time>
      </trkpt>
      <trkpt lat="45.89907" lon="4.70082">
        <ele>221</ele>
        <time>2018-05-06T10:14:46Z</time>
      </trkpt>
      <trkpt lat="45.89912" lon="4.70083">
        <ele>221</ele>
        <time>2018-05-06T10:14:47Z</time>
      </trkpt>
      <trkpt lat="45.89917" lon="4.70083">
        <ele>221</ele>
        <time>2018-05-06T10:14:48Z</time>
      </trkpt>
      <trkpt lat="45.89922" lon="4.70083">
        <ele>221</ele>
        <time>2018-05-06T10:14:49Z</time>
      </trkpt>
      <trkpt lat="45.89929" lon="4.70083">
        <ele>222</ele>
        <time>2018-05-06T10:14:51Z</time>
      </trkpt>
      <trkpt lat="45.89934" lon="4.70084">
        <ele>221</ele>
        <time>2018-05-06T10:14:52Z</time>
      </trkpt>
      <trkpt lat="45.89939" lon="4.70084">
        <ele>221</ele>
        <time>2018-05-06T10:14:53Z</time>
      </trkpt>
      <trkpt lat="45.89944" lon="4.70084">
        <ele>221</ele>
        <time>2018-05-06T10:14:54Z</time>
      </trkpt>
      <trkpt lat="45.89948" lon="4.70084">
        <ele>221</ele>
        <time>2018-05-06T10:14:55Z</time>
      </trkpt>
      <trkpt lat="45.89953" lon="4.70084">
        <ele>221</ele>
        <time>2018-05-06T10:14:56Z</time>
      </trkpt>
      <trkpt lat="45.89958" lon="4.70083">
        <ele>223</ele>
        <time>2018-05-06T10:14:57Z</time>
      </trkpt>
      <trkpt lat="45.89963" lon="4.70084">
        <ele>221</ele>
        <time>2018-05-06T10:14:58Z</time>
      </trkpt>
      <trkpt lat="45.89967" lon="4.70083">
        <ele>223</ele>
        <time>2018-05-06T10:14:59Z</time>
      </trkpt>
      <trkpt lat="45.89972" lon="4.70084">
        <ele>221</ele>
        <time>2018-05-06T10:15:00Z</time>
      </trkpt>
      <trkpt lat="45.89981" lon="4.70084">
        <ele>221</ele>
        <time>2018-05-06T10:15:02Z</time>
      </trkpt>
      <trkpt lat="45.89986" lon="4.7008">
        <ele>223</ele>
        <time>2018-05-06T10:15:03Z</time>
      </trkpt>
      <trkpt lat="45.89991" lon="4.70082">
        <ele>222</ele>
        <time>2018-05-06T10:15:04Z</time>
      </trkpt>
      <trkpt lat="45.89995" lon="4.70083">
        <ele>222</ele>
        <time>2018-05-06T10:15:05Z</time>
      </trkpt>
      <trkpt lat="45.90004" lon="4.70087">
        <ele>222</ele>
        <time>2018-05-06T10:15:07Z</time>
      </trkpt>
      <trkpt lat="45.90008" lon="4.70086">
        <ele>222</ele>
        <time>2018-05-06T10:15:08Z</time>
      </trkpt>
      <trkpt lat="45.90014" lon="4.70086">
        <ele>222</ele>
        <time>2018-05-06T10:15:09Z</time>
      </trkpt>
      <trkpt lat="45.90018" lon="4.70086">
        <ele>222</ele>
        <time>2018-05-06T10:15:10Z</time>
      </trkpt>
      <trkpt lat="45.90024" lon="4.70085">
        <ele>222</ele>
        <time>2018-05-06T10:15:11Z</time>
      </trkpt>
      <trkpt lat="45.90028" lon="4.70085">
        <ele>222</ele>
        <time>2018-05-06T10:15:12Z</time>
      </trkpt>
      <trkpt lat="45.90033" lon="4.70084">
        <ele>222</ele>
        <time>2018-05-06T10:15:13Z</time>
      </trkpt>
      <trkpt lat="45.90038" lon="4.70084">
        <ele>222</ele>
        <time>2018-05-06T10:15:14Z</time>
      </trkpt>
      <trkpt lat="45.90046" lon="4.70086">
        <ele>222</ele>
        <time>2018-05-06T10:15:16Z</time>
      </trkpt>
      <trkpt lat="45.90051" lon="4.70087">
        <ele>222</ele>
        <time>2018-05-06T10:15:17Z</time>
      </trkpt>
      <trkpt lat="45.90059" lon="4.70088">
        <ele>223</ele>
        <time>2018-05-06T10:15:19Z</time>
      </trkpt>
      <trkpt lat="45.90064" lon="4.70086">
        <ele>223</ele>
        <time>2018-05-06T10:15:20Z</time>
      </trkpt>
      <trkpt lat="45.90068" lon="4.70083">
        <ele>225</ele>
        <time>2018-05-06T10:15:21Z</time>
      </trkpt>
      <trkpt lat="45.90074" lon="4.70083">
        <ele>225</ele>
        <time>2018-05-06T10:15:22Z</time>
      </trkpt>
      <trkpt lat="45.90082" lon="4.70082">
        <ele>224</ele>
        <time>2018-05-06T10:15:24Z</time>
      </trkpt>
      <trkpt lat="45.90086" lon="4.70083">
        <ele>224</ele>
        <time>2018-05-06T10:15:25Z</time>
      </trkpt>
      <trkpt lat="45.90091" lon="4.70082">
        <ele>225</ele>
        <time>2018-05-06T10:15:26Z</time>
      </trkpt>
      <trkpt lat="45.90096" lon="4.70074">
        <ele>225</ele>
        <time>2018-05-06T10:15:27Z</time>
      </trkpt>
      <trkpt lat="45.90101" lon="4.70073">
        <ele>226</ele>
        <time>2018-05-06T10:15:28Z</time>
      </trkpt>
      <trkpt lat="45.90106" lon="4.70072">
        <ele>226</ele>
        <time>2018-05-06T10:15:29Z</time>
      </trkpt>
      <trkpt lat="45.90111" lon="4.70074">
        <ele>226</ele>
        <time>2018-05-06T10:15:30Z</time>
      </trkpt>
      <trkpt lat="45.90115" lon="4.70072">
        <ele>226</ele>
        <time>2018-05-06T10:15:31Z</time>
      </trkpt>
      <trkpt lat="45.9012" lon="4.70071">
        <ele>226</ele>
        <time>2018-05-06T10:15:32Z</time>
      </trkpt>
      <trkpt lat="45.90124" lon="4.7007">
        <ele>226</ele>
        <time>2018-05-06T10:15:33Z</time>
      </trkpt>
      <trkpt lat="45.90129" lon="4.70072">
        <ele>226</ele>
        <time>2018-05-06T10:15:34Z</time>
      </trkpt>
      <trkpt lat="45.90134" lon="4.70072">
        <ele>226</ele>
        <time>2018-05-06T10:15:35Z</time>
      </trkpt>
      <trkpt lat="45.90138" lon="4.70071">
        <ele>226</ele>
        <time>2018-05-06T10:15:36Z</time>
      </trkpt>
      <trkpt lat="45.90144" lon="4.70069">
        <ele>226</ele>
        <time>2018-05-06T10:15:37Z</time>
      </trkpt>
      <trkpt lat="45.90149" lon="4.70068">
        <ele>226</ele>
        <time>2018-05-06T10:15:38Z</time>
      </trkpt>
      <trkpt lat="45.90153" lon="4.70067">
        <ele>226</ele>
        <time>2018-05-06T10:15:39Z</time>
      </trkpt>
      <trkpt lat="45.90158" lon="4.70067">
        <ele>226</ele>
        <time>2018-05-06T10:15:40Z</time>
      </trkpt>
      <trkpt lat="45.90162" lon="4.70067">
        <ele>226</ele>
        <time>2018-05-06T10:15:41Z</time>
      </trkpt>
      <trkpt lat="45.90167" lon="4.70068">
        <ele>226</ele>
        <time>2018-05-06T10:15:42Z</time>
      </trkpt>
      <trkpt lat="45.90172" lon="4.70067">
        <ele>226</ele>
        <time>2018-05-06T10:15:43Z</time>
      </trkpt>
      <trkpt lat="45.90177" lon="4.70066">
        <ele>226</ele>
        <time>2018-05-06T10:15:44Z</time>
      </trkpt>
      <trkpt lat="45.90181" lon="4.70065">
        <ele>226</ele>
        <time>2018-05-06T10:15:45Z</time>
      </trkpt>
      <trkpt lat="45.90189" lon="4.70063">
        <ele>226</ele>
        <time>2018-05-06T10:15:47Z</time>
      </trkpt>
      <trkpt lat="45.90194" lon="4.70062">
        <ele>226</ele>
        <time>2018-05-06T10:15:48Z</time>
      </trkpt>
      <trkpt lat="45.90203" lon="4.70061">
        <ele>226</ele>
        <time>2018-05-06T10:15:50Z</time>
      </trkpt>
      <trkpt lat="45.90207" lon="4.70062">
        <ele>226</ele>
        <time>2018-05-06T10:15:51Z</time>
      </trkpt>
      <trkpt lat="45.90214" lon="4.70061">
        <ele>226</ele>
        <time>2018-05-06T10:15:53Z</time>
      </trkpt>
      <trkpt lat="45.90218" lon="4.70064">
        <ele>226</ele>
        <time>2018-05-06T10:15:54Z</time>
      </trkpt>
      <trkpt lat="45.90225" lon="4.70063">
        <ele>225</ele>
        <time>2018-05-06T10:15:56Z</time>
      </trkpt>
      <trkpt lat="45.90229" lon="4.70057">
        <ele>226</ele>
        <time>2018-05-06T10:15:57Z</time>
      </trkpt>
      <trkpt lat="45.90238" lon="4.70057">
        <ele>225</ele>
        <time>2018-05-06T10:15:59Z</time>
      </trkpt>
      <trkpt lat="45.90242" lon="4.70057">
        <ele>225</ele>
        <time>2018-05-06T10:16:00Z</time>
      </trkpt>
      <trkpt lat="45.90246" lon="4.70056">
        <ele>225</ele>
        <time>2018-05-06T10:16:01Z</time>
      </trkpt>
      <trkpt lat="45.90251" lon="4.70055">
        <ele>224</ele>
        <time>2018-05-06T10:16:02Z</time>
      </trkpt>
      <trkpt lat="45.90256" lon="4.70053">
        <ele>224</ele>
        <time>2018-05-06T10:16:03Z</time>
      </trkpt>
      <trkpt lat="45.9026" lon="4.70053">
        <ele>224</ele>
        <time>2018-05-06T10:16:04Z</time>
      </trkpt>
      <trkpt lat="45.90265" lon="4.70052">
        <ele>224</ele>
        <time>2018-05-06T10:16:05Z</time>
      </trkpt>
      <trkpt lat="45.9027" lon="4.70052">
        <ele>224</ele>
        <time>2018-05-06T10:16:06Z</time>
      </trkpt>
      <trkpt lat="45.90277" lon="4.70051">
        <ele>224</ele>
        <time>2018-05-06T10:16:08Z</time>
      </trkpt>
      <trkpt lat="45.90281" lon="4.70051">
        <ele>224</ele>
        <time>2018-05-06T10:16:09Z</time>
      </trkpt>
      <trkpt lat="45.90285" lon="4.70051">
        <ele>224</ele>
        <time>2018-05-06T10:16:10Z</time>
      </trkpt>
      <trkpt lat="45.9029" lon="4.7005">
        <ele>224</ele>
        <time>2018-05-06T10:16:11Z</time>
      </trkpt>
      <trkpt lat="45.90299" lon="4.70049">
        <ele>224</ele>
        <time>2018-05-06T10:16:13Z</time>
      </trkpt>
      <trkpt lat="45.90303" lon="4.70048">
        <ele>224</ele>
        <time>2018-05-06T10:16:14Z</time>
      </trkpt>
      <trkpt lat="45.90311" lon="4.70047">
        <ele>224</ele>
        <time>2018-05-06T10:16:16Z</time>
      </trkpt>
      <trkpt lat="45.90316" lon="4.70046">
        <ele>224</ele>
        <time>2018-05-06T10:16:17Z</time>
      </trkpt>
      <trkpt lat="45.90324" lon="4.70044">
        <ele>224</ele>
        <time>2018-05-06T10:16:19Z</time>
      </trkpt>
      <trkpt lat="45.90328" lon="4.70043">
        <ele>224</ele>
        <time>2018-05-06T10:16:20Z</time>
      </trkpt>
      <trkpt lat="45.90337" lon="4.70042">
        <ele>224</ele>
        <time>2018-05-06T10:16:22Z</time>
      </trkpt>
      <trkpt lat="45.90341" lon="4.70041">
        <ele>224</ele>
        <time>2018-05-06T10:16:23Z</time>
      </trkpt>
      <trkpt lat="45.90345" lon="4.7004">
        <ele>224</ele>
        <time>2018-05-06T10:16:24Z</time>
      </trkpt>
      <trkpt lat="45.9035" lon="4.7004">
        <ele>224</ele>
        <time>2018-05-06T10:16:25Z</time>
      </trkpt>
      <trkpt lat="45.90358" lon="4.70039">
        <ele>224</ele>
        <time>2018-05-06T10:16:27Z</time>
      </trkpt>
      <trkpt lat="45.90363" lon="4.70038">
        <ele>224</ele>
        <time>2018-05-06T10:16:28Z</time>
      </trkpt>
      <trkpt lat="45.90371" lon="4.70037">
        <ele>224</ele>
        <time>2018-05-06T10:16:30Z</time>
      </trkpt>
      <trkpt lat="45.90376" lon="4.70036">
        <ele>224</ele>
        <time>2018-05-06T10:16:31Z</time>
      </trkpt>
      <trkpt lat="45.9038" lon="4.70035">
        <ele>225</ele>
        <time>2018-05-06T10:16:32Z</time>
      </trkpt>
      <trkpt lat="45.90385" lon="4.70034">
        <ele>225</ele>
        <time>2018-05-06T10:16:33Z</time>
      </trkpt>
      <trkpt lat="45.90394" lon="4.70032">
        <ele>225</ele>
        <time>2018-05-06T10:16:35Z</time>
      </trkpt>
      <trkpt lat="45.90398" lon="4.70031">
        <ele>225</ele>
        <time>2018-05-06T10:16:36Z</time>
      </trkpt>
      <trkpt lat="45.90402" lon="4.7003">
        <ele>225</ele>
        <time>2018-05-06T10:16:37Z</time>
      </trkpt>
      <trkpt lat="45.90407" lon="4.70029">
        <ele>225</ele>
        <time>2018-05-06T10:16:38Z</time>
      </trkpt>
      <trkpt lat="45.90415" lon="4.70028">
        <ele>225</ele>
        <time>2018-05-06T10:16:40Z</time>
      </trkpt>
      <trkpt lat="45.9042" lon="4.70028">
        <ele>225</ele>
        <time>2018-05-06T10:16:41Z</time>
      </trkpt>
      <trkpt lat="45.90428" lon="4.70029">
        <ele>225</ele>
        <time>2018-05-06T10:16:43Z</time>
      </trkpt>
      <trkpt lat="45.90433" lon="4.70027">
        <ele>225</ele>
        <time>2018-05-06T10:16:44Z</time>
      </trkpt>
      <trkpt lat="45.90438" lon="4.70027">
        <ele>225</ele>
        <time>2018-05-06T10:16:45Z</time>
      </trkpt>
      <trkpt lat="45.90442" lon="4.70027">
        <ele>225</ele>
        <time>2018-05-06T10:16:46Z</time>
      </trkpt>
      <trkpt lat="45.9045" lon="4.70029">
        <ele>225</ele>
        <time>2018-05-06T10:16:48Z</time>
      </trkpt>
      <trkpt lat="45.90455" lon="4.7003">
        <ele>225</ele>
        <time>2018-05-06T10:16:49Z</time>
      </trkpt>
      <trkpt lat="45.9046" lon="4.7003">
        <ele>225</ele>
        <time>2018-05-06T10:16:50Z</time>
      </trkpt>
      <trkpt lat="45.90466" lon="4.70032">
        <ele>225</ele>
        <time>2018-05-06T10:16:51Z</time>
      </trkpt>
      <trkpt lat="45.90472" lon="4.70033">
        <ele>225</ele>
        <time>2018-05-06T10:16:52Z</time>
      </trkpt>
      <trkpt lat="45.90477" lon="4.70034">
        <ele>225</ele>
        <time>2018-05-06T10:16:53Z</time>
      </trkpt>
      <trkpt lat="45.90482" lon="4.70036">
        <ele>225</ele>
        <time>2018-05-06T10:16:54Z</time>
      </trkpt>
      <trkpt lat="45.90488" lon="4.70038">
        <ele>225</ele>
        <time>2018-05-06T10:16:55Z</time>
      </trkpt>
      <trkpt lat="45.90494" lon="4.70038">
        <ele>225</ele>
        <time>2018-05-06T10:16:56Z</time>
      </trkpt>
      <trkpt lat="45.905" lon="4.7004">
        <ele>224</ele>
        <time>2018-05-06T10:16:57Z</time>
      </trkpt>
      <trkpt lat="45.90506" lon="4.7004">
        <ele>224</ele>
        <time>2018-05-06T10:16:58Z</time>
      </trkpt>
      <trkpt lat="45.90512" lon="4.70042">
        <ele>224</ele>
        <time>2018-05-06T10:16:59Z</time>
      </trkpt>
      <trkpt lat="45.90518" lon="4.70041">
        <ele>224</ele>
        <time>2018-05-06T10:17:00Z</time>
      </trkpt>
      <trkpt lat="45.90523" lon="4.70043">
        <ele>224</ele>
        <time>2018-05-06T10:17:01Z</time>
      </trkpt>
      <trkpt lat="45.9053" lon="4.70044">
        <ele>224</ele>
        <time>2018-05-06T10:17:02Z</time>
      </trkpt>
      <trkpt lat="45.90536" lon="4.70046">
        <ele>224</ele>
        <time>2018-05-06T10:17:03Z</time>
      </trkpt>
      <trkpt lat="45.90541" lon="4.70049">
        <ele>224</ele>
        <time>2018-05-06T10:17:04Z</time>
      </trkpt>
      <trkpt lat="45.90548" lon="4.70052">
        <ele>224</ele>
        <time>2018-05-06T10:17:05Z</time>
      </trkpt>
      <trkpt lat="45.90555" lon="4.70054">
        <ele>224</ele>
        <time>2018-05-06T10:17:06Z</time>
      </trkpt>
      <trkpt lat="45.90562" lon="4.70057">
        <ele>223</ele>
        <time>2018-05-06T10:17:07Z</time>
      </trkpt>
      <trkpt lat="45.90568" lon="4.7006">
        <ele>223</ele>
        <time>2018-05-06T10:17:08Z</time>
      </trkpt>
      <trkpt lat="45.90574" lon="4.70063">
        <ele>223</ele>
        <time>2018-05-06T10:17:09Z</time>
      </trkpt>
      <trkpt lat="45.9058" lon="4.70066">
        <ele>223</ele>
        <time>2018-05-06T10:17:10Z</time>
      </trkpt>
      <trkpt lat="45.90586" lon="4.70069">
        <ele>223</ele>
        <time>2018-05-06T10:17:11Z</time>
      </trkpt>
      <trkpt lat="45.90591" lon="4.70072">
        <ele>223</ele>
        <time>2018-05-06T10:17:12Z</time>
      </trkpt>
      <trkpt lat="45.90597" lon="4.70076">
        <ele>223</ele>
        <time>2018-05-06T10:17:13Z</time>
      </trkpt>
      <trkpt lat="45.90603" lon="4.70079">
        <ele>223</ele>
        <time>2018-05-06T10:17:14Z</time>
      </trkpt>
      <trkpt lat="45.90608" lon="4.70083">
        <ele>223</ele>
        <time>2018-05-06T10:17:15Z</time>
      </trkpt>
      <trkpt lat="45.90614" lon="4.70086">
        <ele>221</ele>
        <time>2018-05-06T10:17:16Z</time>
      </trkpt>
      <trkpt lat="45.9062" lon="4.70089">
        <ele>221</ele>
        <time>2018-05-06T10:17:17Z</time>
      </trkpt>
      <trkpt lat="45.90625" lon="4.70092">
        <ele>221</ele>
        <time>2018-05-06T10:17:18Z</time>
      </trkpt>
      <trkpt lat="45.90631" lon="4.70094">
        <ele>221</ele>
        <time>2018-05-06T10:17:19Z</time>
      </trkpt>
      <trkpt lat="45.90636" lon="4.70097">
        <ele>221</ele>
        <time>2018-05-06T10:17:20Z</time>
      </trkpt>
      <trkpt lat="45.90642" lon="4.701">
        <ele>221</ele>
        <time>2018-05-06T10:17:21Z</time>
      </trkpt>
      <trkpt lat="45.90647" lon="4.70103">
        <ele>221</ele>
        <time>2018-05-06T10:17:22Z</time>
      </trkpt>
      <trkpt lat="45.90652" lon="4.70106">
        <ele>221</ele>
        <time>2018-05-06T10:17:23Z</time>
      </trkpt>
      <trkpt lat="45.90659" lon="4.70109">
        <ele>221</ele>
        <time>2018-05-06T10:17:24Z</time>
      </trkpt>
      <trkpt lat="45.90663" lon="4.70113">
        <ele>221</ele>
        <time>2018-05-06T10:17:25Z</time>
      </trkpt>
      <trkpt lat="45.90669" lon="4.70117">
        <ele>222</ele>
        <time>2018-05-06T10:17:26Z</time>
      </trkpt>
      <trkpt lat="45.90673" lon="4.7012">
        <ele>221</ele>
        <time>2018-05-06T10:17:27Z</time>
      </trkpt>
      <trkpt lat="45.90678" lon="4.70124">
        <ele>221</ele>
        <time>2018-05-06T10:17:28Z</time>
      </trkpt>
      <trkpt lat="45.90682" lon="4.70131">
        <ele>221</ele>
        <time>2018-05-06T10:17:29Z</time>
      </trkpt>
      <trkpt lat="45.90687" lon="4.70136">
        <ele>221</ele>
        <time>2018-05-06T10:17:30Z</time>
      </trkpt>
      <trkpt lat="45.90691" lon="4.70141">
        <ele>221</ele>
        <time>2018-05-06T10:17:31Z</time>
      </trkpt>
      <trkpt lat="45.90697" lon="4.70145">
        <ele>220</ele>
        <time>2018-05-06T10:17:32Z</time>
      </trkpt>
      <trkpt lat="45.90704" lon="4.70145">
        <ele>220</ele>
        <time>2018-05-06T10:17:33Z</time>
      </trkpt>
      <trkpt lat="45.9071" lon="4.70144">
        <ele>220</ele>
        <time>2018-05-06T10:17:34Z</time>
      </trkpt>
      <trkpt lat="45.90716" lon="4.70144">
        <ele>220</ele>
        <time>2018-05-06T10:17:35Z</time>
      </trkpt>
      <trkpt lat="45.90722" lon="4.70144">
        <ele>220</ele>
        <time>2018-05-06T10:17:36Z</time>
      </trkpt>
      <trkpt lat="45.90727" lon="4.70146">
        <ele>220</ele>
        <time>2018-05-06T10:17:37Z</time>
      </trkpt>
      <trkpt lat="45.90734" lon="4.70146">
        <ele>220</ele>
        <time>2018-05-06T10:17:38Z</time>
      </trkpt>
      <trkpt lat="45.90741" lon="4.70145">
        <ele>220</ele>
        <time>2018-05-06T10:17:39Z</time>
      </trkpt>
      <trkpt lat="45.90748" lon="4.70145">
        <ele>220</ele>
        <time>2018-05-06T10:17:40Z</time>
      </trkpt>
      <trkpt lat="45.90754" lon="4.70145">
        <ele>219</ele>
        <time>2018-05-06T10:17:41Z</time>
      </trkpt>
      <trkpt lat="45.90762" lon="4.70145">
        <ele>219</ele>
        <time>2018-05-06T10:17:42Z</time>
      </trkpt>
      <trkpt lat="45.9077" lon="4.70143">
        <ele>219</ele>
        <time>2018-05-06T10:17:43Z</time>
      </trkpt>
      <trkpt lat="45.90778" lon="4.70142">
        <ele>219</ele>
        <time>2018-05-06T10:17:44Z</time>
      </trkpt>
      <trkpt lat="45.90784" lon="4.70141">
        <ele>219</ele>
        <time>2018-05-06T10:17:45Z</time>
      </trkpt>
      <trkpt lat="45.90793" lon="4.7014">
        <ele>219</ele>
        <time>2018-05-06T10:17:46Z</time>
      </trkpt>
      <trkpt lat="45.908" lon="4.70137">
        <ele>219</ele>
        <time>2018-05-06T10:17:47Z</time>
      </trkpt>
      <trkpt lat="45.90807" lon="4.70137">
        <ele>219</ele>
        <time>2018-05-06T10:17:48Z</time>
      </trkpt>
      <trkpt lat="45.90815" lon="4.70136">
        <ele>219</ele>
        <time>2018-05-06T10:17:49Z</time>
      </trkpt>
      <trkpt lat="45.90821" lon="4.70136">
        <ele>219</ele>
        <time>2018-05-06T10:17:50Z</time>
      </trkpt>
      <trkpt lat="45.90827" lon="4.70136">
        <ele>219</ele>
        <time>2018-05-06T10:17:51Z</time>
      </trkpt>
      <trkpt lat="45.90834" lon="4.70135">
        <ele>218</ele>
        <time>2018-05-06T10:17:52Z</time>
      </trkpt>
      <trkpt lat="45.9084" lon="4.70134">
        <ele>218</ele>
        <time>2018-05-06T10:17:53Z</time>
      </trkpt>
      <trkpt lat="45.90846" lon="4.70134">
        <ele>218</ele>
        <time>2018-05-06T10:17:54Z</time>
      </trkpt>
      <trkpt lat="45.90852" lon="4.70134">
        <ele>218</ele>
        <time>2018-05-06T10:17:55Z</time>
      </trkpt>
      <trkpt lat="45.90859" lon="4.70134">
        <ele>218</ele>
        <time>2018-05-06T10:17:56Z</time>
      </trkpt>
      <trkpt lat="45.90865" lon="4.70133">
        <ele>218</ele>
        <time>2018-05-06T10:17:57Z</time>
      </trkpt>
      <trkpt lat="45.90872" lon="4.70133">
        <ele>218</ele>
        <time>2018-05-06T10:17:58Z</time>
      </trkpt>
      <trkpt lat="45.90878" lon="4.70133">
        <ele>218</ele>
        <time>2018-05-06T10:17:59Z</time>
      </trkpt>
      <trkpt lat="45.90883" lon="4.70133">
        <ele>218</ele>
        <time>2018-05-06T10:18:00Z</time>
      </trkpt>
      <trkpt lat="45.90889" lon="4.70133">
        <ele>219</ele>
        <time>2018-05-06T10:18:01Z</time>
      </trkpt>
      <trkpt lat="45.90896" lon="4.70132">
        <ele>219</ele>
        <time>2018-05-06T10:18:02Z</time>
      </trkpt>
      <trkpt lat="45.90901" lon="4.70132">
        <ele>219</ele>
        <time>2018-05-06T10:18:03Z</time>
      </trkpt>
      <trkpt lat="45.90906" lon="4.70133">
        <ele>218</ele>
        <time>2018-05-06T10:18:04Z</time>
      </trkpt>
      <trkpt lat="45.90912" lon="4.70133">
        <ele>218</ele>
        <time>2018-05-06T10:18:05Z</time>
      </trkpt>
      <trkpt lat="45.90917" lon="4.70134">
        <ele>219</ele>
        <time>2018-05-06T10:18:06Z</time>
      </trkpt>
      <trkpt lat="45.90923" lon="4.70135">
        <ele>218</ele>
        <time>2018-05-06T10:18:07Z</time>
      </trkpt>
      <trkpt lat="45.9093" lon="4.70136">
        <ele>218</ele>
        <time>2018-05-06T10:18:08Z</time>
      </trkpt>
      <trkpt lat="45.90936" lon="4.70135">
        <ele>219</ele>
        <time>2018-05-06T10:18:09Z</time>
      </trkpt>
      <trkpt lat="45.90942" lon="4.70137">
        <ele>219</ele>
        <time>2018-05-06T10:18:10Z</time>
      </trkpt>
      <trkpt lat="45.90949" lon="4.70136">
        <ele>219</ele>
        <time>2018-05-06T10:18:11Z</time>
      </trkpt>
      <trkpt lat="45.90956" lon="4.70138">
        <ele>219</ele>
        <time>2018-05-06T10:18:12Z</time>
      </trkpt>
      <trkpt lat="45.90962" lon="4.70141">
        <ele>218</ele>
        <time>2018-05-06T10:18:13Z</time>
      </trkpt>
      <trkpt lat="45.90968" lon="4.70145">
        <ele>218</ele>
        <time>2018-05-06T10:18:14Z</time>
      </trkpt>
      <trkpt lat="45.90974" lon="4.70146">
        <ele>218</ele>
        <time>2018-05-06T10:18:15Z</time>
      </trkpt>
      <trkpt lat="45.90981" lon="4.70148">
        <ele>218</ele>
        <time>2018-05-06T10:18:16Z</time>
      </trkpt>
      <trkpt lat="45.90986" lon="4.7015">
        <ele>218</ele>
        <time>2018-05-06T10:18:17Z</time>
      </trkpt>
      <trkpt lat="45.90992" lon="4.70152">
        <ele>217</ele>
        <time>2018-05-06T10:18:18Z</time>
      </trkpt>
      <trkpt lat="45.91001" lon="4.70149">
        <ele>218</ele>
        <time>2018-05-06T10:18:19Z</time>
      </trkpt>
      <trkpt lat="45.91006" lon="4.70153">
        <ele>218</ele>
        <time>2018-05-06T10:18:20Z</time>
      </trkpt>
      <trkpt lat="45.91012" lon="4.70153">
        <ele>218</ele>
        <time>2018-05-06T10:18:21Z</time>
      </trkpt>
      <trkpt lat="45.91018" lon="4.70155">
        <ele>218</ele>
        <time>2018-05-06T10:18:22Z</time>
      </trkpt>
      <trkpt lat="45.91024" lon="4.70158">
        <ele>218</ele>
        <time>2018-05-06T10:18:23Z</time>
      </trkpt>
      <trkpt lat="45.91031" lon="4.70159">
        <ele>218</ele>
        <time>2018-05-06T10:18:24Z</time>
      </trkpt>
      <trkpt lat="45.91037" lon="4.70161">
        <ele>218</ele>
        <time>2018-05-06T10:18:25Z</time>
      </trkpt>
      <trkpt lat="45.91043" lon="4.70164">
        <ele>218</ele>
        <time>2018-05-06T10:18:26Z</time>
      </trkpt>
      <trkpt lat="45.9105" lon="4.70166">
        <ele>218</ele>
        <time>2018-05-06T10:18:27Z</time>
      </trkpt>
      <trkpt lat="45.91056" lon="4.70168">
        <ele>216</ele>
        <time>2018-05-06T10:18:28Z</time>
      </trkpt>
      <trkpt lat="45.91063" lon="4.70171">
        <ele>216</ele>
        <time>2018-05-06T10:18:29Z</time>
      </trkpt>
      <trkpt lat="45.91069" lon="4.70173">
        <ele>216</ele>
        <time>2018-05-06T10:18:30Z</time>
      </trkpt>
      <trkpt lat="45.91075" lon="4.70175">
        <ele>216</ele>
        <time>2018-05-06T10:18:31Z</time>
      </trkpt>
      <trkpt lat="45.91081" lon="4.7018">
        <ele>216</ele>
        <time>2018-05-06T10:18:32Z</time>
      </trkpt>
      <trkpt lat="45.91088" lon="4.70182">
        <ele>216</ele>
        <time>2018-05-06T10:18:33Z</time>
      </trkpt>
      <trkpt lat="45.91094" lon="4.70186">
        <ele>216</ele>
        <time>2018-05-06T10:18:34Z</time>
      </trkpt>
      <trkpt lat="45.911" lon="4.70188">
        <ele>215</ele>
        <time>2018-05-06T10:18:35Z</time>
      </trkpt>
      <trkpt lat="45.91106" lon="4.7019">
        <ele>215</ele>
        <time>2018-05-06T10:18:36Z</time>
      </trkpt>
      <trkpt lat="45.91113" lon="4.70191">
        <ele>215</ele>
        <time>2018-05-06T10:18:37Z</time>
      </trkpt>
      <trkpt lat="45.91119" lon="4.70193">
        <ele>215</ele>
        <time>2018-05-06T10:18:38Z</time>
      </trkpt>
      <trkpt lat="45.91124" lon="4.70196">
        <ele>215</ele>
        <time>2018-05-06T10:18:39Z</time>
      </trkpt>
      <trkpt lat="45.9113" lon="4.70198">
        <ele>215</ele>
        <time>2018-05-06T10:18:40Z</time>
      </trkpt>
      <trkpt lat="45.91137" lon="4.70198">
        <ele>215</ele>
        <time>2018-05-06T10:18:41Z</time>
      </trkpt>
      <trkpt lat="45.91143" lon="4.70201">
        <ele>215</ele>
        <time>2018-05-06T10:18:42Z</time>
      </trkpt>
      <trkpt lat="45.9115" lon="4.70203">
        <ele>215</ele>
        <time>2018-05-06T10:18:43Z</time>
      </trkpt>
      <trkpt lat="45.91156" lon="4.70206">
        <ele>214</ele>
        <time>2018-05-06T10:18:44Z</time>
      </trkpt>
      <trkpt lat="45.91162" lon="4.70208">
        <ele>214</ele>
        <time>2018-05-06T10:18:45Z</time>
      </trkpt>
      <trkpt lat="45.91168" lon="4.7021">
        <ele>214</ele>
        <time>2018-05-06T10:18:46Z</time>
      </trkpt>
      <trkpt lat="45.91176" lon="4.70214">
        <ele>214</ele>
        <time>2018-05-06T10:18:47Z</time>
      </trkpt>
      <trkpt lat="45.91181" lon="4.70215">
        <ele>214</ele>
        <time>2018-05-06T10:18:48Z</time>
      </trkpt>
      <trkpt lat="45.91187" lon="4.70218">
        <ele>214</ele>
        <time>2018-05-06T10:18:49Z</time>
      </trkpt>
      <trkpt lat="45.91193" lon="4.7022">
        <ele>214</ele>
        <time>2018-05-06T10:18:50Z</time>
      </trkpt>
      <trkpt lat="45.91198" lon="4.70222">
        <ele>213</ele>
        <time>2018-05-06T10:18:51Z</time>
      </trkpt>
      <trkpt lat="45.91204" lon="4.70226">
        <ele>213</ele>
        <time>2018-05-06T10:18:52Z</time>
      </trkpt>
      <trkpt lat="45.91211" lon="4.70228">
        <ele>213</ele>
        <time>2018-05-06T10:18:53Z</time>
      </trkpt>
      <trkpt lat="45.91217" lon="4.70229">
        <ele>213</ele>
        <time>2018-05-06T10:18:54Z</time>
      </trkpt>
      <trkpt lat="45.91223" lon="4.70232">
        <ele>213</ele>
        <time>2018-05-06T10:18:55Z</time>
      </trkpt>
      <trkpt lat="45.91229" lon="4.70234">
        <ele>213</ele>
        <time>2018-05-06T10:18:56Z</time>
      </trkpt>
      <trkpt lat="45.91235" lon="4.70237">
        <ele>213</ele>
        <time>2018-05-06T10:18:57Z</time>
      </trkpt>
      <trkpt lat="45.91241" lon="4.7024">
        <ele>212</ele>
        <time>2018-05-06T10:18:58Z</time>
      </trkpt>
      <trkpt lat="45.91246" lon="4.70241">
        <ele>212</ele>
        <time>2018-05-06T10:18:59Z</time>
      </trkpt>
      <trkpt lat="45.91253" lon="4.70244">
        <ele>212</ele>
        <time>2018-05-06T10:19:00Z</time>
      </trkpt>
      <trkpt lat="45.9126" lon="4.70245">
        <ele>212</ele>
        <time>2018-05-06T10:19:01Z</time>
      </trkpt>
      <trkpt lat="45.91267" lon="4.70247">
        <ele>213</ele>
        <time>2018-05-06T10:19:02Z</time>
      </trkpt>
      <trkpt lat="45.91274" lon="4.70248">
        <ele>213</ele>
        <time>2018-05-06T10:19:03Z</time>
      </trkpt>
      <trkpt lat="45.9128" lon="4.70251">
        <ele>210</ele>
        <time>2018-05-06T10:19:04Z</time>
      </trkpt>
      <trkpt lat="45.91285" lon="4.70254">
        <ele>210</ele>
        <time>2018-05-06T10:19:05Z</time>
      </trkpt>
      <trkpt lat="45.91293" lon="4.70255">
        <ele>210</ele>
        <time>2018-05-06T10:19:06Z</time>
      </trkpt>
      <trkpt lat="45.913" lon="4.7026">
        <ele>210</ele>
        <time>2018-05-06T10:19:07Z</time>
      </trkpt>
      <trkpt lat="45.91306" lon="4.70262">
        <ele>210</ele>
        <time>2018-05-06T10:19:08Z</time>
      </trkpt>
      <trkpt lat="45.91311" lon="4.70264">
        <ele>210</ele>
        <time>2018-05-06T10:19:09Z</time>
      </trkpt>
      <trkpt lat="45.91317" lon="4.70268">
        <ele>210</ele>
        <time>2018-05-06T10:19:10Z</time>
      </trkpt>
      <trkpt lat="45.91323" lon="4.70271">
        <ele>210</ele>
        <time>2018-05-06T10:19:11Z</time>
      </trkpt>
      <trkpt lat="45.91331" lon="4.70273">
        <ele>210</ele>
        <time>2018-05-06T10:19:12Z</time>
      </trkpt>
      <trkpt lat="45.91337" lon="4.70276">
        <ele>210</ele>
        <time>2018-05-06T10:19:13Z</time>
      </trkpt>
      <trkpt lat="45.91342" lon="4.70284">
        <ele>210</ele>
        <time>2018-05-06T10:19:14Z</time>
      </trkpt>
      <trkpt lat="45.91348" lon="4.70289">
        <ele>210</ele>
        <time>2018-05-06T10:19:15Z</time>
      </trkpt>
      <trkpt lat="45.91353" lon="4.70293">
        <ele>209</ele>
        <time>2018-05-06T10:19:16Z</time>
      </trkpt>
      <trkpt lat="45.91359" lon="4.70299">
        <ele>209</ele>
        <time>2018-05-06T10:19:17Z</time>
      </trkpt>
      <trkpt lat="45.91364" lon="4.70303">
        <ele>209</ele>
        <time>2018-05-06T10:19:18Z</time>
      </trkpt>
      <trkpt lat="45.91371" lon="4.70309">
        <ele>209</ele>
        <time>2018-05-06T10:19:19Z</time>
      </trkpt>
      <trkpt lat="45.91377" lon="4.70313">
        <ele>209</ele>
        <time>2018-05-06T10:19:20Z</time>
      </trkpt>
      <trkpt lat="45.91383" lon="4.70316">
        <ele>209</ele>
        <time>2018-05-06T10:19:21Z</time>
      </trkpt>
      <trkpt lat="45.91389" lon="4.70321">
        <ele>209</ele>
        <time>2018-05-06T10:19:22Z</time>
      </trkpt>
      <trkpt lat="45.91395" lon="4.70325">
        <ele>209</ele>
        <time>2018-05-06T10:19:23Z</time>
      </trkpt>
      <trkpt lat="45.914" lon="4.7033">
        <ele>209</ele>
        <time>2018-05-06T10:19:24Z</time>
      </trkpt>
      <trkpt lat="45.91407" lon="4.70335">
        <ele>207</ele>
        <time>2018-05-06T10:19:25Z</time>
      </trkpt>
      <trkpt lat="45.91412" lon="4.7034">
        <ele>207</ele>
        <time>2018-05-06T10:19:26Z</time>
      </trkpt>
      <trkpt lat="45.91417" lon="4.70343">
        <ele>207</ele>
        <time>2018-05-06T10:19:27Z</time>
      </trkpt>
      <trkpt lat="45.9142" lon="4.7035">
        <ele>207</ele>
        <time>2018-05-06T10:19:28Z</time>
      </trkpt>
      <trkpt lat="45.91426" lon="4.70353">
        <ele>207</ele>
        <time>2018-05-06T10:19:29Z</time>
      </trkpt>
      <trkpt lat="45.91432" lon="4.70358">
        <ele>207</ele>
        <time>2018-05-06T10:19:30Z</time>
      </trkpt>
      <trkpt lat="45.91438" lon="4.70363">
        <ele>206</ele>
        <time>2018-05-06T10:19:31Z</time>
      </trkpt>
      <trkpt lat="45.91444" lon="4.70368">
        <ele>206</ele>
        <time>2018-05-06T10:19:32Z</time>
      </trkpt>
      <trkpt lat="45.91451" lon="4.70373">
        <ele>206</ele>
        <time>2018-05-06T10:19:33Z</time>
      </trkpt>
      <trkpt lat="45.91456" lon="4.70377">
        <ele>206</ele>
        <time>2018-05-06T10:19:34Z</time>
      </trkpt>
      <trkpt lat="45.91462" lon="4.70383">
        <ele>206</ele>
        <time>2018-05-06T10:19:35Z</time>
      </trkpt>
      <trkpt lat="45.91469" lon="4.70387">
        <ele>206</ele>
        <time>2018-05-06T10:19:36Z</time>
      </trkpt>
      <trkpt lat="45.91475" lon="4.70391">
        <ele>205</ele>
        <time>2018-05-06T10:19:37Z</time>
      </trkpt>
      <trkpt lat="45.91483" lon="4.70395">
        <ele>205</ele>
        <time>2018-05-06T10:19:38Z</time>
      </trkpt>
      <trkpt lat="45.91488" lon="4.70398">
        <ele>205</ele>
        <time>2018-05-06T10:19:39Z</time>
      </trkpt>
      <trkpt lat="45.91494" lon="4.70403">
        <ele>204</ele>
        <time>2018-05-06T10:19:40Z</time>
      </trkpt>
      <trkpt lat="45.91501" lon="4.70407">
        <ele>204</ele>
        <time>2018-05-06T10:19:41Z</time>
      </trkpt>
      <trkpt lat="45.91506" lon="4.70411">
        <ele>204</ele>
        <time>2018-05-06T10:19:42Z</time>
      </trkpt>
      <trkpt lat="45.91511" lon="4.70418">
        <ele>203</ele>
        <time>2018-05-06T10:19:43Z</time>
      </trkpt>
      <trkpt lat="45.91518" lon="4.70422">
        <ele>203</ele>
        <time>2018-05-06T10:19:44Z</time>
      </trkpt>
      <trkpt lat="45.91525" lon="4.70427">
        <ele>203</ele>
        <time>2018-05-06T10:19:45Z</time>
      </trkpt>
      <trkpt lat="45.91533" lon="4.70431">
        <ele>203</ele>
        <time>2018-05-06T10:19:46Z</time>
      </trkpt>
      <trkpt lat="45.91541" lon="4.70435">
        <ele>203</ele>
        <time>2018-05-06T10:19:47Z</time>
      </trkpt>
      <trkpt lat="45.91546" lon="4.70439">
        <ele>203</ele>
        <time>2018-05-06T10:19:48Z</time>
      </trkpt>
      <trkpt lat="45.91552" lon="4.70443">
        <ele>203</ele>
        <time>2018-05-06T10:19:49Z</time>
      </trkpt>
      <trkpt lat="45.91558" lon="4.70449">
        <ele>203</ele>
        <time>2018-05-06T10:19:50Z</time>
      </trkpt>
      <trkpt lat="45.91564" lon="4.70453">
        <ele>203</ele>
        <time>2018-05-06T10:19:51Z</time>
      </trkpt>
      <trkpt lat="45.9157" lon="4.70458">
        <ele>203</ele>
        <time>2018-05-06T10:19:52Z</time>
      </trkpt>
      <trkpt lat="45.91577" lon="4.70463">
        <ele>203</ele>
        <time>2018-05-06T10:19:53Z</time>
      </trkpt>
      <trkpt lat="45.91582" lon="4.70467">
        <ele>203</ele>
        <time>2018-05-06T10:19:54Z</time>
      </trkpt>
      <trkpt lat="45.91588" lon="4.70472">
        <ele>202</ele>
        <time>2018-05-06T10:19:55Z</time>
      </trkpt>
      <trkpt lat="45.91593" lon="4.70477">
        <ele>202</ele>
        <time>2018-05-06T10:19:56Z</time>
      </trkpt>
      <trkpt lat="45.916" lon="4.70482">
        <ele>202</ele>
        <time>2018-05-06T10:19:57Z</time>
      </trkpt>
      <trkpt lat="45.91605" lon="4.70487">
        <ele>202</ele>
        <time>2018-05-06T10:19:58Z</time>
      </trkpt>
      <trkpt lat="45.91611" lon="4.70491">
        <ele>202</ele>
        <time>2018-05-06T10:19:59Z</time>
      </trkpt>
      <trkpt lat="45.91619" lon="4.70496">
        <ele>202</ele>
        <time>2018-05-06T10:20:00Z</time>
      </trkpt>
      <trkpt lat="45.91625" lon="4.70502">
        <ele>199</ele>
        <time>2018-05-06T10:20:01Z</time>
      </trkpt>
      <trkpt lat="45.91632" lon="4.70508">
        <ele>199</ele>
        <time>2018-05-06T10:20:02Z</time>
      </trkpt>
      <trkpt lat="45.91639" lon="4.70513">
        <ele>199</ele>
        <time>2018-05-06T10:20:03Z</time>
      </trkpt>
      <trkpt lat="45.91645" lon="4.70517">
        <ele>199</ele>
        <time>2018-05-06T10:20:04Z</time>
      </trkpt>
      <trkpt lat="45.91651" lon="4.70522">
        <ele>199</ele>
        <time>2018-05-06T10:20:05Z</time>
      </trkpt>
      <trkpt lat="45.91658" lon="4.70526">
        <ele>199</ele>
        <time>2018-05-06T10:20:06Z</time>
      </trkpt>
      <trkpt lat="45.91663" lon="4.70531">
        <ele>198</ele>
        <time>2018-05-06T10:20:07Z</time>
      </trkpt>
      <trkpt lat="45.91668" lon="4.70536">
        <ele>198</ele>
        <time>2018-05-06T10:20:08Z</time>
      </trkpt>
      <trkpt lat="45.91673" lon="4.70542">
        <ele>198</ele>
        <time>2018-05-06T10:20:09Z</time>
      </trkpt>
      <trkpt lat="45.91678" lon="4.70547">
        <ele>198</ele>
        <time>2018-05-06T10:20:10Z</time>
      </trkpt>
      <trkpt lat="45.91684" lon="4.7055">
        <ele>198</ele>
        <time>2018-05-06T10:20:11Z</time>
      </trkpt>
      <trkpt lat="45.9169" lon="4.70555">
        <ele>198</ele>
        <time>2018-05-06T10:20:12Z</time>
      </trkpt>
      <trkpt lat="45.91695" lon="4.7056">
        <ele>198</ele>
        <time>2018-05-06T10:20:13Z</time>
      </trkpt>
      <trkpt lat="45.917" lon="4.70566">
        <ele>197</ele>
        <time>2018-05-06T10:20:14Z</time>
      </trkpt>
      <trkpt lat="45.91704" lon="4.70571">
        <ele>197</ele>
        <time>2018-05-06T10:20:15Z</time>
      </trkpt>
      <trkpt lat="45.91708" lon="4.70579">
        <ele>197</ele>
        <time>2018-05-06T10:20:16Z</time>
      </trkpt>
      <trkpt lat="45.91712" lon="4.70587">
        <ele>196</ele>
        <time>2018-05-06T10:20:17Z</time>
      </trkpt>
      <trkpt lat="45.91716" lon="4.70592">
        <ele>195</ele>
        <time>2018-05-06T10:20:18Z</time>
      </trkpt>
      <trkpt lat="45.91721" lon="4.70595">
        <ele>195</ele>
        <time>2018-05-06T10:20:19Z</time>
      </trkpt>
      <trkpt lat="45.91726" lon="4.70595">
        <ele>195</ele>
        <time>2018-05-06T10:20:20Z</time>
      </trkpt>
      <trkpt lat="45.91732" lon="4.70595">
        <ele>196</ele>
        <time>2018-05-06T10:20:21Z</time>
      </trkpt>
      <trkpt lat="45.91738" lon="4.70597">
        <ele>196</ele>
        <time>2018-05-06T10:20:22Z</time>
      </trkpt>
      <trkpt lat="45.91744" lon="4.70601">
        <ele>195</ele>
        <time>2018-05-06T10:20:23Z</time>
      </trkpt>
      <trkpt lat="45.91749" lon="4.70605">
        <ele>195</ele>
        <time>2018-05-06T10:20:24Z</time>
      </trkpt>
      <trkpt lat="45.91756" lon="4.70607">
        <ele>195</ele>
        <time>2018-05-06T10:20:25Z</time>
      </trkpt>
      <trkpt lat="45.91763" lon="4.70608">
        <ele>195</ele>
        <time>2018-05-06T10:20:26Z</time>
      </trkpt>
      <trkpt lat="45.91769" lon="4.70609">
        <ele>195</ele>
        <time>2018-05-06T10:20:27Z</time>
      </trkpt>
      <trkpt lat="45.91776" lon="4.70611">
        <ele>195</ele>
        <time>2018-05-06T10:20:28Z</time>
      </trkpt>
      <trkpt lat="45.91782" lon="4.70613">
        <ele>194</ele>
        <time>2018-05-06T10:20:29Z</time>
      </trkpt>
      <trkpt lat="45.91789" lon="4.70614">
        <ele>194</ele>
        <time>2018-05-06T10:20:30Z</time>
      </trkpt>
      <trkpt lat="45.91795" lon="4.70616">
        <ele>194</ele>
        <time>2018-05-06T10:20:31Z</time>
      </trkpt>
      <trkpt lat="45.91801" lon="4.70617">
        <ele>194</ele>
        <time>2018-05-06T10:20:32Z</time>
      </trkpt>
      <trkpt lat="45.91808" lon="4.70617">
        <ele>194</ele>
        <time>2018-05-06T10:20:33Z</time>
      </trkpt>
      <trkpt lat="45.91814" lon="4.70618">
        <ele>194</ele>
        <time>2018-05-06T10:20:34Z</time>
      </trkpt>
      <trkpt lat="45.91821" lon="4.70619">
        <ele>194</ele>
        <time>2018-05-06T10:20:35Z</time>
      </trkpt>
      <trkpt lat="45.91828" lon="4.70619">
        <ele>194</ele>
        <time>2018-05-06T10:20:36Z</time>
      </trkpt>
      <trkpt lat="45.91835" lon="4.70619">
        <ele>194</ele>
        <time>2018-05-06T10:20:37Z</time>
      </trkpt>
      <trkpt lat="45.91839" lon="4.70617">
        <ele>194</ele>
        <time>2018-05-06T10:20:38Z</time>
      </trkpt>
      <trkpt lat="45.91845" lon="4.70617">
        <ele>194</ele>
        <time>2018-05-06T10:20:39Z</time>
      </trkpt>
      <trkpt lat="45.91852" lon="4.70618">
        <ele>194</ele>
        <time>2018-05-06T10:20:40Z</time>
      </trkpt>
      <trkpt lat="45.91857" lon="4.70618">
        <ele>194</ele>
        <time>2018-05-06T10:20:41Z</time>
      </trkpt>
      <trkpt lat="45.91862" lon="4.70619">
        <ele>194</ele>
        <time>2018-05-06T10:20:42Z</time>
      </trkpt>
      <trkpt lat="45.91868" lon="4.70619">
        <ele>194</ele>
        <time>2018-05-06T10:20:43Z</time>
      </trkpt>
      <trkpt lat="45.91875" lon="4.70618">
        <ele>194</ele>
        <time>2018-05-06T10:20:44Z</time>
      </trkpt>
      <trkpt lat="45.91881" lon="4.70618">
        <ele>194</ele>
        <time>2018-05-06T10:20:45Z</time>
      </trkpt>
      <trkpt lat="45.91887" lon="4.70618">
        <ele>194</ele>
        <time>2018-05-06T10:20:46Z</time>
      </trkpt>
      <trkpt lat="45.91894" lon="4.70617">
        <ele>194</ele>
        <time>2018-05-06T10:20:47Z</time>
      </trkpt>
      <trkpt lat="45.919" lon="4.70617">
        <ele>194</ele>
        <time>2018-05-06T10:20:48Z</time>
      </trkpt>
      <trkpt lat="45.91906" lon="4.70616">
        <ele>194</ele>
        <time>2018-05-06T10:20:49Z</time>
      </trkpt>
      <trkpt lat="45.91912" lon="4.70616">
        <ele>194</ele>
        <time>2018-05-06T10:20:50Z</time>
      </trkpt>
      <trkpt lat="45.91918" lon="4.70616">
        <ele>194</ele>
        <time>2018-05-06T10:20:51Z</time>
      </trkpt>
      <trkpt lat="45.91923" lon="4.70615">
        <ele>194</ele>
        <time>2018-05-06T10:20:52Z</time>
      </trkpt>
      <trkpt lat="45.9193" lon="4.70614">
        <ele>194</ele>
        <time>2018-05-06T10:20:53Z</time>
      </trkpt>
      <trkpt lat="45.91936" lon="4.70613">
        <ele>194</ele>
        <time>2018-05-06T10:20:54Z</time>
      </trkpt>
      <trkpt lat="45.91942" lon="4.70613">
        <ele>194</ele>
        <time>2018-05-06T10:20:55Z</time>
      </trkpt>
      <trkpt lat="45.91948" lon="4.70612">
        <ele>194</ele>
        <time>2018-05-06T10:20:56Z</time>
      </trkpt>
      <trkpt lat="45.91956" lon="4.7061">
        <ele>194</ele>
        <time>2018-05-06T10:20:57Z</time>
      </trkpt>
      <trkpt lat="45.91961" lon="4.70609">
        <ele>194</ele>
        <time>2018-05-06T10:20:58Z</time>
      </trkpt>
      <trkpt lat="45.91966" lon="4.70609">
        <ele>194</ele>
        <time>2018-05-06T10:20:59Z</time>
      </trkpt>
      <trkpt lat="45.91972" lon="4.70608">
        <ele>194</ele>
        <time>2018-05-06T10:21:00Z</time>
      </trkpt>
      <trkpt lat="45.91978" lon="4.70608">
        <ele>194</ele>
        <time>2018-05-06T10:21:01Z</time>
      </trkpt>
      <trkpt lat="45.91985" lon="4.70606">
        <ele>194</ele>
        <time>2018-05-06T10:21:02Z</time>
      </trkpt>
      <trkpt lat="45.9199" lon="4.70606">
        <ele>194</ele>
        <time>2018-05-06T10:21:03Z</time>
      </trkpt>
      <trkpt lat="45.91996" lon="4.70604">
        <ele>194</ele>
        <time>2018-05-06T10:21:04Z</time>
      </trkpt>
      <trkpt lat="45.92002" lon="4.70602">
        <ele>194</ele>
        <time>2018-05-06T10:21:05Z</time>
      </trkpt>
      <trkpt lat="45.92008" lon="4.70601">
        <ele>194</ele>
        <time>2018-05-06T10:21:06Z</time>
      </trkpt>
      <trkpt lat="45.92013" lon="4.70602">
        <ele>194</ele>
        <time>2018-05-06T10:21:07Z</time>
      </trkpt>
      <trkpt lat="45.92019" lon="4.70599">
        <ele>194</ele>
        <time>2018-05-06T10:21:08Z</time>
      </trkpt>
      <trkpt lat="45.92025" lon="4.70599">
        <ele>194</ele>
        <time>2018-05-06T10:21:09Z</time>
      </trkpt>
      <trkpt lat="45.92031" lon="4.70598">
        <ele>194</ele>
        <time>2018-05-06T10:21:10Z</time>
      </trkpt>
      <trkpt lat="45.92037" lon="4.70598">
        <ele>193</ele>
        <time>2018-05-06T10:21:11Z</time>
      </trkpt>
      <trkpt lat="45.92043" lon="4.70598">
        <ele>193</ele>
        <time>2018-05-06T10:21:12Z</time>
      </trkpt>
      <trkpt lat="45.9205" lon="4.70598">
        <ele>193</ele>
        <time>2018-05-06T10:21:13Z</time>
      </trkpt>
      <trkpt lat="45.92056" lon="4.70596">
        <ele>193</ele>
        <time>2018-05-06T10:21:14Z</time>
      </trkpt>
      <trkpt lat="45.92061" lon="4.70597">
        <ele>193</ele>
        <time>2018-05-06T10:21:15Z</time>
      </trkpt>
      <trkpt lat="45.92067" lon="4.70595">
        <ele>193</ele>
        <time>2018-05-06T10:21:16Z</time>
      </trkpt>
      <trkpt lat="45.92074" lon="4.70595">
        <ele>194</ele>
        <time>2018-05-06T10:21:17Z</time>
      </trkpt>
      <trkpt lat="45.9208" lon="4.70593">
        <ele>194</ele>
        <time>2018-05-06T10:21:18Z</time>
      </trkpt>
      <trkpt lat="45.92085" lon="4.70594">
        <ele>193</ele>
        <time>2018-05-06T10:21:19Z</time>
      </trkpt>
      <trkpt lat="45.92091" lon="4.70593">
        <ele>193</ele>
        <time>2018-05-06T10:21:20Z</time>
      </trkpt>
      <trkpt lat="45.92098" lon="4.70593">
        <ele>192</ele>
        <time>2018-05-06T10:21:21Z</time>
      </trkpt>
      <trkpt lat="45.92105" lon="4.70592">
        <ele>192</ele>
        <time>2018-05-06T10:21:22Z</time>
      </trkpt>
      <trkpt lat="45.92112" lon="4.70591">
        <ele>192</ele>
        <time>2018-05-06T10:21:23Z</time>
      </trkpt>
      <trkpt lat="45.92118" lon="4.70592">
        <ele>191</ele>
        <time>2018-05-06T10:21:24Z</time>
      </trkpt>
      <trkpt lat="45.92125" lon="4.70592">
        <ele>191</ele>
        <time>2018-05-06T10:21:25Z</time>
      </trkpt>
      <trkpt lat="45.92131" lon="4.70592">
        <ele>191</ele>
        <time>2018-05-06T10:21:26Z</time>
      </trkpt>
      <trkpt lat="45.92137" lon="4.70591">
        <ele>191</ele>
        <time>2018-05-06T10:21:27Z</time>
      </trkpt>
      <trkpt lat="45.92144" lon="4.70591">
        <ele>191</ele>
        <time>2018-05-06T10:21:28Z</time>
      </trkpt>
      <trkpt lat="45.9215" lon="4.70591">
        <ele>190</ele>
        <time>2018-05-06T10:21:29Z</time>
      </trkpt>
      <trkpt lat="45.92157" lon="4.7059">
        <ele>190</ele>
        <time>2018-05-06T10:21:30Z</time>
      </trkpt>
      <trkpt lat="45.92162" lon="4.70592">
        <ele>190</ele>
        <time>2018-05-06T10:21:31Z</time>
      </trkpt>
      <trkpt lat="45.92168" lon="4.70592">
        <ele>191</ele>
        <time>2018-05-06T10:21:32Z</time>
      </trkpt>
      <trkpt lat="45.92174" lon="4.70592">
        <ele>191</ele>
        <time>2018-05-06T10:21:33Z</time>
      </trkpt>
      <trkpt lat="45.92179" lon="4.70595">
        <ele>191</ele>
        <time>2018-05-06T10:21:34Z</time>
      </trkpt>
      <trkpt lat="45.92185" lon="4.70595">
        <ele>191</ele>
        <time>2018-05-06T10:21:35Z</time>
      </trkpt>
      <trkpt lat="45.92192" lon="4.70596">
        <ele>192</ele>
        <time>2018-05-06T10:21:36Z</time>
      </trkpt>
      <trkpt lat="45.92198" lon="4.70597">
        <ele>192</ele>
        <time>2018-05-06T10:21:37Z</time>
      </trkpt>
      <trkpt lat="45.92203" lon="4.70598">
        <ele>192</ele>
        <time>2018-05-06T10:21:38Z</time>
      </trkpt>
      <trkpt lat="45.92209" lon="4.70599">
        <ele>193</ele>
        <time>2018-05-06T10:21:39Z</time>
      </trkpt>
      <trkpt lat="45.92214" lon="4.70601">
        <ele>193</ele>
        <time>2018-05-06T10:21:40Z</time>
      </trkpt>
      <trkpt lat="45.9222" lon="4.70601">
        <ele>193</ele>
        <time>2018-05-06T10:21:41Z</time>
      </trkpt>
      <trkpt lat="45.92226" lon="4.70602">
        <ele>193</ele>
        <time>2018-05-06T10:21:42Z</time>
      </trkpt>
      <trkpt lat="45.92233" lon="4.70604">
        <ele>194</ele>
        <time>2018-05-06T10:21:43Z</time>
      </trkpt>
      <trkpt lat="45.92239" lon="4.70605">
        <ele>194</ele>
        <time>2018-05-06T10:21:44Z</time>
      </trkpt>
      <trkpt lat="45.92244" lon="4.70607">
        <ele>194</ele>
        <time>2018-05-06T10:21:45Z</time>
      </trkpt>
      <trkpt lat="45.92249" lon="4.70609">
        <ele>194</ele>
        <time>2018-05-06T10:21:46Z</time>
      </trkpt>
      <trkpt lat="45.92256" lon="4.70609">
        <ele>196</ele>
        <time>2018-05-06T10:21:47Z</time>
      </trkpt>
      <trkpt lat="45.92262" lon="4.7061">
        <ele>196</ele>
        <time>2018-05-06T10:21:48Z</time>
      </trkpt>
      <trkpt lat="45.92267" lon="4.70612">
        <ele>196</ele>
        <time>2018-05-06T10:21:49Z</time>
      </trkpt>
      <trkpt lat="45.92273" lon="4.70614">
        <ele>196</ele>
        <time>2018-05-06T10:21:50Z</time>
      </trkpt>
      <trkpt lat="45.92278" lon="4.70617">
        <ele>196</ele>
        <time>2018-05-06T10:21:51Z</time>
      </trkpt>
      <trkpt lat="45.92283" lon="4.70621">
        <ele>196</ele>
        <time>2018-05-06T10:21:52Z</time>
      </trkpt>
      <trkpt lat="45.92288" lon="4.70624">
        <ele>196</ele>
        <time>2018-05-06T10:21:53Z</time>
      </trkpt>
      <trkpt lat="45.92293" lon="4.70626">
        <ele>196</ele>
        <time>2018-05-06T10:21:54Z</time>
      </trkpt>
      <trkpt lat="45.92298" lon="4.7063">
        <ele>196</ele>
        <time>2018-05-06T10:21:55Z</time>
      </trkpt>
      <trkpt lat="45.92303" lon="4.70633">
        <ele>196</ele>
        <time>2018-05-06T10:21:56Z</time>
      </trkpt>
      <trkpt lat="45.92307" lon="4.70636">
        <ele>196</ele>
        <time>2018-05-06T10:21:57Z</time>
      </trkpt>
      <trkpt lat="45.92314" lon="4.70639">
        <ele>196</ele>
        <time>2018-05-06T10:21:58Z</time>
      </trkpt>
      <trkpt lat="45.9232" lon="4.70642">
        <ele>196</ele>
        <time>2018-05-06T10:21:59Z</time>
      </trkpt>
      <trkpt lat="45.92328" lon="4.70647">
        <ele>196</ele>
        <time>2018-05-06T10:22:01Z</time>
      </trkpt>
      <trkpt lat="45.92331" lon="4.70651">
        <ele>196</ele>
        <time>2018-05-06T10:22:02Z</time>
      </trkpt>
      <trkpt lat="45.92337" lon="4.70654">
        <ele>196</ele>
        <time>2018-05-06T10:22:03Z</time>
      </trkpt>
      <trkpt lat="45.92342" lon="4.70656">
        <ele>196</ele>
        <time>2018-05-06T10:22:04Z</time>
      </trkpt>
      <trkpt lat="45.92348" lon="4.70658">
        <ele>196</ele>
        <time>2018-05-06T10:22:05Z</time>
      </trkpt>
      <trkpt lat="45.92353" lon="4.70661">
        <ele>196</ele>
        <time>2018-05-06T10:22:06Z</time>
      </trkpt>
      <trkpt lat="45.92358" lon="4.70663">
        <ele>196</ele>
        <time>2018-05-06T10:22:07Z</time>
      </trkpt>
      <trkpt lat="45.92363" lon="4.70665">
        <ele>196</ele>
        <time>2018-05-06T10:22:08Z</time>
      </trkpt>
      <trkpt lat="45.92369" lon="4.70668">
        <ele>194</ele>
        <time>2018-05-06T10:22:09Z</time>
      </trkpt>
      <trkpt lat="45.92374" lon="4.70671">
        <ele>194</ele>
        <time>2018-05-06T10:22:10Z</time>
      </trkpt>
      <trkpt lat="45.92378" lon="4.70673">
        <ele>194</ele>
        <time>2018-05-06T10:22:11Z</time>
      </trkpt>
      <trkpt lat="45.92384" lon="4.70675">
        <ele>194</ele>
        <time>2018-05-06T10:22:12Z</time>
      </trkpt>
      <trkpt lat="45.92388" lon="4.70679">
        <ele>194</ele>
        <time>2018-05-06T10:22:13Z</time>
      </trkpt>
      <trkpt lat="45.92393" lon="4.70681">
        <ele>194</ele>
        <time>2018-05-06T10:22:14Z</time>
      </trkpt>
      <trkpt lat="45.92397" lon="4.70684">
        <ele>194</ele>
        <time>2018-05-06T10:22:15Z</time>
      </trkpt>
      <trkpt lat="45.92402" lon="4.70687">
        <ele>194</ele>
        <time>2018-05-06T10:22:16Z</time>
      </trkpt>
      <trkpt lat="45.92406" lon="4.70691">
        <ele>194</ele>
        <time>2018-05-06T10:22:17Z</time>
      </trkpt>
      <trkpt lat="45.92412" lon="4.70694">
        <ele>194</ele>
        <time>2018-05-06T10:22:18Z</time>
      </trkpt>
      <trkpt lat="45.92417" lon="4.70697">
        <ele>195</ele>
        <time>2018-05-06T10:22:19Z</time>
      </trkpt>
      <trkpt lat="45.92422" lon="4.707">
        <ele>194</ele>
        <time>2018-05-06T10:22:20Z</time>
      </trkpt>
      <trkpt lat="45.92427" lon="4.70702">
        <ele>194</ele>
        <time>2018-05-06T10:22:21Z</time>
      </trkpt>
      <trkpt lat="45.92433" lon="4.70703">
        <ele>194</ele>
        <time>2018-05-06T10:22:22Z</time>
      </trkpt>
      <trkpt lat="45.92437" lon="4.70706">
        <ele>194</ele>
        <time>2018-05-06T10:22:23Z</time>
      </trkpt>
      <trkpt lat="45.92442" lon="4.70709">
        <ele>194</ele>
        <time>2018-05-06T10:22:24Z</time>
      </trkpt>
      <trkpt lat="45.92448" lon="4.70712">
        <ele>194</ele>
        <time>2018-05-06T10:22:25Z</time>
      </trkpt>
      <trkpt lat="45.92453" lon="4.70714">
        <ele>194</ele>
        <time>2018-05-06T10:22:26Z</time>
      </trkpt>
      <trkpt lat="45.92457" lon="4.70717">
        <ele>194</ele>
        <time>2018-05-06T10:22:27Z</time>
      </trkpt>
      <trkpt lat="45.92462" lon="4.7072">
        <ele>194</ele>
        <time>2018-05-06T10:22:28Z</time>
      </trkpt>
      <trkpt lat="45.92467" lon="4.70724">
        <ele>194</ele>
        <time>2018-05-06T10:22:29Z</time>
      </trkpt>
      <trkpt lat="45.92472" lon="4.70727">
        <ele>194</ele>
        <time>2018-05-06T10:22:30Z</time>
      </trkpt>
      <trkpt lat="45.92477" lon="4.70729">
        <ele>194</ele>
        <time>2018-05-06T10:22:31Z</time>
      </trkpt>
      <trkpt lat="45.92482" lon="4.70732">
        <ele>194</ele>
        <time>2018-05-06T10:22:32Z</time>
      </trkpt>
      <trkpt lat="45.92487" lon="4.70735">
        <ele>194</ele>
        <time>2018-05-06T10:22:33Z</time>
      </trkpt>
      <trkpt lat="45.92492" lon="4.70738">
        <ele>194</ele>
        <time>2018-05-06T10:22:34Z</time>
      </trkpt>
      <trkpt lat="45.92497" lon="4.70741">
        <ele>194</ele>
        <time>2018-05-06T10:22:35Z</time>
      </trkpt>
      <trkpt lat="45.92502" lon="4.70743">
        <ele>195</ele>
        <time>2018-05-06T10:22:36Z</time>
      </trkpt>
      <trkpt lat="45.92507" lon="4.70746">
        <ele>195</ele>
        <time>2018-05-06T10:22:37Z</time>
      </trkpt>
      <trkpt lat="45.92511" lon="4.70749">
        <ele>195</ele>
        <time>2018-05-06T10:22:38Z</time>
      </trkpt>
      <trkpt lat="45.92516" lon="4.70753">
        <ele>195</ele>
        <time>2018-05-06T10:22:39Z</time>
      </trkpt>
      <trkpt lat="45.9252" lon="4.70756">
        <ele>195</ele>
        <time>2018-05-06T10:22:40Z</time>
      </trkpt>
      <trkpt lat="45.92525" lon="4.7076">
        <ele>195</ele>
        <time>2018-05-06T10:22:41Z</time>
      </trkpt>
      <trkpt lat="45.9253" lon="4.70762">
        <ele>195</ele>
        <time>2018-05-06T10:22:42Z</time>
      </trkpt>
      <trkpt lat="45.92535" lon="4.70765">
        <ele>195</ele>
        <time>2018-05-06T10:22:43Z</time>
      </trkpt>
      <trkpt lat="45.9254" lon="4.70767">
        <ele>195</ele>
        <time>2018-05-06T10:22:44Z</time>
      </trkpt>
      <trkpt lat="45.92546" lon="4.7077">
        <ele>195</ele>
        <time>2018-05-06T10:22:45Z</time>
      </trkpt>
      <trkpt lat="45.9255" lon="4.70772">
        <ele>195</ele>
        <time>2018-05-06T10:22:46Z</time>
      </trkpt>
      <trkpt lat="45.92554" lon="4.70775">
        <ele>196</ele>
        <time>2018-05-06T10:22:47Z</time>
      </trkpt>
      <trkpt lat="45.92559" lon="4.70778">
        <ele>196</ele>
        <time>2018-05-06T10:22:48Z</time>
      </trkpt>
      <trkpt lat="45.92566" lon="4.70785">
        <ele>196</ele>
        <time>2018-05-06T10:22:50Z</time>
      </trkpt>
      <trkpt lat="45.9257" lon="4.70788">
        <ele>196</ele>
        <time>2018-05-06T10:22:51Z</time>
      </trkpt>
      <trkpt lat="45.92574" lon="4.70791">
        <ele>196</ele>
        <time>2018-05-06T10:22:52Z</time>
      </trkpt>
      <trkpt lat="45.92579" lon="4.70795">
        <ele>196</ele>
        <time>2018-05-06T10:22:53Z</time>
      </trkpt>
      <trkpt lat="45.92582" lon="4.70799">
        <ele>196</ele>
        <time>2018-05-06T10:22:54Z</time>
      </trkpt>
      <trkpt lat="45.92586" lon="4.70803">
        <ele>198</ele>
        <time>2018-05-06T10:22:55Z</time>
      </trkpt>
      <trkpt lat="45.9259" lon="4.70807">
        <ele>198</ele>
        <time>2018-05-06T10:22:56Z</time>
      </trkpt>
      <trkpt lat="45.92594" lon="4.70811">
        <ele>198</ele>
        <time>2018-05-06T10:22:57Z</time>
      </trkpt>
      <trkpt lat="45.92598" lon="4.70815">
        <ele>198</ele>
        <time>2018-05-06T10:22:58Z</time>
      </trkpt>
      <trkpt lat="45.92602" lon="4.70818">
        <ele>198</ele>
        <time>2018-05-06T10:22:59Z</time>
      </trkpt>
      <trkpt lat="45.92606" lon="4.70821">
        <ele>198</ele>
        <time>2018-05-06T10:23:00Z</time>
      </trkpt>
      <trkpt lat="45.9261" lon="4.70825">
        <ele>198</ele>
        <time>2018-05-06T10:23:01Z</time>
      </trkpt>
      <trkpt lat="45.92614" lon="4.7083">
        <ele>198</ele>
        <time>2018-05-06T10:23:02Z</time>
      </trkpt>
      <trkpt lat="45.92618" lon="4.70834">
        <ele>197</ele>
        <time>2018-05-06T10:23:03Z</time>
      </trkpt>
      <trkpt lat="45.92622" lon="4.70837">
        <ele>197</ele>
        <time>2018-05-06T10:23:04Z</time>
      </trkpt>
      <trkpt lat="45.92626" lon="4.70841">
        <ele>198</ele>
        <time>2018-05-06T10:23:05Z</time>
      </trkpt>
      <trkpt lat="45.9263" lon="4.70846">
        <ele>198</ele>
        <time>2018-05-06T10:23:06Z</time>
      </trkpt>
      <trkpt lat="45.92636" lon="4.70849">
        <ele>198</ele>
        <time>2018-05-06T10:23:07Z</time>
      </trkpt>
      <trkpt lat="45.9264" lon="4.70853">
        <ele>198</ele>
        <time>2018-05-06T10:23:08Z</time>
      </trkpt>
      <trkpt lat="45.92644" lon="4.70856">
        <ele>198</ele>
        <time>2018-05-06T10:23:09Z</time>
      </trkpt>
      <trkpt lat="45.92649" lon="4.70861">
        <ele>198</ele>
        <time>2018-05-06T10:23:10Z</time>
      </trkpt>
      <trkpt lat="45.92653" lon="4.70865">
        <ele>198</ele>
        <time>2018-05-06T10:23:11Z</time>
      </trkpt>
      <trkpt lat="45.92657" lon="4.70869">
        <ele>198</ele>
        <time>2018-05-06T10:23:12Z</time>
      </trkpt>
      <trkpt lat="45.9266" lon="4.70873">
        <ele>198</ele>
        <time>2018-05-06T10:23:13Z</time>
      </trkpt>
      <trkpt lat="45.92664" lon="4.70877">
        <ele>197</ele>
        <time>2018-05-06T10:23:14Z</time>
      </trkpt>
      <trkpt lat="45.92669" lon="4.70881">
        <ele>198</ele>
        <time>2018-05-06T10:23:15Z</time>
      </trkpt>
      <trkpt lat="45.92674" lon="4.70884">
        <ele>198</ele>
        <time>2018-05-06T10:23:16Z</time>
      </trkpt>
      <trkpt lat="45.92678" lon="4.70888">
        <ele>198</ele>
        <time>2018-05-06T10:23:17Z</time>
      </trkpt>
      <trkpt lat="45.92679" lon="4.7089">
        <ele>198</ele>
        <time>2018-05-06T10:23:18Z</time>
      </trkpt>
      <trkpt lat="45.92686" lon="4.70895">
        <ele>197</ele>
        <time>2018-05-06T10:23:19Z</time>
      </trkpt>
      <trkpt lat="45.9269" lon="4.70899">
        <ele>197</ele>
        <time>2018-05-06T10:23:20Z</time>
      </trkpt>
      <trkpt lat="45.92695" lon="4.70902">
        <ele>197</ele>
        <time>2018-05-06T10:23:21Z</time>
      </trkpt>
      <trkpt lat="45.927" lon="4.70906">
        <ele>197</ele>
        <time>2018-05-06T10:23:22Z</time>
      </trkpt>
      <trkpt lat="45.92704" lon="4.70907">
        <ele>197</ele>
        <time>2018-05-06T10:23:23Z</time>
      </trkpt>
      <trkpt lat="45.92708" lon="4.7091">
        <ele>197</ele>
        <time>2018-05-06T10:23:24Z</time>
      </trkpt>
      <trkpt lat="45.92714" lon="4.70912">
        <ele>197</ele>
        <time>2018-05-06T10:23:25Z</time>
      </trkpt>
      <trkpt lat="45.92719" lon="4.70914">
        <ele>197</ele>
        <time>2018-05-06T10:23:26Z</time>
      </trkpt>
      <trkpt lat="45.92723" lon="4.70915">
        <ele>197</ele>
        <time>2018-05-06T10:23:27Z</time>
      </trkpt>
      <trkpt lat="45.92729" lon="4.70917">
        <ele>197</ele>
        <time>2018-05-06T10:23:28Z</time>
      </trkpt>
      <trkpt lat="45.92733" lon="4.70918">
        <ele>195</ele>
        <time>2018-05-06T10:23:29Z</time>
      </trkpt>
      <trkpt lat="45.9274" lon="4.70918">
        <ele>195</ele>
        <time>2018-05-06T10:23:30Z</time>
      </trkpt>
      <trkpt lat="45.92745" lon="4.7092">
        <ele>196</ele>
        <time>2018-05-06T10:23:31Z</time>
      </trkpt>
      <trkpt lat="45.9275" lon="4.70922">
        <ele>196</ele>
        <time>2018-05-06T10:23:32Z</time>
      </trkpt>
      <trkpt lat="45.92756" lon="4.70922">
        <ele>196</ele>
        <time>2018-05-06T10:23:33Z</time>
      </trkpt>
      <trkpt lat="45.9276" lon="4.70924">
        <ele>196</ele>
        <time>2018-05-06T10:23:34Z</time>
      </trkpt>
      <trkpt lat="45.92765" lon="4.70926">
        <ele>196</ele>
        <time>2018-05-06T10:23:35Z</time>
      </trkpt>
      <trkpt lat="45.92774" lon="4.70927">
        <ele>196</ele>
        <time>2018-05-06T10:23:37Z</time>
      </trkpt>
      <trkpt lat="45.92779" lon="4.70929">
        <ele>196</ele>
        <time>2018-05-06T10:23:38Z</time>
      </trkpt>
      <trkpt lat="45.92784" lon="4.70931">
        <ele>196</ele>
        <time>2018-05-06T10:23:39Z</time>
      </trkpt>
      <trkpt lat="45.92788" lon="4.70932">
        <ele>196</ele>
        <time>2018-05-06T10:23:40Z</time>
      </trkpt>
      <trkpt lat="45.92793" lon="4.70934">
        <ele>196</ele>
        <time>2018-05-06T10:23:41Z</time>
      </trkpt>
      <trkpt lat="45.92798" lon="4.70938">
        <ele>196</ele>
        <time>2018-05-06T10:23:42Z</time>
      </trkpt>
      <trkpt lat="45.92803" lon="4.70941">
        <ele>196</ele>
        <time>2018-05-06T10:23:43Z</time>
      </trkpt>
      <trkpt lat="45.92807" lon="4.70943">
        <ele>196</ele>
        <time>2018-05-06T10:23:44Z</time>
      </trkpt>
      <trkpt lat="45.92815" lon="4.70948">
        <ele>197</ele>
        <time>2018-05-06T10:23:46Z</time>
      </trkpt>
      <trkpt lat="45.9282" lon="4.70947">
        <ele>197</ele>
        <time>2018-05-06T10:23:47Z</time>
      </trkpt>
      <trkpt lat="45.92828" lon="4.70943">
        <ele>197</ele>
        <time>2018-05-06T10:23:49Z</time>
      </trkpt>
      <trkpt lat="45.92832" lon="4.70942">
        <ele>197</ele>
        <time>2018-05-06T10:23:50Z</time>
      </trkpt>
      <trkpt lat="45.92836" lon="4.70941">
        <ele>198</ele>
        <time>2018-05-06T10:23:51Z</time>
      </trkpt>
      <trkpt lat="45.92841" lon="4.70941">
        <ele>198</ele>
        <time>2018-05-06T10:23:52Z</time>
      </trkpt>
      <trkpt lat="45.92848" lon="4.7094">
        <ele>198</ele>
        <time>2018-05-06T10:23:53Z</time>
      </trkpt>
      <trkpt lat="45.92853" lon="4.70941">
        <ele>198</ele>
        <time>2018-05-06T10:23:54Z</time>
      </trkpt>
      <trkpt lat="45.92858" lon="4.70943">
        <ele>198</ele>
        <time>2018-05-06T10:23:55Z</time>
      </trkpt>
      <trkpt lat="45.92863" lon="4.70944">
        <ele>198</ele>
        <time>2018-05-06T10:23:56Z</time>
      </trkpt>
      <trkpt lat="45.92869" lon="4.70945">
        <ele>198</ele>
        <time>2018-05-06T10:23:57Z</time>
      </trkpt>
      <trkpt lat="45.92874" lon="4.70948">
        <ele>198</ele>
        <time>2018-05-06T10:23:58Z</time>
      </trkpt>
      <trkpt lat="45.92879" lon="4.7095">
        <ele>198</ele>
        <time>2018-05-06T10:23:59Z</time>
      </trkpt>
      <trkpt lat="45.92884" lon="4.70953">
        <ele>198</ele>
        <time>2018-05-06T10:24:00Z</time>
      </trkpt>
      <trkpt lat="45.92889" lon="4.70954">
        <ele>198</ele>
        <time>2018-05-06T10:24:01Z</time>
      </trkpt>
      <trkpt lat="45.92894" lon="4.70954">
        <ele>198</ele>
        <time>2018-05-06T10:24:02Z</time>
      </trkpt>
      <trkpt lat="45.92899" lon="4.70956">
        <ele>198</ele>
        <time>2018-05-06T10:24:03Z</time>
      </trkpt>
      <trkpt lat="45.92904" lon="4.70958">
        <ele>198</ele>
        <time>2018-05-06T10:24:04Z</time>
      </trkpt>
      <trkpt lat="45.92908" lon="4.7096">
        <ele>197</ele>
        <time>2018-05-06T10:24:05Z</time>
      </trkpt>
      <trkpt lat="45.92913" lon="4.7096">
        <ele>197</ele>
        <time>2018-05-06T10:24:06Z</time>
      </trkpt>
      <trkpt lat="45.92918" lon="4.70961">
        <ele>198</ele>
        <time>2018-05-06T10:24:07Z</time>
      </trkpt>
      <trkpt lat="45.92924" lon="4.70962">
        <ele>198</ele>
        <time>2018-05-06T10:24:08Z</time>
      </trkpt>
      <trkpt lat="45.9293" lon="4.70963">
        <ele>198</ele>
        <time>2018-05-06T10:24:09Z</time>
      </trkpt>
      <trkpt lat="45.92937" lon="4.70964">
        <ele>198</ele>
        <time>2018-05-06T10:24:10Z</time>
      </trkpt>
      <trkpt lat="45.9294" lon="4.70968">
        <ele>198</ele>
        <time>2018-05-06T10:24:11Z</time>
      </trkpt>
      <trkpt lat="45.92948" lon="4.70969">
        <ele>198</ele>
        <time>2018-05-06T10:24:12Z</time>
      </trkpt>
      <trkpt lat="45.92954" lon="4.7097">
        <ele>198</ele>
        <time>2018-05-06T10:24:13Z</time>
      </trkpt>
      <trkpt lat="45.9296" lon="4.70973">
        <ele>198</ele>
        <time>2018-05-06T10:24:14Z</time>
      </trkpt>
      <trkpt lat="45.92964" lon="4.70974">
        <ele>198</ele>
        <time>2018-05-06T10:24:15Z</time>
      </trkpt>
      <trkpt lat="45.92971" lon="4.70973">
        <ele>198</ele>
        <time>2018-05-06T10:24:16Z</time>
      </trkpt>
      <trkpt lat="45.92976" lon="4.70976">
        <ele>198</ele>
        <time>2018-05-06T10:24:17Z</time>
      </trkpt>
      <trkpt lat="45.92981" lon="4.70978">
        <ele>198</ele>
        <time>2018-05-06T10:24:18Z</time>
      </trkpt>
      <trkpt lat="45.92987" lon="4.70983">
        <ele>198</ele>
        <time>2018-05-06T10:24:19Z</time>
      </trkpt>
      <trkpt lat="45.92993" lon="4.70985">
        <ele>198</ele>
        <time>2018-05-06T10:24:20Z</time>
      </trkpt>
      <trkpt lat="45.92999" lon="4.70988">
        <ele>197</ele>
        <time>2018-05-06T10:24:21Z</time>
      </trkpt>
      <trkpt lat="45.93005" lon="4.70991">
        <ele>198</ele>
        <time>2018-05-06T10:24:22Z</time>
      </trkpt>
      <trkpt lat="45.93011" lon="4.70995">
        <ele>198</ele>
        <time>2018-05-06T10:24:23Z</time>
      </trkpt>
      <trkpt lat="45.93017" lon="4.70995">
        <ele>198</ele>
        <time>2018-05-06T10:24:24Z</time>
      </trkpt>
      <trkpt lat="45.93023" lon="4.70998">
        <ele>198</ele>
        <time>2018-05-06T10:24:25Z</time>
      </trkpt>
      <trkpt lat="45.93029" lon="4.71002">
        <ele>197</ele>
        <time>2018-05-06T10:24:26Z</time>
      </trkpt>
      <trkpt lat="45.93035" lon="4.71005">
        <ele>197</ele>
        <time>2018-05-06T10:24:27Z</time>
      </trkpt>
      <trkpt lat="45.93043" lon="4.71008">
        <ele>197</ele>
        <time>2018-05-06T10:24:28Z</time>
      </trkpt>
      <trkpt lat="45.93049" lon="4.71013">
        <ele>197</ele>
        <time>2018-05-06T10:24:29Z</time>
      </trkpt>
      <trkpt lat="45.93055" lon="4.71016">
        <ele>197</ele>
        <time>2018-05-06T10:24:30Z</time>
      </trkpt>
      <trkpt lat="45.9306" lon="4.7102">
        <ele>197</ele>
        <time>2018-05-06T10:24:31Z</time>
      </trkpt>
      <trkpt lat="45.93066" lon="4.71026">
        <ele>197</ele>
        <time>2018-05-06T10:24:32Z</time>
      </trkpt>
      <trkpt lat="45.93071" lon="4.71033">
        <ele>197</ele>
        <time>2018-05-06T10:24:33Z</time>
      </trkpt>
      <trkpt lat="45.93076" lon="4.71039">
        <ele>196</ele>
        <time>2018-05-06T10:24:34Z</time>
      </trkpt>
      <trkpt lat="45.93082" lon="4.71045">
        <ele>196</ele>
        <time>2018-05-06T10:24:35Z</time>
      </trkpt>
      <trkpt lat="45.93086" lon="4.7105">
        <ele>196</ele>
        <time>2018-05-06T10:24:36Z</time>
      </trkpt>
      <trkpt lat="45.9309" lon="4.71056">
        <ele>195</ele>
        <time>2018-05-06T10:24:37Z</time>
      </trkpt>
      <trkpt lat="45.93095" lon="4.71062">
        <ele>195</ele>
        <time>2018-05-06T10:24:38Z</time>
      </trkpt>
      <trkpt lat="45.931" lon="4.7107">
        <ele>195</ele>
        <time>2018-05-06T10:24:39Z</time>
      </trkpt>
      <trkpt lat="45.93104" lon="4.71078">
        <ele>195</ele>
        <time>2018-05-06T10:24:40Z</time>
      </trkpt>
      <trkpt lat="45.93109" lon="4.71086">
        <ele>193</ele>
        <time>2018-05-06T10:24:41Z</time>
      </trkpt>
      <trkpt lat="45.93113" lon="4.71095">
        <ele>193</ele>
        <time>2018-05-06T10:24:42Z</time>
      </trkpt>
      <trkpt lat="45.93119" lon="4.71101">
        <ele>192</ele>
        <time>2018-05-06T10:24:43Z</time>
      </trkpt>
      <trkpt lat="45.93123" lon="4.71109">
        <ele>192</ele>
        <time>2018-05-06T10:24:44Z</time>
      </trkpt>
      <trkpt lat="45.93128" lon="4.71117">
        <ele>192</ele>
        <time>2018-05-06T10:24:45Z</time>
      </trkpt>
      <trkpt lat="45.93133" lon="4.71125">
        <ele>192</ele>
        <time>2018-05-06T10:24:46Z</time>
      </trkpt>
      <trkpt lat="45.93136" lon="4.71135">
        <ele>192</ele>
        <time>2018-05-06T10:24:47Z</time>
      </trkpt>
      <trkpt lat="45.93141" lon="4.71143">
        <ele>191</ele>
        <time>2018-05-06T10:24:48Z</time>
      </trkpt>
      <trkpt lat="45.93145" lon="4.71153">
        <ele>191</ele>
        <time>2018-05-06T10:24:49Z</time>
      </trkpt>
      <trkpt lat="45.93149" lon="4.71162">
        <ele>191</ele>
        <time>2018-05-06T10:24:50Z</time>
      </trkpt>
      <trkpt lat="45.93153" lon="4.7117">
        <ele>190</ele>
        <time>2018-05-06T10:24:51Z</time>
      </trkpt>
      <trkpt lat="45.93157" lon="4.71179">
        <ele>190</ele>
        <time>2018-05-06T10:24:52Z</time>
      </trkpt>
      <trkpt lat="45.93161" lon="4.71186">
        <ele>190</ele>
        <time>2018-05-06T10:24:53Z</time>
      </trkpt>
      <trkpt lat="45.93166" lon="4.71195">
        <ele>190</ele>
        <time>2018-05-06T10:24:54Z</time>
      </trkpt>
      <trkpt lat="45.9317" lon="4.71204">
        <ele>190</ele>
        <time>2018-05-06T10:24:55Z</time>
      </trkpt>
      <trkpt lat="45.93174" lon="4.71213">
        <ele>190</ele>
        <time>2018-05-06T10:24:56Z</time>
      </trkpt>
      <trkpt lat="45.93177" lon="4.71224">
        <ele>190</ele>
        <time>2018-05-06T10:24:57Z</time>
      </trkpt>
      <trkpt lat="45.93181" lon="4.71233">
        <ele>190</ele>
        <time>2018-05-06T10:24:58Z</time>
      </trkpt>
      <trkpt lat="45.93185" lon="4.71242">
        <ele>190</ele>
        <time>2018-05-06T10:24:59Z</time>
      </trkpt>
      <trkpt lat="45.93188" lon="4.71251">
        <ele>189</ele>
        <time>2018-05-06T10:25:00Z</time>
      </trkpt>
      <trkpt lat="45.93192" lon="4.71261">
        <ele>189</ele>
        <time>2018-05-06T10:25:01Z</time>
      </trkpt>
      <trkpt lat="45.93196" lon="4.71269">
        <ele>189</ele>
        <time>2018-05-06T10:25:02Z</time>
      </trkpt>
      <trkpt lat="45.932" lon="4.71279">
        <ele>188</ele>
        <time>2018-05-06T10:25:03Z</time>
      </trkpt>
      <trkpt lat="45.93204" lon="4.71286">
        <ele>188</ele>
        <time>2018-05-06T10:25:04Z</time>
      </trkpt>
      <trkpt lat="45.93207" lon="4.71295">
        <ele>188</ele>
        <time>2018-05-06T10:25:05Z</time>
      </trkpt>
      <trkpt lat="45.9321" lon="4.71303">
        <ele>188</ele>
        <time>2018-05-06T10:25:06Z</time>
      </trkpt>
      <trkpt lat="45.93214" lon="4.71311">
        <ele>188</ele>
        <time>2018-05-06T10:25:07Z</time>
      </trkpt>
      <trkpt lat="45.93217" lon="4.7132">
        <ele>187</ele>
        <time>2018-05-06T10:25:08Z</time>
      </trkpt>
      <trkpt lat="45.93221" lon="4.71328">
        <ele>187</ele>
        <time>2018-05-06T10:25:09Z</time>
      </trkpt>
      <trkpt lat="45.93224" lon="4.71335">
        <ele>186</ele>
        <time>2018-05-06T10:25:10Z</time>
      </trkpt>
      <trkpt lat="45.93228" lon="4.71342">
        <ele>186</ele>
        <time>2018-05-06T10:25:11Z</time>
      </trkpt>
      <trkpt lat="45.9323" lon="4.71348">
        <ele>186</ele>
        <time>2018-05-06T10:25:12Z</time>
      </trkpt>
      <trkpt lat="45.93233" lon="4.71354">
        <ele>186</ele>
        <time>2018-05-06T10:25:13Z</time>
      </trkpt>
      <trkpt lat="45.93235" lon="4.7136">
        <ele>186</ele>
        <time>2018-05-06T10:25:14Z</time>
      </trkpt>
      <trkpt lat="45.93241" lon="4.7137">
        <ele>186</ele>
        <time>2018-05-06T10:25:20Z</time>
      </trkpt>
      <trkpt lat="45.93241" lon="4.7137">
        <ele>186</ele>
        <time>2018-05-06T10:25:21Z</time>
      </trkpt>
      <trkpt lat="45.93243" lon="4.71381">
        <ele>186</ele>
        <time>2018-05-06T10:25:39Z</time>
      </trkpt>
      <trkpt lat="45.93244" lon="4.71383">
        <ele>186</ele>
        <time>2018-05-06T10:25:40Z</time>
      </trkpt>
      <trkpt lat="45.93248" lon="4.71393">
        <ele>186</ele>
        <time>2018-05-06T10:25:43Z</time>
      </trkpt>
      <trkpt lat="45.93253" lon="4.71405">
        <ele>186</ele>
        <time>2018-05-06T10:25:44Z</time>
      </trkpt>
      <trkpt lat="45.93255" lon="4.7141">
        <ele>186</ele>
        <time>2018-05-06T10:25:45Z</time>
      </trkpt>
      <trkpt lat="45.93258" lon="4.71416">
        <ele>186</ele>
        <time>2018-05-06T10:25:46Z</time>
      </trkpt>
      <trkpt lat="45.93262" lon="4.71427">
        <ele>186</ele>
        <time>2018-05-06T10:25:48Z</time>
      </trkpt>
      <trkpt lat="45.93265" lon="4.71432">
        <ele>185</ele>
        <time>2018-05-06T10:25:49Z</time>
      </trkpt>
      <trkpt lat="45.93268" lon="4.71438">
        <ele>185</ele>
        <time>2018-05-06T10:25:50Z</time>
      </trkpt>
      <trkpt lat="45.9327" lon="4.71444">
        <ele>185</ele>
        <time>2018-05-06T10:25:51Z</time>
      </trkpt>
      <trkpt lat="45.93274" lon="4.71452">
        <ele>185</ele>
        <time>2018-05-06T10:25:52Z</time>
      </trkpt>
      <trkpt lat="45.93276" lon="4.71457">
        <ele>185</ele>
        <time>2018-05-06T10:25:53Z</time>
      </trkpt>
      <trkpt lat="45.93279" lon="4.71464">
        <ele>185</ele>
        <time>2018-05-06T10:25:54Z</time>
      </trkpt>
      <trkpt lat="45.93281" lon="4.7147">
        <ele>185</ele>
        <time>2018-05-06T10:25:55Z</time>
      </trkpt>
      <trkpt lat="45.93284" lon="4.71477">
        <ele>185</ele>
        <time>2018-05-06T10:25:56Z</time>
      </trkpt>
      <trkpt lat="45.93286" lon="4.71483">
        <ele>185</ele>
        <time>2018-05-06T10:25:57Z</time>
      </trkpt>
      <trkpt lat="45.93289" lon="4.71488">
        <ele>185</ele>
        <time>2018-05-06T10:25:58Z</time>
      </trkpt>
      <trkpt lat="45.93291" lon="4.71494">
        <ele>185</ele>
        <time>2018-05-06T10:25:59Z</time>
      </trkpt>
      <trkpt lat="45.93295" lon="4.71499">
        <ele>185</ele>
        <time>2018-05-06T10:26:00Z</time>
      </trkpt>
      <trkpt lat="45.93298" lon="4.71505">
        <ele>184</ele>
        <time>2018-05-06T10:26:01Z</time>
      </trkpt>
      <trkpt lat="45.93301" lon="4.7151">
        <ele>184</ele>
        <time>2018-05-06T10:26:02Z</time>
      </trkpt>
      <trkpt lat="45.93303" lon="4.71517">
        <ele>184</ele>
        <time>2018-05-06T10:26:03Z</time>
      </trkpt>
      <trkpt lat="45.93305" lon="4.71522">
        <ele>184</ele>
        <time>2018-05-06T10:26:04Z</time>
      </trkpt>
      <trkpt lat="45.93308" lon="4.71529">
        <ele>184</ele>
        <time>2018-05-06T10:26:05Z</time>
      </trkpt>
      <trkpt lat="45.9331" lon="4.71534">
        <ele>184</ele>
        <time>2018-05-06T10:26:06Z</time>
      </trkpt>
      <trkpt lat="45.93313" lon="4.7154">
        <ele>184</ele>
        <time>2018-05-06T10:26:07Z</time>
      </trkpt>
      <trkpt lat="45.93317" lon="4.71551">
        <ele>184</ele>
        <time>2018-05-06T10:26:09Z</time>
      </trkpt>
      <trkpt lat="45.93321" lon="4.71556">
        <ele>184</ele>
        <time>2018-05-06T10:26:10Z</time>
      </trkpt>
      <trkpt lat="45.93323" lon="4.71563">
        <ele>185</ele>
        <time>2018-05-06T10:26:11Z</time>
      </trkpt>
      <trkpt lat="45.93326" lon="4.71569">
        <ele>185</ele>
        <time>2018-05-06T10:26:12Z</time>
      </trkpt>
      <trkpt lat="45.9333" lon="4.71575">
        <ele>185</ele>
        <time>2018-05-06T10:26:13Z</time>
      </trkpt>
      <trkpt lat="45.93334" lon="4.71582">
        <ele>185</ele>
        <time>2018-05-06T10:26:14Z</time>
      </trkpt>
      <trkpt lat="45.93337" lon="4.71589">
        <ele>185</ele>
        <time>2018-05-06T10:26:15Z</time>
      </trkpt>
      <trkpt lat="45.93341" lon="4.71596">
        <ele>185</ele>
        <time>2018-05-06T10:26:16Z</time>
      </trkpt>
      <trkpt lat="45.93344" lon="4.71602">
        <ele>185</ele>
        <time>2018-05-06T10:26:17Z</time>
      </trkpt>
      <trkpt lat="45.93346" lon="4.71611">
        <ele>185</ele>
        <time>2018-05-06T10:26:18Z</time>
      </trkpt>
      <trkpt lat="45.93349" lon="4.71618">
        <ele>185</ele>
        <time>2018-05-06T10:26:19Z</time>
      </trkpt>
      <trkpt lat="45.93352" lon="4.71625">
        <ele>185</ele>
        <time>2018-05-06T10:26:20Z</time>
      </trkpt>
      <trkpt lat="45.93355" lon="4.71632">
        <ele>185</ele>
        <time>2018-05-06T10:26:21Z</time>
      </trkpt>
      <trkpt lat="45.93356" lon="4.71641">
        <ele>185</ele>
        <time>2018-05-06T10:26:22Z</time>
      </trkpt>
      <trkpt lat="45.93361" lon="4.71645">
        <ele>185</ele>
        <time>2018-05-06T10:26:23Z</time>
      </trkpt>
      <trkpt lat="45.93364" lon="4.71652">
        <ele>185</ele>
        <time>2018-05-06T10:26:24Z</time>
      </trkpt>
      <trkpt lat="45.93368" lon="4.71661">
        <ele>185</ele>
        <time>2018-05-06T10:26:25Z</time>
      </trkpt>
      <trkpt lat="45.93372" lon="4.7167">
        <ele>185</ele>
        <time>2018-05-06T10:26:26Z</time>
      </trkpt>
      <trkpt lat="45.93376" lon="4.71676">
        <ele>185</ele>
        <time>2018-05-06T10:26:27Z</time>
      </trkpt>
      <trkpt lat="45.93379" lon="4.71684">
        <ele>185</ele>
        <time>2018-05-06T10:26:28Z</time>
      </trkpt>
      <trkpt lat="45.93383" lon="4.71692">
        <ele>184</ele>
        <time>2018-05-06T10:26:29Z</time>
      </trkpt>
      <trkpt lat="45.93387" lon="4.71701">
        <ele>184</ele>
        <time>2018-05-06T10:26:30Z</time>
      </trkpt>
      <trkpt lat="45.9339" lon="4.71709">
        <ele>184</ele>
        <time>2018-05-06T10:26:31Z</time>
      </trkpt>
      <trkpt lat="45.93392" lon="4.71715">
        <ele>184</ele>
        <time>2018-05-06T10:26:32Z</time>
      </trkpt>
      <trkpt lat="45.93396" lon="4.71723">
        <ele>184</ele>
        <time>2018-05-06T10:26:33Z</time>
      </trkpt>
      <trkpt lat="45.934" lon="4.71732">
        <ele>184</ele>
        <time>2018-05-06T10:26:34Z</time>
      </trkpt>
      <trkpt lat="45.93404" lon="4.71739">
        <ele>184</ele>
        <time>2018-05-06T10:26:35Z</time>
      </trkpt>
      <trkpt lat="45.93407" lon="4.71747">
        <ele>183</ele>
        <time>2018-05-06T10:26:36Z</time>
      </trkpt>
      <trkpt lat="45.9341" lon="4.71755">
        <ele>183</ele>
        <time>2018-05-06T10:26:37Z</time>
      </trkpt>
      <trkpt lat="45.93414" lon="4.71767">
        <ele>184</ele>
        <time>2018-05-06T10:26:38Z</time>
      </trkpt>
      <trkpt lat="45.93418" lon="4.71773">
        <ele>182</ele>
        <time>2018-05-06T10:26:39Z</time>
      </trkpt>
      <trkpt lat="45.93421" lon="4.71781">
        <ele>182</ele>
        <time>2018-05-06T10:26:40Z</time>
      </trkpt>
      <trkpt lat="45.93424" lon="4.71789">
        <ele>182</ele>
        <time>2018-05-06T10:26:41Z</time>
      </trkpt>
      <trkpt lat="45.93428" lon="4.71796">
        <ele>182</ele>
        <time>2018-05-06T10:26:42Z</time>
      </trkpt>
      <trkpt lat="45.93431" lon="4.71803">
        <ele>182</ele>
        <time>2018-05-06T10:26:43Z</time>
      </trkpt>
      <trkpt lat="45.93435" lon="4.71811">
        <ele>182</ele>
        <time>2018-05-06T10:26:44Z</time>
      </trkpt>
      <trkpt lat="45.93438" lon="4.71819">
        <ele>182</ele>
        <time>2018-05-06T10:26:45Z</time>
      </trkpt>
      <trkpt lat="45.93443" lon="4.71827">
        <ele>182</ele>
        <time>2018-05-06T10:26:46Z</time>
      </trkpt>
      <trkpt lat="45.93445" lon="4.71834">
        <ele>181</ele>
        <time>2018-05-06T10:26:47Z</time>
      </trkpt>
      <trkpt lat="45.93449" lon="4.71842">
        <ele>181</ele>
        <time>2018-05-06T10:26:48Z</time>
      </trkpt>
      <trkpt lat="45.93455" lon="4.71849">
        <ele>181</ele>
        <time>2018-05-06T10:26:49Z</time>
      </trkpt>
      <trkpt lat="45.93462" lon="4.71853">
        <ele>180</ele>
        <time>2018-05-06T10:26:50Z</time>
      </trkpt>
      <trkpt lat="45.93466" lon="4.71857">
        <ele>180</ele>
        <time>2018-05-06T10:26:51Z</time>
      </trkpt>
      <trkpt lat="45.93473" lon="4.71857">
        <ele>180</ele>
        <time>2018-05-06T10:26:52Z</time>
      </trkpt>
      <trkpt lat="45.9348" lon="4.71857">
        <ele>180</ele>
        <time>2018-05-06T10:26:53Z</time>
      </trkpt>
      <trkpt lat="45.93487" lon="4.71858">
        <ele>180</ele>
        <time>2018-05-06T10:26:54Z</time>
      </trkpt>
      <trkpt lat="45.93494" lon="4.71851">
        <ele>180</ele>
        <time>2018-05-06T10:26:55Z</time>
      </trkpt>
      <trkpt lat="45.93501" lon="4.71851">
        <ele>179</ele>
        <time>2018-05-06T10:26:56Z</time>
      </trkpt>
      <trkpt lat="45.93511" lon="4.71855">
        <ele>179</ele>
        <time>2018-05-06T10:26:57Z</time>
      </trkpt>
      <trkpt lat="45.93517" lon="4.71852">
        <ele>179</ele>
        <time>2018-05-06T10:26:58Z</time>
      </trkpt>
      <trkpt lat="45.93522" lon="4.71846">
        <ele>179</ele>
        <time>2018-05-06T10:26:59Z</time>
      </trkpt>
      <trkpt lat="45.93529" lon="4.71845">
        <ele>179</ele>
        <time>2018-05-06T10:27:00Z</time>
      </trkpt>
      <trkpt lat="45.93536" lon="4.71842">
        <ele>179</ele>
        <time>2018-05-06T10:27:01Z</time>
      </trkpt>
      <trkpt lat="45.93543" lon="4.71843">
        <ele>179</ele>
        <time>2018-05-06T10:27:02Z</time>
      </trkpt>
      <trkpt lat="45.9355" lon="4.71842">
        <ele>179</ele>
        <time>2018-05-06T10:27:03Z</time>
      </trkpt>
      <trkpt lat="45.93557" lon="4.7184">
        <ele>179</ele>
        <time>2018-05-06T10:27:04Z</time>
      </trkpt>
      <trkpt lat="45.93563" lon="4.71841">
        <ele>179</ele>
        <time>2018-05-06T10:27:05Z</time>
      </trkpt>
      <trkpt lat="45.93569" lon="4.71838">
        <ele>179</ele>
        <time>2018-05-06T10:27:06Z</time>
      </trkpt>
      <trkpt lat="45.93576" lon="4.71839">
        <ele>180</ele>
        <time>2018-05-06T10:27:07Z</time>
      </trkpt>
      <trkpt lat="45.93583" lon="4.71839">
        <ele>180</ele>
        <time>2018-05-06T10:27:08Z</time>
      </trkpt>
      <trkpt lat="45.93589" lon="4.71838">
        <ele>179</ele>
        <time>2018-05-06T10:27:09Z</time>
      </trkpt>
      <trkpt lat="45.93595" lon="4.71836">
        <ele>179</ele>
        <time>2018-05-06T10:27:10Z</time>
      </trkpt>
      <trkpt lat="45.936" lon="4.71831">
        <ele>179</ele>
        <time>2018-05-06T10:27:11Z</time>
      </trkpt>
      <trkpt lat="45.93604" lon="4.71827">
        <ele>179</ele>
        <time>2018-05-06T10:27:12Z</time>
      </trkpt>
      <trkpt lat="45.93609" lon="4.71822">
        <ele>179</ele>
        <time>2018-05-06T10:27:13Z</time>
      </trkpt>
      <trkpt lat="45.93613" lon="4.71817">
        <ele>179</ele>
        <time>2018-05-06T10:27:14Z</time>
      </trkpt>
      <trkpt lat="45.93618" lon="4.71813">
        <ele>179</ele>
        <time>2018-05-06T10:27:15Z</time>
      </trkpt>
      <trkpt lat="45.93623" lon="4.7181">
        <ele>179</ele>
        <time>2018-05-06T10:27:16Z</time>
      </trkpt>
      <trkpt lat="45.93627" lon="4.7181">
        <ele>179</ele>
        <time>2018-05-06T10:27:17Z</time>
      </trkpt>
      <trkpt lat="45.93634" lon="4.71809">
        <ele>179</ele>
        <time>2018-05-06T10:27:18Z</time>
      </trkpt>
      <trkpt lat="45.9364" lon="4.71807">
        <ele>179</ele>
        <time>2018-05-06T10:27:19Z</time>
      </trkpt>
      <trkpt lat="45.93647" lon="4.71801">
        <ele>179</ele>
        <time>2018-05-06T10:27:20Z</time>
      </trkpt>
      <trkpt lat="45.93653" lon="4.71799">
        <ele>179</ele>
        <time>2018-05-06T10:27:21Z</time>
      </trkpt>
      <trkpt lat="45.93658" lon="4.71798">
        <ele>179</ele>
        <time>2018-05-06T10:27:22Z</time>
      </trkpt>
      <trkpt lat="45.93663" lon="4.71797">
        <ele>179</ele>
        <time>2018-05-06T10:27:23Z</time>
      </trkpt>
      <trkpt lat="45.93668" lon="4.71795">
        <ele>177</ele>
        <time>2018-05-06T10:27:24Z</time>
      </trkpt>
      <trkpt lat="45.93675" lon="4.71795">
        <ele>177</ele>
        <time>2018-05-06T10:27:25Z</time>
      </trkpt>
      <trkpt lat="45.93684" lon="4.71796">
        <ele>177</ele>
        <time>2018-05-06T10:27:29Z</time>
      </trkpt>
      <trkpt lat="45.93686" lon="4.71797">
        <ele>177</ele>
        <time>2018-05-06T10:27:30Z</time>
      </trkpt>
      <trkpt lat="45.93689" lon="4.71802">
        <ele>177</ele>
        <time>2018-05-06T10:27:32Z</time>
      </trkpt>
      <trkpt lat="45.93691" lon="4.71814">
        <ele>176</ele>
        <time>2018-05-06T10:27:33Z</time>
      </trkpt>
      <trkpt lat="45.93691" lon="4.7182">
        <ele>176</ele>
        <time>2018-05-06T10:27:34Z</time>
      </trkpt>
      <trkpt lat="45.93692" lon="4.71827">
        <ele>176</ele>
        <time>2018-05-06T10:27:35Z</time>
      </trkpt>
      <trkpt lat="45.93692" lon="4.71838">
        <ele>175</ele>
        <time>2018-05-06T10:27:37Z</time>
      </trkpt>
      <trkpt lat="45.93695" lon="4.71844">
        <ele>175</ele>
        <time>2018-05-06T10:27:38Z</time>
      </trkpt>
      <trkpt lat="45.93695" lon="4.7185">
        <ele>175</ele>
        <time>2018-05-06T10:27:39Z</time>
      </trkpt>
      <trkpt lat="45.93692" lon="4.71858">
        <ele>175</ele>
        <time>2018-05-06T10:27:40Z</time>
      </trkpt>
      <trkpt lat="45.93689" lon="4.71869">
        <ele>175</ele>
        <time>2018-05-06T10:27:42Z</time>
      </trkpt>
      <trkpt lat="45.93686" lon="4.71874">
        <ele>175</ele>
        <time>2018-05-06T10:27:43Z</time>
      </trkpt>
      <trkpt lat="45.93683" lon="4.71879">
        <ele>175</ele>
        <time>2018-05-06T10:27:44Z</time>
      </trkpt>
      <trkpt lat="45.93682" lon="4.71886">
        <ele>175</ele>
        <time>2018-05-06T10:27:45Z</time>
      </trkpt>
      <trkpt lat="45.93679" lon="4.71893">
        <ele>175</ele>
        <time>2018-05-06T10:27:46Z</time>
      </trkpt>
      <trkpt lat="45.93676" lon="4.719">
        <ele>175</ele>
        <time>2018-05-06T10:27:47Z</time>
      </trkpt>
      <trkpt lat="45.93673" lon="4.71907">
        <ele>175</ele>
        <time>2018-05-06T10:27:48Z</time>
      </trkpt>
      <trkpt lat="45.9367" lon="4.71913">
        <ele>175</ele>
        <time>2018-05-06T10:27:49Z</time>
      </trkpt>
      <trkpt lat="45.93667" lon="4.71919">
        <ele>175</ele>
        <time>2018-05-06T10:27:50Z</time>
      </trkpt>
      <trkpt lat="45.93665" lon="4.71926">
        <ele>175</ele>
        <time>2018-05-06T10:27:51Z</time>
      </trkpt>
      <trkpt lat="45.93661" lon="4.71933">
        <ele>175</ele>
        <time>2018-05-06T10:27:52Z</time>
      </trkpt>
      <trkpt lat="45.93659" lon="4.7194">
        <ele>175</ele>
        <time>2018-05-06T10:27:53Z</time>
      </trkpt>
      <trkpt lat="45.93657" lon="4.71947">
        <ele>175</ele>
        <time>2018-05-06T10:27:54Z</time>
      </trkpt>
      <trkpt lat="45.93654" lon="4.71954">
        <ele>175</ele>
        <time>2018-05-06T10:27:55Z</time>
      </trkpt>
      <trkpt lat="45.93651" lon="4.71959">
        <ele>175</ele>
        <time>2018-05-06T10:27:56Z</time>
      </trkpt>
      <trkpt lat="45.93648" lon="4.71966">
        <ele>175</ele>
        <time>2018-05-06T10:27:57Z</time>
      </trkpt>
      <trkpt lat="45.93645" lon="4.71973">
        <ele>175</ele>
        <time>2018-05-06T10:27:58Z</time>
      </trkpt>
      <trkpt lat="45.93642" lon="4.71978">
        <ele>175</ele>
        <time>2018-05-06T10:27:59Z</time>
      </trkpt>
      <trkpt lat="45.93638" lon="4.71984">
        <ele>175</ele>
        <time>2018-05-06T10:28:00Z</time>
      </trkpt>
      <trkpt lat="45.93635" lon="4.71989">
        <ele>175</ele>
        <time>2018-05-06T10:28:01Z</time>
      </trkpt>
      <trkpt lat="45.93634" lon="4.71999">
        <ele>175</ele>
        <time>2018-05-06T10:28:02Z</time>
      </trkpt>
      <trkpt lat="45.93632" lon="4.72005">
        <ele>174</ele>
        <time>2018-05-06T10:28:03Z</time>
      </trkpt>
      <trkpt lat="45.93628" lon="4.72013">
        <ele>175</ele>
        <time>2018-05-06T10:28:04Z</time>
      </trkpt>
      <trkpt lat="45.93626" lon="4.72022">
        <ele>175</ele>
        <time>2018-05-06T10:28:05Z</time>
      </trkpt>
      <trkpt lat="45.93623" lon="4.7203">
        <ele>175</ele>
        <time>2018-05-06T10:28:06Z</time>
      </trkpt>
      <trkpt lat="45.93619" lon="4.72036">
        <ele>175</ele>
        <time>2018-05-06T10:28:07Z</time>
      </trkpt>
      <trkpt lat="45.93616" lon="4.72043">
        <ele>175</ele>
        <time>2018-05-06T10:28:08Z</time>
      </trkpt>
      <trkpt lat="45.93611" lon="4.72051">
        <ele>175</ele>
        <time>2018-05-06T10:28:09Z</time>
      </trkpt>
      <trkpt lat="45.93606" lon="4.72053">
        <ele>175</ele>
        <time>2018-05-06T10:28:10Z</time>
      </trkpt>
      <trkpt lat="45.93603" lon="4.72059">
        <ele>175</ele>
        <time>2018-05-06T10:28:11Z</time>
      </trkpt>
      <trkpt lat="45.936" lon="4.72065">
        <ele>175</ele>
        <time>2018-05-06T10:28:12Z</time>
      </trkpt>
      <trkpt lat="45.93597" lon="4.72071">
        <ele>175</ele>
        <time>2018-05-06T10:28:13Z</time>
      </trkpt>
      <trkpt lat="45.93595" lon="4.72079">
        <ele>175</ele>
        <time>2018-05-06T10:28:14Z</time>
      </trkpt>
      <trkpt lat="45.93593" lon="4.72087">
        <ele>175</ele>
        <time>2018-05-06T10:28:15Z</time>
      </trkpt>
      <trkpt lat="45.9359" lon="4.72094">
        <ele>175</ele>
        <time>2018-05-06T10:28:16Z</time>
      </trkpt>
      <trkpt lat="45.93588" lon="4.72101">
        <ele>175</ele>
        <time>2018-05-06T10:28:17Z</time>
      </trkpt>
      <trkpt lat="45.93585" lon="4.72108">
        <ele>174</ele>
        <time>2018-05-06T10:28:18Z</time>
      </trkpt>
      <trkpt lat="45.93582" lon="4.72114">
        <ele>175</ele>
        <time>2018-05-06T10:28:19Z</time>
      </trkpt>
      <trkpt lat="45.93579" lon="4.72126">
        <ele>174</ele>
        <time>2018-05-06T10:28:21Z</time>
      </trkpt>
      <trkpt lat="45.93577" lon="4.72132">
        <ele>174</ele>
        <time>2018-05-06T10:28:22Z</time>
      </trkpt>
      <trkpt lat="45.93574" lon="4.72138">
        <ele>174</ele>
        <time>2018-05-06T10:28:23Z</time>
      </trkpt>
      <trkpt lat="45.93573" lon="4.72145">
        <ele>174</ele>
        <time>2018-05-06T10:28:24Z</time>
      </trkpt>
      <trkpt lat="45.93569" lon="4.72151">
        <ele>174</ele>
        <time>2018-05-06T10:28:25Z</time>
      </trkpt>
      <trkpt lat="45.93567" lon="4.7216">
        <ele>174</ele>
        <time>2018-05-06T10:28:26Z</time>
      </trkpt>
      <trkpt lat="45.93565" lon="4.72167">
        <ele>173</ele>
        <time>2018-05-06T10:28:27Z</time>
      </trkpt>
      <trkpt lat="45.93563" lon="4.72176">
        <ele>173</ele>
        <time>2018-05-06T10:28:28Z</time>
      </trkpt>
      <trkpt lat="45.9356" lon="4.72181">
        <ele>173</ele>
        <time>2018-05-06T10:28:29Z</time>
      </trkpt>
      <trkpt lat="45.93556" lon="4.72188">
        <ele>173</ele>
        <time>2018-05-06T10:28:30Z</time>
      </trkpt>
      <trkpt lat="45.93555" lon="4.72196">
        <ele>173</ele>
        <time>2018-05-06T10:28:31Z</time>
      </trkpt>
      <trkpt lat="45.93552" lon="4.72203">
        <ele>173</ele>
        <time>2018-05-06T10:28:32Z</time>
      </trkpt>
      <trkpt lat="45.93549" lon="4.72209">
        <ele>173</ele>
        <time>2018-05-06T10:28:33Z</time>
      </trkpt>
      <trkpt lat="45.93547" lon="4.72214">
        <ele>173</ele>
        <time>2018-05-06T10:28:34Z</time>
      </trkpt>
      <trkpt lat="45.93543" lon="4.72224">
        <ele>172</ele>
        <time>2018-05-06T10:28:36Z</time>
      </trkpt>
      <trkpt lat="45.93541" lon="4.72231">
        <ele>172</ele>
        <time>2018-05-06T10:28:37Z</time>
      </trkpt>
      <trkpt lat="45.93539" lon="4.72237">
        <ele>172</ele>
        <time>2018-05-06T10:28:38Z</time>
      </trkpt>
      <trkpt lat="45.93536" lon="4.72243">
        <ele>172</ele>
        <time>2018-05-06T10:28:39Z</time>
      </trkpt>
      <trkpt lat="45.93534" lon="4.7225">
        <ele>172</ele>
        <time>2018-05-06T10:28:40Z</time>
      </trkpt>
      <trkpt lat="45.93533" lon="4.72256">
        <ele>172</ele>
        <time>2018-05-06T10:28:41Z</time>
      </trkpt>
      <trkpt lat="45.93531" lon="4.72262">
        <ele>172</ele>
        <time>2018-05-06T10:28:42Z</time>
      </trkpt>
      <trkpt lat="45.93529" lon="4.72271">
        <ele>172</ele>
        <time>2018-05-06T10:28:43Z</time>
      </trkpt>
      <trkpt lat="45.93527" lon="4.72277">
        <ele>172</ele>
        <time>2018-05-06T10:28:44Z</time>
      </trkpt>
      <trkpt lat="45.93525" lon="4.72284">
        <ele>172</ele>
        <time>2018-05-06T10:28:45Z</time>
      </trkpt>
      <trkpt lat="45.93522" lon="4.72292">
        <ele>172</ele>
        <time>2018-05-06T10:28:46Z</time>
      </trkpt>
      <trkpt lat="45.93518" lon="4.72297">
        <ele>172</ele>
        <time>2018-05-06T10:28:47Z</time>
      </trkpt>
      <trkpt lat="45.93514" lon="4.72305">
        <ele>173</ele>
        <time>2018-05-06T10:28:48Z</time>
      </trkpt>
      <trkpt lat="45.93509" lon="4.72311">
        <ele>173</ele>
        <time>2018-05-06T10:28:49Z</time>
      </trkpt>
      <trkpt lat="45.93505" lon="4.72316">
        <ele>173</ele>
        <time>2018-05-06T10:28:50Z</time>
      </trkpt>
      <trkpt lat="45.93501" lon="4.72323">
        <ele>173</ele>
        <time>2018-05-06T10:28:51Z</time>
      </trkpt>
      <trkpt lat="45.93496" lon="4.72329">
        <ele>173</ele>
        <time>2018-05-06T10:28:52Z</time>
      </trkpt>
      <trkpt lat="45.93492" lon="4.72335">
        <ele>173</ele>
        <time>2018-05-06T10:28:53Z</time>
      </trkpt>
      <trkpt lat="45.93487" lon="4.7234">
        <ele>173</ele>
        <time>2018-05-06T10:28:54Z</time>
      </trkpt>
      <trkpt lat="45.93483" lon="4.72346">
        <ele>173</ele>
        <time>2018-05-06T10:28:55Z</time>
      </trkpt>
      <trkpt lat="45.93478" lon="4.72351">
        <ele>173</ele>
        <time>2018-05-06T10:28:56Z</time>
      </trkpt>
      <trkpt lat="45.93474" lon="4.72357">
        <ele>173</ele>
        <time>2018-05-06T10:28:57Z</time>
      </trkpt>
      <trkpt lat="45.93471" lon="4.72362">
        <ele>173</ele>
        <time>2018-05-06T10:28:58Z</time>
      </trkpt>
      <trkpt lat="45.93467" lon="4.72367">
        <ele>173</ele>
        <time>2018-05-06T10:28:59Z</time>
      </trkpt>
      <trkpt lat="45.93462" lon="4.72371">
        <ele>173</ele>
        <time>2018-05-06T10:29:00Z</time>
      </trkpt>
      <trkpt lat="45.93457" lon="4.72374">
        <ele>173</ele>
        <time>2018-05-06T10:29:01Z</time>
      </trkpt>
      <trkpt lat="45.93453" lon="4.72382">
        <ele>173</ele>
        <time>2018-05-06T10:29:02Z</time>
      </trkpt>
      <trkpt lat="45.93448" lon="4.72387">
        <ele>173</ele>
        <time>2018-05-06T10:29:03Z</time>
      </trkpt>
      <trkpt lat="45.93444" lon="4.72392">
        <ele>173</ele>
        <time>2018-05-06T10:29:04Z</time>
      </trkpt>
      <trkpt lat="45.93439" lon="4.72396">
        <ele>173</ele>
        <time>2018-05-06T10:29:05Z</time>
      </trkpt>
      <trkpt lat="45.93433" lon="4.72401">
        <ele>174</ele>
        <time>2018-05-06T10:29:06Z</time>
      </trkpt>
      <trkpt lat="45.93427" lon="4.72402">
        <ele>174</ele>
        <time>2018-05-06T10:29:07Z</time>
      </trkpt>
      <trkpt lat="45.93422" lon="4.72404">
        <ele>174</ele>
        <time>2018-05-06T10:29:08Z</time>
      </trkpt>
      <trkpt lat="45.93417" lon="4.72407">
        <ele>174</ele>
        <time>2018-05-06T10:29:09Z</time>
      </trkpt>
      <trkpt lat="45.93413" lon="4.72411">
        <ele>174</ele>
        <time>2018-05-06T10:29:10Z</time>
      </trkpt>
      <trkpt lat="45.93408" lon="4.72412">
        <ele>174</ele>
        <time>2018-05-06T10:29:11Z</time>
      </trkpt>
      <trkpt lat="45.93402" lon="4.72412">
        <ele>174</ele>
        <time>2018-05-06T10:29:12Z</time>
      </trkpt>
      <trkpt lat="45.93397" lon="4.7241">
        <ele>174</ele>
        <time>2018-05-06T10:29:13Z</time>
      </trkpt>
      <trkpt lat="45.93392" lon="4.7241">
        <ele>174</ele>
        <time>2018-05-06T10:29:14Z</time>
      </trkpt>
      <trkpt lat="45.93387" lon="4.72411">
        <ele>174</ele>
        <time>2018-05-06T10:29:15Z</time>
      </trkpt>
      <trkpt lat="45.93384" lon="4.72415">
        <ele>174</ele>
        <time>2018-05-06T10:29:16Z</time>
      </trkpt>
      <trkpt lat="45.93382" lon="4.72422">
        <ele>173</ele>
        <time>2018-05-06T10:29:17Z</time>
      </trkpt>
      <trkpt lat="45.9338" lon="4.7243">
        <ele>173</ele>
        <time>2018-05-06T10:29:18Z</time>
      </trkpt>
      <trkpt lat="45.93382" lon="4.72435">
        <ele>173</ele>
        <time>2018-05-06T10:29:19Z</time>
      </trkpt>
      <trkpt lat="45.93386" lon="4.72442">
        <ele>173</ele>
        <time>2018-05-06T10:29:20Z</time>
      </trkpt>
      <trkpt lat="45.93389" lon="4.7245">
        <ele>173</ele>
        <time>2018-05-06T10:29:21Z</time>
      </trkpt>
      <trkpt lat="45.93391" lon="4.72459">
        <ele>173</ele>
        <time>2018-05-06T10:29:22Z</time>
      </trkpt>
      <trkpt lat="45.93391" lon="4.72465">
        <ele>173</ele>
        <time>2018-05-06T10:29:23Z</time>
      </trkpt>
      <trkpt lat="45.93389" lon="4.72472">
        <ele>173</ele>
        <time>2018-05-06T10:29:24Z</time>
      </trkpt>
      <trkpt lat="45.93385" lon="4.72477">
        <ele>173</ele>
        <time>2018-05-06T10:29:25Z</time>
      </trkpt>
      <trkpt lat="45.9338" lon="4.72482">
        <ele>173</ele>
        <time>2018-05-06T10:29:26Z</time>
      </trkpt>
      <trkpt lat="45.93376" lon="4.72486">
        <ele>173</ele>
        <time>2018-05-06T10:29:27Z</time>
      </trkpt>
      <trkpt lat="45.93371" lon="4.72488">
        <ele>173</ele>
        <time>2018-05-06T10:29:28Z</time>
      </trkpt>
      <trkpt lat="45.93367" lon="4.72491">
        <ele>173</ele>
        <time>2018-05-06T10:29:29Z</time>
      </trkpt>
      <trkpt lat="45.93363" lon="4.72495">
        <ele>173</ele>
        <time>2018-05-06T10:29:30Z</time>
      </trkpt>
      <trkpt lat="45.93358" lon="4.725">
        <ele>172</ele>
        <time>2018-05-06T10:29:31Z</time>
      </trkpt>
      <trkpt lat="45.93354" lon="4.72506">
        <ele>172</ele>
        <time>2018-05-06T10:29:32Z</time>
      </trkpt>
      <trkpt lat="45.93348" lon="4.72511">
        <ele>172</ele>
        <time>2018-05-06T10:29:33Z</time>
      </trkpt>
      <trkpt lat="45.93343" lon="4.72514">
        <ele>172</ele>
        <time>2018-05-06T10:29:34Z</time>
      </trkpt>
      <trkpt lat="45.93338" lon="4.72519">
        <ele>172</ele>
        <time>2018-05-06T10:29:35Z</time>
      </trkpt>
      <trkpt lat="45.93334" lon="4.72524">
        <ele>172</ele>
        <time>2018-05-06T10:29:36Z</time>
      </trkpt>
      <trkpt lat="45.93331" lon="4.72531">
        <ele>172</ele>
        <time>2018-05-06T10:29:37Z</time>
      </trkpt>
      <trkpt lat="45.93326" lon="4.72536">
        <ele>172</ele>
        <time>2018-05-06T10:29:38Z</time>
      </trkpt>
      <trkpt lat="45.93322" lon="4.72541">
        <ele>172</ele>
        <time>2018-05-06T10:29:39Z</time>
      </trkpt>
      <trkpt lat="45.93319" lon="4.72545">
        <ele>172</ele>
        <time>2018-05-06T10:29:40Z</time>
      </trkpt>
      <trkpt lat="45.93315" lon="4.72549">
        <ele>172</ele>
        <time>2018-05-06T10:29:41Z</time>
      </trkpt>
      <trkpt lat="45.9331" lon="4.72553">
        <ele>172</ele>
        <time>2018-05-06T10:29:42Z</time>
      </trkpt>
      <trkpt lat="45.93307" lon="4.72559">
        <ele>172</ele>
        <time>2018-05-06T10:29:43Z</time>
      </trkpt>
      <trkpt lat="45.93301" lon="4.72567">
        <ele>171</ele>
        <time>2018-05-06T10:29:45Z</time>
      </trkpt>
      <trkpt lat="45.93296" lon="4.72573">
        <ele>171</ele>
        <time>2018-05-06T10:29:46Z</time>
      </trkpt>
      <trkpt lat="45.93291" lon="4.7258">
        <ele>171</ele>
        <time>2018-05-06T10:29:48Z</time>
      </trkpt>
      <trkpt lat="45.93287" lon="4.72586">
        <ele>170</ele>
        <time>2018-05-06T10:29:49Z</time>
      </trkpt>
      <trkpt lat="45.93283" lon="4.7259">
        <ele>170</ele>
        <time>2018-05-06T10:29:50Z</time>
      </trkpt>
      <trkpt lat="45.93279" lon="4.72594">
        <ele>170</ele>
        <time>2018-05-06T10:29:51Z</time>
      </trkpt>
      <trkpt lat="45.93275" lon="4.72601">
        <ele>170</ele>
        <time>2018-05-06T10:29:52Z</time>
      </trkpt>
      <trkpt lat="45.93271" lon="4.72606">
        <ele>170</ele>
        <time>2018-05-06T10:29:53Z</time>
      </trkpt>
      <trkpt lat="45.93267" lon="4.72611">
        <ele>170</ele>
        <time>2018-05-06T10:29:54Z</time>
      </trkpt>
      <trkpt lat="45.93263" lon="4.72616">
        <ele>170</ele>
        <time>2018-05-06T10:29:55Z</time>
      </trkpt>
      <trkpt lat="45.93259" lon="4.72621">
        <ele>170</ele>
        <time>2018-05-06T10:29:56Z</time>
      </trkpt>
      <trkpt lat="45.93256" lon="4.72626">
        <ele>170</ele>
        <time>2018-05-06T10:29:57Z</time>
      </trkpt>
      <trkpt lat="45.93252" lon="4.72629">
        <ele>170</ele>
        <time>2018-05-06T10:29:58Z</time>
      </trkpt>
      <trkpt lat="45.93248" lon="4.72632">
        <ele>170</ele>
        <time>2018-05-06T10:29:59Z</time>
      </trkpt>
      <trkpt lat="45.93245" lon="4.72637">
        <ele>170</ele>
        <time>2018-05-06T10:30:00Z</time>
      </trkpt>
      <trkpt lat="45.9324" lon="4.72641">
        <ele>170</ele>
        <time>2018-05-06T10:30:01Z</time>
      </trkpt>
      <trkpt lat="45.93236" lon="4.72646">
        <ele>170</ele>
        <time>2018-05-06T10:30:02Z</time>
      </trkpt>
      <trkpt lat="45.93232" lon="4.72651">
        <ele>170</ele>
        <time>2018-05-06T10:30:03Z</time>
      </trkpt>
      <trkpt lat="45.93228" lon="4.72657">
        <ele>170</ele>
        <time>2018-05-06T10:30:04Z</time>
      </trkpt>
      <trkpt lat="45.93223" lon="4.72661">
        <ele>170</ele>
        <time>2018-05-06T10:30:05Z</time>
      </trkpt>
      <trkpt lat="45.93219" lon="4.72665">
        <ele>170</ele>
        <time>2018-05-06T10:30:06Z</time>
      </trkpt>
      <trkpt lat="45.93214" lon="4.72671">
        <ele>169</ele>
        <time>2018-05-06T10:30:07Z</time>
      </trkpt>
      <trkpt lat="45.9321" lon="4.72675">
        <ele>169</ele>
        <time>2018-05-06T10:30:08Z</time>
      </trkpt>
      <trkpt lat="45.93206" lon="4.72681">
        <ele>169</ele>
        <time>2018-05-06T10:30:09Z</time>
      </trkpt>
      <trkpt lat="45.93202" lon="4.72686">
        <ele>169</ele>
        <time>2018-05-06T10:30:10Z</time>
      </trkpt>
      <trkpt lat="45.93198" lon="4.72692">
        <ele>169</ele>
        <time>2018-05-06T10:30:11Z</time>
      </trkpt>
      <trkpt lat="45.93193" lon="4.72697">
        <ele>169</ele>
        <time>2018-05-06T10:30:12Z</time>
      </trkpt>
      <trkpt lat="45.93189" lon="4.72701">
        <ele>169</ele>
        <time>2018-05-06T10:30:13Z</time>
      </trkpt>
      <trkpt lat="45.93185" lon="4.72705">
        <ele>169</ele>
        <time>2018-05-06T10:30:14Z</time>
      </trkpt>
      <trkpt lat="45.9318" lon="4.72711">
        <ele>169</ele>
        <time>2018-05-06T10:30:15Z</time>
      </trkpt>
      <trkpt lat="45.93176" lon="4.72716">
        <ele>170</ele>
        <time>2018-05-06T10:30:16Z</time>
      </trkpt>
      <trkpt lat="45.93171" lon="4.72722">
        <ele>170</ele>
        <time>2018-05-06T10:30:17Z</time>
      </trkpt>
      <trkpt lat="45.93166" lon="4.72728">
        <ele>170</ele>
        <time>2018-05-06T10:30:18Z</time>
      </trkpt>
      <trkpt lat="45.93162" lon="4.72732">
        <ele>170</ele>
        <time>2018-05-06T10:30:19Z</time>
      </trkpt>
      <trkpt lat="45.93157" lon="4.72737">
        <ele>170</ele>
        <time>2018-05-06T10:30:20Z</time>
      </trkpt>
      <trkpt lat="45.93152" lon="4.72742">
        <ele>170</ele>
        <time>2018-05-06T10:30:21Z</time>
      </trkpt>
      <trkpt lat="45.93147" lon="4.72747">
        <ele>170</ele>
        <time>2018-05-06T10:30:22Z</time>
      </trkpt>
      <trkpt lat="45.93142" lon="4.72753">
        <ele>171</ele>
        <time>2018-05-06T10:30:23Z</time>
      </trkpt>
      <trkpt lat="45.93137" lon="4.72759">
        <ele>171</ele>
        <time>2018-05-06T10:30:24Z</time>
      </trkpt>
      <trkpt lat="45.93132" lon="4.72764">
        <ele>171</ele>
        <time>2018-05-06T10:30:25Z</time>
      </trkpt>
      <trkpt lat="45.93127" lon="4.7277">
        <ele>171</ele>
        <time>2018-05-06T10:30:26Z</time>
      </trkpt>
      <trkpt lat="45.93122" lon="4.72777">
        <ele>171</ele>
        <time>2018-05-06T10:30:27Z</time>
      </trkpt>
      <trkpt lat="45.93118" lon="4.72783">
        <ele>171</ele>
        <time>2018-05-06T10:30:28Z</time>
      </trkpt>
      <trkpt lat="45.93112" lon="4.72788">
        <ele>171</ele>
        <time>2018-05-06T10:30:29Z</time>
      </trkpt>
      <trkpt lat="45.93108" lon="4.72794">
        <ele>171</ele>
        <time>2018-05-06T10:30:30Z</time>
      </trkpt>
      <trkpt lat="45.93103" lon="4.72798">
        <ele>171</ele>
        <time>2018-05-06T10:30:31Z</time>
      </trkpt>
      <trkpt lat="45.93098" lon="4.72804">
        <ele>171</ele>
        <time>2018-05-06T10:30:32Z</time>
      </trkpt>
      <trkpt lat="45.93093" lon="4.7281">
        <ele>172</ele>
        <time>2018-05-06T10:30:33Z</time>
      </trkpt>
      <trkpt lat="45.93089" lon="4.72815">
        <ele>172</ele>
        <time>2018-05-06T10:30:34Z</time>
      </trkpt>
      <trkpt lat="45.93085" lon="4.72822">
        <ele>172</ele>
        <time>2018-05-06T10:30:35Z</time>
      </trkpt>
      <trkpt lat="45.93081" lon="4.72827">
        <ele>173</ele>
        <time>2018-05-06T10:30:36Z</time>
      </trkpt>
      <trkpt lat="45.93039" lon="4.72855">
        <ele>172</ele>
        <time>2018-05-06T10:30:42Z</time>
      </trkpt>
      <trkpt lat="45.93038" lon="4.72864">
        <ele>172</ele>
        <time>2018-05-06T10:30:44Z</time>
      </trkpt>
      <trkpt lat="45.93034" lon="4.72871">
        <ele>172</ele>
        <time>2018-05-06T10:30:45Z</time>
      </trkpt>
      <trkpt lat="45.9303" lon="4.72877">
        <ele>172</ele>
        <time>2018-05-06T10:30:46Z</time>
      </trkpt>
      <trkpt lat="45.93026" lon="4.72883">
        <ele>172</ele>
        <time>2018-05-06T10:30:47Z</time>
      </trkpt>
      <trkpt lat="45.93021" lon="4.72889">
        <ele>172</ele>
        <time>2018-05-06T10:30:48Z</time>
      </trkpt>
      <trkpt lat="45.93016" lon="4.72893">
        <ele>172</ele>
        <time>2018-05-06T10:30:49Z</time>
      </trkpt>
      <trkpt lat="45.93012" lon="4.72899">
        <ele>172</ele>
        <time>2018-05-06T10:30:50Z</time>
      </trkpt>
      <trkpt lat="45.93007" lon="4.72905">
        <ele>171</ele>
        <time>2018-05-06T10:30:51Z</time>
      </trkpt>
      <trkpt lat="45.93003" lon="4.72911">
        <ele>171</ele>
        <time>2018-05-06T10:30:52Z</time>
      </trkpt>
      <trkpt lat="45.92999" lon="4.72916">
        <ele>171</ele>
        <time>2018-05-06T10:30:53Z</time>
      </trkpt>
      <trkpt lat="45.92994" lon="4.72922">
        <ele>171</ele>
        <time>2018-05-06T10:30:54Z</time>
      </trkpt>
      <trkpt lat="45.9299" lon="4.72928">
        <ele>171</ele>
        <time>2018-05-06T10:30:55Z</time>
      </trkpt>
      <trkpt lat="45.92985" lon="4.72932">
        <ele>171</ele>
        <time>2018-05-06T10:30:56Z</time>
      </trkpt>
      <trkpt lat="45.9298" lon="4.72937">
        <ele>171</ele>
        <time>2018-05-06T10:30:57Z</time>
      </trkpt>
      <trkpt lat="45.92976" lon="4.72943">
        <ele>171</ele>
        <time>2018-05-06T10:30:58Z</time>
      </trkpt>
      <trkpt lat="45.92972" lon="4.72949">
        <ele>171</ele>
        <time>2018-05-06T10:30:59Z</time>
      </trkpt>
      <trkpt lat="45.92969" lon="4.72958">
        <ele>171</ele>
        <time>2018-05-06T10:31:00Z</time>
      </trkpt>
      <trkpt lat="45.92964" lon="4.72963">
        <ele>171</ele>
        <time>2018-05-06T10:31:01Z</time>
      </trkpt>
      <trkpt lat="45.9296" lon="4.72968">
        <ele>171</ele>
        <time>2018-05-06T10:31:02Z</time>
      </trkpt>
      <trkpt lat="45.92955" lon="4.72974">
        <ele>171</ele>
        <time>2018-05-06T10:31:03Z</time>
      </trkpt>
      <trkpt lat="45.9295" lon="4.72978">
        <ele>171</ele>
        <time>2018-05-06T10:31:04Z</time>
      </trkpt>
      <trkpt lat="45.92947" lon="4.72984">
        <ele>171</ele>
        <time>2018-05-06T10:31:05Z</time>
      </trkpt>
      <trkpt lat="45.92942" lon="4.72989">
        <ele>171</ele>
        <time>2018-05-06T10:31:06Z</time>
      </trkpt>
      <trkpt lat="45.92937" lon="4.72994">
        <ele>171</ele>
        <time>2018-05-06T10:31:07Z</time>
      </trkpt>
      <trkpt lat="45.92932" lon="4.73">
        <ele>172</ele>
        <time>2018-05-06T10:31:08Z</time>
      </trkpt>
      <trkpt lat="45.92928" lon="4.73004">
        <ele>172</ele>
        <time>2018-05-06T10:31:09Z</time>
      </trkpt>
      <trkpt lat="45.92924" lon="4.7301">
        <ele>172</ele>
        <time>2018-05-06T10:31:10Z</time>
      </trkpt>
      <trkpt lat="45.92919" lon="4.73016">
        <ele>172</ele>
        <time>2018-05-06T10:31:11Z</time>
      </trkpt>
      <trkpt lat="45.92914" lon="4.73022">
        <ele>172</ele>
        <time>2018-05-06T10:31:12Z</time>
      </trkpt>
      <trkpt lat="45.92909" lon="4.73027">
        <ele>172</ele>
        <time>2018-05-06T10:31:13Z</time>
      </trkpt>
      <trkpt lat="45.92905" lon="4.73033">
        <ele>172</ele>
        <time>2018-05-06T10:31:14Z</time>
      </trkpt>
      <trkpt lat="45.92901" lon="4.73039">
        <ele>172</ele>
        <time>2018-05-06T10:31:15Z</time>
      </trkpt>
      <trkpt lat="45.92898" lon="4.73044">
        <ele>172</ele>
        <time>2018-05-06T10:31:16Z</time>
      </trkpt>
      <trkpt lat="45.92894" lon="4.7305">
        <ele>172</ele>
        <time>2018-05-06T10:31:17Z</time>
      </trkpt>
      <trkpt lat="45.9289" lon="4.73056">
        <ele>172</ele>
        <time>2018-05-06T10:31:18Z</time>
      </trkpt>
      <trkpt lat="45.92888" lon="4.73062">
        <ele>172</ele>
        <time>2018-05-06T10:31:19Z</time>
      </trkpt>
      <trkpt lat="45.92884" lon="4.73068">
        <ele>172</ele>
        <time>2018-05-06T10:31:20Z</time>
      </trkpt>
      <trkpt lat="45.92881" lon="4.73073">
        <ele>172</ele>
        <time>2018-05-06T10:31:21Z</time>
      </trkpt>
      <trkpt lat="45.92879" lon="4.73082">
        <ele>172</ele>
        <time>2018-05-06T10:31:22Z</time>
      </trkpt>
      <trkpt lat="45.92875" lon="4.73087">
        <ele>172</ele>
        <time>2018-05-06T10:31:23Z</time>
      </trkpt>
      <trkpt lat="45.92872" lon="4.73092">
        <ele>172</ele>
        <time>2018-05-06T10:31:24Z</time>
      </trkpt>
      <trkpt lat="45.92869" lon="4.73098">
        <ele>172</ele>
        <time>2018-05-06T10:31:25Z</time>
      </trkpt>
      <trkpt lat="45.92862" lon="4.73106">
        <ele>171</ele>
        <time>2018-05-06T10:31:27Z</time>
      </trkpt>
      <trkpt lat="45.92857" lon="4.73107">
        <ele>171</ele>
        <time>2018-05-06T10:31:28Z</time>
      </trkpt>
      <trkpt lat="45.92854" lon="4.73102">
        <ele>171</ele>
        <time>2018-05-06T10:31:29Z</time>
      </trkpt>
      <trkpt lat="45.92851" lon="4.73094">
        <ele>171</ele>
        <time>2018-05-06T10:31:30Z</time>
      </trkpt>
      <trkpt lat="45.92848" lon="4.73086">
        <ele>171</ele>
        <time>2018-05-06T10:31:31Z</time>
      </trkpt>
      <trkpt lat="45.92847" lon="4.73078">
        <ele>171</ele>
        <time>2018-05-06T10:31:32Z</time>
      </trkpt>
      <trkpt lat="45.92847" lon="4.73071">
        <ele>171</ele>
        <time>2018-05-06T10:31:33Z</time>
      </trkpt>
      <trkpt lat="45.92845" lon="4.73064">
        <ele>171</ele>
        <time>2018-05-06T10:31:34Z</time>
      </trkpt>
      <trkpt lat="45.92842" lon="4.73055">
        <ele>171</ele>
        <time>2018-05-06T10:31:35Z</time>
      </trkpt>
      <trkpt lat="45.9284" lon="4.73048">
        <ele>171</ele>
        <time>2018-05-06T10:31:36Z</time>
      </trkpt>
      <trkpt lat="45.92838" lon="4.7304">
        <ele>171</ele>
        <time>2018-05-06T10:31:37Z</time>
      </trkpt>
      <trkpt lat="45.92837" lon="4.73034">
        <ele>171</ele>
        <time>2018-05-06T10:31:38Z</time>
      </trkpt>
      <trkpt lat="45.92836" lon="4.73028">
        <ele>171</ele>
        <time>2018-05-06T10:31:39Z</time>
      </trkpt>
      <trkpt lat="45.92835" lon="4.73021">
        <ele>171</ele>
        <time>2018-05-06T10:31:40Z</time>
      </trkpt>
      <trkpt lat="45.92834" lon="4.73015">
        <ele>171</ele>
        <time>2018-05-06T10:31:41Z</time>
      </trkpt>
      <trkpt lat="45.92834" lon="4.73008">
        <ele>170</ele>
        <time>2018-05-06T10:31:42Z</time>
      </trkpt>
      <trkpt lat="45.92833" lon="4.72996">
        <ele>170</ele>
        <time>2018-05-06T10:31:44Z</time>
      </trkpt>
      <trkpt lat="45.92832" lon="4.72988">
        <ele>170</ele>
        <time>2018-05-06T10:31:45Z</time>
      </trkpt>
      <trkpt lat="45.92831" lon="4.72981">
        <ele>170</ele>
        <time>2018-05-06T10:31:46Z</time>
      </trkpt>
      <trkpt lat="45.9283" lon="4.72973">
        <ele>170</ele>
        <time>2018-05-06T10:31:47Z</time>
      </trkpt>
      <trkpt lat="45.9283" lon="4.7296">
        <ele>170</ele>
        <time>2018-05-06T10:31:49Z</time>
      </trkpt>
      <trkpt lat="45.92829" lon="4.72952">
        <ele>170</ele>
        <time>2018-05-06T10:31:50Z</time>
      </trkpt>
      <trkpt lat="45.92826" lon="4.72947">
        <ele>170</ele>
        <time>2018-05-06T10:31:51Z</time>
      </trkpt>
      <trkpt lat="45.92825" lon="4.7294">
        <ele>170</ele>
        <time>2018-05-06T10:31:52Z</time>
      </trkpt>
      <trkpt lat="45.92824" lon="4.72932">
        <ele>170</ele>
        <time>2018-05-06T10:31:53Z</time>
      </trkpt>
      <trkpt lat="45.92823" lon="4.72924">
        <ele>170</ele>
        <time>2018-05-06T10:31:54Z</time>
      </trkpt>
      <trkpt lat="45.92823" lon="4.72915">
        <ele>170</ele>
        <time>2018-05-06T10:31:55Z</time>
      </trkpt>
      <trkpt lat="45.92822" lon="4.72909">
        <ele>170</ele>
        <time>2018-05-06T10:31:56Z</time>
      </trkpt>
      <trkpt lat="45.92821" lon="4.72901">
        <ele>170</ele>
        <time>2018-05-06T10:31:57Z</time>
      </trkpt>
      <trkpt lat="45.92819" lon="4.72894">
        <ele>170</ele>
        <time>2018-05-06T10:31:58Z</time>
      </trkpt>
      <trkpt lat="45.92817" lon="4.72885">
        <ele>170</ele>
        <time>2018-05-06T10:31:59Z</time>
      </trkpt>
      <trkpt lat="45.92816" lon="4.72877">
        <ele>170</ele>
        <time>2018-05-06T10:32:00Z</time>
      </trkpt>
      <trkpt lat="45.92814" lon="4.72869">
        <ele>170</ele>
        <time>2018-05-06T10:32:01Z</time>
      </trkpt>
      <trkpt lat="45.92812" lon="4.72861">
        <ele>170</ele>
        <time>2018-05-06T10:32:02Z</time>
      </trkpt>
      <trkpt lat="45.92811" lon="4.72853">
        <ele>170</ele>
        <time>2018-05-06T10:32:03Z</time>
      </trkpt>
      <trkpt lat="45.9281" lon="4.72847">
        <ele>170</ele>
        <time>2018-05-06T10:32:04Z</time>
      </trkpt>
      <trkpt lat="45.92809" lon="4.7284">
        <ele>170</ele>
        <time>2018-05-06T10:32:05Z</time>
      </trkpt>
      <trkpt lat="45.92807" lon="4.72832">
        <ele>171</ele>
        <time>2018-05-06T10:32:06Z</time>
      </trkpt>
      <trkpt lat="45.92806" lon="4.72825">
        <ele>171</ele>
        <time>2018-05-06T10:32:07Z</time>
      </trkpt>
      <trkpt lat="45.92804" lon="4.72818">
        <ele>171</ele>
        <time>2018-05-06T10:32:08Z</time>
      </trkpt>
      <trkpt lat="45.92802" lon="4.72807">
        <ele>171</ele>
        <time>2018-05-06T10:32:10Z</time>
      </trkpt>
      <trkpt lat="45.92799" lon="4.72798">
        <ele>171</ele>
        <time>2018-05-06T10:32:11Z</time>
      </trkpt>
      <trkpt lat="45.92792" lon="4.72791">
        <ele>171</ele>
        <time>2018-05-06T10:32:13Z</time>
      </trkpt>
      <trkpt lat="45.92787" lon="4.7279">
        <ele>170</ele>
        <time>2018-05-06T10:32:14Z</time>
      </trkpt>
      <trkpt lat="45.92783" lon="4.72797">
        <ele>170</ele>
        <time>2018-05-06T10:32:16Z</time>
      </trkpt>
      <trkpt lat="45.9278" lon="4.72799">
        <ele>170</ele>
        <time>2018-05-06T10:32:17Z</time>
      </trkpt>
      <trkpt lat="45.92775" lon="4.72802">
        <ele>170</ele>
        <time>2018-05-06T10:32:18Z</time>
      </trkpt>
      <trkpt lat="45.92771" lon="4.72805">
        <ele>170</ele>
        <time>2018-05-06T10:32:19Z</time>
      </trkpt>
      <trkpt lat="45.92767" lon="4.72808">
        <ele>170</ele>
        <time>2018-05-06T10:32:20Z</time>
      </trkpt>
      <trkpt lat="45.92763" lon="4.72811">
        <ele>170</ele>
        <time>2018-05-06T10:32:21Z</time>
      </trkpt>
      <trkpt lat="45.92758" lon="4.72815">
        <ele>170</ele>
        <time>2018-05-06T10:32:22Z</time>
      </trkpt>
      <trkpt lat="45.92754" lon="4.72817">
        <ele>170</ele>
        <time>2018-05-06T10:32:23Z</time>
      </trkpt>
      <trkpt lat="45.9275" lon="4.72821">
        <ele>169</ele>
        <time>2018-05-06T10:32:24Z</time>
      </trkpt>
      <trkpt lat="45.92745" lon="4.72823">
        <ele>169</ele>
        <time>2018-05-06T10:32:25Z</time>
      </trkpt>
      <trkpt lat="45.92741" lon="4.72828">
        <ele>169</ele>
        <time>2018-05-06T10:32:26Z</time>
      </trkpt>
      <trkpt lat="45.92737" lon="4.72831">
        <ele>169</ele>
        <time>2018-05-06T10:32:27Z</time>
      </trkpt>
      <trkpt lat="45.92732" lon="4.72834">
        <ele>169</ele>
        <time>2018-05-06T10:32:28Z</time>
      </trkpt>
      <trkpt lat="45.92728" lon="4.72837">
        <ele>169</ele>
        <time>2018-05-06T10:32:29Z</time>
      </trkpt>
      <trkpt lat="45.92723" lon="4.72841">
        <ele>169</ele>
        <time>2018-05-06T10:32:30Z</time>
      </trkpt>
      <trkpt lat="45.92718" lon="4.72845">
        <ele>169</ele>
        <time>2018-05-06T10:32:31Z</time>
      </trkpt>
      <trkpt lat="45.92713" lon="4.72848">
        <ele>169</ele>
        <time>2018-05-06T10:32:32Z</time>
      </trkpt>
      <trkpt lat="45.92708" lon="4.72852">
        <ele>169</ele>
        <time>2018-05-06T10:32:33Z</time>
      </trkpt>
      <trkpt lat="45.92704" lon="4.72858">
        <ele>169</ele>
        <time>2018-05-06T10:32:34Z</time>
      </trkpt>
      <trkpt lat="45.92701" lon="4.72863">
        <ele>169</ele>
        <time>2018-05-06T10:32:35Z</time>
      </trkpt>
      <trkpt lat="45.92696" lon="4.72866">
        <ele>169</ele>
        <time>2018-05-06T10:32:36Z</time>
      </trkpt>
      <trkpt lat="45.92691" lon="4.7287">
        <ele>169</ele>
        <time>2018-05-06T10:32:37Z</time>
      </trkpt>
      <trkpt lat="45.92686" lon="4.72874">
        <ele>169</ele>
        <time>2018-05-06T10:32:38Z</time>
      </trkpt>
      <trkpt lat="45.92681" lon="4.72878">
        <ele>170</ele>
        <time>2018-05-06T10:32:39Z</time>
      </trkpt>
      <trkpt lat="45.92675" lon="4.72882">
        <ele>170</ele>
        <time>2018-05-06T10:32:40Z</time>
      </trkpt>
      <trkpt lat="45.92671" lon="4.72886">
        <ele>170</ele>
        <time>2018-05-06T10:32:41Z</time>
      </trkpt>
      <trkpt lat="45.92666" lon="4.72891">
        <ele>170</ele>
        <time>2018-05-06T10:32:42Z</time>
      </trkpt>
      <trkpt lat="45.9266" lon="4.72895">
        <ele>170</ele>
        <time>2018-05-06T10:32:43Z</time>
      </trkpt>
      <trkpt lat="45.92655" lon="4.72898">
        <ele>170</ele>
        <time>2018-05-06T10:32:44Z</time>
      </trkpt>
      <trkpt lat="45.9265" lon="4.72903">
        <ele>170</ele>
        <time>2018-05-06T10:32:45Z</time>
      </trkpt>
      <trkpt lat="45.92645" lon="4.72907">
        <ele>170</ele>
        <time>2018-05-06T10:32:46Z</time>
      </trkpt>
      <trkpt lat="45.92642" lon="4.72913">
        <ele>169</ele>
        <time>2018-05-06T10:32:47Z</time>
      </trkpt>
      <trkpt lat="45.92637" lon="4.72918">
        <ele>170</ele>
        <time>2018-05-06T10:32:48Z</time>
      </trkpt>
      <trkpt lat="45.92632" lon="4.72921">
        <ele>170</ele>
        <time>2018-05-06T10:32:49Z</time>
      </trkpt>
      <trkpt lat="45.92627" lon="4.72925">
        <ele>170</ele>
        <time>2018-05-06T10:32:50Z</time>
      </trkpt>
      <trkpt lat="45.92622" lon="4.72929">
        <ele>169</ele>
        <time>2018-05-06T10:32:51Z</time>
      </trkpt>
      <trkpt lat="45.92617" lon="4.72933">
        <ele>169</ele>
        <time>2018-05-06T10:32:52Z</time>
      </trkpt>
      <trkpt lat="45.92611" lon="4.72938">
        <ele>169</ele>
        <time>2018-05-06T10:32:53Z</time>
      </trkpt>
      <trkpt lat="45.92606" lon="4.72943">
        <ele>169</ele>
        <time>2018-05-06T10:32:54Z</time>
      </trkpt>
      <trkpt lat="45.92601" lon="4.72949">
        <ele>169</ele>
        <time>2018-05-06T10:32:55Z</time>
      </trkpt>
      <trkpt lat="45.92597" lon="4.72954">
        <ele>169</ele>
        <time>2018-05-06T10:32:56Z</time>
      </trkpt>
      <trkpt lat="45.92592" lon="4.7296">
        <ele>169</ele>
        <time>2018-05-06T10:32:57Z</time>
      </trkpt>
      <trkpt lat="45.92589" lon="4.72965">
        <ele>169</ele>
        <time>2018-05-06T10:32:58Z</time>
      </trkpt>
      <trkpt lat="45.92585" lon="4.7297">
        <ele>169</ele>
        <time>2018-05-06T10:32:59Z</time>
      </trkpt>
      <trkpt lat="45.9258" lon="4.72976">
        <ele>169</ele>
        <time>2018-05-06T10:33:00Z</time>
      </trkpt>
      <trkpt lat="45.92576" lon="4.7298">
        <ele>169</ele>
        <time>2018-05-06T10:33:01Z</time>
      </trkpt>
      <trkpt lat="45.92572" lon="4.72984">
        <ele>169</ele>
        <time>2018-05-06T10:33:02Z</time>
      </trkpt>
      <trkpt lat="45.92568" lon="4.72989">
        <ele>169</ele>
        <time>2018-05-06T10:33:03Z</time>
      </trkpt>
      <trkpt lat="45.92564" lon="4.72994">
        <ele>169</ele>
        <time>2018-05-06T10:33:04Z</time>
      </trkpt>
      <trkpt lat="45.92558" lon="4.72997">
        <ele>169</ele>
        <time>2018-05-06T10:33:05Z</time>
      </trkpt>
      <trkpt lat="45.92553" lon="4.73001">
        <ele>169</ele>
        <time>2018-05-06T10:33:06Z</time>
      </trkpt>
      <trkpt lat="45.92548" lon="4.73006">
        <ele>169</ele>
        <time>2018-05-06T10:33:07Z</time>
      </trkpt>
      <trkpt lat="45.92542" lon="4.73012">
        <ele>169</ele>
        <time>2018-05-06T10:33:08Z</time>
      </trkpt>
      <trkpt lat="45.92537" lon="4.73016">
        <ele>169</ele>
        <time>2018-05-06T10:33:09Z</time>
      </trkpt>
      <trkpt lat="45.92532" lon="4.73022">
        <ele>169</ele>
        <time>2018-05-06T10:33:10Z</time>
      </trkpt>
      <trkpt lat="45.92526" lon="4.73025">
        <ele>169</ele>
        <time>2018-05-06T10:33:11Z</time>
      </trkpt>
      <trkpt lat="45.92522" lon="4.73031">
        <ele>169</ele>
        <time>2018-05-06T10:33:12Z</time>
      </trkpt>
      <trkpt lat="45.92518" lon="4.73036">
        <ele>169</ele>
        <time>2018-05-06T10:33:13Z</time>
      </trkpt>
      <trkpt lat="45.92512" lon="4.73039">
        <ele>169</ele>
        <time>2018-05-06T10:33:14Z</time>
      </trkpt>
      <trkpt lat="45.92507" lon="4.73043">
        <ele>170</ele>
        <time>2018-05-06T10:33:15Z</time>
      </trkpt>
      <trkpt lat="45.92502" lon="4.73048">
        <ele>170</ele>
        <time>2018-05-06T10:33:16Z</time>
      </trkpt>
      <trkpt lat="45.92497" lon="4.73052">
        <ele>170</ele>
        <time>2018-05-06T10:33:17Z</time>
      </trkpt>
      <trkpt lat="45.92492" lon="4.73056">
        <ele>170</ele>
        <time>2018-05-06T10:33:18Z</time>
      </trkpt>
      <trkpt lat="45.92488" lon="4.7306">
        <ele>170</ele>
        <time>2018-05-06T10:33:19Z</time>
      </trkpt>
      <trkpt lat="45.92483" lon="4.73064">
        <ele>170</ele>
        <time>2018-05-06T10:33:20Z</time>
      </trkpt>
      <trkpt lat="45.92478" lon="4.73068">
        <ele>170</ele>
        <time>2018-05-06T10:33:21Z</time>
      </trkpt>
      <trkpt lat="45.92473" lon="4.73071">
        <ele>170</ele>
        <time>2018-05-06T10:33:22Z</time>
      </trkpt>
      <trkpt lat="45.92467" lon="4.73076">
        <ele>170</ele>
        <time>2018-05-06T10:33:23Z</time>
      </trkpt>
      <trkpt lat="45.92463" lon="4.7308">
        <ele>170</ele>
        <time>2018-05-06T10:33:24Z</time>
      </trkpt>
      <trkpt lat="45.92458" lon="4.73084">
        <ele>170</ele>
        <time>2018-05-06T10:33:25Z</time>
      </trkpt>
      <trkpt lat="45.92453" lon="4.73088">
        <ele>170</ele>
        <time>2018-05-06T10:33:26Z</time>
      </trkpt>
      <trkpt lat="45.92448" lon="4.73093">
        <ele>170</ele>
        <time>2018-05-06T10:33:27Z</time>
      </trkpt>
      <trkpt lat="45.92443" lon="4.73096">
        <ele>170</ele>
        <time>2018-05-06T10:33:28Z</time>
      </trkpt>
      <trkpt lat="45.92438" lon="4.731">
        <ele>170</ele>
        <time>2018-05-06T10:33:29Z</time>
      </trkpt>
      <trkpt lat="45.92431" lon="4.73106">
        <ele>170</ele>
        <time>2018-05-06T10:33:31Z</time>
      </trkpt>
      <trkpt lat="45.92427" lon="4.73112">
        <ele>170</ele>
        <time>2018-05-06T10:33:32Z</time>
      </trkpt>
      <trkpt lat="45.92423" lon="4.73116">
        <ele>170</ele>
        <time>2018-05-06T10:33:33Z</time>
      </trkpt>
      <trkpt lat="45.92419" lon="4.73119">
        <ele>170</ele>
        <time>2018-05-06T10:33:34Z</time>
      </trkpt>
      <trkpt lat="45.92414" lon="4.73123">
        <ele>171</ele>
        <time>2018-05-06T10:33:35Z</time>
      </trkpt>
      <trkpt lat="45.92412" lon="4.73131">
        <ele>171</ele>
        <time>2018-05-06T10:33:36Z</time>
      </trkpt>
      <trkpt lat="45.92409" lon="4.73139">
        <ele>171</ele>
        <time>2018-05-06T10:33:37Z</time>
      </trkpt>
      <trkpt lat="45.92409" lon="4.73146">
        <ele>171</ele>
        <time>2018-05-06T10:33:38Z</time>
      </trkpt>
      <trkpt lat="45.92409" lon="4.73154">
        <ele>170</ele>
        <time>2018-05-06T10:33:39Z</time>
      </trkpt>
      <trkpt lat="45.92409" lon="4.73161">
        <ele>170</ele>
        <time>2018-05-06T10:33:40Z</time>
      </trkpt>
      <trkpt lat="45.92409" lon="4.73174">
        <ele>170</ele>
        <time>2018-05-06T10:33:42Z</time>
      </trkpt>
      <trkpt lat="45.9241" lon="4.73181">
        <ele>171</ele>
        <time>2018-05-06T10:33:43Z</time>
      </trkpt>
      <trkpt lat="45.92411" lon="4.73188">
        <ele>171</ele>
        <time>2018-05-06T10:33:44Z</time>
      </trkpt>
      <trkpt lat="45.92411" lon="4.73194">
        <ele>171</ele>
        <time>2018-05-06T10:33:45Z</time>
      </trkpt>
      <trkpt lat="45.92411" lon="4.73201">
        <ele>171</ele>
        <time>2018-05-06T10:33:46Z</time>
      </trkpt>
      <trkpt lat="45.92411" lon="4.73208">
        <ele>171</ele>
        <time>2018-05-06T10:33:47Z</time>
      </trkpt>
      <trkpt lat="45.92411" lon="4.73216">
        <ele>171</ele>
        <time>2018-05-06T10:33:48Z</time>
      </trkpt>
      <trkpt lat="45.92411" lon="4.73222">
        <ele>171</ele>
        <time>2018-05-06T10:33:49Z</time>
      </trkpt>
      <trkpt lat="45.92412" lon="4.7323">
        <ele>171</ele>
        <time>2018-05-06T10:33:50Z</time>
      </trkpt>
      <trkpt lat="45.92412" lon="4.73237">
        <ele>171</ele>
        <time>2018-05-06T10:33:51Z</time>
      </trkpt>
      <trkpt lat="45.92412" lon="4.73244">
        <ele>171</ele>
        <time>2018-05-06T10:33:52Z</time>
      </trkpt>
      <trkpt lat="45.92413" lon="4.73252">
        <ele>171</ele>
        <time>2018-05-06T10:33:53Z</time>
      </trkpt>
      <trkpt lat="45.92413" lon="4.73258">
        <ele>171</ele>
        <time>2018-05-06T10:33:54Z</time>
      </trkpt>
      <trkpt lat="45.92414" lon="4.73267">
        <ele>171</ele>
        <time>2018-05-06T10:33:55Z</time>
      </trkpt>
      <trkpt lat="45.92415" lon="4.73274">
        <ele>171</ele>
        <time>2018-05-06T10:33:56Z</time>
      </trkpt>
      <trkpt lat="45.92415" lon="4.73281">
        <ele>171</ele>
        <time>2018-05-06T10:33:57Z</time>
      </trkpt>
      <trkpt lat="45.92416" lon="4.73288">
        <ele>171</ele>
        <time>2018-05-06T10:33:58Z</time>
      </trkpt>
      <trkpt lat="45.92416" lon="4.73295">
        <ele>171</ele>
        <time>2018-05-06T10:33:59Z</time>
      </trkpt>
      <trkpt lat="45.92416" lon="4.73302">
        <ele>171</ele>
        <time>2018-05-06T10:34:00Z</time>
      </trkpt>
      <trkpt lat="45.92416" lon="4.73312">
        <ele>171</ele>
        <time>2018-05-06T10:34:01Z</time>
      </trkpt>
      <trkpt lat="45.92417" lon="4.73319">
        <ele>171</ele>
        <time>2018-05-06T10:34:02Z</time>
      </trkpt>
      <trkpt lat="45.92417" lon="4.73327">
        <ele>171</ele>
        <time>2018-05-06T10:34:03Z</time>
      </trkpt>
      <trkpt lat="45.92418" lon="4.73334">
        <ele>171</ele>
        <time>2018-05-06T10:34:04Z</time>
      </trkpt>
      <trkpt lat="45.92418" lon="4.73343">
        <ele>171</ele>
        <time>2018-05-06T10:34:05Z</time>
      </trkpt>
      <trkpt lat="45.92419" lon="4.7335">
        <ele>171</ele>
        <time>2018-05-06T10:34:06Z</time>
      </trkpt>
      <trkpt lat="45.92419" lon="4.73358">
        <ele>171</ele>
        <time>2018-05-06T10:34:07Z</time>
      </trkpt>
      <trkpt lat="45.9242" lon="4.73367">
        <ele>172</ele>
        <time>2018-05-06T10:34:08Z</time>
      </trkpt>
      <trkpt lat="45.92421" lon="4.73376">
        <ele>172</ele>
        <time>2018-05-06T10:34:09Z</time>
      </trkpt>
      <trkpt lat="45.92423" lon="4.73381">
        <ele>172</ele>
        <time>2018-05-06T10:34:10Z</time>
      </trkpt>
      <trkpt lat="45.92425" lon="4.73389">
        <ele>172</ele>
        <time>2018-05-06T10:34:11Z</time>
      </trkpt>
      <trkpt lat="45.92427" lon="4.73395">
        <ele>172</ele>
        <time>2018-05-06T10:34:12Z</time>
      </trkpt>
      <trkpt lat="45.92429" lon="4.73403">
        <ele>172</ele>
        <time>2018-05-06T10:34:13Z</time>
      </trkpt>
      <trkpt lat="45.92432" lon="4.73409">
        <ele>172</ele>
        <time>2018-05-06T10:34:14Z</time>
      </trkpt>
      <trkpt lat="45.92436" lon="4.73415">
        <ele>172</ele>
        <time>2018-05-06T10:34:15Z</time>
      </trkpt>
      <trkpt lat="45.92439" lon="4.73419">
        <ele>173</ele>
        <time>2018-05-06T10:34:16Z</time>
      </trkpt>
      <trkpt lat="45.92444" lon="4.73421">
        <ele>173</ele>
        <time>2018-05-06T10:34:17Z</time>
      </trkpt>
      <trkpt lat="45.9245" lon="4.73428">
        <ele>173</ele>
        <time>2018-05-06T10:34:19Z</time>
      </trkpt>
      <trkpt lat="45.92453" lon="4.73432">
        <ele>173</ele>
        <time>2018-05-06T10:34:20Z</time>
      </trkpt>
      <trkpt lat="45.92457" lon="4.73437">
        <ele>173</ele>
        <time>2018-05-06T10:34:21Z</time>
      </trkpt>
      <trkpt lat="45.92462" lon="4.73444">
        <ele>173</ele>
        <time>2018-05-06T10:34:22Z</time>
      </trkpt>
      <trkpt lat="45.92465" lon="4.7345">
        <ele>173</ele>
        <time>2018-05-06T10:34:23Z</time>
      </trkpt>
      <trkpt lat="45.92466" lon="4.73457">
        <ele>173</ele>
        <time>2018-05-06T10:34:24Z</time>
      </trkpt>
      <trkpt lat="45.92465" lon="4.73464">
        <ele>173</ele>
        <time>2018-05-06T10:34:25Z</time>
      </trkpt>
      <trkpt lat="45.92465" lon="4.73472">
        <ele>173</ele>
        <time>2018-05-06T10:34:26Z</time>
      </trkpt>
      <trkpt lat="45.92466" lon="4.73479">
        <ele>173</ele>
        <time>2018-05-06T10:34:27Z</time>
      </trkpt>
      <trkpt lat="45.92466" lon="4.73486">
        <ele>173</ele>
        <time>2018-05-06T10:34:28Z</time>
      </trkpt>
      <trkpt lat="45.92466" lon="4.73493">
        <ele>173</ele>
        <time>2018-05-06T10:34:29Z</time>
      </trkpt>
      <trkpt lat="45.92466" lon="4.73501">
        <ele>174</ele>
        <time>2018-05-06T10:34:30Z</time>
      </trkpt>
      <trkpt lat="45.92466" lon="4.73509">
        <ele>174</ele>
        <time>2018-05-06T10:34:31Z</time>
      </trkpt>
      <trkpt lat="45.92466" lon="4.73516">
        <ele>174</ele>
        <time>2018-05-06T10:34:32Z</time>
      </trkpt>
      <trkpt lat="45.92466" lon="4.73524">
        <ele>174</ele>
        <time>2018-05-06T10:34:33Z</time>
      </trkpt>
      <trkpt lat="45.92466" lon="4.7353">
        <ele>174</ele>
        <time>2018-05-06T10:34:34Z</time>
      </trkpt>
      <trkpt lat="45.92465" lon="4.73542">
        <ele>173</ele>
        <time>2018-05-06T10:34:36Z</time>
      </trkpt>
      <trkpt lat="45.92465" lon="4.73547">
        <ele>173</ele>
        <time>2018-05-06T10:34:37Z</time>
      </trkpt>
      <trkpt lat="45.92465" lon="4.73559">
        <ele>173</ele>
        <time>2018-05-06T10:34:39Z</time>
      </trkpt>
      <trkpt lat="45.92465" lon="4.73565">
        <ele>173</ele>
        <time>2018-05-06T10:34:40Z</time>
      </trkpt>
      <trkpt lat="45.92465" lon="4.73573">
        <ele>173</ele>
        <time>2018-05-06T10:34:41Z</time>
      </trkpt>
      <trkpt lat="45.92465" lon="4.73579">
        <ele>173</ele>
        <time>2018-05-06T10:34:42Z</time>
      </trkpt>
      <trkpt lat="45.92465" lon="4.73586">
        <ele>174</ele>
        <time>2018-05-06T10:34:43Z</time>
      </trkpt>
      <trkpt lat="45.92465" lon="4.73594">
        <ele>174</ele>
        <time>2018-05-06T10:34:44Z</time>
      </trkpt>
      <trkpt lat="45.92465" lon="4.73601">
        <ele>174</ele>
        <time>2018-05-06T10:34:45Z</time>
      </trkpt>
      <trkpt lat="45.92465" lon="4.73608">
        <ele>174</ele>
        <time>2018-05-06T10:34:46Z</time>
      </trkpt>
      <trkpt lat="45.92467" lon="4.73618">
        <ele>174</ele>
        <time>2018-05-06T10:34:47Z</time>
      </trkpt>
      <trkpt lat="45.92468" lon="4.73626">
        <ele>174</ele>
        <time>2018-05-06T10:34:48Z</time>
      </trkpt>
      <trkpt lat="45.92468" lon="4.73633">
        <ele>174</ele>
        <time>2018-05-06T10:34:49Z</time>
      </trkpt>
      <trkpt lat="45.92468" lon="4.73644">
        <ele>174</ele>
        <time>2018-05-06T10:34:50Z</time>
      </trkpt>
      <trkpt lat="45.92469" lon="4.73651">
        <ele>174</ele>
        <time>2018-05-06T10:34:51Z</time>
      </trkpt>
      <trkpt lat="45.92468" lon="4.73657">
        <ele>174</ele>
        <time>2018-05-06T10:34:52Z</time>
      </trkpt>
      <trkpt lat="45.92468" lon="4.73664">
        <ele>174</ele>
        <time>2018-05-06T10:34:53Z</time>
      </trkpt>
      <trkpt lat="45.92468" lon="4.7367">
        <ele>174</ele>
        <time>2018-05-06T10:34:54Z</time>
      </trkpt>
      <trkpt lat="45.92469" lon="4.73676">
        <ele>174</ele>
        <time>2018-05-06T10:34:55Z</time>
      </trkpt>
      <trkpt lat="45.92468" lon="4.73683">
        <ele>174</ele>
        <time>2018-05-06T10:34:56Z</time>
      </trkpt>
      <trkpt lat="45.92468" lon="4.7369">
        <ele>174</ele>
        <time>2018-05-06T10:34:57Z</time>
      </trkpt>
      <trkpt lat="45.92467" lon="4.73697">
        <ele>174</ele>
        <time>2018-05-06T10:34:58Z</time>
      </trkpt>
      <trkpt lat="45.92464" lon="4.73708">
        <ele>174</ele>
        <time>2018-05-06T10:35:03Z</time>
      </trkpt>
      <trkpt lat="45.92464" lon="4.73709">
        <ele>174</ele>
        <time>2018-05-06T10:35:04Z</time>
      </trkpt>
      <trkpt lat="45.92459" lon="4.73709">
        <ele>174</ele>
        <time>2018-05-06T10:35:40.832Z</time>
      </trkpt>
    </trkseg>
  </trk>
</gpx>